﻿<?xml version="1.0" encoding="utf-8"?><gpx creator="Garmin Desktop App" version="1.1" xsi:schemaLocation="http://www.topografix.com/GPX/1/1 http://www.topografix.com/GPX/1/1/gpx.xsd http://www.garmin.com/xmlschemas/WaypointExtension/v1 http://www8.garmin.com/xmlschemas/WaypointExtensionv1.xsd http://www.garmin.com/xmlschemas/TrackPointExtension/v1 http://www.garmin.com/xmlschemas/TrackPointExtensionv1.xsd http://www.garmin.com/xmlschemas/GpxExtensions/v3 http://www8.garmin.com/xmlschemas/GpxExtensionsv3.xsd http://www.garmin.com/xmlschemas/ActivityExtension/v1 http://www8.garmin.com/xmlschemas/ActivityExtensionv1.xsd http://www.garmin.com/xmlschemas/AdventuresExtensions/v1 http://www8.garmin.com/xmlschemas/AdventuresExtensionv1.xsd http://www.garmin.com/xmlschemas/PressureExtension/v1 http://www.garmin.com/xmlschemas/PressureExtensionv1.xsd http://www.garmin.com/xmlschemas/TripExtensions/v1 http://www.garmin.com/xmlschemas/TripExtensionsv1.xsd http://www.garmin.com/xmlschemas/TripMetaDataExtensions/v1 http://www.garmin.com/xmlschemas/TripMetaDataExtensionsv1.xsd http://www.garmin.com/xmlschemas/ViaPointTransportationModeExtensions/v1 http://www.garmin.com/xmlschemas/ViaPointTransportationModeExtensionsv1.xsd http://www.garmin.com/xmlschemas/CreationTimeExtension/v1 http://www.garmin.com/xmlschemas/CreationTimeExtensionsv1.xsd http://www.garmin.com/xmlschemas/AccelerationExtension/v1 http://www.garmin.com/xmlschemas/AccelerationExtensionv1.xsd http://www.garmin.com/xmlschemas/PowerExtension/v1 http://www.garmin.com/xmlschemas/PowerExtensionv1.xsd http://www.garmin.com/xmlschemas/VideoExtension/v1 http://www.garmin.com/xmlschemas/VideoExtensionv1.xsd" xmlns="http://www.topografix.com/GPX/1/1" xmlns:xsi="http://www.w3.org/2001/XMLSchema-instance" xmlns:wptx1="http://www.garmin.com/xmlschemas/WaypointExtension/v1" xmlns:gpxtrx="http://www.garmin.com/xmlschemas/GpxExtensions/v3" xmlns:gpxtpx="http://www.garmin.com/xmlschemas/TrackPointExtension/v1" xmlns:gpxx="http://www.garmin.com/xmlschemas/GpxExtensions/v3" xmlns:trp="http://www.garmin.com/xmlschemas/TripExtensions/v1" xmlns:adv="http://www.garmin.com/xmlschemas/AdventuresExtensions/v1" xmlns:prs="http://www.garmin.com/xmlschemas/PressureExtension/v1" xmlns:tmd="http://www.garmin.com/xmlschemas/TripMetaDataExtensions/v1" xmlns:vptm="http://www.garmin.com/xmlschemas/ViaPointTransportationModeExtensions/v1" xmlns:ctx="http://www.garmin.com/xmlschemas/CreationTimeExtension/v1" xmlns:gpxacc="http://www.garmin.com/xmlschemas/AccelerationExtension/v1" xmlns:gpxpx="http://www.garmin.com/xmlschemas/PowerExtension/v1" xmlns:vidx1="http://www.garmin.com/xmlschemas/VideoExtension/v1">

  <metadata>
    <link href="http://www.garmin.com">
      <text>Garmin International</text>
    </link>
    <time>2023-08-27T16:21:25Z</time>
    <bounds maxlat="57.68880195915699" maxlon="-6.145456004887819" minlat="57.287420025095344" minlon="-6.438848013058305" />
  </metadata>

  <trk>
    <name>Track vom: 2023-08-27 09:15</name>
    <extensions>
      <gpxx:TrackExtension>
        <gpxx:DisplayColor>DarkGray</gpxx:DisplayColor>
      </gpxx:TrackExtension>
    </extensions>
    <trkseg>
      <trkpt lat="57.434956021606922" lon="-6.289314022287726">
        <ele>52.530000000000001</ele>
        <time>2023-08-27T08:15:51Z</time>
      </trkpt>
      <trkpt lat="57.434913022443652" lon="-6.289332965388894">
        <ele>69.349999999999994</ele>
        <time>2023-08-27T08:16:44Z</time>
      </trkpt>
      <trkpt lat="57.434914028272033" lon="-6.289317039772868">
        <ele>66.469999999999999</ele>
        <time>2023-08-27T08:17:03Z</time>
      </trkpt>
      <trkpt lat="57.434919979423285" lon="-6.289152000099421">
        <ele>63.579999999999998</ele>
        <time>2023-08-27T08:17:08Z</time>
      </trkpt>
      <trkpt lat="57.434698026627302" lon="-6.288694012910128">
        <ele>60.700000000000003</ele>
        <time>2023-08-27T08:17:20Z</time>
      </trkpt>
      <trkpt lat="57.434593001380563" lon="-6.288149021565914">
        <ele>59.259999999999998</ele>
        <time>2023-08-27T08:17:31Z</time>
      </trkpt>
      <trkpt lat="57.434593001380563" lon="-6.288149021565914">
        <ele>59.259999999999998</ele>
        <time>2023-08-27T08:17:32Z</time>
      </trkpt>
      <trkpt lat="57.434483030810952" lon="-6.28740998916328">
        <ele>62.140000000000001</ele>
        <time>2023-08-27T08:17:40Z</time>
      </trkpt>
      <trkpt lat="57.434097966179252" lon="-6.285897977650166">
        <ele>67.430000000000007</ele>
        <time>2023-08-27T08:17:49Z</time>
      </trkpt>
      <trkpt lat="57.434022026136518" lon="-6.285280985757709">
        <ele>69.349999999999994</ele>
        <time>2023-08-27T08:17:52Z</time>
      </trkpt>
      <trkpt lat="57.434005010873079" lon="-6.284870021045208">
        <ele>69.829999999999998</ele>
        <time>2023-08-27T08:17:54Z</time>
      </trkpt>
      <trkpt lat="57.433996964246035" lon="-6.284674974158406">
        <ele>70.310000000000002</ele>
        <time>2023-08-27T08:17:55Z</time>
      </trkpt>
      <trkpt lat="57.433911971747875" lon="-6.282590981572866">
        <ele>74.640000000000001</ele>
        <time>2023-08-27T08:18:05Z</time>
      </trkpt>
      <trkpt lat="57.433736035600305" lon="-6.280456027016044">
        <ele>76.560000000000002</ele>
        <time>2023-08-27T08:18:15Z</time>
      </trkpt>
      <trkpt lat="57.433679038658738" lon="-6.280327029526234">
        <ele>76.560000000000002</ele>
        <time>2023-08-27T08:18:16Z</time>
      </trkpt>
      <trkpt lat="57.433611983433366" lon="-6.280183028429747">
        <ele>76.560000000000002</ele>
        <time>2023-08-27T08:18:17Z</time>
      </trkpt>
      <trkpt lat="57.433540988713503" lon="-6.280029974877834">
        <ele>76.560000000000002</ele>
        <time>2023-08-27T08:18:18Z</time>
      </trkpt>
      <trkpt lat="57.433465970680118" lon="-6.27986996434629">
        <ele>76.079999999999998</ele>
        <time>2023-08-27T08:18:19Z</time>
      </trkpt>
      <trkpt lat="57.43301996961236" lon="-6.278796996921301">
        <ele>74.159999999999997</ele>
        <time>2023-08-27T08:18:25Z</time>
      </trkpt>
      <trkpt lat="57.432100977748632" lon="-6.276600016281009">
        <ele>69.829999999999998</ele>
        <time>2023-08-27T08:18:37Z</time>
      </trkpt>
      <trkpt lat="57.431223979219794" lon="-6.275298977270722">
        <ele>63.579999999999998</ele>
        <time>2023-08-27T08:18:46Z</time>
      </trkpt>
      <trkpt lat="57.430303981527686" lon="-6.27475499175489">
        <ele>65.510000000000005</ele>
        <time>2023-08-27T08:18:54Z</time>
      </trkpt>
      <trkpt lat="57.429352970793843" lon="-6.273719994351268">
        <ele>69.349999999999994</ele>
        <time>2023-08-27T08:19:03Z</time>
      </trkpt>
      <trkpt lat="57.428395003080368" lon="-6.272448962554336">
        <ele>74.640000000000001</ele>
        <time>2023-08-27T08:19:12Z</time>
      </trkpt>
      <trkpt lat="57.427439969033003" lon="-6.27123199403286">
        <ele>80.409999999999997</ele>
        <time>2023-08-27T08:19:21Z</time>
      </trkpt>
      <trkpt lat="57.426631031557918" lon="-6.270260028541088">
        <ele>81.370000000000005</ele>
        <time>2023-08-27T08:19:29Z</time>
      </trkpt>
      <trkpt lat="57.426171032711864" lon="-6.269499035552144">
        <ele>84.730000000000004</ele>
        <time>2023-08-27T08:19:35Z</time>
      </trkpt>
      <trkpt lat="57.426086040213704" lon="-6.269417982548475">
        <ele>85.209999999999994</ele>
        <time>2023-08-27T08:19:36Z</time>
      </trkpt>
      <trkpt lat="57.425997024402022" lon="-6.269341958686709">
        <ele>85.689999999999998</ele>
        <time>2023-08-27T08:19:37Z</time>
      </trkpt>
      <trkpt lat="57.425677003338933" lon="-6.269121011719108">
        <ele>87.620000000000005</ele>
        <time>2023-08-27T08:19:40Z</time>
      </trkpt>
      <trkpt lat="57.424787012860179" lon="-6.268579037860036">
        <ele>89.060000000000002</ele>
        <time>2023-08-27T08:19:47Z</time>
      </trkpt>
      <trkpt lat="57.424678970128298" lon="-6.268493961542845">
        <ele>89.540000000000006</ele>
        <time>2023-08-27T08:19:48Z</time>
      </trkpt>
      <trkpt lat="57.424592971801758" lon="-6.268369993194938">
        <ele>90.019999999999996</ele>
        <time>2023-08-27T08:19:49Z</time>
      </trkpt>
      <trkpt lat="57.424505967646837" lon="-6.26824501901865">
        <ele>90.5</ele>
        <time>2023-08-27T08:19:50Z</time>
      </trkpt>
      <trkpt lat="57.424426004290581" lon="-6.268130019307137">
        <ele>90.980000000000004</ele>
        <time>2023-08-27T08:19:51Z</time>
      </trkpt>
      <trkpt lat="57.423777999356389" lon="-6.267040958628058">
        <ele>94.349999999999994</ele>
        <time>2023-08-27T08:19:58Z</time>
      </trkpt>
      <trkpt lat="57.423109039664268" lon="-6.26581896096468">
        <ele>96.269999999999996</ele>
        <time>2023-08-27T08:20:06Z</time>
      </trkpt>
      <trkpt lat="57.42246899753809" lon="-6.264543989673257">
        <ele>95.790000000000006</ele>
        <time>2023-08-27T08:20:14Z</time>
      </trkpt>
      <trkpt lat="57.422418035566807" lon="-6.264366041868925">
        <ele>96.269999999999996</ele>
        <time>2023-08-27T08:20:15Z</time>
      </trkpt>
      <trkpt lat="57.421889975667" lon="-6.262517999857664">
        <ele>93.870000000000005</ele>
        <time>2023-08-27T08:20:24Z</time>
      </trkpt>
      <trkpt lat="57.421820992603898" lon="-6.262369975447655">
        <ele>93.870000000000005</ele>
        <time>2023-08-27T08:20:25Z</time>
      </trkpt>
      <trkpt lat="57.421730970963836" lon="-6.262232009321451">
        <ele>93.870000000000005</ele>
        <time>2023-08-27T08:20:26Z</time>
      </trkpt>
      <trkpt lat="57.421297039836645" lon="-6.261565983295441">
        <ele>90.980000000000004</ele>
        <time>2023-08-27T08:20:30Z</time>
      </trkpt>
      <trkpt lat="57.421188997104764" lon="-6.261376971378923">
        <ele>90.019999999999996</ele>
        <time>2023-08-27T08:20:31Z</time>
      </trkpt>
      <trkpt lat="57.42109302431345" lon="-6.261162981390953">
        <ele>89.060000000000002</ele>
        <time>2023-08-27T08:20:32Z</time>
      </trkpt>
      <trkpt lat="57.420736961066723" lon="-6.260326970368624">
        <ele>89.060000000000002</ele>
        <time>2023-08-27T08:20:36Z</time>
      </trkpt>
      <trkpt lat="57.420702008530498" lon="-6.260109040886164">
        <ele>89.540000000000006</ele>
        <time>2023-08-27T08:20:37Z</time>
      </trkpt>
      <trkpt lat="57.420668983832002" lon="-6.259901002049446">
        <ele>90.019999999999996</ele>
        <time>2023-08-27T08:20:38Z</time>
      </trkpt>
      <trkpt lat="57.420675018802285" lon="-6.259680977091193">
        <ele>90.019999999999996</ele>
        <time>2023-08-27T08:20:39Z</time>
      </trkpt>
      <trkpt lat="57.420682981610298" lon="-6.259449971839786">
        <ele>90.019999999999996</ele>
        <time>2023-08-27T08:20:40Z</time>
      </trkpt>
      <trkpt lat="57.420702008530498" lon="-6.259211003780365">
        <ele>89.540000000000006</ele>
        <time>2023-08-27T08:20:41Z</time>
      </trkpt>
      <trkpt lat="57.420737966895103" lon="-6.258958037942648">
        <ele>89.060000000000002</ele>
        <time>2023-08-27T08:20:42Z</time>
      </trkpt>
      <trkpt lat="57.420968972146511" lon="-6.256441958248615">
        <ele>86.180000000000007</ele>
        <time>2023-08-27T08:20:51Z</time>
      </trkpt>
      <trkpt lat="57.421097969636321" lon="-6.253525977954269">
        <ele>90.019999999999996</ele>
        <time>2023-08-27T08:21:02Z</time>
      </trkpt>
      <trkpt lat="57.42111699655652" lon="-6.250671017915011">
        <ele>93.870000000000005</ele>
        <time>2023-08-27T08:21:13Z</time>
      </trkpt>
      <trkpt lat="57.421157984063029" lon="-6.248643016442657">
        <ele>87.620000000000005</ele>
        <time>2023-08-27T08:21:21Z</time>
      </trkpt>
      <trkpt lat="57.421139040961862" lon="-6.248428020626307">
        <ele>87.140000000000001</ele>
        <time>2023-08-27T08:21:22Z</time>
      </trkpt>
      <trkpt lat="57.421120014041662" lon="-6.248196009546518">
        <ele>86.659999999999997</ele>
        <time>2023-08-27T08:21:23Z</time>
      </trkpt>
      <trkpt lat="57.42092396132648" lon="-6.245906995609403">
        <ele>82.810000000000002</ele>
        <time>2023-08-27T08:21:32Z</time>
      </trkpt>
      <trkpt lat="57.420606035739183" lon="-6.243861978873611">
        <ele>79.450000000000003</ele>
        <time>2023-08-27T08:21:40Z</time>
      </trkpt>
      <trkpt lat="57.420544009655714" lon="-6.243642037734389">
        <ele>78.969999999999999</ele>
        <time>2023-08-27T08:21:41Z</time>
      </trkpt>
      <trkpt lat="57.420477038249373" lon="-6.243416983634234">
        <ele>78.969999999999999</ele>
        <time>2023-08-27T08:21:42Z</time>
      </trkpt>
      <trkpt lat="57.419939003884792" lon="-6.241429969668388">
        <ele>77.519999999999996</ele>
        <time>2023-08-27T08:21:51Z</time>
      </trkpt>
      <trkpt lat="57.419428965076804" lon="-6.239945031702519">
        <ele>74.159999999999997</ele>
        <time>2023-08-27T08:21:58Z</time>
      </trkpt>
      <trkpt lat="57.418578034266829" lon="-6.237584017217159">
        <ele>70.310000000000002</ele>
        <time>2023-08-27T08:22:09Z</time>
      </trkpt>
      <trkpt lat="57.418509973213077" lon="-6.237359968945384">
        <ele>69.829999999999998</ele>
        <time>2023-08-27T08:22:10Z</time>
      </trkpt>
      <trkpt lat="57.418375024572015" lon="-6.236915979534388">
        <ele>69.349999999999994</ele>
        <time>2023-08-27T08:22:12Z</time>
      </trkpt>
      <trkpt lat="57.418308975175023" lon="-6.236697966232896">
        <ele>68.390000000000001</ele>
        <time>2023-08-27T08:22:13Z</time>
      </trkpt>
      <trkpt lat="57.417839001864195" lon="-6.234144000336528">
        <ele>64.549999999999997</ele>
        <time>2023-08-27T08:22:24Z</time>
      </trkpt>
      <trkpt lat="57.417326029390097" lon="-6.231169011443853">
        <ele>67.430000000000007</ele>
        <time>2023-08-27T08:22:36Z</time>
      </trkpt>
      <trkpt lat="57.417016988620162" lon="-6.228667013347149">
        <ele>73.200000000000003</ele>
        <time>2023-08-27T08:22:46Z</time>
      </trkpt>
      <trkpt lat="57.416790006682277" lon="-6.227191966027021">
        <ele>74.640000000000001</ele>
        <time>2023-08-27T08:22:54Z</time>
      </trkpt>
      <trkpt lat="57.416523965075612" lon="-6.225882964208722">
        <ele>76.079999999999998</ele>
        <time>2023-08-27T08:23:01Z</time>
      </trkpt>
      <trkpt lat="57.416338976472616" lon="-6.224744031205773">
        <ele>75.120000000000005</ele>
        <time>2023-08-27T08:23:06Z</time>
      </trkpt>
      <trkpt lat="57.416008980944753" lon="-6.222276985645294">
        <ele>67.909999999999997</ele>
        <time>2023-08-27T08:23:17Z</time>
      </trkpt>
      <trkpt lat="57.415473964065313" lon="-6.219830978661776">
        <ele>67.430000000000007</ele>
        <time>2023-08-27T08:23:28Z</time>
      </trkpt>
      <trkpt lat="57.415007008239627" lon="-6.217999029904604">
        <ele>66.469999999999999</ele>
        <time>2023-08-27T08:23:36Z</time>
      </trkpt>
      <trkpt lat="57.414945987984538" lon="-6.217535007745028">
        <ele>66.469999999999999</ele>
        <time>2023-08-27T08:23:38Z</time>
      </trkpt>
      <trkpt lat="57.414893014356494" lon="-6.216839980334044">
        <ele>65.030000000000001</ele>
        <time>2023-08-27T08:23:41Z</time>
      </trkpt>
      <trkpt lat="57.414877004921436" lon="-6.216629007831216">
        <ele>65.030000000000001</ele>
        <time>2023-08-27T08:23:42Z</time>
      </trkpt>
      <trkpt lat="57.414810033515096" lon="-6.216438990086317">
        <ele>64.549999999999997</ele>
        <time>2023-08-27T08:23:43Z</time>
      </trkpt>
      <trkpt lat="57.414731997996569" lon="-6.216257018968463">
        <ele>63.579999999999998</ele>
        <time>2023-08-27T08:23:44Z</time>
      </trkpt>
      <trkpt lat="57.414652034640312" lon="-6.216068007051945">
        <ele>62.619999999999997</ele>
        <time>2023-08-27T08:23:45Z</time>
      </trkpt>
      <trkpt lat="57.414026996120811" lon="-6.214450970292091">
        <ele>56.859999999999999</ele>
        <time>2023-08-27T08:23:54Z</time>
      </trkpt>
      <trkpt lat="57.413732958957553" lon="-6.213077008724213">
        <ele>51.090000000000003</ele>
        <time>2023-08-27T08:24:03Z</time>
      </trkpt>
      <trkpt lat="57.413655007258058" lon="-6.212421040982008">
        <ele>47.719999999999999</ele>
        <time>2023-08-27T08:24:07Z</time>
      </trkpt>
      <trkpt lat="57.413664981722832" lon="-6.212250972166657">
        <ele>47.240000000000002</ele>
        <time>2023-08-27T08:24:08Z</time>
      </trkpt>
      <trkpt lat="57.413718039169908" lon="-6.21180203743279">
        <ele>46.759999999999998</ele>
        <time>2023-08-27T08:24:11Z</time>
      </trkpt>
      <trkpt lat="57.413732958957553" lon="-6.211667004972696">
        <ele>46.280000000000001</ele>
        <time>2023-08-27T08:24:12Z</time>
      </trkpt>
      <trkpt lat="57.41387696005404" lon="-6.210816996172071">
        <ele>45.32</ele>
        <time>2023-08-27T08:24:18Z</time>
      </trkpt>
      <trkpt lat="57.413903027772903" lon="-6.210671989247203">
        <ele>45.32</ele>
        <time>2023-08-27T08:24:19Z</time>
      </trkpt>
      <trkpt lat="57.413959018886089" lon="-6.210354985669255">
        <ele>44.840000000000003</ele>
        <time>2023-08-27T08:24:21Z</time>
      </trkpt>
      <trkpt lat="57.413989026099443" lon="-6.210186006501317">
        <ele>44.840000000000003</ele>
        <time>2023-08-27T08:24:22Z</time>
      </trkpt>
      <trkpt lat="57.414019033312798" lon="-6.210018033161759">
        <ele>44.359999999999999</ele>
        <time>2023-08-27T08:24:23Z</time>
      </trkpt>
      <trkpt lat="57.414112994447351" lon="-6.209559040144086">
        <ele>42.439999999999998</ele>
        <time>2023-08-27T08:24:26Z</time>
      </trkpt>
      <trkpt lat="57.414146019145846" lon="-6.20944001711905">
        <ele>41.950000000000003</ele>
        <time>2023-08-27T08:24:27Z</time>
      </trkpt>
      <trkpt lat="57.414178960025311" lon="-6.209324011579156">
        <ele>41.950000000000003</ele>
        <time>2023-08-27T08:24:28Z</time>
      </trkpt>
      <trkpt lat="57.414604006335139" lon="-6.208177031949163">
        <ele>34.259999999999998</ele>
        <time>2023-08-27T08:24:37Z</time>
      </trkpt>
      <trkpt lat="57.415067022666335" lon="-6.207364993169904">
        <ele>28.5</ele>
        <time>2023-08-27T08:24:47Z</time>
      </trkpt>
      <trkpt lat="57.415089989081025" lon="-6.207258962094784">
        <ele>26.57</ele>
        <time>2023-08-27T08:24:53Z</time>
      </trkpt>
      <trkpt lat="57.415066016837955" lon="-6.207211017608643">
        <ele>26.09</ele>
        <time>2023-08-27T08:24:54Z</time>
      </trkpt>
      <trkpt lat="57.415024023503065" lon="-6.207138011232019">
        <ele>25.609999999999999</ele>
        <time>2023-08-27T08:24:55Z</time>
      </trkpt>
      <trkpt lat="57.414831994101405" lon="-6.206804998219013">
        <ele>23.690000000000001</ele>
        <time>2023-08-27T08:24:59Z</time>
      </trkpt>
      <trkpt lat="57.4147579818964" lon="-6.206676000729203">
        <ele>23.690000000000001</ele>
        <time>2023-08-27T08:25:01Z</time>
      </trkpt>
      <trkpt lat="57.414744989946485" lon="-6.206653034314513">
        <ele>23.690000000000001</ele>
        <time>2023-08-27T08:25:02Z</time>
      </trkpt>
      <trkpt lat="57.414637031033635" lon="-6.206481959670782">
        <ele>24.170000000000002</ele>
        <time>2023-08-27T08:25:06Z</time>
      </trkpt>
      <trkpt lat="57.414569975808263" lon="-6.20632597245276">
        <ele>21.77</ele>
        <time>2023-08-27T08:25:16Z</time>
      </trkpt>
      <trkpt lat="57.414569975808263" lon="-6.20632597245276">
        <ele>21.77</ele>
        <time>2023-08-27T08:25:50Z</time>
      </trkpt>
      <trkpt lat="57.414501998573542" lon="-6.205893969163299">
        <ele>39.07</ele>
        <time>2023-08-27T08:29:22Z</time>
      </trkpt>
      <trkpt lat="57.414527982473373" lon="-6.206084992736578">
        <ele>49.649999999999999</ele>
        <time>2023-08-27T08:29:49Z</time>
      </trkpt>
      <trkpt lat="57.414569975808263" lon="-6.20621700771153">
        <ele>46.280000000000001</ele>
        <time>2023-08-27T08:30:38Z</time>
      </trkpt>
      <trkpt lat="57.414521025493741" lon="-6.206182977184653">
        <ele>39.549999999999997</ele>
        <time>2023-08-27T08:31:21Z</time>
      </trkpt>
      <trkpt lat="57.414521025493741" lon="-6.206179959699512">
        <ele>39.07</ele>
        <time>2023-08-27T08:32:14Z</time>
      </trkpt>
      <trkpt lat="57.414523037150502" lon="-6.20617501437664">
        <ele>39.07</ele>
        <time>2023-08-27T08:33:02Z</time>
      </trkpt>
      <trkpt lat="57.414488000795245" lon="-6.206150036305189">
        <ele>38.109999999999999</ele>
        <time>2023-08-27T08:33:17Z</time>
      </trkpt>
      <trkpt lat="57.414491018280387" lon="-6.206146012991667">
        <ele>37.630000000000003</ele>
        <time>2023-08-27T08:33:31Z</time>
      </trkpt>
      <trkpt lat="57.414464028552175" lon="-6.206081975251436">
        <ele>37.149999999999999</ele>
        <time>2023-08-27T08:33:32Z</time>
      </trkpt>
      <trkpt lat="57.414423041045666" lon="-6.205988014116883">
        <ele>37.149999999999999</ele>
        <time>2023-08-27T08:33:33Z</time>
      </trkpt>
      <trkpt lat="57.414165968075395" lon="-6.204560995101929">
        <ele>33.780000000000001</ele>
        <time>2023-08-27T08:33:42Z</time>
      </trkpt>
      <trkpt lat="57.413792973384261" lon="-6.202405001968145">
        <ele>27.050000000000001</ele>
        <time>2023-08-27T08:33:54Z</time>
      </trkpt>
      <trkpt lat="57.413664981722832" lon="-6.20209202170372">
        <ele>25.129999999999999</ele>
        <time>2023-08-27T08:33:56Z</time>
      </trkpt>
      <trkpt lat="57.413531038910151" lon="-6.201818017289043">
        <ele>22.73</ele>
        <time>2023-08-27T08:33:58Z</time>
      </trkpt>
      <trkpt lat="57.413391983136535" lon="-6.201609978452325">
        <ele>19.84</ele>
        <time>2023-08-27T08:34:00Z</time>
      </trkpt>
      <trkpt lat="57.413258040323853" lon="-6.201407974585891">
        <ele>16.960000000000001</ele>
        <time>2023-08-27T08:34:02Z</time>
      </trkpt>
      <trkpt lat="57.413134993985295" lon="-6.201223991811276">
        <ele>14.08</ele>
        <time>2023-08-27T08:34:04Z</time>
      </trkpt>
      <trkpt lat="57.413010019809008" lon="-6.200943030416966">
        <ele>7.35</ele>
        <time>2023-08-27T08:34:09Z</time>
      </trkpt>
      <trkpt lat="57.413028040900826" lon="-6.200601970776916">
        <ele>6.39</ele>
        <time>2023-08-27T08:34:10Z</time>
      </trkpt>
      <trkpt lat="57.413028040900826" lon="-6.200601970776916">
        <ele>5.91</ele>
        <time>2023-08-27T08:34:11Z</time>
      </trkpt>
      <trkpt lat="57.413055030629039" lon="-6.200515972450376">
        <ele>5.42</ele>
        <time>2023-08-27T08:34:12Z</time>
      </trkpt>
      <trkpt lat="57.413099035620689" lon="-6.200379012152553">
        <ele>5.42</ele>
        <time>2023-08-27T08:34:13Z</time>
      </trkpt>
      <trkpt lat="57.413146980106831" lon="-6.200227970257402">
        <ele>5.42</ele>
        <time>2023-08-27T08:34:14Z</time>
      </trkpt>
      <trkpt lat="57.413241025060415" lon="-6.199482986703515">
        <ele>5.91</ele>
        <time>2023-08-27T08:34:18Z</time>
      </trkpt>
      <trkpt lat="57.413263991475105" lon="-6.199249969795346">
        <ele>6.39</ele>
        <time>2023-08-27T08:34:19Z</time>
      </trkpt>
      <trkpt lat="57.413245970383286" lon="-6.198994992300868">
        <ele>6.87</ele>
        <time>2023-08-27T08:34:21Z</time>
      </trkpt>
      <trkpt lat="57.413234990090132" lon="-6.198844034224749">
        <ele>7.35</ele>
        <time>2023-08-27T08:34:22Z</time>
      </trkpt>
      <trkpt lat="57.413224009796977" lon="-6.198695003986359">
        <ele>7.35</ele>
        <time>2023-08-27T08:34:23Z</time>
      </trkpt>
      <trkpt lat="57.413202971220016" lon="-6.198399038985372">
        <ele>8.310000000000001</ele>
        <time>2023-08-27T08:34:25Z</time>
      </trkpt>
      <trkpt lat="57.413184028118849" lon="-6.198270041495562">
        <ele>8.789999999999999</ele>
        <time>2023-08-27T08:34:26Z</time>
      </trkpt>
      <trkpt lat="57.413112027570605" lon="-6.197910038754344">
        <ele>9.75</ele>
        <time>2023-08-27T08:34:29Z</time>
      </trkpt>
      <trkpt lat="57.413096018135548" lon="-6.197828985750675">
        <ele>10.23</ele>
        <time>2023-08-27T08:34:30Z</time>
      </trkpt>
      <trkpt lat="57.413079002872109" lon="-6.197747010737658">
        <ele>10.710000000000001</ele>
        <time>2023-08-27T08:34:31Z</time>
      </trkpt>
      <trkpt lat="57.412812961265445" lon="-6.196717964485288">
        <ele>12.630000000000001</ele>
        <time>2023-08-27T08:34:39Z</time>
      </trkpt>
      <trkpt lat="57.41280198097229" lon="-6.196531970053911">
        <ele>12.630000000000001</ele>
        <time>2023-08-27T08:34:40Z</time>
      </trkpt>
      <trkpt lat="57.412792006507516" lon="-6.196359973400831">
        <ele>13.119999999999999</ele>
        <time>2023-08-27T08:34:41Z</time>
      </trkpt>
      <trkpt lat="57.412739032879472" lon="-6.195716997608542">
        <ele>15.039999999999999</ele>
        <time>2023-08-27T08:34:45Z</time>
      </trkpt>
      <trkpt lat="57.412722017616034" lon="-6.19556000456214">
        <ele>15.52</ele>
        <time>2023-08-27T08:34:46Z</time>
      </trkpt>
      <trkpt lat="57.412706008180976" lon="-6.19540804065764">
        <ele>16</ele>
        <time>2023-08-27T08:34:47Z</time>
      </trkpt>
      <trkpt lat="57.412663009017706" lon="-6.195264039561153">
        <ele>16.48</ele>
        <time>2023-08-27T08:34:48Z</time>
      </trkpt>
      <trkpt lat="57.412619004026055" lon="-6.195116015151143">
        <ele>17.440000000000001</ele>
        <time>2023-08-27T08:34:49Z</time>
      </trkpt>
      <trkpt lat="57.412579022347927" lon="-6.19498098269105">
        <ele>18.399999999999999</ele>
        <time>2023-08-27T08:34:50Z</time>
      </trkpt>
      <trkpt lat="57.412539040669799" lon="-6.194848967716098">
        <ele>18.879999999999999</ele>
        <time>2023-08-27T08:34:51Z</time>
      </trkpt>
      <trkpt lat="57.412459999322891" lon="-6.194582004100084">
        <ele>19.84</ele>
        <time>2023-08-27T08:34:53Z</time>
      </trkpt>
      <trkpt lat="57.412420017644763" lon="-6.194449989125133">
        <ele>20.32</ele>
        <time>2023-08-27T08:34:54Z</time>
      </trkpt>
      <trkpt lat="57.412389004603028" lon="-6.194296013563871">
        <ele>20.809999999999999</ele>
        <time>2023-08-27T08:34:55Z</time>
      </trkpt>
      <trkpt lat="57.412365032359958" lon="-6.194148994982243">
        <ele>21.289999999999999</ele>
        <time>2023-08-27T08:34:56Z</time>
      </trkpt>
      <trkpt lat="57.412340976297855" lon="-6.194000970572233">
        <ele>21.77</ele>
        <time>2023-08-27T08:34:57Z</time>
      </trkpt>
      <trkpt lat="57.412164034321904" lon="-6.192759023979306">
        <ele>22.73</ele>
        <time>2023-08-27T08:35:06Z</time>
      </trkpt>
      <trkpt lat="57.412148024886847" lon="-6.192641006782651">
        <ele>22.73</ele>
        <time>2023-08-27T08:35:07Z</time>
      </trkpt>
      <trkpt lat="57.412170991301537" lon="-6.192585015669465">
        <ele>22.73</ele>
        <time>2023-08-27T08:35:08Z</time>
      </trkpt>
      <trkpt lat="57.412216002121568" lon="-6.192521983757615">
        <ele>22.73</ele>
        <time>2023-08-27T08:35:09Z</time>
      </trkpt>
      <trkpt lat="57.412260007113218" lon="-6.192500023171306">
        <ele>23.210000000000001</ele>
        <time>2023-08-27T08:35:10Z</time>
      </trkpt>
      <trkpt lat="57.41230602376163" lon="-6.192476972937584">
        <ele>23.210000000000001</ele>
        <time>2023-08-27T08:35:11Z</time>
      </trkpt>
      <trkpt lat="57.41256401874125" lon="-6.192347975447774">
        <ele>22.25</ele>
        <time>2023-08-27T08:35:18Z</time>
      </trkpt>
      <trkpt lat="57.412913963198662" lon="-6.192110013216734">
        <ele>22.25</ele>
        <time>2023-08-27T08:35:26Z</time>
      </trkpt>
      <trkpt lat="57.412922009825706" lon="-6.192054022103548">
        <ele>22.25</ele>
        <time>2023-08-27T08:35:27Z</time>
      </trkpt>
      <trkpt lat="57.412923015654087" lon="-6.191968023777008">
        <ele>22.25</ele>
        <time>2023-08-27T08:35:28Z</time>
      </trkpt>
      <trkpt lat="57.412925027310848" lon="-6.191874984651804">
        <ele>22.73</ele>
        <time>2023-08-27T08:35:29Z</time>
      </trkpt>
      <trkpt lat="57.412927038967609" lon="-6.191769037395716">
        <ele>22.73</ele>
        <time>2023-08-27T08:35:30Z</time>
      </trkpt>
      <trkpt lat="57.412928966805339" lon="-6.191662000492215">
        <ele>22.73</ele>
        <time>2023-08-27T08:35:31Z</time>
      </trkpt>
      <trkpt lat="57.4129309784621" lon="-6.191554041579366">
        <ele>22.73</ele>
        <time>2023-08-27T08:35:32Z</time>
      </trkpt>
      <trkpt lat="57.412933995947242" lon="-6.191441975533962">
        <ele>23.210000000000001</ele>
        <time>2023-08-27T08:35:33Z</time>
      </trkpt>
      <trkpt lat="57.412936007604003" lon="-6.19132898747921">
        <ele>22.73</ele>
        <time>2023-08-27T08:35:34Z</time>
      </trkpt>
      <trkpt lat="57.412938019260764" lon="-6.191221028566361">
        <ele>22.73</ele>
        <time>2023-08-27T08:35:35Z</time>
      </trkpt>
      <trkpt lat="57.412957968190312" lon="-6.190911987796426">
        <ele>23.210000000000001</ele>
        <time>2023-08-27T08:35:38Z</time>
      </trkpt>
      <trkpt lat="57.412971965968609" lon="-6.190820038318634">
        <ele>23.210000000000001</ele>
        <time>2023-08-27T08:35:39Z</time>
      </trkpt>
      <trkpt lat="57.413060981780291" lon="-6.190262977033854">
        <ele>23.210000000000001</ele>
        <time>2023-08-27T08:35:44Z</time>
      </trkpt>
      <trkpt lat="57.413079002872109" lon="-6.190148983150721">
        <ele>23.210000000000001</ele>
        <time>2023-08-27T08:35:45Z</time>
      </trkpt>
      <trkpt lat="57.413091994822025" lon="-6.190066002309322">
        <ele>23.210000000000001</ele>
        <time>2023-08-27T08:35:46Z</time>
      </trkpt>
      <trkpt lat="57.413134993985295" lon="-6.189948990941048">
        <ele>23.210000000000001</ele>
        <time>2023-08-27T08:35:47Z</time>
      </trkpt>
      <trkpt lat="57.413168018683791" lon="-6.189858969300985">
        <ele>23.210000000000001</ele>
        <time>2023-08-27T08:35:48Z</time>
      </trkpt>
      <trkpt lat="57.413214035332203" lon="-6.189799038693309">
        <ele>23.210000000000001</ele>
        <time>2023-08-27T08:35:49Z</time>
      </trkpt>
      <trkpt lat="57.413277989253402" lon="-6.189742041751742">
        <ele>23.210000000000001</ele>
        <time>2023-08-27T08:35:50Z</time>
      </trkpt>
      <trkpt lat="57.413344960659742" lon="-6.189682027325034">
        <ele>23.210000000000001</ele>
        <time>2023-08-27T08:35:51Z</time>
      </trkpt>
      <trkpt lat="57.413416961207986" lon="-6.189639028161764">
        <ele>22.73</ele>
        <time>2023-08-27T08:35:52Z</time>
      </trkpt>
      <trkpt lat="57.414019033312798" lon="-6.189412968233228">
        <ele>22.25</ele>
        <time>2023-08-27T08:36:00Z</time>
      </trkpt>
      <trkpt lat="57.414095979183912" lon="-6.189406011253595">
        <ele>22.25</ele>
        <time>2023-08-27T08:36:01Z</time>
      </trkpt>
      <trkpt lat="57.414179965853691" lon="-6.189427971839905">
        <ele>22.73</ele>
        <time>2023-08-27T08:36:02Z</time>
      </trkpt>
      <trkpt lat="57.414251966401935" lon="-6.189481029286981">
        <ele>22.73</ele>
        <time>2023-08-27T08:36:03Z</time>
      </trkpt>
      <trkpt lat="57.414324972778559" lon="-6.189535008743405">
        <ele>23.210000000000001</ele>
        <time>2023-08-27T08:36:04Z</time>
      </trkpt>
      <trkpt lat="57.414399990811944" lon="-6.189589994028211">
        <ele>23.690000000000001</ele>
        <time>2023-08-27T08:36:05Z</time>
      </trkpt>
      <trkpt lat="57.414554972201586" lon="-6.189704993739724">
        <ele>25.129999999999999</ele>
        <time>2023-08-27T08:36:07Z</time>
      </trkpt>
      <trkpt lat="57.4153140373528" lon="-6.190475039184094">
        <ele>28.02</ele>
        <time>2023-08-27T08:36:17Z</time>
      </trkpt>
      <trkpt lat="57.41546499542892" lon="-6.190623985603452">
        <ele>28.98</ele>
        <time>2023-08-27T08:36:21Z</time>
      </trkpt>
      <trkpt lat="57.416092967614532" lon="-6.191143998876214">
        <ele>31.859999999999999</ele>
        <time>2023-08-27T08:36:29Z</time>
      </trkpt>
      <trkpt lat="57.41619598120451" lon="-6.191197978332639">
        <ele>32.82</ele>
        <time>2023-08-27T08:36:30Z</time>
      </trkpt>
      <trkpt lat="57.416307041421533" lon="-6.191256986930966">
        <ele>33.299999999999997</ele>
        <time>2023-08-27T08:36:31Z</time>
      </trkpt>
      <trkpt lat="57.416418017819524" lon="-6.191315995529294">
        <ele>33.780000000000001</ele>
        <time>2023-08-27T08:36:32Z</time>
      </trkpt>
      <trkpt lat="57.416525976732373" lon="-6.191372992470861">
        <ele>34.259999999999998</ele>
        <time>2023-08-27T08:36:33Z</time>
      </trkpt>
      <trkpt lat="57.416624967008829" lon="-6.191420014947653">
        <ele>34.740000000000002</ele>
        <time>2023-08-27T08:36:34Z</time>
      </trkpt>
      <trkpt lat="57.416882961988449" lon="-6.191445998847485">
        <ele>36.670000000000002</ele>
        <time>2023-08-27T08:36:37Z</time>
      </trkpt>
      <trkpt lat="57.417295016348362" lon="-6.191488998010755">
        <ele>39.07</ele>
        <time>2023-08-27T08:36:41Z</time>
      </trkpt>
      <trkpt lat="57.41739802993834" lon="-6.19150098413229">
        <ele>39.549999999999997</ele>
        <time>2023-08-27T08:36:42Z</time>
      </trkpt>
      <trkpt lat="57.417601039633155" lon="-6.191609026864171">
        <ele>40.509999999999998</ele>
        <time>2023-08-27T08:36:44Z</time>
      </trkpt>
      <trkpt lat="57.417710004374385" lon="-6.191673986613751">
        <ele>40.990000000000002</ele>
        <time>2023-08-27T08:36:45Z</time>
      </trkpt>
      <trkpt lat="57.417814023792744" lon="-6.191769959405065">
        <ele>40.990000000000002</ele>
        <time>2023-08-27T08:36:46Z</time>
      </trkpt>
      <trkpt lat="57.418652968481183" lon="-6.192592978477478">
        <ele>42.439999999999998</ele>
        <time>2023-08-27T08:36:54Z</time>
      </trkpt>
      <trkpt lat="57.419516975060105" lon="-6.192975025624037">
        <ele>44.359999999999999</ele>
        <time>2023-08-27T08:37:02Z</time>
      </trkpt>
      <trkpt lat="57.419628035277128" lon="-6.193000003695488">
        <ele>44.840000000000003</ele>
        <time>2023-08-27T08:37:03Z</time>
      </trkpt>
      <trkpt lat="57.419734988361597" lon="-6.192947030067444">
        <ele>44.840000000000003</ele>
        <time>2023-08-27T08:37:04Z</time>
      </trkpt>
      <trkpt lat="57.419845964759588" lon="-6.192891038954258">
        <ele>44.840000000000003</ele>
        <time>2023-08-27T08:37:05Z</time>
      </trkpt>
      <trkpt lat="57.419951995834708" lon="-6.192837981507182">
        <ele>45.32</ele>
        <time>2023-08-27T08:37:06Z</time>
      </trkpt>
      <trkpt lat="57.420031959190965" lon="-6.192716024816036">
        <ele>45.799999999999997</ele>
        <time>2023-08-27T08:37:07Z</time>
      </trkpt>
      <trkpt lat="57.420130027458072" lon="-6.192555008456111">
        <ele>45.799999999999997</ele>
        <time>2023-08-27T08:37:08Z</time>
      </trkpt>
      <trkpt lat="57.420177971944213" lon="-6.192416958510876">
        <ele>46.280000000000001</ele>
        <time>2023-08-27T08:37:09Z</time>
      </trkpt>
      <trkpt lat="57.420431021600962" lon="-6.191740036010742">
        <ele>48.200000000000003</ele>
        <time>2023-08-27T08:37:13Z</time>
      </trkpt>
      <trkpt lat="57.420504027977586" lon="-6.191625958308578">
        <ele>48.68</ele>
        <time>2023-08-27T08:37:14Z</time>
      </trkpt>
      <trkpt lat="57.420583991333842" lon="-6.191501989960671">
        <ele>48.68</ele>
        <time>2023-08-27T08:37:15Z</time>
      </trkpt>
      <trkpt lat="57.421400975435972" lon="-6.190250990912318">
        <ele>56.369999999999997</ele>
        <time>2023-08-27T08:37:25Z</time>
      </trkpt>
      <trkpt lat="57.421810012310743" lon="-6.189689990133047">
        <ele>60.700000000000003</ele>
        <time>2023-08-27T08:37:30Z</time>
      </trkpt>
      <trkpt lat="57.421917971223593" lon="-6.189600974321365">
        <ele>61.659999999999997</ele>
        <time>2023-08-27T08:37:31Z</time>
      </trkpt>
      <trkpt lat="57.422351986169815" lon="-6.189355971291661">
        <ele>64.069999999999993</ele>
        <time>2023-08-27T08:37:35Z</time>
      </trkpt>
      <trkpt lat="57.422460028901696" lon="-6.189311966300011">
        <ele>64.549999999999997</ele>
        <time>2023-08-27T08:37:36Z</time>
      </trkpt>
      <trkpt lat="57.422562036663294" lon="-6.189272990450263">
        <ele>65.030000000000001</ele>
        <time>2023-08-27T08:37:37Z</time>
      </trkpt>
      <trkpt lat="57.42266102693975" lon="-6.189276007935405">
        <ele>65.510000000000005</ele>
        <time>2023-08-27T08:37:38Z</time>
      </trkpt>
      <trkpt lat="57.4227499589324" lon="-6.189279025420547">
        <ele>65.989999999999995</ele>
        <time>2023-08-27T08:37:39Z</time>
      </trkpt>
      <trkpt lat="57.423019018024206" lon="-6.18928799405694">
        <ele>67.909999999999997</ele>
        <time>2023-08-27T08:37:44Z</time>
      </trkpt>
      <trkpt lat="57.423081966117024" lon="-6.189290005713701">
        <ele>68.390000000000001</ele>
        <time>2023-08-27T08:37:45Z</time>
      </trkpt>
      <trkpt lat="57.423245999962091" lon="-6.189259998500347">
        <ele>68.870000000000005</ele>
        <time>2023-08-27T08:37:47Z</time>
      </trkpt>
      <trkpt lat="57.423345996066928" lon="-6.189209958538413">
        <ele>68.870000000000005</ele>
        <time>2023-08-27T08:37:48Z</time>
      </trkpt>
      <trkpt lat="57.423446998000145" lon="-6.189160002395511">
        <ele>69.349999999999994</ele>
        <time>2023-08-27T08:37:49Z</time>
      </trkpt>
      <trkpt lat="57.423517992720008" lon="-6.189067969098687">
        <ele>69.349999999999994</ele>
        <time>2023-08-27T08:37:50Z</time>
      </trkpt>
      <trkpt lat="57.42358798161149" lon="-6.188936037942767">
        <ele>69.829999999999998</ele>
        <time>2023-08-27T08:37:51Z</time>
      </trkpt>
      <trkpt lat="57.423670962452888" lon="-6.188778961077333">
        <ele>70.310000000000002</ele>
        <time>2023-08-27T08:37:52Z</time>
      </trkpt>
      <trkpt lat="57.423704992979765" lon="-6.188648035749793">
        <ele>70.790000000000006</ele>
        <time>2023-08-27T08:37:53Z</time>
      </trkpt>
      <trkpt lat="57.423746986314654" lon="-6.188485007733107">
        <ele>71.760000000000005</ele>
        <time>2023-08-27T08:37:54Z</time>
      </trkpt>
      <trkpt lat="57.423786967992783" lon="-6.188331032171845">
        <ele>72.719999999999999</ele>
        <time>2023-08-27T08:37:55Z</time>
      </trkpt>
      <trkpt lat="57.423828039318323" lon="-6.188182001933456">
        <ele>73.680000000000007</ele>
        <time>2023-08-27T08:37:56Z</time>
      </trkpt>
      <trkpt lat="57.423881012946367" lon="-6.188050992786884">
        <ele>74.640000000000001</ele>
        <time>2023-08-27T08:37:57Z</time>
      </trkpt>
      <trkpt lat="57.423953013494611" lon="-6.187958037480712">
        <ele>75.599999999999994</ele>
        <time>2023-08-27T08:37:58Z</time>
      </trkpt>
      <trkpt lat="57.42403700016439" lon="-6.187906991690397">
        <ele>76.560000000000002</ele>
        <time>2023-08-27T08:37:59Z</time>
      </trkpt>
      <trkpt lat="57.424128027632833" lon="-6.187853012233973">
        <ele>77.040000000000006</ele>
        <time>2023-08-27T08:38:00Z</time>
      </trkpt>
      <trkpt lat="57.425113990902901" lon="-6.187431989237666">
        <ele>81.370000000000005</ele>
        <time>2023-08-27T08:38:09Z</time>
      </trkpt>
      <trkpt lat="57.426026025786996" lon="-6.187107022851706">
        <ele>82.810000000000002</ele>
        <time>2023-08-27T08:38:17Z</time>
      </trkpt>
      <trkpt lat="57.427147021517158" lon="-6.186747020110488">
        <ele>85.689999999999998</ele>
        <time>2023-08-27T08:38:26Z</time>
      </trkpt>
      <trkpt lat="57.427297979593277" lon="-6.186747020110488">
        <ele>86.659999999999997</ele>
        <time>2023-08-27T08:38:27Z</time>
      </trkpt>
      <trkpt lat="57.428320990875363" lon="-6.186678959056735">
        <ele>89.540000000000006</ele>
        <time>2023-08-27T08:38:33Z</time>
      </trkpt>
      <trkpt lat="57.428488964214921" lon="-6.186608970165253">
        <ele>90.5</ele>
        <time>2023-08-27T08:38:34Z</time>
      </trkpt>
      <trkpt lat="57.428933959454298" lon="-6.186267994344235">
        <ele>93.390000000000001</ele>
        <time>2023-08-27T08:38:37Z</time>
      </trkpt>
      <trkpt lat="57.429068991914392" lon="-6.186141008511186">
        <ele>94.349999999999994</ele>
        <time>2023-08-27T08:38:38Z</time>
      </trkpt>
      <trkpt lat="57.429178040474653" lon="-6.185972029343247">
        <ele>94.829999999999998</ele>
        <time>2023-08-27T08:38:39Z</time>
      </trkpt>
      <trkpt lat="57.429256998002529" lon="-6.185767007991672">
        <ele>95.790000000000006</ele>
        <time>2023-08-27T08:38:40Z</time>
      </trkpt>
      <trkpt lat="57.42932204157114" lon="-6.185565004125238">
        <ele>96.269999999999996</ele>
        <time>2023-08-27T08:38:41Z</time>
      </trkpt>
      <trkpt lat="57.429368980228901" lon="-6.18535503745079">
        <ele>96.75</ele>
        <time>2023-08-27T08:38:42Z</time>
      </trkpt>
      <trkpt lat="57.429398987442255" lon="-6.185116991400719">
        <ele>97.230000000000004</ele>
        <time>2023-08-27T08:38:43Z</time>
      </trkpt>
      <trkpt lat="57.42943100631237" lon="-6.184863019734621">
        <ele>97.709999999999994</ele>
        <time>2023-08-27T08:38:44Z</time>
      </trkpt>
      <trkpt lat="57.429464031010866" lon="-6.184599995613098">
        <ele>97.709999999999994</ele>
        <time>2023-08-27T08:38:45Z</time>
      </trkpt>
      <trkpt lat="57.42949697189033" lon="-6.184335965663195">
        <ele>98.189999999999998</ele>
        <time>2023-08-27T08:38:46Z</time>
      </trkpt>
      <trkpt lat="57.429527984932065" lon="-6.184082999825478">
        <ele>98.670000000000002</ele>
        <time>2023-08-27T08:38:47Z</time>
      </trkpt>
      <trkpt lat="57.429565032944083" lon="-6.183845959603787">
        <ele>99.150000000000006</ele>
        <time>2023-08-27T08:38:48Z</time>
      </trkpt>
      <trkpt lat="57.429722025990486" lon="-6.183178005740047">
        <ele>99.629999999999995</ele>
        <time>2023-08-27T08:38:51Z</time>
      </trkpt>
      <trkpt lat="57.429779022932053" lon="-6.183049008250237">
        <ele>100.11</ele>
        <time>2023-08-27T08:38:52Z</time>
      </trkpt>
      <trkpt lat="57.429871978238225" lon="-6.182933002710342">
        <ele>100.59999999999999</ele>
        <time>2023-08-27T08:38:53Z</time>
      </trkpt>
      <trkpt lat="57.42998999543488" lon="-6.182837029919028">
        <ele>101.56</ele>
        <time>2023-08-27T08:38:54Z</time>
      </trkpt>
      <trkpt lat="57.43011798709631" lon="-6.182732004672289">
        <ele>102.04000000000001</ele>
        <time>2023-08-27T08:38:55Z</time>
      </trkpt>
      <trkpt lat="57.430252013728023" lon="-6.182622034102678">
        <ele>102.52</ele>
        <time>2023-08-27T08:38:56Z</time>
      </trkpt>
      <trkpt lat="57.430395008996129" lon="-6.182546010240912">
        <ele>103</ele>
        <time>2023-08-27T08:38:57Z</time>
      </trkpt>
      <trkpt lat="57.43168699555099" lon="-6.182014010846615">
        <ele>109.73</ele>
        <time>2023-08-27T08:39:06Z</time>
      </trkpt>
      <trkpt lat="57.433225996792316" lon="-6.181929018348455">
        <ele>112.13</ele>
        <time>2023-08-27T08:39:17Z</time>
      </trkpt>
      <trkpt lat="57.434640023857355" lon="-6.182168992236257">
        <ele>114.53</ele>
        <time>2023-08-27T08:39:29Z</time>
      </trkpt>
      <trkpt lat="57.436365019530058" lon="-6.182468980550766">
        <ele>119.81999999999999</ele>
        <time>2023-08-27T08:39:42Z</time>
      </trkpt>
      <trkpt lat="57.437609983608127" lon="-6.182619016617537">
        <ele>122.70999999999999</ele>
        <time>2023-08-27T08:39:51Z</time>
      </trkpt>
      <trkpt lat="57.437740992754698" lon="-6.182606024667621">
        <ele>123.19</ele>
        <time>2023-08-27T08:39:52Z</time>
      </trkpt>
      <trkpt lat="57.43787300772965" lon="-6.182552967220545">
        <ele>123.19</ele>
        <time>2023-08-27T08:39:53Z</time>
      </trkpt>
      <trkpt lat="57.437998987734318" lon="-6.182459006085992">
        <ele>123.19</ele>
        <time>2023-08-27T08:39:54Z</time>
      </trkpt>
      <trkpt lat="57.43813100270927" lon="-6.182360015809536">
        <ele>123.19</ele>
        <time>2023-08-27T08:39:55Z</time>
      </trkpt>
      <trkpt lat="57.439114032313228" lon="-6.181909991428256">
        <ele>127.51000000000001</ele>
        <time>2023-08-27T08:40:03Z</time>
      </trkpt>
      <trkpt lat="57.439990025013685" lon="-6.182310981675983">
        <ele>134.72</ele>
        <time>2023-08-27T08:40:12Z</time>
      </trkpt>
      <trkpt lat="57.440923014655709" lon="-6.182426987215877">
        <ele>136.16</ele>
        <time>2023-08-27T08:40:18Z</time>
      </trkpt>
      <trkpt lat="57.442413987591863" lon="-6.182043012231588">
        <ele>141.44999999999999</ele>
        <time>2023-08-27T08:40:26Z</time>
      </trkpt>
      <trkpt lat="57.443784009665251" lon="-6.181587958708406">
        <ele>144.81999999999999</ele>
        <time>2023-08-27T08:40:33Z</time>
      </trkpt>
      <trkpt lat="57.444923026487231" lon="-6.180966021493077">
        <ele>146.25999999999999</ele>
        <time>2023-08-27T08:40:39Z</time>
      </trkpt>
      <trkpt lat="57.44608199223876" lon="-6.179841002449393">
        <ele>146.74000000000001</ele>
        <time>2023-08-27T08:40:46Z</time>
      </trkpt>
      <trkpt lat="57.446248959749937" lon="-6.179801020771265">
        <ele>147.22</ele>
        <time>2023-08-27T08:40:47Z</time>
      </trkpt>
      <trkpt lat="57.446416011080146" lon="-6.179823987185955">
        <ele>147.22</ele>
        <time>2023-08-27T08:40:48Z</time>
      </trkpt>
      <trkpt lat="57.446582978591323" lon="-6.179847037419677">
        <ele>147.69999999999999</ele>
        <time>2023-08-27T08:40:49Z</time>
      </trkpt>
      <trkpt lat="57.446751035749912" lon="-6.179870003834367">
        <ele>148.66</ele>
        <time>2023-08-27T08:40:50Z</time>
      </trkpt>
      <trkpt lat="57.448070012032986" lon="-6.179807977750897">
        <ele>157.78999999999999</ele>
        <time>2023-08-27T08:40:58Z</time>
      </trkpt>
      <trkpt lat="57.44898397475481" lon="-6.179664982482791">
        <ele>161.16</ele>
        <time>2023-08-27T08:41:03Z</time>
      </trkpt>
      <trkpt lat="57.449867008253932" lon="-6.179824993014336">
        <ele>164.52000000000001</ele>
        <time>2023-08-27T08:41:08Z</time>
      </trkpt>
      <trkpt lat="57.450016038492322" lon="-6.179959019646049">
        <ele>164.52000000000001</ele>
        <time>2023-08-27T08:41:09Z</time>
      </trkpt>
      <trkpt lat="57.451369967311621" lon="-6.180749014019966">
        <ele>163.08000000000001</ele>
        <time>2023-08-27T08:41:17Z</time>
      </trkpt>
      <trkpt lat="57.453033020719886" lon="-6.18142300285399">
        <ele>168.37</ele>
        <time>2023-08-27T08:41:27Z</time>
      </trkpt>
      <trkpt lat="57.454837979748845" lon="-6.181955002248287">
        <ele>173.66</ele>
        <time>2023-08-27T08:41:38Z</time>
      </trkpt>
      <trkpt lat="57.456555012613535" lon="-6.182478033006191">
        <ele>169.81</ele>
        <time>2023-08-27T08:41:48Z</time>
      </trkpt>
      <trkpt lat="57.457740968093276" lon="-6.182942977175117">
        <ele>166.93000000000001</ele>
        <time>2023-08-27T08:41:55Z</time>
      </trkpt>
      <trkpt lat="57.457882035523653" lon="-6.183068035170436">
        <ele>165.96000000000001</ele>
        <time>2023-08-27T08:41:56Z</time>
      </trkpt>
      <trkpt lat="57.458662977442145" lon="-6.183957019820809">
        <ele>161.16</ele>
        <time>2023-08-27T08:42:02Z</time>
      </trkpt>
      <trkpt lat="57.458815025165677" lon="-6.184018962085247">
        <ele>160.19999999999999</ele>
        <time>2023-08-27T08:42:03Z</time>
      </trkpt>
      <trkpt lat="57.460249001160264" lon="-6.18436798453331">
        <ele>152.50999999999999</ele>
        <time>2023-08-27T08:42:12Z</time>
      </trkpt>
      <trkpt lat="57.461135974153876" lon="-6.184478038921952">
        <ele>149.62</ele>
        <time>2023-08-27T08:42:19Z</time>
      </trkpt>
      <trkpt lat="57.462258981540799" lon="-6.184674007818103">
        <ele>148.66</ele>
        <time>2023-08-27T08:42:27Z</time>
      </trkpt>
      <trkpt lat="57.463343013077974" lon="-6.184742990881205">
        <ele>147.69999999999999</ele>
        <time>2023-08-27T08:42:35Z</time>
      </trkpt>
      <trkpt lat="57.464371975511312" lon="-6.184633020311594">
        <ele>147.22</ele>
        <time>2023-08-27T08:42:46Z</time>
      </trkpt>
      <trkpt lat="57.465616017580032" lon="-6.185085978358984">
        <ele>146.74000000000001</ele>
        <time>2023-08-27T08:42:57Z</time>
      </trkpt>
      <trkpt lat="57.466693008318543" lon="-6.184887997806072">
        <ele>145.78</ele>
        <time>2023-08-27T08:43:05Z</time>
      </trkpt>
      <trkpt lat="57.467589033767581" lon="-6.184607958421111">
        <ele>150.09999999999999</ele>
        <time>2023-08-27T08:43:13Z</time>
      </trkpt>
      <trkpt lat="57.468659989535809" lon="-6.183998007327318">
        <ele>153.47</ele>
        <time>2023-08-27T08:43:22Z</time>
      </trkpt>
      <trkpt lat="57.469712002202868" lon="-6.183541025966406">
        <ele>155.87</ele>
        <time>2023-08-27T08:43:31Z</time>
      </trkpt>
      <trkpt lat="57.471084035933018" lon="-6.182963009923697">
        <ele>154.43000000000001</ele>
        <time>2023-08-27T08:43:40Z</time>
      </trkpt>
      <trkpt lat="57.473063003271818" lon="-6.182058015838265">
        <ele>149.13999999999999</ele>
        <time>2023-08-27T08:43:52Z</time>
      </trkpt>
      <trkpt lat="57.474782969802618" lon="-6.181185962632299">
        <ele>149.13999999999999</ele>
        <time>2023-08-27T08:44:02Z</time>
      </trkpt>
      <trkpt lat="57.47605299577117" lon="-6.180324973538518">
        <ele>154.43000000000001</ele>
        <time>2023-08-27T08:44:10Z</time>
      </trkpt>
      <trkpt lat="57.476909039542079" lon="-6.179771013557911">
        <ele>160.19999999999999</ele>
        <time>2023-08-27T08:44:16Z</time>
      </trkpt>
      <trkpt lat="57.477048011496663" lon="-6.179764978587627">
        <ele>161.16</ele>
        <time>2023-08-27T08:44:17Z</time>
      </trkpt>
      <trkpt lat="57.477183965966105" lon="-6.179801020771265">
        <ele>161.63999999999999</ele>
        <time>2023-08-27T08:44:18Z</time>
      </trkpt>
      <trkpt lat="57.478789016604424" lon="-6.18022003211081">
        <ele>162.59999999999999</ele>
        <time>2023-08-27T08:44:30Z</time>
      </trkpt>
      <trkpt lat="57.479394022375345" lon="-6.180197987705469">
        <ele>159.24000000000001</ele>
        <time>2023-08-27T08:44:38Z</time>
      </trkpt>
      <trkpt lat="57.479475997388363" lon="-6.180169992148876">
        <ele>157.31</ele>
        <time>2023-08-27T08:44:48Z</time>
      </trkpt>
      <trkpt lat="57.47951396740973" lon="-6.180153982713819">
        <ele>157.31</ele>
        <time>2023-08-27T08:44:49Z</time>
      </trkpt>
      <trkpt lat="57.479555038735271" lon="-6.180135961622">
        <ele>156.83000000000001</ele>
        <time>2023-08-27T08:44:50Z</time>
      </trkpt>
      <trkpt lat="57.479584962129593" lon="-6.180122969672084">
        <ele>156.34999999999999</ele>
        <time>2023-08-27T08:44:51Z</time>
      </trkpt>
      <trkpt lat="57.479614969342947" lon="-6.180109977722168">
        <ele>155.87</ele>
        <time>2023-08-27T08:44:57Z</time>
      </trkpt>
      <trkpt lat="57.479637013748288" lon="-6.180100003257394">
        <ele>155.87</ele>
        <time>2023-08-27T08:44:58Z</time>
      </trkpt>
      <trkpt lat="57.479760982096195" lon="-6.180046023800969">
        <ele>155.87</ele>
        <time>2023-08-27T08:45:00Z</time>
      </trkpt>
      <trkpt lat="57.479768022894859" lon="-6.180036971345544">
        <ele>155.38999999999999</ele>
        <time>2023-08-27T08:45:01Z</time>
      </trkpt>
      <trkpt lat="57.480346960946918" lon="-6.179347978904843">
        <ele>154.91</ele>
        <time>2023-08-27T08:45:07Z</time>
      </trkpt>
      <trkpt lat="57.48166099190712" lon="-6.177818030118942">
        <ele>156.34999999999999</ele>
        <time>2023-08-27T08:45:16Z</time>
      </trkpt>
      <trkpt lat="57.482623988762498" lon="-6.17686802521348">
        <ele>155.38999999999999</ele>
        <time>2023-08-27T08:45:24Z</time>
      </trkpt>
      <trkpt lat="57.483647000044584" lon="-6.175976023077965">
        <ele>153.47</ele>
        <time>2023-08-27T08:45:33Z</time>
      </trkpt>
      <trkpt lat="57.485046023502946" lon="-6.175019983202219">
        <ele>155.38999999999999</ele>
        <time>2023-08-27T08:45:45Z</time>
      </trkpt>
      <trkpt lat="57.485152976587415" lon="-6.174963992089033">
        <ele>155.38999999999999</ele>
        <time>2023-08-27T08:45:47Z</time>
      </trkpt>
      <trkpt lat="57.485196981579065" lon="-6.174941025674343">
        <ele>155.38999999999999</ele>
        <time>2023-08-27T08:45:48Z</time>
      </trkpt>
      <trkpt lat="57.485278034582734" lon="-6.174899032339454">
        <ele>155.87</ele>
        <time>2023-08-27T08:45:50Z</time>
      </trkpt>
      <trkpt lat="57.48531399294734" lon="-6.174880005419254">
        <ele>155.87</ele>
        <time>2023-08-27T08:45:51Z</time>
      </trkpt>
      <trkpt lat="57.485499987378716" lon="-6.174782020971179">
        <ele>156.34999999999999</ele>
        <time>2023-08-27T08:45:57Z</time>
      </trkpt>
      <trkpt lat="57.485534017905593" lon="-6.17476399987936">
        <ele>156.34999999999999</ele>
        <time>2023-08-27T08:45:58Z</time>
      </trkpt>
      <trkpt lat="57.485608030110598" lon="-6.174725024029613">
        <ele>156.34999999999999</ele>
        <time>2023-08-27T08:46:00Z</time>
      </trkpt>
      <trkpt lat="57.485650023445487" lon="-6.174702979624271">
        <ele>155.87</ele>
        <time>2023-08-27T08:46:01Z</time>
      </trkpt>
      <trkpt lat="57.485697967931628" lon="-6.17467800155282">
        <ele>155.87</ele>
        <time>2023-08-27T08:46:02Z</time>
      </trkpt>
      <trkpt lat="57.485744990408421" lon="-6.174653023481369">
        <ele>155.87</ele>
        <time>2023-08-27T08:46:03Z</time>
      </trkpt>
      <trkpt lat="57.485793018713593" lon="-6.174627961590886">
        <ele>155.87</ele>
        <time>2023-08-27T08:46:04Z</time>
      </trkpt>
      <trkpt lat="57.485839035362005" lon="-6.174603989347816">
        <ele>155.87</ele>
        <time>2023-08-27T08:46:05Z</time>
      </trkpt>
      <trkpt lat="57.486024023965001" lon="-6.174507010728121">
        <ele>156.34999999999999</ele>
        <time>2023-08-27T08:46:14Z</time>
      </trkpt>
      <trkpt lat="57.486024023965001" lon="-6.174507010728121">
        <ele>156.34999999999999</ele>
        <time>2023-08-27T08:46:58Z</time>
      </trkpt>
      <trkpt lat="57.486024023965001" lon="-6.174507010728121">
        <ele>155.87</ele>
        <time>2023-08-27T08:47:39Z</time>
      </trkpt>
      <trkpt lat="57.486024023965001" lon="-6.174507010728121">
        <ele>155.87</ele>
        <time>2023-08-27T08:47:58Z</time>
      </trkpt>
      <trkpt lat="57.486037015914917" lon="-6.174499969929457">
        <ele>155.38999999999999</ele>
        <time>2023-08-27T08:48:00Z</time>
      </trkpt>
      <trkpt lat="57.486061993986368" lon="-6.174486977979541">
        <ele>154.91</ele>
        <time>2023-08-27T08:48:01Z</time>
      </trkpt>
      <trkpt lat="57.486114967614412" lon="-6.174458982422948">
        <ele>154.43000000000001</ele>
        <time>2023-08-27T08:48:02Z</time>
      </trkpt>
      <trkpt lat="57.48619400896132" lon="-6.174416989088059">
        <ele>154.43000000000001</ele>
        <time>2023-08-27T08:48:03Z</time>
      </trkpt>
      <trkpt lat="57.486289981752634" lon="-6.174367032945156">
        <ele>153.94999999999999</ele>
        <time>2023-08-27T08:48:04Z</time>
      </trkpt>
      <trkpt lat="57.487390022724867" lon="-6.173751968890429">
        <ele>155.38999999999999</ele>
        <time>2023-08-27T08:48:13Z</time>
      </trkpt>
      <trkpt lat="57.489193975925446" lon="-6.172525025904179">
        <ele>157.31</ele>
        <time>2023-08-27T08:48:25Z</time>
      </trkpt>
      <trkpt lat="57.491181995719671" lon="-6.171679040417075">
        <ele>149.62</ele>
        <time>2023-08-27T08:48:37Z</time>
      </trkpt>
      <trkpt lat="57.492484040558338" lon="-6.170591991394758">
        <ele>147.69999999999999</ele>
        <time>2023-08-27T08:48:45Z</time>
      </trkpt>
      <trkpt lat="57.493677958846092" lon="-6.169228004291654">
        <ele>151.53999999999999</ele>
        <time>2023-08-27T08:48:54Z</time>
      </trkpt>
      <trkpt lat="57.493786001577973" lon="-6.169012002646923">
        <ele>152.50999999999999</ele>
        <time>2023-08-27T08:48:55Z</time>
      </trkpt>
      <trkpt lat="57.493879040703177" lon="-6.168772028759122">
        <ele>152.50999999999999</ele>
        <time>2023-08-27T08:48:56Z</time>
      </trkpt>
      <trkpt lat="57.493956992402673" lon="-6.16851001046598">
        <ele>152.99000000000001</ele>
        <time>2023-08-27T08:48:57Z</time>
      </trkpt>
      <trkpt lat="57.494033016264439" lon="-6.168227959424257">
        <ele>153.47</ele>
        <time>2023-08-27T08:48:58Z</time>
      </trkpt>
      <trkpt lat="57.494048019871116" lon="-6.167925037443638">
        <ele>153.94999999999999</ele>
        <time>2023-08-27T08:48:59Z</time>
      </trkpt>
      <trkpt lat="57.494064029306173" lon="-6.167620019987226">
        <ele>154.43000000000001</ele>
        <time>2023-08-27T08:49:00Z</time>
      </trkpt>
      <trkpt lat="57.494080038741231" lon="-6.167312990874052">
        <ele>154.43000000000001</ele>
        <time>2023-08-27T08:49:01Z</time>
      </trkpt>
      <trkpt lat="57.494094958528876" lon="-6.167013002559543">
        <ele>154.91</ele>
        <time>2023-08-27T08:49:02Z</time>
      </trkpt>
      <trkpt lat="57.494197972118855" lon="-6.165614984929562">
        <ele>154.91</ele>
        <time>2023-08-27T08:49:07Z</time>
      </trkpt>
      <trkpt lat="57.494261004030704" lon="-6.165347015485168">
        <ele>155.38999999999999</ele>
        <time>2023-08-27T08:49:08Z</time>
      </trkpt>
      <trkpt lat="57.494325041770935" lon="-6.165075022727251">
        <ele>155.38999999999999</ele>
        <time>2023-08-27T08:49:09Z</time>
      </trkpt>
      <trkpt lat="57.49534604139626" lon="-6.16183097474277">
        <ele>162.12</ele>
        <time>2023-08-27T08:49:22Z</time>
      </trkpt>
      <trkpt lat="57.495737979188561" lon="-6.161102000623941">
        <ele>165.47999999999999</ele>
        <time>2023-08-27T08:49:28Z</time>
      </trkpt>
      <trkpt lat="57.495955992490053" lon="-6.160816010087729">
        <ele>167.88999999999999</ele>
        <time>2023-08-27T08:49:38Z</time>
      </trkpt>
      <trkpt lat="57.49620501883328" lon="-6.160533959046006">
        <ele>168.84999999999999</ele>
        <time>2023-08-27T08:49:44Z</time>
      </trkpt>
      <trkpt lat="57.496243994683027" lon="-6.160490959882736">
        <ele>168.84999999999999</ele>
        <time>2023-08-27T08:49:45Z</time>
      </trkpt>
      <trkpt lat="57.496286993846297" lon="-6.160443015396595">
        <ele>168.84999999999999</ele>
        <time>2023-08-27T08:49:46Z</time>
      </trkpt>
      <trkpt lat="57.496338961645961" lon="-6.160383000969887">
        <ele>169.33000000000001</ele>
        <time>2023-08-27T08:49:47Z</time>
      </trkpt>
      <trkpt lat="57.496404005214572" lon="-6.160309994593263">
        <ele>169.33000000000001</ele>
        <time>2023-08-27T08:49:48Z</time>
      </trkpt>
      <trkpt lat="57.496477011591196" lon="-6.160228019580245">
        <ele>169.81</ele>
        <time>2023-08-27T08:49:49Z</time>
      </trkpt>
      <trkpt lat="57.497277986258268" lon="-6.159325037151575">
        <ele>172.69</ele>
        <time>2023-08-27T08:50:00Z</time>
      </trkpt>
      <trkpt lat="57.497862037271261" lon="-6.158665968105197">
        <ele>173.16999999999999</ele>
        <time>2023-08-27T08:50:10Z</time>
      </trkpt>
      <trkpt lat="57.49904396943748" lon="-6.157606998458505">
        <ele>172.69</ele>
        <time>2023-08-27T08:50:21Z</time>
      </trkpt>
      <trkpt lat="57.500480962917209" lon="-6.1562620382756">
        <ele>179.90000000000001</ele>
        <time>2023-08-27T08:50:34Z</time>
      </trkpt>
      <trkpt lat="57.501840004697442" lon="-6.154713984578848">
        <ele>182.31</ele>
        <time>2023-08-27T08:50:45Z</time>
      </trkpt>
      <trkpt lat="57.50344698317349" lon="-6.153147993609309">
        <ele>185.19</ele>
        <time>2023-08-27T08:50:56Z</time>
      </trkpt>
      <trkpt lat="57.505041975528002" lon="-6.152362022548914">
        <ele>184.22999999999999</ele>
        <time>2023-08-27T08:51:07Z</time>
      </trkpt>
      <trkpt lat="57.506726989522576" lon="-6.151642017066479">
        <ele>188.08000000000001</ele>
        <time>2023-08-27T08:51:19Z</time>
      </trkpt>
      <trkpt lat="57.508113021031022" lon="-6.151239015161991">
        <ele>190.47999999999999</ele>
        <time>2023-08-27T08:51:29Z</time>
      </trkpt>
      <trkpt lat="57.509380029514432" lon="-6.15113097243011">
        <ele>191.44</ele>
        <time>2023-08-27T08:51:38Z</time>
      </trkpt>
      <trkpt lat="57.510787015780807" lon="-6.151239015161991">
        <ele>189.52000000000001</ele>
        <time>2023-08-27T08:51:47Z</time>
      </trkpt>
      <trkpt lat="57.512472029775381" lon="-6.151421992108226">
        <ele>195.28</ele>
        <time>2023-08-27T08:51:58Z</time>
      </trkpt>
      <trkpt lat="57.512612007558346" lon="-6.151488041505218">
        <ele>195.28</ele>
        <time>2023-08-27T08:51:59Z</time>
      </trkpt>
      <trkpt lat="57.51275097951293" lon="-6.1515580303967">
        <ele>195.77000000000001</ele>
        <time>2023-08-27T08:52:00Z</time>
      </trkpt>
      <trkpt lat="57.51288098283112" lon="-6.151663977652788">
        <ele>196.25</ele>
        <time>2023-08-27T08:52:01Z</time>
      </trkpt>
      <trkpt lat="57.513403007760644" lon="-6.152092041447759">
        <ele>197.69</ele>
        <time>2023-08-27T08:52:07Z</time>
      </trkpt>
      <trkpt lat="57.513591013848782" lon="-6.1522470228374">
        <ele>198.16999999999999</ele>
        <time>2023-08-27T08:52:16Z</time>
      </trkpt>
      <trkpt lat="57.51378295943141" lon="-6.152404015883803">
        <ele>197.69</ele>
        <time>2023-08-27T08:52:35Z</time>
      </trkpt>
      <trkpt lat="57.514098035171628" lon="-6.152553968131542">
        <ele>197.69</ele>
        <time>2023-08-27T08:52:38Z</time>
      </trkpt>
      <trkpt lat="57.514231977984309" lon="-6.1525699775666">
        <ele>197.21000000000001</ele>
        <time>2023-08-27T08:52:39Z</time>
      </trkpt>
      <trkpt lat="57.514650989323854" lon="-6.152514992281795">
        <ele>196.72999999999999</ele>
        <time>2023-08-27T08:52:42Z</time>
      </trkpt>
      <trkpt lat="57.515726974233985" lon="-6.152038984000683">
        <ele>195.28</ele>
        <time>2023-08-27T08:52:51Z</time>
      </trkpt>
      <trkpt lat="57.51601698808372" lon="-6.152042001485825">
        <ele>194.31999999999999</ele>
        <time>2023-08-27T08:52:53Z</time>
      </trkpt>
      <trkpt lat="57.516167024150491" lon="-6.152055999264121">
        <ele>193.84</ele>
        <time>2023-08-27T08:52:54Z</time>
      </trkpt>
      <trkpt lat="57.516315970569849" lon="-6.152095980942249">
        <ele>193.36000000000001</ele>
        <time>2023-08-27T08:52:55Z</time>
      </trkpt>
      <trkpt lat="57.517423974350095" lon="-6.152867032214999">
        <ele>190.96000000000001</ele>
        <time>2023-08-27T08:53:03Z</time>
      </trkpt>
      <trkpt lat="57.518775975331664" lon="-6.153291994705796">
        <ele>190.47999999999999</ele>
        <time>2023-08-27T08:53:12Z</time>
      </trkpt>
      <trkpt lat="57.520340038463473" lon="-6.153512019664049">
        <ele>185.19</ele>
        <time>2023-08-27T08:53:23Z</time>
      </trkpt>
      <trkpt lat="57.522773975506425" lon="-6.154021974653006">
        <ele>166.93000000000001</ele>
        <time>2023-08-27T08:53:37Z</time>
      </trkpt>
      <trkpt lat="57.524392018094659" lon="-6.154361022636294">
        <ele>158.27000000000001</ele>
        <time>2023-08-27T08:53:47Z</time>
      </trkpt>
      <trkpt lat="57.525497004389763" lon="-6.15491003729403">
        <ele>147.22</ele>
        <time>2023-08-27T08:53:56Z</time>
      </trkpt>
      <trkpt lat="57.526541976258159" lon="-6.155947968363762">
        <ele>136.16</ele>
        <time>2023-08-27T08:54:04Z</time>
      </trkpt>
      <trkpt lat="57.52753397449851" lon="-6.156622963026166">
        <ele>129.43000000000001</ele>
        <time>2023-08-27T08:54:11Z</time>
      </trkpt>
      <trkpt lat="57.52766003832221" lon="-6.156638972461224">
        <ele>129.43000000000001</ele>
        <time>2023-08-27T08:54:12Z</time>
      </trkpt>
      <trkpt lat="57.527784006670117" lon="-6.156653976067901">
        <ele>129.43000000000001</ele>
        <time>2023-08-27T08:54:13Z</time>
      </trkpt>
      <trkpt lat="57.527901018038392" lon="-6.15660603158176">
        <ele>129.43000000000001</ele>
        <time>2023-08-27T08:54:14Z</time>
      </trkpt>
      <trkpt lat="57.528020041063428" lon="-6.156541993841529">
        <ele>129.91999999999999</ele>
        <time>2023-08-27T08:54:15Z</time>
      </trkpt>
      <trkpt lat="57.528136968612671" lon="-6.156470999121666">
        <ele>129.91999999999999</ele>
        <time>2023-08-27T08:54:16Z</time>
      </trkpt>
      <trkpt lat="57.528236964717507" lon="-6.156331021338701">
        <ele>130.40000000000001</ele>
        <time>2023-08-27T08:54:17Z</time>
      </trkpt>
      <trkpt lat="57.528336960822344" lon="-6.156190037727356">
        <ele>130.88</ele>
        <time>2023-08-27T08:54:18Z</time>
      </trkpt>
      <trkpt lat="57.528437962755561" lon="-6.156046958640218">
        <ele>130.88</ele>
        <time>2023-08-27T08:54:19Z</time>
      </trkpt>
      <trkpt lat="57.529866993427277" lon="-6.153756016865373">
        <ele>134.72</ele>
        <time>2023-08-27T08:54:33Z</time>
      </trkpt>
      <trkpt lat="57.531009027734399" lon="-6.150796031579375">
        <ele>131.36000000000001</ele>
        <time>2023-08-27T08:54:46Z</time>
      </trkpt>
      <trkpt lat="57.531980993226171" lon="-6.149015966802836">
        <ele>120.3</ele>
        <time>2023-08-27T08:54:54Z</time>
      </trkpt>
      <trkpt lat="57.533298041671515" lon="-6.148054981604219">
        <ele>114.05</ele>
        <time>2023-08-27T08:55:02Z</time>
      </trkpt>
      <trkpt lat="57.534480979666114" lon="-6.148181967437267">
        <ele>115.98</ele>
        <time>2023-08-27T08:55:09Z</time>
      </trkpt>
      <trkpt lat="57.535727033391595" lon="-6.148790996521711">
        <ele>117.42</ele>
        <time>2023-08-27T08:55:17Z</time>
      </trkpt>
      <trkpt lat="57.535882014781237" lon="-6.148782027885318">
        <ele>117.90000000000001</ele>
        <time>2023-08-27T08:55:18Z</time>
      </trkpt>
      <trkpt lat="57.536041019484401" lon="-6.148746991530061">
        <ele>117.90000000000001</ele>
        <time>2023-08-27T08:55:19Z</time>
      </trkpt>
      <trkpt lat="57.536199018359184" lon="-6.148700974881649">
        <ele>117.90000000000001</ele>
        <time>2023-08-27T08:55:20Z</time>
      </trkpt>
      <trkpt lat="57.536350982263684" lon="-6.148598967120051">
        <ele>117.90000000000001</ele>
        <time>2023-08-27T08:55:21Z</time>
      </trkpt>
      <trkpt lat="57.53649297170341" lon="-6.148447003215551">
        <ele>117.90000000000001</ele>
        <time>2023-08-27T08:55:22Z</time>
      </trkpt>
      <trkpt lat="57.536633033305407" lon="-6.148291015997529">
        <ele>117.90000000000001</ele>
        <time>2023-08-27T08:55:23Z</time>
      </trkpt>
      <trkpt lat="57.536773011088371" lon="-6.148133017122746">
        <ele>118.38</ele>
        <time>2023-08-27T08:55:24Z</time>
      </trkpt>
      <trkpt lat="57.538187960162759" lon="-6.146515980362892">
        <ele>125.59</ele>
        <time>2023-08-27T08:55:35Z</time>
      </trkpt>
      <trkpt lat="57.539743976667523" lon="-6.14558600820601">
        <ele>137.61000000000001</ele>
        <time>2023-08-27T08:55:45Z</time>
      </trkpt>
      <trkpt lat="57.541381968185306" lon="-6.145520964637399">
        <ele>149.62</ele>
        <time>2023-08-27T08:55:55Z</time>
      </trkpt>
      <trkpt lat="57.542990958318114" lon="-6.146305007860065">
        <ele>161.63999999999999</ele>
        <time>2023-08-27T08:56:05Z</time>
      </trkpt>
      <trkpt lat="57.544803963974118" lon="-6.147662037983537">
        <ele>169.81</ele>
        <time>2023-08-27T08:56:17Z</time>
      </trkpt>
      <trkpt lat="57.546314969658852" lon="-6.14822898991406">
        <ele>168.84999999999999</ele>
        <time>2023-08-27T08:56:26Z</time>
      </trkpt>
      <trkpt lat="57.548040971159935" lon="-6.148274000734091">
        <ele>175.09999999999999</ele>
        <time>2023-08-27T08:56:36Z</time>
      </trkpt>
      <trkpt lat="57.549324994906783" lon="-6.148606007918716">
        <ele>170.77000000000001</ele>
        <time>2023-08-27T08:56:44Z</time>
      </trkpt>
      <trkpt lat="57.550957035273314" lon="-6.149762962013483">
        <ele>167.41</ele>
        <time>2023-08-27T08:56:54Z</time>
      </trkpt>
      <trkpt lat="57.553633041679859" lon="-6.151716029271483">
        <ele>156.34999999999999</ele>
        <time>2023-08-27T08:57:10Z</time>
      </trkpt>
      <trkpt lat="57.556139985099435" lon="-6.153454016894102">
        <ele>140.00999999999999</ele>
        <time>2023-08-27T08:57:25Z</time>
      </trkpt>
      <trkpt lat="57.557736989110708" lon="-6.154130017384887">
        <ele>127.51000000000001</ele>
        <time>2023-08-27T08:57:34Z</time>
      </trkpt>
      <trkpt lat="57.559828022494912" lon="-6.154596973210573">
        <ele>109.73</ele>
        <time>2023-08-27T08:57:46Z</time>
      </trkpt>
      <trkpt lat="57.561703976243734" lon="-6.154805012047291">
        <ele>99.629999999999995</ele>
        <time>2023-08-27T08:57:57Z</time>
      </trkpt>
      <trkpt lat="57.563396031036973" lon="-6.155907986685634">
        <ele>89.540000000000006</ele>
        <time>2023-08-27T08:58:08Z</time>
      </trkpt>
      <trkpt lat="57.564524989575148" lon="-6.156535958871245">
        <ele>77.040000000000006</ele>
        <time>2023-08-27T08:58:16Z</time>
      </trkpt>
      <trkpt lat="57.564677037298679" lon="-6.15654400549829">
        <ele>75.599999999999994</ele>
        <time>2023-08-27T08:58:17Z</time>
      </trkpt>
      <trkpt lat="57.56483000703156" lon="-6.156534031033516">
        <ele>74.640000000000001</ele>
        <time>2023-08-27T08:58:18Z</time>
      </trkpt>
      <trkpt lat="57.564985994249582" lon="-6.156487008556724">
        <ele>74.159999999999997</ele>
        <time>2023-08-27T08:58:19Z</time>
      </trkpt>
      <trkpt lat="57.565125972032547" lon="-6.156381983309984">
        <ele>73.680000000000007</ele>
        <time>2023-08-27T08:58:20Z</time>
      </trkpt>
      <trkpt lat="57.565265027806163" lon="-6.156276036053896">
        <ele>73.200000000000003</ele>
        <time>2023-08-27T08:58:21Z</time>
      </trkpt>
      <trkpt lat="57.565382961183786" lon="-6.156159024685621">
        <ele>73.200000000000003</ele>
        <time>2023-08-27T08:58:22Z</time>
      </trkpt>
      <trkpt lat="57.565478011965752" lon="-6.155991973355413">
        <ele>73.200000000000003</ele>
        <time>2023-08-27T08:58:23Z</time>
      </trkpt>
      <trkpt lat="57.56556099280715" lon="-6.155846966430545">
        <ele>73.200000000000003</ele>
        <time>2023-08-27T08:58:24Z</time>
      </trkpt>
      <trkpt lat="57.565631987527013" lon="-6.155722998082638">
        <ele>73.680000000000007</ele>
        <time>2023-08-27T08:58:25Z</time>
      </trkpt>
      <trkpt lat="57.565687978640199" lon="-6.155625013634563">
        <ele>74.640000000000001</ele>
        <time>2023-08-27T08:58:26Z</time>
      </trkpt>
      <trkpt lat="57.565729971975088" lon="-6.155551001429558">
        <ele>75.120000000000005</ele>
        <time>2023-08-27T08:58:27Z</time>
      </trkpt>
      <trkpt lat="57.565785041078925" lon="-6.155455028638244">
        <ele>75.599999999999994</ele>
        <time>2023-08-27T08:58:28Z</time>
      </trkpt>
      <trkpt lat="57.56579702720046" lon="-6.155416974797845">
        <ele>76.079999999999998</ele>
        <time>2023-08-27T08:58:29Z</time>
      </trkpt>
      <trkpt lat="57.565815970301628" lon="-6.155351009219885">
        <ele>76.560000000000002</ele>
        <time>2023-08-27T08:58:30Z</time>
      </trkpt>
      <trkpt lat="57.565834997221828" lon="-6.155287977308035">
        <ele>77.040000000000006</ele>
        <time>2023-08-27T08:58:31Z</time>
      </trkpt>
      <trkpt lat="57.565848995000124" lon="-6.155242966488004">
        <ele>77.519999999999996</ele>
        <time>2023-08-27T08:58:32Z</time>
      </trkpt>
      <trkpt lat="57.565848995000124" lon="-6.155242966488004">
        <ele>78.480000000000004</ele>
        <time>2023-08-27T08:58:33Z</time>
      </trkpt>
      <trkpt lat="57.565848995000124" lon="-6.155242966488004">
        <ele>78.969999999999999</ele>
        <time>2023-08-27T08:58:36Z</time>
      </trkpt>
      <trkpt lat="57.565857041627169" lon="-6.155215976759791">
        <ele>79.450000000000003</ele>
        <time>2023-08-27T08:58:37Z</time>
      </trkpt>
      <trkpt lat="57.565859975293279" lon="-6.155207008123398">
        <ele>79.930000000000007</ele>
        <time>2023-08-27T08:58:38Z</time>
      </trkpt>
      <trkpt lat="57.565859975293279" lon="-6.155207008123398">
        <ele>81.370000000000005</ele>
        <time>2023-08-27T08:58:52Z</time>
      </trkpt>
      <trkpt lat="57.565768025815487" lon="-6.155064012855291">
        <ele>74.159999999999997</ele>
        <time>2023-08-27T09:04:10Z</time>
      </trkpt>
      <trkpt lat="57.565801972523332" lon="-6.155053032562137">
        <ele>75.120000000000005</ele>
        <time>2023-08-27T09:04:14Z</time>
      </trkpt>
      <trkpt lat="57.565913032740355" lon="-6.155026964843273">
        <ele>76.079999999999998</ele>
        <time>2023-08-27T09:04:23Z</time>
      </trkpt>
      <trkpt lat="57.565943039953709" lon="-6.154930992051959">
        <ele>76.079999999999998</ele>
        <time>2023-08-27T09:04:24Z</time>
      </trkpt>
      <trkpt lat="57.565980004146695" lon="-6.154807023704052">
        <ele>76.079999999999998</ele>
        <time>2023-08-27T09:04:25Z</time>
      </trkpt>
      <trkpt lat="57.566192988306284" lon="-6.15409598685801">
        <ele>79.930000000000007</ele>
        <time>2023-08-27T09:04:32Z</time>
      </trkpt>
      <trkpt lat="57.566235987469554" lon="-6.153952991589904">
        <ele>80.890000000000001</ele>
        <time>2023-08-27T09:04:34Z</time>
      </trkpt>
      <trkpt lat="57.56624897941947" lon="-6.15392399020493">
        <ele>81.370000000000005</ele>
        <time>2023-08-27T09:04:35Z</time>
      </trkpt>
      <trkpt lat="57.566287033259869" lon="-6.15383698605001">
        <ele>81.849999999999994</ele>
        <time>2023-08-27T09:04:36Z</time>
      </trkpt>
      <trkpt lat="57.566751977428794" lon="-6.152882035821676">
        <ele>85.209999999999994</ele>
        <time>2023-08-27T09:04:42Z</time>
      </trkpt>
      <trkpt lat="57.567738024517894" lon="-6.151829017326236">
        <ele>95.310000000000002</ele>
        <time>2023-08-27T09:04:51Z</time>
      </trkpt>
      <trkpt lat="57.568853991106153" lon="-6.151657020673156">
        <ele>99.629999999999995</ele>
        <time>2023-08-27T09:04:59Z</time>
      </trkpt>
      <trkpt lat="57.570213032886386" lon="-6.152331009507179">
        <ele>102.04000000000001</ele>
        <time>2023-08-27T09:05:08Z</time>
      </trkpt>
      <trkpt lat="57.572573041543365" lon="-6.153710000216961">
        <ele>103.95999999999999</ele>
        <time>2023-08-27T09:05:23Z</time>
      </trkpt>
      <trkpt lat="57.574741020798683" lon="-6.154762012884021">
        <ele>95.310000000000002</ele>
        <time>2023-08-27T09:05:36Z</time>
      </trkpt>
      <trkpt lat="57.576400972902775" lon="-6.155525017529726">
        <ele>90.019999999999996</ele>
        <time>2023-08-27T09:05:46Z</time>
      </trkpt>
      <trkpt lat="57.578471973538399" lon="-6.157162003219128">
        <ele>85.209999999999994</ele>
        <time>2023-08-27T09:05:59Z</time>
      </trkpt>
      <trkpt lat="57.580270981416106" lon="-6.157731972634792">
        <ele>79.450000000000003</ele>
        <time>2023-08-27T09:06:09Z</time>
      </trkpt>
      <trkpt lat="57.582185994833708" lon="-6.157772038131952">
        <ele>79.930000000000007</ele>
        <time>2023-08-27T09:06:20Z</time>
      </trkpt>
      <trkpt lat="57.584202010184526" lon="-6.157758962363005">
        <ele>85.689999999999998</ele>
        <time>2023-08-27T09:06:32Z</time>
      </trkpt>
      <trkpt lat="57.585419984534383" lon="-6.157416980713606">
        <ele>90.5</ele>
        <time>2023-08-27T09:06:40Z</time>
      </trkpt>
      <trkpt lat="57.58713198825717" lon="-6.157164014875889">
        <ele>95.790000000000006</ele>
        <time>2023-08-27T09:06:50Z</time>
      </trkpt>
      <trkpt lat="57.588970977813005" lon="-6.157792992889881">
        <ele>99.629999999999995</ele>
        <time>2023-08-27T09:07:00Z</time>
      </trkpt>
      <trkpt lat="57.590697985142469" lon="-6.158582987263799">
        <ele>99.150000000000006</ele>
        <time>2023-08-27T09:07:10Z</time>
      </trkpt>
      <trkpt lat="57.592016039416194" lon="-6.159468032419682">
        <ele>97.230000000000004</ele>
        <time>2023-08-27T09:07:18Z</time>
      </trkpt>
      <trkpt lat="57.59284601546824" lon="-6.15968101657927">
        <ele>94.829999999999998</ele>
        <time>2023-08-27T09:07:23Z</time>
      </trkpt>
      <trkpt lat="57.594333970919251" lon="-6.160112014040351">
        <ele>91.939999999999998</ele>
        <time>2023-08-27T09:07:32Z</time>
      </trkpt>
      <trkpt lat="57.595974979922175" lon="-6.161232003942132">
        <ele>95.310000000000002</ele>
        <time>2023-08-27T09:07:43Z</time>
      </trkpt>
      <trkpt lat="57.597807012498379" lon="-6.162546034902334">
        <ele>94.349999999999994</ele>
        <time>2023-08-27T09:07:55Z</time>
      </trkpt>
      <trkpt lat="57.600146988406777" lon="-6.164461970329285">
        <ele>92.420000000000002</ele>
        <time>2023-08-27T09:08:10Z</time>
      </trkpt>
      <trkpt lat="57.601953037083149" lon="-6.166630033403635">
        <ele>89.540000000000006</ele>
        <time>2023-08-27T09:08:22Z</time>
      </trkpt>
      <trkpt lat="57.603866038843989" lon="-6.169363036751747">
        <ele>82.329999999999998</ele>
        <time>2023-08-27T09:08:36Z</time>
      </trkpt>
      <trkpt lat="57.605507969856262" lon="-6.171164978295565">
        <ele>77.519999999999996</ele>
        <time>2023-08-27T09:08:47Z</time>
      </trkpt>
      <trkpt lat="57.607029033824801" lon="-6.172611024230719">
        <ele>72.239999999999995</ele>
        <time>2023-08-27T09:08:57Z</time>
      </trkpt>
      <trkpt lat="57.608270980417728" lon="-6.173994038254023">
        <ele>68.390000000000001</ele>
        <time>2023-08-27T09:09:07Z</time>
      </trkpt>
      <trkpt lat="57.609254010021687" lon="-6.174517991021276">
        <ele>66.469999999999999</ele>
        <time>2023-08-27T09:09:16Z</time>
      </trkpt>
      <trkpt lat="57.609448973089457" lon="-6.174606001004577">
        <ele>65.989999999999995</ele>
        <time>2023-08-27T09:09:19Z</time>
      </trkpt>
      <trkpt lat="57.609473029151559" lon="-6.174616981297731">
        <ele>65.989999999999995</ele>
        <time>2023-08-27T09:09:20Z</time>
      </trkpt>
      <trkpt lat="57.609495995566249" lon="-6.174454959109426">
        <ele>65.510000000000005</ele>
        <time>2023-08-27T09:09:21Z</time>
      </trkpt>
      <trkpt lat="57.609514016658068" lon="-6.17433300241828">
        <ele>65.030000000000001</ele>
        <time>2023-08-27T09:09:22Z</time>
      </trkpt>
      <trkpt lat="57.609533965587616" lon="-6.174186989665031">
        <ele>65.030000000000001</ele>
        <time>2023-08-27T09:09:23Z</time>
      </trkpt>
      <trkpt lat="57.609557015821338" lon="-6.174027984961867">
        <ele>65.030000000000001</ele>
        <time>2023-08-27T09:09:24Z</time>
      </trkpt>
      <trkpt lat="57.609602026641369" lon="-6.173855988308787">
        <ele>64.549999999999997</ele>
        <time>2023-08-27T09:09:25Z</time>
      </trkpt>
      <trkpt lat="57.609642008319497" lon="-6.173708969727159">
        <ele>64.549999999999997</ele>
        <time>2023-08-27T09:09:26Z</time>
      </trkpt>
      <trkpt lat="57.609838983044028" lon="-6.173176970332861">
        <ele>63.100000000000001</ele>
        <time>2023-08-27T09:09:30Z</time>
      </trkpt>
      <trkpt lat="57.609880976378918" lon="-6.173115028068423">
        <ele>62.619999999999997</ele>
        <time>2023-08-27T09:09:31Z</time>
      </trkpt>
      <trkpt lat="57.609975021332502" lon="-6.173075968399644">
        <ele>62.619999999999997</ele>
        <time>2023-08-27T09:09:32Z</time>
      </trkpt>
      <trkpt lat="57.610045010223985" lon="-6.17304696701467">
        <ele>62.619999999999997</ele>
        <time>2023-08-27T09:09:33Z</time>
      </trkpt>
      <trkpt lat="57.610109969973564" lon="-6.173019977286458">
        <ele>62.619999999999997</ele>
        <time>2023-08-27T09:09:34Z</time>
      </trkpt>
      <trkpt lat="57.610289007425308" lon="-6.173013020306826">
        <ele>62.619999999999997</ele>
        <time>2023-08-27T09:09:37Z</time>
      </trkpt>
      <trkpt lat="57.610403001308441" lon="-6.173016959801316">
        <ele>62.619999999999997</ele>
        <time>2023-08-27T09:09:39Z</time>
      </trkpt>
      <trkpt lat="57.610444994643331" lon="-6.173018971458077">
        <ele>62.619999999999997</ele>
        <time>2023-08-27T09:09:40Z</time>
      </trkpt>
      <trkpt lat="57.610450023785233" lon="-6.172729963436723">
        <ele>62.140000000000001</ele>
        <time>2023-08-27T09:09:41Z</time>
      </trkpt>
      <trkpt lat="57.610487993806601" lon="-6.172697022557259">
        <ele>62.140000000000001</ele>
        <time>2023-08-27T09:09:42Z</time>
      </trkpt>
      <trkpt lat="57.610523030161858" lon="-6.172666009515524">
        <ele>62.140000000000001</ele>
        <time>2023-08-27T09:09:43Z</time>
      </trkpt>
      <trkpt lat="57.610524035990238" lon="-6.172663997858763">
        <ele>62.140000000000001</ele>
        <time>2023-08-27T09:09:44Z</time>
      </trkpt>
      <trkpt lat="57.610524035990238" lon="-6.172663997858763">
        <ele>62.140000000000001</ele>
        <time>2023-08-27T09:09:45Z</time>
      </trkpt>
      <trkpt lat="57.610524035990238" lon="-6.172663997858763">
        <ele>61.659999999999997</ele>
        <time>2023-08-27T09:09:46Z</time>
      </trkpt>
      <trkpt lat="57.610524035990238" lon="-6.172663997858763">
        <ele>61.659999999999997</ele>
        <time>2023-08-27T09:09:47Z</time>
      </trkpt>
      <trkpt lat="57.610603999346495" lon="-6.172663997858763">
        <ele>61.659999999999997</ele>
        <time>2023-08-27T09:09:48Z</time>
      </trkpt>
      <trkpt lat="57.610524035990238" lon="-6.172663997858763">
        <ele>62.140000000000001</ele>
        <time>2023-08-27T09:09:54Z</time>
      </trkpt>
      <trkpt lat="57.610524035990238" lon="-6.172663997858763">
        <ele>62.140000000000001</ele>
        <time>2023-08-27T09:09:55Z</time>
      </trkpt>
      <trkpt lat="57.610641969367862" lon="-6.172663997858763">
        <ele>62.140000000000001</ele>
        <time>2023-08-27T09:09:56Z</time>
      </trkpt>
      <trkpt lat="57.610524035990238" lon="-6.172663997858763">
        <ele>62.140000000000001</ele>
        <time>2023-08-27T09:10:01Z</time>
      </trkpt>
      <trkpt lat="57.61067901737988" lon="-6.172369960695505">
        <ele>61.659999999999997</ele>
        <time>2023-08-27T09:10:09Z</time>
      </trkpt>
      <trkpt lat="57.610652027651668" lon="-6.172417989000678">
        <ele>69.829999999999998</ele>
        <time>2023-08-27T09:20:23Z</time>
      </trkpt>
      <trkpt lat="57.610524035990238" lon="-6.172663997858763">
        <ele>59.740000000000002</ele>
        <time>2023-08-27T09:20:33Z</time>
      </trkpt>
      <trkpt lat="57.610524035990238" lon="-6.172663997858763">
        <ele>59.740000000000002</ele>
        <time>2023-08-27T09:20:34Z</time>
      </trkpt>
      <trkpt lat="57.610524035990238" lon="-6.172663997858763">
        <ele>60.219999999999999</ele>
        <time>2023-08-27T09:20:35Z</time>
      </trkpt>
      <trkpt lat="57.610429991036654" lon="-6.172747984528542">
        <ele>60.219999999999999</ele>
        <time>2023-08-27T09:20:36Z</time>
      </trkpt>
      <trkpt lat="57.610373999923468" lon="-6.172798024490476">
        <ele>59.740000000000002</ele>
        <time>2023-08-27T09:20:37Z</time>
      </trkpt>
      <trkpt lat="57.610312979668379" lon="-6.1728520039469">
        <ele>60.219999999999999</ele>
        <time>2023-08-27T09:20:38Z</time>
      </trkpt>
      <trkpt lat="57.61025195941329" lon="-6.172905983403325">
        <ele>60.219999999999999</ele>
        <time>2023-08-27T09:20:39Z</time>
      </trkpt>
      <trkpt lat="57.610191022977233" lon="-6.17295996285975">
        <ele>60.219999999999999</ele>
        <time>2023-08-27T09:20:40Z</time>
      </trkpt>
      <trkpt lat="57.609676038846374" lon="-6.173587013036013">
        <ele>61.659999999999997</ele>
        <time>2023-08-27T09:20:49Z</time>
      </trkpt>
      <trkpt lat="57.609635973349214" lon="-6.173734031617641">
        <ele>61.659999999999997</ele>
        <time>2023-08-27T09:20:50Z</time>
      </trkpt>
      <trkpt lat="57.609478980302811" lon="-6.174574987962842">
        <ele>62.619999999999997</ele>
        <time>2023-08-27T09:20:58Z</time>
      </trkpt>
      <trkpt lat="57.609473029151559" lon="-6.174616981297731">
        <ele>63.100000000000001</ele>
        <time>2023-08-27T09:21:02Z</time>
      </trkpt>
      <trkpt lat="57.609473029151559" lon="-6.174616981297731">
        <ele>63.100000000000001</ele>
        <time>2023-08-27T09:21:03Z</time>
      </trkpt>
      <trkpt lat="57.609537988901138" lon="-6.17465402930975">
        <ele>63.100000000000001</ele>
        <time>2023-08-27T09:21:04Z</time>
      </trkpt>
      <trkpt lat="57.609580988064408" lon="-6.174679007381201">
        <ele>63.100000000000001</ele>
        <time>2023-08-27T09:21:05Z</time>
      </trkpt>
      <trkpt lat="57.609641002491117" lon="-6.174713037908077">
        <ele>63.100000000000001</ele>
        <time>2023-08-27T09:21:06Z</time>
      </trkpt>
      <trkpt lat="57.609707973897457" lon="-6.174751007929444">
        <ele>63.100000000000001</ele>
        <time>2023-08-27T09:21:07Z</time>
      </trkpt>
      <trkpt lat="57.609787015244365" lon="-6.174796018749476">
        <ele>63.100000000000001</ele>
        <time>2023-08-27T09:21:08Z</time>
      </trkpt>
      <trkpt lat="57.610783036798239" lon="-6.175590958446264">
        <ele>66.950000000000003</ele>
        <time>2023-08-27T09:21:18Z</time>
      </trkpt>
      <trkpt lat="57.612176025286317" lon="-6.177397007122636">
        <ele>77.519999999999996</ele>
        <time>2023-08-27T09:21:31Z</time>
      </trkpt>
      <trkpt lat="57.613449990749359" lon="-6.179720973595977">
        <ele>85.209999999999994</ele>
        <time>2023-08-27T09:21:43Z</time>
      </trkpt>
      <trkpt lat="57.614339981228113" lon="-6.182332020252943">
        <ele>88.579999999999998</ele>
        <time>2023-08-27T09:21:53Z</time>
      </trkpt>
      <trkpt lat="57.615398028865457" lon="-6.186723969876766">
        <ele>90.019999999999996</ele>
        <time>2023-08-27T09:22:08Z</time>
      </trkpt>
      <trkpt lat="57.616473007947206" lon="-6.189779005944729">
        <ele>89.540000000000006</ele>
        <time>2023-08-27T09:22:20Z</time>
      </trkpt>
      <trkpt lat="57.618014020845294" lon="-6.193515993654728">
        <ele>104.44</ele>
        <time>2023-08-27T09:22:36Z</time>
      </trkpt>
      <trkpt lat="57.619173992425203" lon="-6.195502001792193">
        <ele>107.31999999999999</ele>
        <time>2023-08-27T09:22:45Z</time>
      </trkpt>
      <trkpt lat="57.621068973094225" lon="-6.197954965755343">
        <ele>98.189999999999998</ele>
        <time>2023-08-27T09:22:59Z</time>
      </trkpt>
      <trkpt lat="57.622500015422702" lon="-6.199869979172945">
        <ele>83.290000000000006</ele>
        <time>2023-08-27T09:23:11Z</time>
      </trkpt>
      <trkpt lat="57.623782027512789" lon="-6.201820028945804">
        <ele>70.790000000000006</ele>
        <time>2023-08-27T09:23:24Z</time>
      </trkpt>
      <trkpt lat="57.625224972143769" lon="-6.204383969306946">
        <ele>58.299999999999997</ele>
        <time>2023-08-27T09:23:39Z</time>
      </trkpt>
      <trkpt lat="57.626315038651228" lon="-6.206652028486133">
        <ele>47.240000000000002</ele>
        <time>2023-08-27T09:23:52Z</time>
      </trkpt>
      <trkpt lat="57.627635020762682" lon="-6.208844985812903">
        <ele>40.509999999999998</ele>
        <time>2023-08-27T09:24:05Z</time>
      </trkpt>
      <trkpt lat="57.628890965133905" lon="-6.210177959874272">
        <ele>38.109999999999999</ele>
        <time>2023-08-27T09:24:16Z</time>
      </trkpt>
      <trkpt lat="57.629934009164572" lon="-6.211758032441139">
        <ele>36.189999999999998</ele>
        <time>2023-08-27T09:24:25Z</time>
      </trkpt>
      <trkpt lat="57.630693996325135" lon="-6.214021984487772">
        <ele>37.149999999999999</ele>
        <time>2023-08-27T09:24:34Z</time>
      </trkpt>
      <trkpt lat="57.631148966029286" lon="-6.216494981199503">
        <ele>41.950000000000003</ele>
        <time>2023-08-27T09:24:43Z</time>
      </trkpt>
      <trkpt lat="57.631104039028287" lon="-6.218854989856482">
        <ele>43.880000000000003</ele>
        <time>2023-08-27T09:24:51Z</time>
      </trkpt>
      <trkpt lat="57.630879990756512" lon="-6.222305987030268">
        <ele>40.030000000000001</ele>
        <time>2023-08-27T09:25:03Z</time>
      </trkpt>
      <trkpt lat="57.63063901104033" lon="-6.225978014990687">
        <ele>37.630000000000003</ele>
        <time>2023-08-27T09:25:16Z</time>
      </trkpt>
      <trkpt lat="57.630303986370564" lon="-6.230328977108002">
        <ele>33.780000000000001</ele>
        <time>2023-08-27T09:25:31Z</time>
      </trkpt>
      <trkpt lat="57.629748014733195" lon="-6.234365031123161">
        <ele>28.98</ele>
        <time>2023-08-27T09:25:45Z</time>
      </trkpt>
      <trkpt lat="57.629516003653407" lon="-6.236302005127072">
        <ele>29.940000000000001</ele>
        <time>2023-08-27T09:25:52Z</time>
      </trkpt>
      <trkpt lat="57.629531007260084" lon="-6.236571986228228">
        <ele>30.420000000000002</ele>
        <time>2023-08-27T09:25:53Z</time>
      </trkpt>
      <trkpt lat="57.629561014473438" lon="-6.236831992864609">
        <ele>30.420000000000002</ele>
        <time>2023-08-27T09:25:54Z</time>
      </trkpt>
      <trkpt lat="57.629595967009664" lon="-6.237086970359087">
        <ele>30.899999999999999</ele>
        <time>2023-08-27T09:25:55Z</time>
      </trkpt>
      <trkpt lat="57.629636032506824" lon="-6.237320993095636">
        <ele>31.379999999999999</ele>
        <time>2023-08-27T09:25:56Z</time>
      </trkpt>
      <trkpt lat="57.629703003913164" lon="-6.237538000568748">
        <ele>31.379999999999999</ele>
        <time>2023-08-27T09:25:57Z</time>
      </trkpt>
      <trkpt lat="57.629770981147885" lon="-6.237758025527">
        <ele>31.859999999999999</ele>
        <time>2023-08-27T09:25:58Z</time>
      </trkpt>
      <trkpt lat="57.629838958382607" lon="-6.237978972494602">
        <ele>32.340000000000003</ele>
        <time>2023-08-27T09:25:59Z</time>
      </trkpt>
      <trkpt lat="57.630762979388237" lon="-6.240062965080142">
        <ele>37.149999999999999</ele>
        <time>2023-08-27T09:26:09Z</time>
      </trkpt>
      <trkpt lat="57.631417019292712" lon="-6.241985019296408">
        <ele>46.759999999999998</ele>
        <time>2023-08-27T09:26:18Z</time>
      </trkpt>
      <trkpt lat="57.63147896155715" lon="-6.242158021777868">
        <ele>47.719999999999999</ele>
        <time>2023-08-27T09:26:19Z</time>
      </trkpt>
      <trkpt lat="57.631574012339115" lon="-6.242275033146143">
        <ele>48.68</ele>
        <time>2023-08-27T09:26:20Z</time>
      </trkpt>
      <trkpt lat="57.63167199678719" lon="-6.242382992058992">
        <ele>49.649999999999999</ele>
        <time>2023-08-27T09:26:21Z</time>
      </trkpt>
      <trkpt lat="57.631788002327085" lon="-6.242407970130444">
        <ele>51.090000000000003</ele>
        <time>2023-08-27T09:26:22Z</time>
      </trkpt>
      <trkpt lat="57.631903002038598" lon="-6.242432026192546">
        <ele>52.049999999999997</ele>
        <time>2023-08-27T09:26:23Z</time>
      </trkpt>
      <trkpt lat="57.632018001750112" lon="-6.242400007322431">
        <ele>53.009999999999998</ele>
        <time>2023-08-27T09:26:24Z</time>
      </trkpt>
      <trkpt lat="57.632138030603528" lon="-6.242306968197227">
        <ele>53.969999999999999</ele>
        <time>2023-08-27T09:26:25Z</time>
      </trkpt>
      <trkpt lat="57.632242972031236" lon="-6.24216103926301">
        <ele>54.450000000000003</ele>
        <time>2023-08-27T09:26:26Z</time>
      </trkpt>
      <trkpt lat="57.632352020591497" lon="-6.241995999589562">
        <ele>54.93</ele>
        <time>2023-08-27T09:26:27Z</time>
      </trkpt>
      <trkpt lat="57.63257497921586" lon="-6.241661980748177">
        <ele>55.409999999999997</ele>
        <time>2023-08-27T09:26:29Z</time>
      </trkpt>
      <trkpt lat="57.632692996412516" lon="-6.241529965773225">
        <ele>55.409999999999997</ele>
        <time>2023-08-27T09:26:30Z</time>
      </trkpt>
      <trkpt lat="57.632811013609171" lon="-6.24143198132515">
        <ele>55.409999999999997</ele>
        <time>2023-08-27T09:26:31Z</time>
      </trkpt>
      <trkpt lat="57.632928024977446" lon="-6.241356041282415">
        <ele>55.409999999999997</ele>
        <time>2023-08-27T09:26:32Z</time>
      </trkpt>
      <trkpt lat="57.63304503634572" lon="-6.241312958300114">
        <ele>54.93</ele>
        <time>2023-08-27T09:26:33Z</time>
      </trkpt>
      <trkpt lat="57.633165987208486" lon="-6.241269037127495">
        <ele>55.409999999999997</ele>
        <time>2023-08-27T09:26:34Z</time>
      </trkpt>
      <trkpt lat="57.634630976244807" lon="-6.240719016641378">
        <ele>57.82</ele>
        <time>2023-08-27T09:26:46Z</time>
      </trkpt>
      <trkpt lat="57.635307982563972" lon="-6.240384997799993">
        <ele>59.259999999999998</ele>
        <time>2023-08-27T09:26:52Z</time>
      </trkpt>
      <trkpt lat="57.635450977832079" lon="-6.240372005850077">
        <ele>59.740000000000002</ele>
        <time>2023-08-27T09:26:53Z</time>
      </trkpt>
      <trkpt lat="57.635544016957283" lon="-6.240363037213683">
        <ele>59.740000000000002</ele>
        <time>2023-08-27T09:26:54Z</time>
      </trkpt>
      <trkpt lat="57.635687012225389" lon="-6.24042397364974">
        <ele>59.740000000000002</ele>
        <time>2023-08-27T09:26:55Z</time>
      </trkpt>
      <trkpt lat="57.635813998058438" lon="-6.240477031096816">
        <ele>59.740000000000002</ele>
        <time>2023-08-27T09:26:56Z</time>
      </trkpt>
      <trkpt lat="57.637222995981574" lon="-6.241312958300114">
        <ele>65.989999999999995</ele>
        <time>2023-08-27T09:27:08Z</time>
      </trkpt>
      <trkpt lat="57.637702021747828" lon="-6.241610012948513">
        <ele>69.349999999999994</ele>
        <time>2023-08-27T09:27:14Z</time>
      </trkpt>
      <trkpt lat="57.638251958414912" lon="-6.24171101488173">
        <ele>70.790000000000006</ele>
        <time>2023-08-27T09:27:24Z</time>
      </trkpt>
      <trkpt lat="57.638634005561471" lon="-6.241623004898429">
        <ele>71.269999999999996</ele>
        <time>2023-08-27T09:27:30Z</time>
      </trkpt>
      <trkpt lat="57.638703994452953" lon="-6.241612024605274">
        <ele>71.269999999999996</ele>
        <time>2023-08-27T09:27:31Z</time>
      </trkpt>
      <trkpt lat="57.638774989172816" lon="-6.241666004061699">
        <ele>71.760000000000005</ele>
        <time>2023-08-27T09:27:32Z</time>
      </trkpt>
      <trkpt lat="57.638853024691343" lon="-6.241725012660027">
        <ele>71.760000000000005</ele>
        <time>2023-08-27T09:27:33Z</time>
      </trkpt>
      <trkpt lat="57.638934999704361" lon="-6.241787960752845">
        <ele>71.269999999999996</ele>
        <time>2023-08-27T09:27:34Z</time>
      </trkpt>
      <trkpt lat="57.639977959915996" lon="-6.242518024519086">
        <ele>74.159999999999997</ele>
        <time>2023-08-27T09:27:45Z</time>
      </trkpt>
      <trkpt lat="57.640666030347347" lon="-6.242624977603555">
        <ele>76.560000000000002</ele>
        <time>2023-08-27T09:27:51Z</time>
      </trkpt>
      <trkpt lat="57.640781030058861" lon="-6.242599999532104">
        <ele>77.040000000000006</ele>
        <time>2023-08-27T09:27:52Z</time>
      </trkpt>
      <trkpt lat="57.64090801589191" lon="-6.242573009803891">
        <ele>77.040000000000006</ele>
        <time>2023-08-27T09:27:53Z</time>
      </trkpt>
      <trkpt lat="57.641006000339985" lon="-6.242519030347467">
        <ele>77.519999999999996</ele>
        <time>2023-08-27T09:27:54Z</time>
      </trkpt>
      <trkpt lat="57.641115970909595" lon="-6.242457004263997">
        <ele>78</ele>
        <time>2023-08-27T09:27:55Z</time>
      </trkpt>
      <trkpt lat="57.642258005216718" lon="-6.241945959627628">
        <ele>79.930000000000007</ele>
        <time>2023-08-27T09:28:06Z</time>
      </trkpt>
      <trkpt lat="57.642775001004338" lon="-6.241932967677712">
        <ele>80.890000000000001</ele>
        <time>2023-08-27T09:28:14Z</time>
      </trkpt>
      <trkpt lat="57.643549991771579" lon="-6.242043022066355">
        <ele>80.890000000000001</ele>
        <time>2023-08-27T09:28:22Z</time>
      </trkpt>
      <trkpt lat="57.644750028848648" lon="-6.242215018719435">
        <ele>86.659999999999997</ele>
        <time>2023-08-27T09:28:33Z</time>
      </trkpt>
      <trkpt lat="57.645783014595509" lon="-6.242874003946781">
        <ele>86.659999999999997</ele>
        <time>2023-08-27T09:28:41Z</time>
      </trkpt>
      <trkpt lat="57.646190961822867" lon="-6.243100985884666">
        <ele>85.689999999999998</ele>
        <time>2023-08-27T09:28:44Z</time>
      </trkpt>
      <trkpt lat="57.64632498845458" lon="-6.243124958127737">
        <ele>85.689999999999998</ele>
        <time>2023-08-27T09:28:45Z</time>
      </trkpt>
      <trkpt lat="57.646458009257913" lon="-6.243149014189839">
        <ele>85.689999999999998</ele>
        <time>2023-08-27T09:28:46Z</time>
      </trkpt>
      <trkpt lat="57.646718015894294" lon="-6.243196958675981">
        <ele>86.180000000000007</ele>
        <time>2023-08-27T09:28:48Z</time>
      </trkpt>
      <trkpt lat="57.646853970363736" lon="-6.24323601834476">
        <ele>86.180000000000007</ele>
        <time>2023-08-27T09:28:49Z</time>
      </trkpt>
      <trkpt lat="57.646977016702294" lon="-6.243340037763119">
        <ele>86.659999999999997</ele>
        <time>2023-08-27T09:28:50Z</time>
      </trkpt>
      <trkpt lat="57.64709503389895" lon="-6.243439028039575">
        <ele>87.140000000000001</ele>
        <time>2023-08-27T09:28:51Z</time>
      </trkpt>
      <trkpt lat="57.647211961448193" lon="-6.24353701248765">
        <ele>87.620000000000005</ele>
        <time>2023-08-27T09:28:52Z</time>
      </trkpt>
      <trkpt lat="57.648199014365673" lon="-6.244176970794797">
        <ele>89.060000000000002</ele>
        <time>2023-08-27T09:29:01Z</time>
      </trkpt>
      <trkpt lat="57.648301022127271" lon="-6.244137994945049">
        <ele>88.579999999999998</ele>
        <time>2023-08-27T09:29:02Z</time>
      </trkpt>
      <trkpt lat="57.648403029888868" lon="-6.24407596886158">
        <ele>88.099999999999994</ele>
        <time>2023-08-27T09:29:03Z</time>
      </trkpt>
      <trkpt lat="57.648506965488195" lon="-6.244014026597142">
        <ele>87.620000000000005</ele>
        <time>2023-08-27T09:29:04Z</time>
      </trkpt>
      <trkpt lat="57.648611990734935" lon="-6.243930039927363">
        <ele>87.620000000000005</ele>
        <time>2023-08-27T09:29:05Z</time>
      </trkpt>
      <trkpt lat="57.648821035400033" lon="-6.243737004697323">
        <ele>87.140000000000001</ele>
        <time>2023-08-27T09:29:07Z</time>
      </trkpt>
      <trkpt lat="57.648948021233082" lon="-6.24373197555542">
        <ele>86.659999999999997</ele>
        <time>2023-08-27T09:29:08Z</time>
      </trkpt>
      <trkpt lat="57.649040976539254" lon="-6.24373197555542">
        <ele>86.180000000000007</ele>
        <time>2023-08-27T09:29:09Z</time>
      </trkpt>
      <trkpt lat="57.649171985685825" lon="-6.243803976103663">
        <ele>85.689999999999998</ele>
        <time>2023-08-27T09:29:10Z</time>
      </trkpt>
      <trkpt lat="57.649280028417706" lon="-6.243861978873611">
        <ele>85.209999999999994</ele>
        <time>2023-08-27T09:29:11Z</time>
      </trkpt>
      <trkpt lat="57.64935496263206" lon="-6.2439039722085">
        <ele>85.209999999999994</ele>
        <time>2023-08-27T09:29:12Z</time>
      </trkpt>
      <trkpt lat="57.649748995900154" lon="-6.244117962196469">
        <ele>84.25</ele>
        <time>2023-08-27T09:29:18Z</time>
      </trkpt>
      <trkpt lat="57.650833027437329" lon="-6.24441803433001">
        <ele>83.769999999999996</ele>
        <time>2023-08-27T09:29:28Z</time>
      </trkpt>
      <trkpt lat="57.650947021320462" lon="-6.244408981874585">
        <ele>84.25</ele>
        <time>2023-08-27T09:29:29Z</time>
      </trkpt>
      <trkpt lat="57.651054980233312" lon="-6.244401019066572">
        <ele>84.730000000000004</ele>
        <time>2023-08-27T09:29:30Z</time>
      </trkpt>
      <trkpt lat="57.651166962459683" lon="-6.244371011853218">
        <ele>85.689999999999998</ele>
        <time>2023-08-27T09:29:31Z</time>
      </trkpt>
      <trkpt lat="57.652138005942106" lon="-6.244112011045218">
        <ele>93.870000000000005</ele>
        <time>2023-08-27T09:29:40Z</time>
      </trkpt>
      <trkpt lat="57.652674028649926" lon="-6.24420203268528">
        <ele>95.790000000000006</ele>
        <time>2023-08-27T09:29:45Z</time>
      </trkpt>
      <trkpt lat="57.652774024754763" lon="-6.244217958301306">
        <ele>95.790000000000006</ele>
        <time>2023-08-27T09:29:46Z</time>
      </trkpt>
      <trkpt lat="57.652872009202838" lon="-6.244274033233523">
        <ele>95.790000000000006</ele>
        <time>2023-08-27T09:29:47Z</time>
      </trkpt>
      <trkpt lat="57.652972005307674" lon="-6.244363971054554">
        <ele>95.790000000000006</ele>
        <time>2023-08-27T09:29:48Z</time>
      </trkpt>
      <trkpt lat="57.653077030554414" lon="-6.244459021836519">
        <ele>95.790000000000006</ele>
        <time>2023-08-27T09:29:49Z</time>
      </trkpt>
      <trkpt lat="57.653185995295644" lon="-6.244557006284595">
        <ele>95.790000000000006</ele>
        <time>2023-08-27T09:29:50Z</time>
      </trkpt>
      <trkpt lat="57.653599977493286" lon="-6.24504298903048">
        <ele>96.269999999999996</ele>
        <time>2023-08-27T09:29:54Z</time>
      </trkpt>
      <trkpt lat="57.653678013011813" lon="-6.245216997340322">
        <ele>96.75</ele>
        <time>2023-08-27T09:29:55Z</time>
      </trkpt>
      <trkpt lat="57.653746996074915" lon="-6.245416989549995">
        <ele>97.230000000000004</ele>
        <time>2023-08-27T09:29:56Z</time>
      </trkpt>
      <trkpt lat="57.653814973309636" lon="-6.245616981759667">
        <ele>97.709999999999994</ele>
        <time>2023-08-27T09:29:57Z</time>
      </trkpt>
      <trkpt lat="57.653882028535008" lon="-6.24581404030323">
        <ele>97.709999999999994</ele>
        <time>2023-08-27T09:29:58Z</time>
      </trkpt>
      <trkpt lat="57.653942964971066" lon="-6.246003974229097">
        <ele>98.189999999999998</ele>
        <time>2023-08-27T09:29:59Z</time>
      </trkpt>
      <trkpt lat="57.653990993276238" lon="-6.24620103277266">
        <ele>98.189999999999998</ele>
        <time>2023-08-27T09:30:00Z</time>
      </trkpt>
      <trkpt lat="57.654124014079571" lon="-6.246743006631732">
        <ele>98.670000000000002</ele>
        <time>2023-08-27T09:30:03Z</time>
      </trkpt>
      <trkpt lat="57.654154021292925" lon="-6.246864963322878">
        <ele>98.189999999999998</ele>
        <time>2023-08-27T09:30:04Z</time>
      </trkpt>
      <trkpt lat="57.654178999364376" lon="-6.246968982741237">
        <ele>98.189999999999998</ele>
        <time>2023-08-27T09:30:05Z</time>
      </trkpt>
      <trkpt lat="57.654245970770717" lon="-6.247241981327534">
        <ele>97.709999999999994</ele>
        <time>2023-08-27T09:30:12Z</time>
      </trkpt>
      <trkpt lat="57.654245970770717" lon="-6.247241981327534">
        <ele>98.189999999999998</ele>
        <time>2023-08-27T09:30:55Z</time>
      </trkpt>
      <trkpt lat="57.654245970770717" lon="-6.247241981327534">
        <ele>97.709999999999994</ele>
        <time>2023-08-27T09:31:50Z</time>
      </trkpt>
      <trkpt lat="57.654306991025805" lon="-6.247495030984283">
        <ele>99.150000000000006</ele>
        <time>2023-08-27T09:32:06Z</time>
      </trkpt>
      <trkpt lat="57.654560962691903" lon="-6.248792968690395">
        <ele>103</ele>
        <time>2023-08-27T09:32:14Z</time>
      </trkpt>
      <trkpt lat="57.654899004846811" lon="-6.250748969614506">
        <ele>106.84</ele>
        <time>2023-08-27T09:32:23Z</time>
      </trkpt>
      <trkpt lat="57.654990032315254" lon="-6.250948961824179">
        <ele>107.31999999999999</ele>
        <time>2023-08-27T09:32:24Z</time>
      </trkpt>
      <trkpt lat="57.655071001499891" lon="-6.251127999275923">
        <ele>107.81</ele>
        <time>2023-08-27T09:32:25Z</time>
      </trkpt>
      <trkpt lat="57.655163034796715" lon="-6.251262025907636">
        <ele>108.29000000000001</ele>
        <time>2023-08-27T09:32:26Z</time>
      </trkpt>
      <trkpt lat="57.655279962345958" lon="-6.25135900452733">
        <ele>108.77</ele>
        <time>2023-08-27T09:32:27Z</time>
      </trkpt>
      <trkpt lat="57.655402002856135" lon="-6.251446008682251">
        <ele>109.25</ele>
        <time>2023-08-27T09:32:28Z</time>
      </trkpt>
      <trkpt lat="57.655543992295861" lon="-6.251496970653534">
        <ele>109.73</ele>
        <time>2023-08-27T09:32:29Z</time>
      </trkpt>
      <trkpt lat="57.655696040019393" lon="-6.25155002810061">
        <ele>109.73</ele>
        <time>2023-08-27T09:32:30Z</time>
      </trkpt>
      <trkpt lat="57.655846998095512" lon="-6.251603001728654">
        <ele>109.73</ele>
        <time>2023-08-27T09:32:31Z</time>
      </trkpt>
      <trkpt lat="57.65599200502038" lon="-6.251653963699937">
        <ele>109.73</ele>
        <time>2023-08-27T09:32:32Z</time>
      </trkpt>
      <trkpt lat="57.656135000288486" lon="-6.251730993390083">
        <ele>109.73</ele>
        <time>2023-08-27T09:32:33Z</time>
      </trkpt>
      <trkpt lat="57.656253017485142" lon="-6.251860996708274">
        <ele>110.20999999999999</ele>
        <time>2023-08-27T09:32:34Z</time>
      </trkpt>
      <trkpt lat="57.656369023025036" lon="-6.251988988369703">
        <ele>110.20999999999999</ele>
        <time>2023-08-27T09:32:35Z</time>
      </trkpt>
      <trkpt lat="57.656487040221691" lon="-6.252119997516275">
        <ele>110.69</ele>
        <time>2023-08-27T09:32:36Z</time>
      </trkpt>
      <trkpt lat="57.656790968030691" lon="-6.252671023830771">
        <ele>110.69</ele>
        <time>2023-08-27T09:32:39Z</time>
      </trkpt>
      <trkpt lat="57.656883001327515" lon="-6.252864981070161">
        <ele>110.69</ele>
        <time>2023-08-27T09:32:40Z</time>
      </trkpt>
      <trkpt lat="57.657049968838692" lon="-6.253216015174985">
        <ele>110.69</ele>
        <time>2023-08-27T09:32:42Z</time>
      </trkpt>
      <trkpt lat="57.65713102184236" lon="-6.253386000171304">
        <ele>110.20999999999999</ele>
        <time>2023-08-27T09:32:43Z</time>
      </trkpt>
      <trkpt lat="57.657233029603958" lon="-6.253518015146256">
        <ele>110.69</ele>
        <time>2023-08-27T09:32:44Z</time>
      </trkpt>
      <trkpt lat="57.657752959057689" lon="-6.254074992612004">
        <ele>110.69</ele>
        <time>2023-08-27T09:32:49Z</time>
      </trkpt>
      <trkpt lat="57.657836023718119" lon="-6.254208013415337">
        <ele>110.69</ele>
        <time>2023-08-27T09:32:50Z</time>
      </trkpt>
      <trkpt lat="57.658701036125422" lon="-6.255588009953499">
        <ele>104.44</ele>
        <time>2023-08-27T09:33:00Z</time>
      </trkpt>
      <trkpt lat="57.658863980323076" lon="-6.255849022418261">
        <ele>102.52</ele>
        <time>2023-08-27T09:33:02Z</time>
      </trkpt>
      <trkpt lat="57.65897998586297" lon="-6.255899984389544">
        <ele>101.56</ele>
        <time>2023-08-27T09:33:03Z</time>
      </trkpt>
      <trkpt lat="57.659095991402864" lon="-6.255946001037955">
        <ele>100.59999999999999</ele>
        <time>2023-08-27T09:33:04Z</time>
      </trkpt>
      <trkpt lat="57.659210991114378" lon="-6.255979025736451">
        <ele>100.11</ele>
        <time>2023-08-27T09:33:05Z</time>
      </trkpt>
      <trkpt lat="57.659328002482653" lon="-6.255946001037955">
        <ele>99.150000000000006</ele>
        <time>2023-08-27T09:33:06Z</time>
      </trkpt>
      <trkpt lat="57.659447025507689" lon="-6.255912976339459">
        <ele>98.189999999999998</ele>
        <time>2023-08-27T09:33:07Z</time>
      </trkpt>
      <trkpt lat="57.659566970542073" lon="-6.255879029631615">
        <ele>97.230000000000004</ele>
        <time>2023-08-27T09:33:08Z</time>
      </trkpt>
      <trkpt lat="57.659684987738729" lon="-6.255846004933119">
        <ele>96.75</ele>
        <time>2023-08-27T09:33:09Z</time>
      </trkpt>
      <trkpt lat="57.659803004935384" lon="-6.255895961076021">
        <ele>95.790000000000006</ele>
        <time>2023-08-27T09:33:10Z</time>
      </trkpt>
      <trkpt lat="57.659911969676614" lon="-6.255982965230942">
        <ele>95.310000000000002</ele>
        <time>2023-08-27T09:33:11Z</time>
      </trkpt>
      <trkpt lat="57.660024035722017" lon="-6.256073992699385">
        <ele>94.829999999999998</ele>
        <time>2023-08-27T09:33:12Z</time>
      </trkpt>
      <trkpt lat="57.660576989874244" lon="-6.256517982110381">
        <ele>92.420000000000002</ele>
        <time>2023-08-27T09:33:17Z</time>
      </trkpt>
      <trkpt lat="57.660672040656209" lon="-6.256633987650275">
        <ele>92.420000000000002</ele>
        <time>2023-08-27T09:33:18Z</time>
      </trkpt>
      <trkpt lat="57.661528000608087" lon="-6.258184975013137">
        <ele>90.019999999999996</ele>
        <time>2023-08-27T09:33:28Z</time>
      </trkpt>
      <trkpt lat="57.661868976429105" lon="-6.258742036297917">
        <ele>87.620000000000005</ele>
        <time>2023-08-27T09:33:32Z</time>
      </trkpt>
      <trkpt lat="57.661971990019083" lon="-6.258808001875877">
        <ele>86.659999999999997</ele>
        <time>2023-08-27T09:33:33Z</time>
      </trkpt>
      <trkpt lat="57.662082966417074" lon="-6.258858041837812">
        <ele>86.180000000000007</ele>
        <time>2023-08-27T09:33:34Z</time>
      </trkpt>
      <trkpt lat="57.662191009148955" lon="-6.258847983554006">
        <ele>85.209999999999994</ele>
        <time>2023-08-27T09:33:35Z</time>
      </trkpt>
      <trkpt lat="57.662280024960637" lon="-6.258838009089232">
        <ele>84.730000000000004</ele>
        <time>2023-08-27T09:33:36Z</time>
      </trkpt>
      <trkpt lat="57.662388989701867" lon="-6.258734995499253">
        <ele>84.25</ele>
        <time>2023-08-27T09:33:37Z</time>
      </trkpt>
      <trkpt lat="57.662486974149942" lon="-6.258642040193081">
        <ele>83.769999999999996</ele>
        <time>2023-08-27T09:33:38Z</time>
      </trkpt>
      <trkpt lat="57.662572972476482" lon="-6.258560987189412">
        <ele>83.290000000000006</ele>
        <time>2023-08-27T09:33:39Z</time>
      </trkpt>
      <trkpt lat="57.662653019651771" lon="-6.258484963327646">
        <ele>82.329999999999998</ele>
        <time>2023-08-27T09:33:40Z</time>
      </trkpt>
      <trkpt lat="57.662736000493169" lon="-6.258409023284912">
        <ele>81.849999999999994</ele>
        <time>2023-08-27T09:33:41Z</time>
      </trkpt>
      <trkpt lat="57.662820992991328" lon="-6.258331993594766">
        <ele>81.370000000000005</ele>
        <time>2023-08-27T09:33:42Z</time>
      </trkpt>
      <trkpt lat="57.662906991317868" lon="-6.25825404189527">
        <ele>80.890000000000001</ele>
        <time>2023-08-27T09:33:43Z</time>
      </trkpt>
      <trkpt lat="57.663620039820671" lon="-6.257379977032542">
        <ele>78.480000000000004</ele>
        <time>2023-08-27T09:33:52Z</time>
      </trkpt>
      <trkpt lat="57.663873005658388" lon="-6.256860969588161">
        <ele>78</ele>
        <time>2023-08-27T09:33:56Z</time>
      </trkpt>
      <trkpt lat="57.663965960964561" lon="-6.25677103176713">
        <ele>77.519999999999996</ele>
        <time>2023-08-27T09:33:57Z</time>
      </trkpt>
      <trkpt lat="57.664056988433003" lon="-6.256710011512041">
        <ele>77.040000000000006</ele>
        <time>2023-08-27T09:33:58Z</time>
      </trkpt>
      <trkpt lat="57.664163019508123" lon="-6.256653014570475">
        <ele>77.040000000000006</ele>
        <time>2023-08-27T09:33:59Z</time>
      </trkpt>
      <trkpt lat="57.664267038926482" lon="-6.256675980985165">
        <ele>77.040000000000006</ele>
        <time>2023-08-27T09:34:00Z</time>
      </trkpt>
      <trkpt lat="57.664377009496093" lon="-6.256729038432241">
        <ele>77.040000000000006</ele>
        <time>2023-08-27T09:34:01Z</time>
      </trkpt>
      <trkpt lat="57.664483040571213" lon="-6.256834985688329">
        <ele>77.040000000000006</ele>
        <time>2023-08-27T09:34:02Z</time>
      </trkpt>
      <trkpt lat="57.664592005312443" lon="-6.256945040076971">
        <ele>77.040000000000006</ele>
        <time>2023-08-27T09:34:03Z</time>
      </trkpt>
      <trkpt lat="57.664699964225292" lon="-6.257076971232891">
        <ele>77.519999999999996</ele>
        <time>2023-08-27T09:34:04Z</time>
      </trkpt>
      <trkpt lat="57.664807001128793" lon="-6.257218038663268">
        <ele>77.519999999999996</ele>
        <time>2023-08-27T09:34:05Z</time>
      </trkpt>
      <trkpt lat="57.664913032203913" lon="-6.257358016446233">
        <ele>78.480000000000004</ele>
        <time>2023-08-27T09:34:06Z</time>
      </trkpt>
      <trkpt lat="57.665011016651988" lon="-6.257487013936043">
        <ele>78.969999999999999</ele>
        <time>2023-08-27T09:34:07Z</time>
      </trkpt>
      <trkpt lat="57.665118975564837" lon="-6.257538981735706">
        <ele>79.450000000000003</ele>
        <time>2023-08-27T09:34:08Z</time>
      </trkpt>
      <trkpt lat="57.665227018296719" lon="-6.257575023919344">
        <ele>80.409999999999997</ele>
        <time>2023-08-27T09:34:09Z</time>
      </trkpt>
      <trkpt lat="57.665331959724426" lon="-6.257581980898976">
        <ele>80.890000000000001</ele>
        <time>2023-08-27T09:34:10Z</time>
      </trkpt>
      <trkpt lat="57.665441008284688" lon="-6.257554991170764">
        <ele>81.849999999999994</ele>
        <time>2023-08-27T09:34:11Z</time>
      </trkpt>
      <trkpt lat="57.66555399633944" lon="-6.257522972300649">
        <ele>82.329999999999998</ele>
        <time>2023-08-27T09:34:12Z</time>
      </trkpt>
      <trkpt lat="57.665664972737432" lon="-6.257458012551069">
        <ele>82.810000000000002</ele>
        <time>2023-08-27T09:34:13Z</time>
      </trkpt>
      <trkpt lat="57.666099993512034" lon="-6.257206974551082">
        <ele>84.25</ele>
        <time>2023-08-27T09:34:17Z</time>
      </trkpt>
      <trkpt lat="57.666229996830225" lon="-6.257215021178126">
        <ele>84.730000000000004</ele>
        <time>2023-08-27T09:34:18Z</time>
      </trkpt>
      <trkpt lat="57.666340973228216" lon="-6.257221978157759">
        <ele>84.730000000000004</ele>
        <time>2023-08-27T09:34:19Z</time>
      </trkpt>
      <trkpt lat="57.666457984596491" lon="-6.257239999249578">
        <ele>85.209999999999994</ele>
        <time>2023-08-27T09:34:20Z</time>
      </trkpt>
      <trkpt lat="57.666573990136385" lon="-6.257327003404498">
        <ele>85.209999999999994</ele>
        <time>2023-08-27T09:34:21Z</time>
      </trkpt>
      <trkpt lat="57.666693013161421" lon="-6.25741702504456">
        <ele>85.689999999999998</ele>
        <time>2023-08-27T09:34:22Z</time>
      </trkpt>
      <trkpt lat="57.668025987222791" lon="-6.258731978014112">
        <ele>90.5</ele>
        <time>2023-08-27T09:34:33Z</time>
      </trkpt>
      <trkpt lat="57.669461974874139" lon="-6.26029696315527">
        <ele>90.5</ele>
        <time>2023-08-27T09:34:44Z</time>
      </trkpt>
      <trkpt lat="57.669606981799006" lon="-6.260362006723881">
        <ele>90.5</ele>
        <time>2023-08-27T09:34:45Z</time>
      </trkpt>
      <trkpt lat="57.670886982232332" lon="-6.260782023891807">
        <ele>87.620000000000005</ele>
        <time>2023-08-27T09:34:54Z</time>
      </trkpt>
      <trkpt lat="57.671884009614587" lon="-6.261056028306484">
        <ele>81.849999999999994</ele>
        <time>2023-08-27T09:35:01Z</time>
      </trkpt>
      <trkpt lat="57.671989034861326" lon="-6.261135991662741">
        <ele>80.890000000000001</ele>
        <time>2023-08-27T09:35:02Z</time>
      </trkpt>
      <trkpt lat="57.672087019309402" lon="-6.261261971667409">
        <ele>80.409999999999997</ele>
        <time>2023-08-27T09:35:03Z</time>
      </trkpt>
      <trkpt lat="57.672177962958813" lon="-6.261385018005967">
        <ele>79.450000000000003</ele>
        <time>2023-08-27T09:35:04Z</time>
      </trkpt>
      <trkpt lat="57.672249041497707" lon="-6.261567994952202">
        <ele>78.969999999999999</ele>
        <time>2023-08-27T09:35:05Z</time>
      </trkpt>
      <trkpt lat="57.67231903038919" lon="-6.261748960241675">
        <ele>78</ele>
        <time>2023-08-27T09:35:06Z</time>
      </trkpt>
      <trkpt lat="57.672595968469977" lon="-6.262449016794562">
        <ele>74.640000000000001</ele>
        <time>2023-08-27T09:35:10Z</time>
      </trkpt>
      <trkpt lat="57.67268599011004" lon="-6.262598969042301">
        <ele>74.159999999999997</ele>
        <time>2023-08-27T09:35:11Z</time>
      </trkpt>
      <trkpt lat="57.67277299426496" lon="-6.262743975967169">
        <ele>72.719999999999999</ele>
        <time>2023-08-27T09:35:12Z</time>
      </trkpt>
      <trkpt lat="57.673961967229843" lon="-6.264030011370778">
        <ele>63.100000000000001</ele>
        <time>2023-08-27T09:35:21Z</time>
      </trkpt>
      <trkpt lat="57.675503985956311" lon="-6.265531964600086">
        <ele>56.369999999999997</ele>
        <time>2023-08-27T09:35:32Z</time>
      </trkpt>
      <trkpt lat="57.675901958718896" lon="-6.265917029231787">
        <ele>56.369999999999997</ele>
        <time>2023-08-27T09:35:35Z</time>
      </trkpt>
      <trkpt lat="57.676006983965635" lon="-6.266090031713247">
        <ele>56.859999999999999</ele>
        <time>2023-08-27T09:35:36Z</time>
      </trkpt>
      <trkpt lat="57.676104968413711" lon="-6.266275020316243">
        <ele>57.340000000000003</ele>
        <time>2023-08-27T09:35:37Z</time>
      </trkpt>
      <trkpt lat="57.676996970549226" lon="-6.267951987683773">
        <ele>63.100000000000001</ele>
        <time>2023-08-27T09:35:47Z</time>
      </trkpt>
      <trkpt lat="57.677119011059403" lon="-6.268252981826663">
        <ele>63.579999999999998</ele>
        <time>2023-08-27T09:35:49Z</time>
      </trkpt>
      <trkpt lat="57.677171984687448" lon="-6.268387008458376">
        <ele>64.069999999999993</ele>
        <time>2023-08-27T09:35:50Z</time>
      </trkpt>
      <trkpt lat="57.677205009385943" lon="-6.268592029809952">
        <ele>64.549999999999997</ele>
        <time>2023-08-27T09:35:51Z</time>
      </trkpt>
      <trkpt lat="57.677234010770917" lon="-6.268777018412948">
        <ele>65.030000000000001</ele>
        <time>2023-08-27T09:35:52Z</time>
      </trkpt>
      <trkpt lat="57.67726301215589" lon="-6.268956977874041">
        <ele>65.030000000000001</ele>
        <time>2023-08-27T09:35:53Z</time>
      </trkpt>
      <trkpt lat="57.677287990227342" lon="-6.269111959263682">
        <ele>65.510000000000005</ele>
        <time>2023-08-27T09:35:54Z</time>
      </trkpt>
      <trkpt lat="57.677307017147541" lon="-6.269232993945479">
        <ele>65.510000000000005</ele>
        <time>2023-08-27T09:35:55Z</time>
      </trkpt>
      <trkpt lat="57.677322020754218" lon="-6.269326033070684">
        <ele>65.989999999999995</ele>
        <time>2023-08-27T09:35:56Z</time>
      </trkpt>
      <trkpt lat="57.677333001047373" lon="-6.269396021962166">
        <ele>65.989999999999995</ele>
        <time>2023-08-27T09:35:57Z</time>
      </trkpt>
      <trkpt lat="57.677340963855386" lon="-6.269441032782197">
        <ele>66.469999999999999</ele>
        <time>2023-08-27T09:35:58Z</time>
      </trkpt>
      <trkpt lat="57.677340963855386" lon="-6.269441032782197">
        <ele>66.469999999999999</ele>
        <time>2023-08-27T09:36:07Z</time>
      </trkpt>
      <trkpt lat="57.677340963855386" lon="-6.269441032782197">
        <ele>66.469999999999999</ele>
        <time>2023-08-27T09:36:57Z</time>
      </trkpt>
      <trkpt lat="57.677394021302462" lon="-6.269773961976171">
        <ele>67.909999999999997</ele>
        <time>2023-08-27T09:37:24Z</time>
      </trkpt>
      <trkpt lat="57.677417993545532" lon="-6.269925003871322">
        <ele>68.390000000000001</ele>
        <time>2023-08-27T09:37:25Z</time>
      </trkpt>
      <trkpt lat="57.677937000989914" lon="-6.271728035062552">
        <ele>72.239999999999995</ele>
        <time>2023-08-27T09:37:35Z</time>
      </trkpt>
      <trkpt lat="57.678886000066996" lon="-6.274093994870782">
        <ele>78.480000000000004</ele>
        <time>2023-08-27T09:37:47Z</time>
      </trkpt>
      <trkpt lat="57.679212978109717" lon="-6.274936962872744">
        <ele>80.890000000000001</ele>
        <time>2023-08-27T09:37:51Z</time>
      </trkpt>
      <trkpt lat="57.679265029728413" lon="-6.275176014751196">
        <ele>81.370000000000005</ele>
        <time>2023-08-27T09:37:52Z</time>
      </trkpt>
      <trkpt lat="57.679316997528076" lon="-6.275412971153855">
        <ele>81.849999999999994</ele>
        <time>2023-08-27T09:37:53Z</time>
      </trkpt>
      <trkpt lat="57.679511038586497" lon="-6.276304973289371">
        <ele>84.25</ele>
        <time>2023-08-27T09:37:57Z</time>
      </trkpt>
      <trkpt lat="57.679613968357444" lon="-6.276480993255973">
        <ele>84.730000000000004</ele>
        <time>2023-08-27T09:37:58Z</time>
      </trkpt>
      <trkpt lat="57.67971396446228" lon="-6.276651984080672">
        <ele>84.730000000000004</ele>
        <time>2023-08-27T09:37:59Z</time>
      </trkpt>
      <trkpt lat="57.680144961923361" lon="-6.277386993169785">
        <ele>83.769999999999996</ele>
        <time>2023-08-27T09:38:03Z</time>
      </trkpt>
      <trkpt lat="57.680250992998481" lon="-6.277586985379458">
        <ele>83.769999999999996</ele>
        <time>2023-08-27T09:38:04Z</time>
      </trkpt>
      <trkpt lat="57.680323999375105" lon="-6.277834000065923">
        <ele>83.769999999999996</ele>
        <time>2023-08-27T09:38:05Z</time>
      </trkpt>
      <trkpt lat="57.680997988209128" lon="-6.280421996489167">
        <ele>83.290000000000006</ele>
        <time>2023-08-27T09:38:16Z</time>
      </trkpt>
      <trkpt lat="57.681181970983744" lon="-6.282387971878052">
        <ele>82.329999999999998</ele>
        <time>2023-08-27T09:38:25Z</time>
      </trkpt>
      <trkpt lat="57.681441977620125" lon="-6.284831967204809">
        <ele>80.409999999999997</ele>
        <time>2023-08-27T09:38:35Z</time>
      </trkpt>
      <trkpt lat="57.681433008983731" lon="-6.285075964406133">
        <ele>79.930000000000007</ele>
        <time>2023-08-27T09:38:36Z</time>
      </trkpt>
      <trkpt lat="57.68132102675736" lon="-6.286685038357973">
        <ele>76.079999999999998</ele>
        <time>2023-08-27T09:38:44Z</time>
      </trkpt>
      <trkpt lat="57.681307028979063" lon="-6.286878995597363">
        <ele>73.680000000000007</ele>
        <time>2023-08-27T09:38:51Z</time>
      </trkpt>
      <trkpt lat="57.681307028979063" lon="-6.286878995597363">
        <ele>73.680000000000007</ele>
        <time>2023-08-27T09:39:26Z</time>
      </trkpt>
      <trkpt lat="57.681307028979063" lon="-6.286878995597363">
        <ele>72.719999999999999</ele>
        <time>2023-08-27T09:40:08Z</time>
      </trkpt>
      <trkpt lat="57.681307028979063" lon="-6.286878995597363">
        <ele>70.790000000000006</ele>
        <time>2023-08-27T09:40:25Z</time>
      </trkpt>
      <trkpt lat="57.681265035644174" lon="-6.287479978054762">
        <ele>69.829999999999998</ele>
        <time>2023-08-27T09:40:43Z</time>
      </trkpt>
      <trkpt lat="57.681240979582071" lon="-6.288144998252392">
        <ele>69.349999999999994</ele>
        <time>2023-08-27T09:40:52Z</time>
      </trkpt>
      <trkpt lat="57.681337958201766" lon="-6.289020990952849">
        <ele>67.909999999999997</ele>
        <time>2023-08-27T09:41:01Z</time>
      </trkpt>
      <trkpt lat="57.681535016745329" lon="-6.291024014353752">
        <ele>66.950000000000003</ele>
        <time>2023-08-27T09:41:15Z</time>
      </trkpt>
      <trkpt lat="57.681600982323289" lon="-6.292090024799109">
        <ele>64.549999999999997</ele>
        <time>2023-08-27T09:41:25Z</time>
      </trkpt>
      <trkpt lat="57.681679017841816" lon="-6.292233020067215">
        <ele>62.619999999999997</ele>
        <time>2023-08-27T09:41:28Z</time>
      </trkpt>
      <trkpt lat="57.681717993691564" lon="-6.292199995368719">
        <ele>62.140000000000001</ele>
        <time>2023-08-27T09:41:29Z</time>
      </trkpt>
      <trkpt lat="57.681784965097904" lon="-6.292140986770392">
        <ele>61.659999999999997</ele>
        <time>2023-08-27T09:41:30Z</time>
      </trkpt>
      <trkpt lat="57.681846991181374" lon="-6.292121959850192">
        <ele>61.18</ele>
        <time>2023-08-27T09:41:31Z</time>
      </trkpt>
      <trkpt lat="57.681926032528281" lon="-6.292098993435502">
        <ele>60.219999999999999</ele>
        <time>2023-08-27T09:41:32Z</time>
      </trkpt>
      <trkpt lat="57.682028040289879" lon="-6.292104022577405">
        <ele>59.259999999999998</ele>
        <time>2023-08-27T09:41:33Z</time>
      </trkpt>
      <trkpt lat="57.682089982554317" lon="-6.292166970670223">
        <ele>58.299999999999997</ele>
        <time>2023-08-27T09:41:34Z</time>
      </trkpt>
      <trkpt lat="57.682153014466166" lon="-6.292228996753693">
        <ele>57.82</ele>
        <time>2023-08-27T09:41:35Z</time>
      </trkpt>
      <trkpt lat="57.682214034721255" lon="-6.292290017008781">
        <ele>57.340000000000003</ele>
        <time>2023-08-27T09:41:36Z</time>
      </trkpt>
      <trkpt lat="57.682273965328932" lon="-6.29235103726387">
        <ele>56.369999999999997</ele>
        <time>2023-08-27T09:41:37Z</time>
      </trkpt>
      <trkpt lat="57.682334985584021" lon="-6.292399987578392">
        <ele>55.409999999999997</ele>
        <time>2023-08-27T09:41:38Z</time>
      </trkpt>
      <trkpt lat="57.682414026930928" lon="-6.292411973699927">
        <ele>54.93</ele>
        <time>2023-08-27T09:41:39Z</time>
      </trkpt>
      <trkpt lat="57.682493990287185" lon="-6.292423959821463">
        <ele>53.490000000000002</ele>
        <time>2023-08-27T09:41:40Z</time>
      </trkpt>
      <trkpt lat="57.682574037462473" lon="-6.292435023933649">
        <ele>53.009999999999998</ele>
        <time>2023-08-27T09:41:41Z</time>
      </trkpt>
      <trkpt lat="57.683338969945908" lon="-6.292534014210105">
        <ele>43.880000000000003</ele>
        <time>2023-08-27T09:41:51Z</time>
      </trkpt>
      <trkpt lat="57.683778014034033" lon="-6.292583970353007">
        <ele>38.590000000000003</ele>
        <time>2023-08-27T09:42:01Z</time>
      </trkpt>
      <trkpt lat="57.684040032327175" lon="-6.292549017816782">
        <ele>37.630000000000003</ele>
        <time>2023-08-27T09:42:05Z</time>
      </trkpt>
      <trkpt lat="57.684371033683419" lon="-6.292486991733313">
        <ele>36.189999999999998</ele>
        <time>2023-08-27T09:42:09Z</time>
      </trkpt>
      <trkpt lat="57.685148036107421" lon="-6.292563015595079">
        <ele>32.82</ele>
        <time>2023-08-27T09:42:18Z</time>
      </trkpt>
      <trkpt lat="57.685751030221581" lon="-6.292550023645163">
        <ele>27.530000000000001</ele>
        <time>2023-08-27T09:42:26Z</time>
      </trkpt>
      <trkpt lat="57.686603972688317" lon="-6.292211981490254">
        <ele>25.609999999999999</ele>
        <time>2023-08-27T09:42:38Z</time>
      </trkpt>
      <trkpt lat="57.687503015622497" lon="-6.291730022057891">
        <ele>26.57</ele>
        <time>2023-08-27T09:42:50Z</time>
      </trkpt>
      <trkpt lat="57.687843991443515" lon="-6.291455011814833">
        <ele>26.57</ele>
        <time>2023-08-27T09:42:56Z</time>
      </trkpt>
      <trkpt lat="57.687895959243178" lon="-6.291377982124686">
        <ele>26.57</ele>
        <time>2023-08-27T09:42:57Z</time>
      </trkpt>
      <trkpt lat="57.687949016690254" lon="-6.291300030425191">
        <ele>26.57</ele>
        <time>2023-08-27T09:42:58Z</time>
      </trkpt>
      <trkpt lat="57.688107015565038" lon="-6.291066007688642">
        <ele>26.09</ele>
        <time>2023-08-27T09:43:01Z</time>
      </trkpt>
      <trkpt lat="57.688643038272858" lon="-6.290544988587499">
        <ele>25.609999999999999</ele>
        <time>2023-08-27T09:43:11Z</time>
      </trkpt>
      <trkpt lat="57.688784021884203" lon="-6.29043803550303">
        <ele>25.129999999999999</ele>
        <time>2023-08-27T09:43:17Z</time>
      </trkpt>
      <trkpt lat="57.68880195915699" lon="-6.290424037724733">
        <ele>25.129999999999999</ele>
        <time>2023-08-27T09:43:18Z</time>
      </trkpt>
      <trkpt lat="57.68880195915699" lon="-6.290424037724733">
        <ele>25.129999999999999</ele>
        <time>2023-08-27T09:43:34Z</time>
      </trkpt>
      <trkpt lat="57.68880195915699" lon="-6.290424037724733">
        <ele>25.609999999999999</ele>
        <time>2023-08-27T09:44:22Z</time>
      </trkpt>
      <trkpt lat="57.68880195915699" lon="-6.290424037724733">
        <ele>25.609999999999999</ele>
        <time>2023-08-27T09:44:38Z</time>
      </trkpt>
      <trkpt lat="57.68875602632761" lon="-6.290458990260959">
        <ele>24.649999999999999</ele>
        <time>2023-08-27T09:44:41Z</time>
      </trkpt>
      <trkpt lat="57.688718978315592" lon="-6.290486985817552">
        <ele>24.649999999999999</ele>
        <time>2023-08-27T09:44:42Z</time>
      </trkpt>
      <trkpt lat="57.688683019950986" lon="-6.290513975545764">
        <ele>24.649999999999999</ele>
        <time>2023-08-27T09:44:43Z</time>
      </trkpt>
      <trkpt lat="57.688355036079884" lon="-6.290764007717371">
        <ele>23.690000000000001</ele>
        <time>2023-08-27T09:44:53Z</time>
      </trkpt>
      <trkpt lat="57.688179016113281" lon="-6.290958970785141">
        <ele>23.690000000000001</ele>
        <time>2023-08-27T09:44:56Z</time>
      </trkpt>
      <trkpt lat="57.688117995858192" lon="-6.291049998253584">
        <ele>23.690000000000001</ele>
        <time>2023-08-27T09:44:57Z</time>
      </trkpt>
      <trkpt lat="57.688053036108613" lon="-6.291144965216517">
        <ele>23.690000000000001</ele>
        <time>2023-08-27T09:44:58Z</time>
      </trkpt>
      <trkpt lat="57.687988998368382" lon="-6.291241021826863">
        <ele>23.690000000000001</ele>
        <time>2023-08-27T09:44:59Z</time>
      </trkpt>
      <trkpt lat="57.687921021133661" lon="-6.2913410179317">
        <ele>23.690000000000001</ele>
        <time>2023-08-27T09:45:00Z</time>
      </trkpt>
      <trkpt lat="57.68785203807056" lon="-6.291443025693297">
        <ele>23.690000000000001</ele>
        <time>2023-08-27T09:45:01Z</time>
      </trkpt>
      <trkpt lat="57.687785988673568" lon="-6.291541010141373">
        <ele>23.690000000000001</ele>
        <time>2023-08-27T09:45:02Z</time>
      </trkpt>
      <trkpt lat="57.687713988125324" lon="-6.291597001254559">
        <ele>23.690000000000001</ele>
        <time>2023-08-27T09:45:03Z</time>
      </trkpt>
      <trkpt lat="57.687641987577081" lon="-6.29164301790297">
        <ele>23.690000000000001</ele>
        <time>2023-08-27T09:45:04Z</time>
      </trkpt>
      <trkpt lat="57.687566969543695" lon="-6.291690040379763">
        <ele>23.690000000000001</ele>
        <time>2023-08-27T09:45:05Z</time>
      </trkpt>
      <trkpt lat="57.686654012650251" lon="-6.292196977883577">
        <ele>24.649999999999999</ele>
        <time>2023-08-27T09:45:17Z</time>
      </trkpt>
      <trkpt lat="57.685725968331099" lon="-6.292550023645163">
        <ele>28.02</ele>
        <time>2023-08-27T09:45:30Z</time>
      </trkpt>
      <trkpt lat="57.685132026672363" lon="-6.292561003938317">
        <ele>32.340000000000003</ele>
        <time>2023-08-27T09:45:38Z</time>
      </trkpt>
      <trkpt lat="57.685049967840314" lon="-6.292553041130304">
        <ele>32.82</ele>
        <time>2023-08-27T09:45:39Z</time>
      </trkpt>
      <trkpt lat="57.683813972398639" lon="-6.29258799366653">
        <ele>40.509999999999998</ele>
        <time>2023-08-27T09:45:53Z</time>
      </trkpt>
      <trkpt lat="57.68267503939569" lon="-6.292451033368707">
        <ele>46.759999999999998</ele>
        <time>2023-08-27T09:46:04Z</time>
      </trkpt>
      <trkpt lat="57.682571019977331" lon="-6.292435023933649">
        <ele>47.719999999999999</ele>
        <time>2023-08-27T09:46:05Z</time>
      </trkpt>
      <trkpt lat="57.682474041357636" lon="-6.292421026155353">
        <ele>49.159999999999997</ele>
        <time>2023-08-27T09:46:06Z</time>
      </trkpt>
      <trkpt lat="57.682383013889194" lon="-6.292407028377056">
        <ele>50.130000000000003</ele>
        <time>2023-08-27T09:46:07Z</time>
      </trkpt>
      <trkpt lat="57.682321993634105" lon="-6.292397975921631">
        <ele>51.57</ele>
        <time>2023-08-27T09:46:08Z</time>
      </trkpt>
      <trkpt lat="57.682229038327932" lon="-6.292305020615459">
        <ele>52.530000000000001</ele>
        <time>2023-08-27T09:46:09Z</time>
      </trkpt>
      <trkpt lat="57.682157959789038" lon="-6.292235031723976">
        <ele>53.490000000000002</ele>
        <time>2023-08-27T09:46:10Z</time>
      </trkpt>
      <trkpt lat="57.682089982554317" lon="-6.292165964841843">
        <ele>54.450000000000003</ele>
        <time>2023-08-27T09:46:11Z</time>
      </trkpt>
      <trkpt lat="57.682027034461498" lon="-6.292103016749024">
        <ele>54.93</ele>
        <time>2023-08-27T09:46:12Z</time>
      </trkpt>
      <trkpt lat="57.681961990892887" lon="-6.292087007313967">
        <ele>55.890000000000001</ele>
        <time>2023-08-27T09:46:13Z</time>
      </trkpt>
      <trkpt lat="57.681904993951321" lon="-6.292105028405786">
        <ele>56.369999999999997</ele>
        <time>2023-08-27T09:46:14Z</time>
      </trkpt>
      <trkpt lat="57.681854031980038" lon="-6.292120032012463">
        <ele>57.340000000000003</ele>
        <time>2023-08-27T09:46:15Z</time>
      </trkpt>
      <trkpt lat="57.681808015331626" lon="-6.292134029790759">
        <ele>58.299999999999997</ele>
        <time>2023-08-27T09:46:16Z</time>
      </trkpt>
      <trkpt lat="57.681769961491227" lon="-6.292153978720307">
        <ele>58.780000000000001</ele>
        <time>2023-08-27T09:46:17Z</time>
      </trkpt>
      <trkpt lat="57.681679017841816" lon="-6.292233020067215">
        <ele>61.18</ele>
        <time>2023-08-27T09:46:20Z</time>
      </trkpt>
      <trkpt lat="57.681614980101585" lon="-6.292328992858529">
        <ele>61.659999999999997</ele>
        <time>2023-08-27T09:46:21Z</time>
      </trkpt>
      <trkpt lat="57.681621015071869" lon="-6.29243896342814">
        <ele>62.140000000000001</ele>
        <time>2023-08-27T09:46:22Z</time>
      </trkpt>
      <trkpt lat="57.681626966223121" lon="-6.292569972574711">
        <ele>62.140000000000001</ele>
        <time>2023-08-27T09:46:23Z</time>
      </trkpt>
      <trkpt lat="57.681633001193404" lon="-6.292703999206424">
        <ele>62.140000000000001</ele>
        <time>2023-08-27T09:46:24Z</time>
      </trkpt>
      <trkpt lat="57.681870041415095" lon="-6.294206036254764">
        <ele>63.100000000000001</ele>
        <time>2023-08-27T09:46:33Z</time>
      </trkpt>
      <trkpt lat="57.682233983650804" lon="-6.296381978318095">
        <ele>60.219999999999999</ele>
        <time>2023-08-27T09:46:43Z</time>
      </trkpt>
      <trkpt lat="57.682558028027415" lon="-6.29826296120882">
        <ele>53.490000000000002</ele>
        <time>2023-08-27T09:46:53Z</time>
      </trkpt>
      <trkpt lat="57.682770006358624" lon="-6.299052033573389">
        <ele>50.609999999999999</ele>
        <time>2023-08-27T09:46:57Z</time>
      </trkpt>
      <trkpt lat="57.682848041877151" lon="-6.299237022176385">
        <ele>49.649999999999999</ele>
        <time>2023-08-27T09:46:58Z</time>
      </trkpt>
      <trkpt lat="57.683682963252068" lon="-6.300803013145924">
        <ele>41.469999999999999</ele>
        <time>2023-08-27T09:47:07Z</time>
      </trkpt>
      <trkpt lat="57.683736020699143" lon="-6.300999987870455">
        <ele>40.030000000000001</ele>
        <time>2023-08-27T09:47:08Z</time>
      </trkpt>
      <trkpt lat="57.683783965185285" lon="-6.301177013665438">
        <ele>38.590000000000003</ele>
        <time>2023-08-27T09:47:09Z</time>
      </trkpt>
      <trkpt lat="57.683826964348555" lon="-6.301345992833376">
        <ele>36.670000000000002</ele>
        <time>2023-08-27T09:47:10Z</time>
      </trkpt>
      <trkpt lat="57.683855965733528" lon="-6.30152796395123">
        <ele>34.740000000000002</ele>
        <time>2023-08-27T09:47:11Z</time>
      </trkpt>
      <trkpt lat="57.683884967118502" lon="-6.301713036373258">
        <ele>32.82</ele>
        <time>2023-08-27T09:47:12Z</time>
      </trkpt>
      <trkpt lat="57.684215968474746" lon="-6.304027028381825">
        <ele>17.440000000000001</ele>
        <time>2023-08-27T09:47:24Z</time>
      </trkpt>
      <trkpt lat="57.684526015073061" lon="-6.306240018457174">
        <ele>15.52</ele>
        <time>2023-08-27T09:47:36Z</time>
      </trkpt>
      <trkpt lat="57.68467697314918" lon="-6.308085964992642">
        <ele>14.56</ele>
        <time>2023-08-27T09:47:45Z</time>
      </trkpt>
      <trkpt lat="57.684679990634322" lon="-6.310311025008559">
        <ele>16</ele>
        <time>2023-08-27T09:47:56Z</time>
      </trkpt>
      <trkpt lat="57.684581000357866" lon="-6.313391039147973">
        <ele>19.359999999999999</ele>
        <time>2023-08-27T09:48:09Z</time>
      </trkpt>
      <trkpt lat="57.684538001194596" lon="-6.313615003600717">
        <ele>19.359999999999999</ele>
        <time>2023-08-27T09:48:10Z</time>
      </trkpt>
      <trkpt lat="57.683925032615662" lon="-6.31643601693213">
        <ele>15.039999999999999</ele>
        <time>2023-08-27T09:48:22Z</time>
      </trkpt>
      <trkpt lat="57.683098996058106" lon="-6.320237964391708">
        <ele>15.52</ele>
        <time>2023-08-27T09:48:37Z</time>
      </trkpt>
      <trkpt lat="57.682893974706531" lon="-6.321180006489158">
        <ele>17.440000000000001</ele>
        <time>2023-08-27T09:48:41Z</time>
      </trkpt>
      <trkpt lat="57.682833038270473" lon="-6.321386033669114">
        <ele>17.920000000000002</ele>
        <time>2023-08-27T09:48:42Z</time>
      </trkpt>
      <trkpt lat="57.68274100497365" lon="-6.321540009230375">
        <ele>18.879999999999999</ele>
        <time>2023-08-27T09:48:43Z</time>
      </trkpt>
      <trkpt lat="57.682647965848446" lon="-6.321694990620017">
        <ele>19.84</ele>
        <time>2023-08-27T09:48:44Z</time>
      </trkpt>
      <trkpt lat="57.682557022199035" lon="-6.321846032515168">
        <ele>20.809999999999999</ele>
        <time>2023-08-27T09:48:45Z</time>
      </trkpt>
      <trkpt lat="57.682465994730592" lon="-6.321997996419668">
        <ele>21.289999999999999</ele>
        <time>2023-08-27T09:48:46Z</time>
      </trkpt>
      <trkpt lat="57.682373039424419" lon="-6.322151971980929">
        <ele>22.25</ele>
        <time>2023-08-27T09:48:47Z</time>
      </trkpt>
      <trkpt lat="57.682281006127596" lon="-6.322306031361222">
        <ele>22.73</ele>
        <time>2023-08-27T09:48:48Z</time>
      </trkpt>
      <trkpt lat="57.682241024449468" lon="-6.322514992207289">
        <ele>23.690000000000001</ele>
        <time>2023-08-27T09:48:49Z</time>
      </trkpt>
      <trkpt lat="57.682202970609069" lon="-6.322720013558865">
        <ele>24.170000000000002</ele>
        <time>2023-08-27T09:48:50Z</time>
      </trkpt>
      <trkpt lat="57.682175980880857" lon="-6.322916988283396">
        <ele>25.129999999999999</ele>
        <time>2023-08-27T09:48:51Z</time>
      </trkpt>
      <trkpt lat="57.682211017236114" lon="-6.32311899214983">
        <ele>25.609999999999999</ele>
        <time>2023-08-27T09:48:52Z</time>
      </trkpt>
      <trkpt lat="57.682246975600719" lon="-6.323328958824277">
        <ele>26.57</ele>
        <time>2023-08-27T09:48:53Z</time>
      </trkpt>
      <trkpt lat="57.682293998077512" lon="-6.323544960469008">
        <ele>27.530000000000001</ele>
        <time>2023-08-27T09:48:54Z</time>
      </trkpt>
      <trkpt lat="57.682373961433768" lon="-6.323726009577513">
        <ele>28.5</ele>
        <time>2023-08-27T09:48:55Z</time>
      </trkpt>
      <trkpt lat="57.682954994961619" lon="-6.325028976425529">
        <ele>32.340000000000003</ele>
        <time>2023-08-27T09:49:02Z</time>
      </trkpt>
      <trkpt lat="57.683049039915204" lon="-6.325174989178777">
        <ele>32.340000000000003</ele>
        <time>2023-08-27T09:49:03Z</time>
      </trkpt>
      <trkpt lat="57.683956967666745" lon="-6.326333032920957">
        <ele>30.420000000000002</ele>
        <time>2023-08-27T09:49:12Z</time>
      </trkpt>
      <trkpt lat="57.684025028720498" lon="-6.326466975733638">
        <ele>29.940000000000001</ele>
        <time>2023-08-27T09:49:13Z</time>
      </trkpt>
      <trkpt lat="57.684102980419993" lon="-6.32662296295166">
        <ele>29.460000000000001</ele>
        <time>2023-08-27T09:49:14Z</time>
      </trkpt>
      <trkpt lat="57.684125024825335" lon="-6.326756989583373">
        <ele>28.98</ele>
        <time>2023-08-27T09:49:15Z</time>
      </trkpt>
      <trkpt lat="57.684153020381927" lon="-6.326922029256821">
        <ele>28.5</ele>
        <time>2023-08-27T09:49:16Z</time>
      </trkpt>
      <trkpt lat="57.684131981804967" lon="-6.327153034508228">
        <ele>28.02</ele>
        <time>2023-08-27T09:49:17Z</time>
      </trkpt>
      <trkpt lat="57.684086970984936" lon="-6.327339028939605">
        <ele>28.02</ele>
        <time>2023-08-27T09:49:18Z</time>
      </trkpt>
      <trkpt lat="57.684038020670414" lon="-6.327543966472149">
        <ele>28.02</ele>
        <time>2023-08-27T09:49:19Z</time>
      </trkpt>
      <trkpt lat="57.683974988758564" lon="-6.327770026400685">
        <ele>28.02</ele>
        <time>2023-08-27T09:49:20Z</time>
      </trkpt>
      <trkpt lat="57.683893013745546" lon="-6.327978987246752">
        <ele>28.5</ele>
        <time>2023-08-27T09:49:21Z</time>
      </trkpt>
      <trkpt lat="57.683454975485802" lon="-6.329095959663391">
        <ele>32.82</ele>
        <time>2023-08-27T09:49:28Z</time>
      </trkpt>
      <trkpt lat="57.682968992739916" lon="-6.330452989786863">
        <ele>36.189999999999998</ele>
        <time>2023-08-27T09:49:36Z</time>
      </trkpt>
      <trkpt lat="57.682921970263124" lon="-6.330653987824917">
        <ele>36.189999999999998</ele>
        <time>2023-08-27T09:49:37Z</time>
      </trkpt>
      <trkpt lat="57.682901015505195" lon="-6.330878958106041">
        <ele>36.189999999999998</ele>
        <time>2023-08-27T09:49:38Z</time>
      </trkpt>
      <trkpt lat="57.682901015505195" lon="-6.331115998327732">
        <ele>36.189999999999998</ele>
        <time>2023-08-27T09:49:39Z</time>
      </trkpt>
      <trkpt lat="57.682905038818717" lon="-6.331361001357436">
        <ele>36.670000000000002</ele>
        <time>2023-08-27T09:49:40Z</time>
      </trkpt>
      <trkpt lat="57.683007968589664" lon="-6.334433974698186">
        <ele>38.590000000000003</ele>
        <time>2023-08-27T09:49:52Z</time>
      </trkpt>
      <trkpt lat="57.68269800581038" lon="-6.336631961166859">
        <ele>41.950000000000003</ele>
        <time>2023-08-27T09:50:01Z</time>
      </trkpt>
      <trkpt lat="57.682508993893862" lon="-6.338430969044566">
        <ele>41.950000000000003</ele>
        <time>2023-08-27T09:50:09Z</time>
      </trkpt>
      <trkpt lat="57.682474041357636" lon="-6.338626015931368">
        <ele>41.950000000000003</ele>
        <time>2023-08-27T09:50:10Z</time>
      </trkpt>
      <trkpt lat="57.682401034981012" lon="-6.33880103006959">
        <ele>41.950000000000003</ele>
        <time>2023-08-27T09:50:11Z</time>
      </trkpt>
      <trkpt lat="57.682327022776008" lon="-6.338970009237528">
        <ele>41.950000000000003</ele>
        <time>2023-08-27T09:50:12Z</time>
      </trkpt>
      <trkpt lat="57.682240018621087" lon="-6.339120967313647">
        <ele>41.950000000000003</ele>
        <time>2023-08-27T09:50:13Z</time>
      </trkpt>
      <trkpt lat="57.682155026122928" lon="-6.339265974238515">
        <ele>41.950000000000003</ele>
        <time>2023-08-27T09:50:14Z</time>
      </trkpt>
      <trkpt lat="57.682063998654485" lon="-6.339401006698608">
        <ele>41.469999999999999</ele>
        <time>2023-08-27T09:50:15Z</time>
      </trkpt>
      <trkpt lat="57.681582039222121" lon="-6.340000983327627">
        <ele>43.880000000000003</ele>
        <time>2023-08-27T09:50:20Z</time>
      </trkpt>
      <trkpt lat="57.681495035067201" lon="-6.340108020231128">
        <ele>44.359999999999999</ele>
        <time>2023-08-27T09:50:21Z</time>
      </trkpt>
      <trkpt lat="57.681414987891912" lon="-6.340208016335964">
        <ele>44.840000000000003</ele>
        <time>2023-08-27T09:50:22Z</time>
      </trkpt>
      <trkpt lat="57.68136402592063" lon="-6.340368026867509">
        <ele>45.32</ele>
        <time>2023-08-27T09:50:23Z</time>
      </trkpt>
      <trkpt lat="57.681312980130315" lon="-6.340571036562324">
        <ele>45.32</ele>
        <time>2023-08-27T09:50:24Z</time>
      </trkpt>
      <trkpt lat="57.68130099400878" lon="-6.340750996023417">
        <ele>45.799999999999997</ele>
        <time>2023-08-27T09:50:25Z</time>
      </trkpt>
      <trkpt lat="57.681309040635824" lon="-6.340989964082837">
        <ele>45.799999999999997</ele>
        <time>2023-08-27T09:50:26Z</time>
      </trkpt>
      <trkpt lat="57.681348016485572" lon="-6.34120998904109">
        <ele>45.799999999999997</ele>
        <time>2023-08-27T09:50:27Z</time>
      </trkpt>
      <trkpt lat="57.681398978456855" lon="-6.341436970978975">
        <ele>45.799999999999997</ele>
        <time>2023-08-27T09:50:28Z</time>
      </trkpt>
      <trkpt lat="57.681450024247169" lon="-6.341654984280467">
        <ele>45.32</ele>
        <time>2023-08-27T09:50:29Z</time>
      </trkpt>
      <trkpt lat="57.681905999779701" lon="-6.343545019626617">
        <ele>39.549999999999997</ele>
        <time>2023-08-27T09:50:39Z</time>
      </trkpt>
      <trkpt lat="57.682017982006073" lon="-6.344075007364154">
        <ele>36.670000000000002</ele>
        <time>2023-08-27T09:50:42Z</time>
      </trkpt>
      <trkpt lat="57.682028040289879" lon="-6.344239041209221">
        <ele>36.189999999999998</ele>
        <time>2023-08-27T09:50:43Z</time>
      </trkpt>
      <trkpt lat="57.682036003097892" lon="-6.34441296570003">
        <ele>35.229999999999997</ele>
        <time>2023-08-27T09:50:44Z</time>
      </trkpt>
      <trkpt lat="57.682040026411414" lon="-6.344587979838252">
        <ele>34.259999999999998</ele>
        <time>2023-08-27T09:50:45Z</time>
      </trkpt>
      <trkpt lat="57.682023011147976" lon="-6.344763999804854">
        <ele>33.299999999999997</ele>
        <time>2023-08-27T09:50:46Z</time>
      </trkpt>
      <trkpt lat="57.681952016428113" lon="-6.34490598924458">
        <ele>32.340000000000003</ele>
        <time>2023-08-27T09:50:47Z</time>
      </trkpt>
      <trkpt lat="57.681884039193392" lon="-6.345032975077629">
        <ele>31.379999999999999</ele>
        <time>2023-08-27T09:50:48Z</time>
      </trkpt>
      <trkpt lat="57.681799968704581" lon="-6.345126014202833">
        <ele>30.899999999999999</ele>
        <time>2023-08-27T09:50:49Z</time>
      </trkpt>
      <trkpt lat="57.681710030883551" lon="-6.345175970345736">
        <ele>30.420000000000002</ele>
        <time>2023-08-27T09:50:50Z</time>
      </trkpt>
      <trkpt lat="57.681615985929966" lon="-6.345197008922696">
        <ele>29.940000000000001</ele>
        <time>2023-08-27T09:50:51Z</time>
      </trkpt>
      <trkpt lat="57.68151699565351" lon="-6.345177982002497">
        <ele>29.460000000000001</ele>
        <time>2023-08-27T09:50:52Z</time>
      </trkpt>
      <trkpt lat="57.681422028690577" lon="-6.345145041123033">
        <ele>28.98</ele>
        <time>2023-08-27T09:50:53Z</time>
      </trkpt>
      <trkpt lat="57.681337958201766" lon="-6.345069017261267">
        <ele>28.5</ele>
        <time>2023-08-27T09:50:54Z</time>
      </trkpt>
      <trkpt lat="57.681247014552355" lon="-6.344986958429217">
        <ele>28.02</ele>
        <time>2023-08-27T09:50:55Z</time>
      </trkpt>
      <trkpt lat="57.68057101406157" lon="-6.344384970143437">
        <ele>24.170000000000002</ele>
        <time>2023-08-27T09:51:01Z</time>
      </trkpt>
      <trkpt lat="57.680444028228521" lon="-6.344338031485677">
        <ele>23.210000000000001</ele>
        <time>2023-08-27T09:51:02Z</time>
      </trkpt>
      <trkpt lat="57.680305978283286" lon="-6.344335014000535">
        <ele>22.25</ele>
        <time>2023-08-27T09:51:03Z</time>
      </trkpt>
      <trkpt lat="57.680175974965096" lon="-6.34434700012207">
        <ele>21.77</ele>
        <time>2023-08-27T09:51:04Z</time>
      </trkpt>
      <trkpt lat="57.680029962211847" lon="-6.344439033418894">
        <ele>21.289999999999999</ele>
        <time>2023-08-27T09:51:05Z</time>
      </trkpt>
      <trkpt lat="57.679896019399166" lon="-6.344523020088673">
        <ele>21.289999999999999</ele>
        <time>2023-08-27T09:51:06Z</time>
      </trkpt>
      <trkpt lat="57.67810296267271" lon="-6.345774019137025">
        <ele>17.920000000000002</ele>
        <time>2023-08-27T09:51:20Z</time>
      </trkpt>
      <trkpt lat="57.676472011953592" lon="-6.347174970433116">
        <ele>22.73</ele>
        <time>2023-08-27T09:51:32Z</time>
      </trkpt>
      <trkpt lat="57.675636000931263" lon="-6.348182978108525">
        <ele>25.609999999999999</ele>
        <time>2023-08-27T09:51:41Z</time>
      </trkpt>
      <trkpt lat="57.675597025081515" lon="-6.348254978656769">
        <ele>25.129999999999999</ele>
        <time>2023-08-27T09:51:42Z</time>
      </trkpt>
      <trkpt lat="57.675577998161316" lon="-6.348308036103845">
        <ele>25.129999999999999</ele>
        <time>2023-08-27T09:51:43Z</time>
      </trkpt>
      <trkpt lat="57.675556959584355" lon="-6.348366038873792">
        <ele>24.649999999999999</ele>
        <time>2023-08-27T09:51:48Z</time>
      </trkpt>
      <trkpt lat="57.675334000959992" lon="-6.348986970260739">
        <ele>24.649999999999999</ele>
        <time>2023-08-27T09:51:54Z</time>
      </trkpt>
      <trkpt lat="57.674848018214107" lon="-6.350338971242309">
        <ele>25.609999999999999</ele>
        <time>2023-08-27T09:52:01Z</time>
      </trkpt>
      <trkpt lat="57.674763025715947" lon="-6.350511973723769">
        <ele>25.609999999999999</ele>
        <time>2023-08-27T09:52:02Z</time>
      </trkpt>
      <trkpt lat="57.673605987802148" lon="-6.352203022688627">
        <ele>25.609999999999999</ele>
        <time>2023-08-27T09:52:14Z</time>
      </trkpt>
      <trkpt lat="57.673097038641572" lon="-6.352858990430832">
        <ele>21.77</ele>
        <time>2023-08-27T09:52:19Z</time>
      </trkpt>
      <trkpt lat="57.672998970374465" lon="-6.352915987372398">
        <ele>21.289999999999999</ele>
        <time>2023-08-27T09:52:20Z</time>
      </trkpt>
      <trkpt lat="57.672888999804854" lon="-6.352958986535668">
        <ele>20.32</ele>
        <time>2023-08-27T09:52:21Z</time>
      </trkpt>
      <trkpt lat="57.672775005921721" lon="-6.353002991527319">
        <ele>19.84</ele>
        <time>2023-08-27T09:52:22Z</time>
      </trkpt>
      <trkpt lat="57.672661012038589" lon="-6.353035010397434">
        <ele>19.359999999999999</ele>
        <time>2023-08-27T09:52:23Z</time>
      </trkpt>
      <trkpt lat="57.67253695987165" lon="-6.353020006790757">
        <ele>18.879999999999999</ele>
        <time>2023-08-27T09:52:24Z</time>
      </trkpt>
      <trkpt lat="57.67240603454411" lon="-6.35300500318408">
        <ele>17.920000000000002</ele>
        <time>2023-08-27T09:52:25Z</time>
      </trkpt>
      <trkpt lat="57.671191999688745" lon="-6.352867037057877">
        <ele>19.84</ele>
        <time>2023-08-27T09:52:34Z</time>
      </trkpt>
      <trkpt lat="57.671065013855696" lon="-6.352891009300947">
        <ele>20.809999999999999</ele>
        <time>2023-08-27T09:52:35Z</time>
      </trkpt>
      <trkpt lat="57.670939033851027" lon="-6.35291799902916">
        <ele>21.77</ele>
        <time>2023-08-27T09:52:36Z</time>
      </trkpt>
      <trkpt lat="57.670332016423345" lon="-6.353173982352018">
        <ele>27.530000000000001</ele>
        <time>2023-08-27T09:52:41Z</time>
      </trkpt>
      <trkpt lat="57.670207964256406" lon="-6.353270038962364">
        <ele>28.5</ele>
        <time>2023-08-27T09:52:42Z</time>
      </trkpt>
      <trkpt lat="57.669085040688515" lon="-6.354144020006061">
        <ele>40.990000000000002</ele>
        <time>2023-08-27T09:52:51Z</time>
      </trkpt>
      <trkpt lat="57.668984038755298" lon="-6.354245021939278">
        <ele>41.950000000000003</ele>
        <time>2023-08-27T09:52:52Z</time>
      </trkpt>
      <trkpt lat="57.668883958831429" lon="-6.354388017207384">
        <ele>43.399999999999999</ele>
        <time>2023-08-27T09:52:53Z</time>
      </trkpt>
      <trkpt lat="57.668780023232102" lon="-6.354536041617394">
        <ele>44.359999999999999</ele>
        <time>2023-08-27T09:52:54Z</time>
      </trkpt>
      <trkpt lat="57.668681032955647" lon="-6.354708038270474">
        <ele>45.32</ele>
        <time>2023-08-27T09:52:55Z</time>
      </trkpt>
      <trkpt lat="57.668593022972345" lon="-6.354909958317876">
        <ele>46.280000000000001</ele>
        <time>2023-08-27T09:52:56Z</time>
      </trkpt>
      <trkpt lat="57.667729016393423" lon="-6.35627000592649">
        <ele>53.490000000000002</ele>
        <time>2023-08-27T09:53:04Z</time>
      </trkpt>
      <trkpt lat="57.666829973459244" lon="-6.357205007225275">
        <ele>56.369999999999997</ele>
        <time>2023-08-27T09:53:13Z</time>
      </trkpt>
      <trkpt lat="57.666782028973103" lon="-6.357254963368177">
        <ele>56.369999999999997</ele>
        <time>2023-08-27T09:53:14Z</time>
      </trkpt>
      <trkpt lat="57.666746992617846" lon="-6.357291005551815">
        <ele>56.369999999999997</ele>
        <time>2023-08-27T09:53:15Z</time>
      </trkpt>
      <trkpt lat="57.666726037859917" lon="-6.357312966138125">
        <ele>56.859999999999999</ele>
        <time>2023-08-27T09:53:16Z</time>
      </trkpt>
      <trkpt lat="57.666726037859917" lon="-6.357312966138125">
        <ele>57.340000000000003</ele>
        <time>2023-08-27T09:53:28Z</time>
      </trkpt>
      <trkpt lat="57.666712962090969" lon="-6.357326041907072">
        <ele>57.340000000000003</ele>
        <time>2023-08-27T09:53:57Z</time>
      </trkpt>
      <trkpt lat="57.66664800234139" lon="-6.357394019141793">
        <ele>57.340000000000003</ele>
        <time>2023-08-27T09:53:59Z</time>
      </trkpt>
      <trkpt lat="57.66658597625792" lon="-6.357458978891373">
        <ele>57.82</ele>
        <time>2023-08-27T09:54:00Z</time>
      </trkpt>
      <trkpt lat="57.666209964081645" lon="-6.357940016314387">
        <ele>57.340000000000003</ele>
        <time>2023-08-27T09:54:04Z</time>
      </trkpt>
      <trkpt lat="57.666095970198512" lon="-6.358110001310706">
        <ele>56.859999999999999</ele>
        <time>2023-08-27T09:54:05Z</time>
      </trkpt>
      <trkpt lat="57.666007038205862" lon="-6.358344024047256">
        <ele>56.859999999999999</ele>
        <time>2023-08-27T09:54:06Z</time>
      </trkpt>
      <trkpt lat="57.665909975767136" lon="-6.358595984056592">
        <ele>56.859999999999999</ele>
        <time>2023-08-27T09:54:07Z</time>
      </trkpt>
      <trkpt lat="57.665806962177157" lon="-6.358865965157747">
        <ele>56.859999999999999</ele>
        <time>2023-08-27T09:54:08Z</time>
      </trkpt>
      <trkpt lat="57.665184019133449" lon="-6.360046975314617">
        <ele>57.82</ele>
        <time>2023-08-27T09:54:13Z</time>
      </trkpt>
      <trkpt lat="57.66505803912878" lon="-6.360173039138317">
        <ele>58.780000000000001</ele>
        <time>2023-08-27T09:54:14Z</time>
      </trkpt>
      <trkpt lat="57.664941027760506" lon="-6.36028996668756">
        <ele>59.740000000000002</ele>
        <time>2023-08-27T09:54:15Z</time>
      </trkpt>
      <trkpt lat="57.664819993078709" lon="-6.360411001369357">
        <ele>61.18</ele>
        <time>2023-08-27T09:54:16Z</time>
      </trkpt>
      <trkpt lat="57.664698036387563" lon="-6.360533041879535">
        <ele>62.140000000000001</ele>
        <time>2023-08-27T09:54:17Z</time>
      </trkpt>
      <trkpt lat="57.664614971727133" lon="-6.360718030482531">
        <ele>63.579999999999998</ele>
        <time>2023-08-27T09:54:18Z</time>
      </trkpt>
      <trkpt lat="57.66454498283565" lon="-6.360945012420416">
        <ele>65.030000000000001</ele>
        <time>2023-08-27T09:54:19Z</time>
      </trkpt>
      <trkpt lat="57.664468036964536" lon="-6.361191021278501">
        <ele>66.950000000000003</ele>
        <time>2023-08-27T09:54:20Z</time>
      </trkpt>
      <trkpt lat="57.664165031164885" lon="-6.361914966255426">
        <ele>71.760000000000005</ele>
        <time>2023-08-27T09:54:23Z</time>
      </trkpt>
      <trkpt lat="57.663773009553552" lon="-6.36288802139461">
        <ele>78.969999999999999</ele>
        <time>2023-08-27T09:54:27Z</time>
      </trkpt>
      <trkpt lat="57.663702014833689" lon="-6.363187003880739">
        <ele>80.890000000000001</ele>
        <time>2023-08-27T09:54:28Z</time>
      </trkpt>
      <trkpt lat="57.663338994607329" lon="-6.364712007343769">
        <ele>89.060000000000002</ele>
        <time>2023-08-27T09:54:34Z</time>
      </trkpt>
      <trkpt lat="57.663287026807666" lon="-6.3649280089885">
        <ele>89.540000000000006</ele>
        <time>2023-08-27T09:54:35Z</time>
      </trkpt>
      <trkpt lat="57.662773970514536" lon="-6.365911960601807">
        <ele>90.019999999999996</ele>
        <time>2023-08-27T09:54:42Z</time>
      </trkpt>
      <trkpt lat="57.662668023258448" lon="-6.366010028868914">
        <ele>90.019999999999996</ele>
        <time>2023-08-27T09:54:43Z</time>
      </trkpt>
      <trkpt lat="57.662555035203695" lon="-6.366113964468241">
        <ele>90.019999999999996</ele>
        <time>2023-08-27T09:54:44Z</time>
      </trkpt>
      <trkpt lat="57.662286981940269" lon="-6.366360979154706">
        <ele>89.540000000000006</ele>
        <time>2023-08-27T09:54:46Z</time>
      </trkpt>
      <trkpt lat="57.662147004157305" lon="-6.366544039919972">
        <ele>89.540000000000006</ele>
        <time>2023-08-27T09:54:47Z</time>
      </trkpt>
      <trkpt lat="57.662018006667495" lon="-6.366762975230813">
        <ele>89.060000000000002</ele>
        <time>2023-08-27T09:54:48Z</time>
      </trkpt>
      <trkpt lat="57.661896971985698" lon="-6.367004960775375">
        <ele>88.579999999999998</ele>
        <time>2023-08-27T09:54:49Z</time>
      </trkpt>
      <trkpt lat="57.661779960617423" lon="-6.367244012653828">
        <ele>88.099999999999994</ele>
        <time>2023-08-27T09:54:50Z</time>
      </trkpt>
      <trkpt lat="57.661276962608099" lon="-6.368376994505525">
        <ele>87.140000000000001</ele>
        <time>2023-08-27T09:54:56Z</time>
      </trkpt>
      <trkpt lat="57.661101026460528" lon="-6.368851996958256">
        <ele>86.180000000000007</ele>
        <time>2023-08-27T09:55:03Z</time>
      </trkpt>
      <trkpt lat="57.661101026460528" lon="-6.368851996958256">
        <ele>86.180000000000007</ele>
        <time>2023-08-27T09:55:26Z</time>
      </trkpt>
      <trkpt lat="57.660965994000435" lon="-6.369216023012996">
        <ele>85.689999999999998</ele>
        <time>2023-08-27T09:55:41Z</time>
      </trkpt>
      <trkpt lat="57.660551005974412" lon="-6.370334001258016">
        <ele>83.290000000000006</ele>
        <time>2023-08-27T09:55:48Z</time>
      </trkpt>
      <trkpt lat="57.660430977120996" lon="-6.370657039806247">
        <ele>81.849999999999994</ele>
        <time>2023-08-27T09:55:51Z</time>
      </trkpt>
      <trkpt lat="57.660392001271248" lon="-6.370760975405574">
        <ele>81.370000000000005</ele>
        <time>2023-08-27T09:55:52Z</time>
      </trkpt>
      <trkpt lat="57.660385966300964" lon="-6.370775979012251">
        <ele>81.370000000000005</ele>
        <time>2023-08-27T09:55:53Z</time>
      </trkpt>
      <trkpt lat="57.660356964915991" lon="-6.370604988187552">
        <ele>80.409999999999997</ele>
        <time>2023-08-27T09:55:55Z</time>
      </trkpt>
      <trkpt lat="57.66033198684454" lon="-6.370499040931463">
        <ele>79.930000000000007</ele>
        <time>2023-08-27T09:55:56Z</time>
      </trkpt>
      <trkpt lat="57.660303991287947" lon="-6.370373982936144">
        <ele>79.930000000000007</ele>
        <time>2023-08-27T09:55:57Z</time>
      </trkpt>
      <trkpt lat="57.660271972417831" lon="-6.370232999324799">
        <ele>79.930000000000007</ele>
        <time>2023-08-27T09:55:58Z</time>
      </trkpt>
      <trkpt lat="57.66009503044188" lon="-6.369450967758894">
        <ele>84.25</ele>
        <time>2023-08-27T09:56:04Z</time>
      </trkpt>
      <trkpt lat="57.660077009350061" lon="-6.369371004402638">
        <ele>84.730000000000004</ele>
        <time>2023-08-27T09:56:05Z</time>
      </trkpt>
      <trkpt lat="57.660026969388127" lon="-6.369151985272765">
        <ele>86.659999999999997</ele>
        <time>2023-08-27T09:56:08Z</time>
      </trkpt>
      <trkpt lat="57.660026969388127" lon="-6.369042014703155">
        <ele>87.140000000000001</ele>
        <time>2023-08-27T09:56:09Z</time>
      </trkpt>
      <trkpt lat="57.660026969388127" lon="-6.36896800249815">
        <ele>87.620000000000005</ele>
        <time>2023-08-27T09:56:10Z</time>
      </trkpt>
      <trkpt lat="57.660026969388127" lon="-6.368773961439729">
        <ele>90.019999999999996</ele>
        <time>2023-08-27T09:56:20Z</time>
      </trkpt>
      <trkpt lat="57.660026969388127" lon="-6.368735991418362">
        <ele>90.019999999999996</ele>
        <time>2023-08-27T09:56:21Z</time>
      </trkpt>
      <trkpt lat="57.660026969388127" lon="-6.368715958669782">
        <ele>90.019999999999996</ele>
        <time>2023-08-27T09:56:22Z</time>
      </trkpt>
      <trkpt lat="57.660026969388127" lon="-6.368698021396995">
        <ele>90.019999999999996</ele>
        <time>2023-08-27T09:56:23Z</time>
      </trkpt>
      <trkpt lat="57.660026969388127" lon="-6.368688968941569">
        <ele>90.5</ele>
        <time>2023-08-27T09:56:24Z</time>
      </trkpt>
      <trkpt lat="57.659892020747066" lon="-6.368658961728215">
        <ele>91.459999999999994</ele>
        <time>2023-08-27T09:56:38Z</time>
      </trkpt>
      <trkpt lat="57.659892020747066" lon="-6.368658961728215">
        <ele>91.459999999999994</ele>
        <time>2023-08-27T09:56:53Z</time>
      </trkpt>
      <trkpt lat="57.659847009927034" lon="-6.368807991966605">
        <ele>63.579999999999998</ele>
        <time>2023-08-27T10:01:11Z</time>
      </trkpt>
      <trkpt lat="57.659919010475278" lon="-6.368644963949919">
        <ele>87.140000000000001</ele>
        <time>2023-08-27T10:01:42Z</time>
      </trkpt>
      <trkpt lat="57.659933008253574" lon="-6.368643958121538">
        <ele>91.459999999999994</ele>
        <time>2023-08-27T10:02:32Z</time>
      </trkpt>
      <trkpt lat="57.659930996596813" lon="-6.368655022233725">
        <ele>90.980000000000004</ele>
        <time>2023-08-27T10:03:04Z</time>
      </trkpt>
      <trkpt lat="57.660026969388127" lon="-6.368620991706848">
        <ele>90.980000000000004</ele>
        <time>2023-08-27T10:03:06Z</time>
      </trkpt>
      <trkpt lat="57.660026969388127" lon="-6.368571035563946">
        <ele>90.980000000000004</ele>
        <time>2023-08-27T10:03:07Z</time>
      </trkpt>
      <trkpt lat="57.660026969388127" lon="-6.368498029187322">
        <ele>90.5</ele>
        <time>2023-08-27T10:03:08Z</time>
      </trkpt>
      <trkpt lat="57.660026969388127" lon="-6.368422005325556">
        <ele>90.980000000000004</ele>
        <time>2023-08-27T10:03:09Z</time>
      </trkpt>
      <trkpt lat="57.660249006003141" lon="-6.367191961035132">
        <ele>91.459999999999994</ele>
        <time>2023-08-27T10:03:18Z</time>
      </trkpt>
      <trkpt lat="57.660462995991111" lon="-6.365842977538705">
        <ele>91.939999999999998</ele>
        <time>2023-08-27T10:03:28Z</time>
      </trkpt>
      <trkpt lat="57.660469030961394" lon="-6.365697970613837">
        <ele>92.420000000000002</ele>
        <time>2023-08-27T10:03:29Z</time>
      </trkpt>
      <trkpt lat="57.660491997376084" lon="-6.365391025319696">
        <ele>92.900000000000006</ele>
        <time>2023-08-27T10:03:31Z</time>
      </trkpt>
      <trkpt lat="57.66052502207458" lon="-6.365270996466279">
        <ele>93.390000000000001</ele>
        <time>2023-08-27T10:03:32Z</time>
      </trkpt>
      <trkpt lat="57.660558968782425" lon="-6.365149039775133">
        <ele>93.870000000000005</ele>
        <time>2023-08-27T10:03:33Z</time>
      </trkpt>
      <trkpt lat="57.661004969850183" lon="-6.36355203576386">
        <ele>99.629999999999995</ele>
        <time>2023-08-27T10:03:48Z</time>
      </trkpt>
      <trkpt lat="57.661183001473546" lon="-6.362988017499447">
        <ele>102.04000000000001</ele>
        <time>2023-08-27T10:03:54Z</time>
      </trkpt>
      <trkpt lat="57.661218959838152" lon="-6.362924985587597">
        <ele>102.04000000000001</ele>
        <time>2023-08-27T10:03:55Z</time>
      </trkpt>
      <trkpt lat="57.661259025335312" lon="-6.362905958667398">
        <ele>102.52</ele>
        <time>2023-08-27T10:03:56Z</time>
      </trkpt>
      <trkpt lat="57.661309987306595" lon="-6.362901013344526">
        <ele>103.48</ele>
        <time>2023-08-27T10:03:57Z</time>
      </trkpt>
      <trkpt lat="57.66136203892529" lon="-6.362896990031004">
        <ele>103.48</ele>
        <time>2023-08-27T10:03:58Z</time>
      </trkpt>
      <trkpt lat="57.661457005888224" lon="-6.362889027222991">
        <ele>103.95999999999999</ele>
        <time>2023-08-27T10:04:00Z</time>
      </trkpt>
      <trkpt lat="57.661486007273197" lon="-6.36288701556623">
        <ele>103.95999999999999</ele>
        <time>2023-08-27T10:04:01Z</time>
      </trkpt>
      <trkpt lat="57.661486007273197" lon="-6.362817026674748">
        <ele>103.95999999999999</ele>
        <time>2023-08-27T10:04:02Z</time>
      </trkpt>
      <trkpt lat="57.661486007273197" lon="-6.362766986712813">
        <ele>103.95999999999999</ele>
        <time>2023-08-27T10:04:03Z</time>
      </trkpt>
      <trkpt lat="57.661486007273197" lon="-6.362712001428008">
        <ele>103.48</ele>
        <time>2023-08-27T10:04:04Z</time>
      </trkpt>
      <trkpt lat="57.661486007273197" lon="-6.362660033628345">
        <ele>103.48</ele>
        <time>2023-08-27T10:04:05Z</time>
      </trkpt>
      <trkpt lat="57.661486007273197" lon="-6.362613011151552">
        <ele>103.48</ele>
        <time>2023-08-27T10:04:06Z</time>
      </trkpt>
      <trkpt lat="57.661486007273197" lon="-6.361722014844418">
        <ele>103.95999999999999</ele>
        <time>2023-08-27T10:04:16Z</time>
      </trkpt>
      <trkpt lat="57.661500005051494" lon="-6.361665017902851">
        <ele>103.95999999999999</ele>
        <time>2023-08-27T10:04:17Z</time>
      </trkpt>
      <trkpt lat="57.661517020314932" lon="-6.361640961840749">
        <ele>103.95999999999999</ele>
        <time>2023-08-27T10:04:18Z</time>
      </trkpt>
      <trkpt lat="57.661645011976361" lon="-6.361455973237753">
        <ele>104.92</ele>
        <time>2023-08-27T10:04:24Z</time>
      </trkpt>
      <trkpt lat="57.661683987826109" lon="-6.361367963254452">
        <ele>104.92</ele>
        <time>2023-08-27T10:04:25Z</time>
      </trkpt>
      <trkpt lat="57.661693040281534" lon="-6.361287999898195">
        <ele>104.92</ele>
        <time>2023-08-27T10:04:26Z</time>
      </trkpt>
      <trkpt lat="57.661699997261167" lon="-6.361219016835094">
        <ele>104.92</ele>
        <time>2023-08-27T10:04:27Z</time>
      </trkpt>
      <trkpt lat="57.661672001704574" lon="-6.361143998801708">
        <ele>104.92</ele>
        <time>2023-08-27T10:04:28Z</time>
      </trkpt>
      <trkpt lat="57.661650041118264" lon="-6.361090019345284">
        <ele>104.92</ele>
        <time>2023-08-27T10:04:29Z</time>
      </trkpt>
      <trkpt lat="57.661627996712923" lon="-6.361037967726588">
        <ele>104.92</ele>
        <time>2023-08-27T10:04:30Z</time>
      </trkpt>
      <trkpt lat="57.661593966186047" lon="-6.36095498688519">
        <ele>104.92</ele>
        <time>2023-08-27T10:04:31Z</time>
      </trkpt>
      <trkpt lat="57.661584997549653" lon="-6.360940989106894">
        <ele>105.40000000000001</ele>
        <time>2023-08-27T10:04:32Z</time>
      </trkpt>
      <trkpt lat="57.661568988114595" lon="-6.360912993550301">
        <ele>105.40000000000001</ele>
        <time>2023-08-27T10:04:33Z</time>
      </trkpt>
      <trkpt lat="57.661515008658171" lon="-6.360821966081858">
        <ele>105.40000000000001</ele>
        <time>2023-08-27T10:04:45Z</time>
      </trkpt>
      <trkpt lat="57.66112600453198" lon="-6.36015702970326">
        <ele>105.40000000000001</ele>
        <time>2023-08-27T10:04:53Z</time>
      </trkpt>
      <trkpt lat="57.661074036732316" lon="-6.360068013891578">
        <ele>106.36</ele>
        <time>2023-08-27T10:04:54Z</time>
      </trkpt>
      <trkpt lat="57.660360988229513" lon="-6.35885096155107">
        <ele>111.17</ele>
        <time>2023-08-27T10:05:04Z</time>
      </trkpt>
      <trkpt lat="57.659584991633892" lon="-6.357590993866324">
        <ele>111.65000000000001</ele>
        <time>2023-08-27T10:05:13Z</time>
      </trkpt>
      <trkpt lat="57.659141002222896" lon="-6.356946006417275">
        <ele>111.65000000000001</ele>
        <time>2023-08-27T10:05:19Z</time>
      </trkpt>
      <trkpt lat="57.658735988661647" lon="-6.3565509673208">
        <ele>115.5</ele>
        <time>2023-08-27T10:05:26Z</time>
      </trkpt>
      <trkpt lat="57.6586779858917" lon="-6.356546021997929">
        <ele>115.5</ele>
        <time>2023-08-27T10:05:27Z</time>
      </trkpt>
      <trkpt lat="57.658609002828598" lon="-6.356539987027645">
        <ele>115.98</ele>
        <time>2023-08-27T10:05:28Z</time>
      </trkpt>
      <trkpt lat="57.658532978966832" lon="-6.35652800090611">
        <ele>115.98</ele>
        <time>2023-08-27T10:05:29Z</time>
      </trkpt>
      <trkpt lat="57.658455027267337" lon="-6.356490030884743">
        <ele>115.98</ele>
        <time>2023-08-27T10:05:30Z</time>
      </trkpt>
      <trkpt lat="57.658368023112416" lon="-6.356446025893092">
        <ele>115.5</ele>
        <time>2023-08-27T10:05:31Z</time>
      </trkpt>
      <trkpt lat="57.658279007300735" lon="-6.356358015909791">
        <ele>115.01000000000001</ele>
        <time>2023-08-27T10:05:32Z</time>
      </trkpt>
      <trkpt lat="57.658198038116097" lon="-6.356251984834671">
        <ele>114.05</ele>
        <time>2023-08-27T10:05:33Z</time>
      </trkpt>
      <trkpt lat="57.658113967627287" lon="-6.356143020093441">
        <ele>113.09</ele>
        <time>2023-08-27T10:05:34Z</time>
      </trkpt>
      <trkpt lat="57.657235963270068" lon="-6.354992017149925">
        <ele>110.69</ele>
        <time>2023-08-27T10:05:45Z</time>
      </trkpt>
      <trkpt lat="57.657163040712476" lon="-6.354895960539579">
        <ele>110.69</ele>
        <time>2023-08-27T10:05:46Z</time>
      </trkpt>
      <trkpt lat="57.6564019639045" lon="-6.3544010091573">
        <ele>109.73</ele>
        <time>2023-08-27T10:05:55Z</time>
      </trkpt>
      <trkpt lat="57.656319988891482" lon="-6.354417018592358">
        <ele>109.73</ele>
        <time>2023-08-27T10:05:56Z</time>
      </trkpt>
      <trkpt lat="57.656228039413691" lon="-6.354434033855796">
        <ele>109.73</ele>
        <time>2023-08-27T10:05:57Z</time>
      </trkpt>
      <trkpt lat="57.655620016157627" lon="-6.35468197055161">
        <ele>106.84</ele>
        <time>2023-08-27T10:06:04Z</time>
      </trkpt>
      <trkpt lat="57.655542986467481" lon="-6.354737961664796">
        <ele>106.36</ele>
        <time>2023-08-27T10:06:05Z</time>
      </trkpt>
      <trkpt lat="57.655465034767985" lon="-6.354839969426394">
        <ele>105.88</ele>
        <time>2023-08-27T10:06:06Z</time>
      </trkpt>
      <trkpt lat="57.654397012665868" lon="-6.35622700676322">
        <ele>98.670000000000002</ele>
        <time>2023-08-27T10:06:19Z</time>
      </trkpt>
      <trkpt lat="57.654341021552682" lon="-6.356299007311463">
        <ele>98.670000000000002</ele>
        <time>2023-08-27T10:06:20Z</time>
      </trkpt>
      <trkpt lat="57.654288969933987" lon="-6.356451977044344">
        <ele>98.670000000000002</ele>
        <time>2023-08-27T10:06:21Z</time>
      </trkpt>
      <trkpt lat="57.654239013791084" lon="-6.35659497231245">
        <ele>98.189999999999998</ele>
        <time>2023-08-27T10:06:22Z</time>
      </trkpt>
      <trkpt lat="57.654186962172389" lon="-6.356746014207602">
        <ele>97.709999999999994</ele>
        <time>2023-08-27T10:06:23Z</time>
      </trkpt>
      <trkpt lat="57.654134994372725" lon="-6.356897978112102">
        <ele>97.709999999999994</ele>
        <time>2023-08-27T10:06:24Z</time>
      </trkpt>
      <trkpt lat="57.654012031853199" lon="-6.357182040810585">
        <ele>97.230000000000004</ele>
        <time>2023-08-27T10:06:26Z</time>
      </trkpt>
      <trkpt lat="57.653422029688954" lon="-6.358170015737414">
        <ele>98.670000000000002</ele>
        <time>2023-08-27T10:06:35Z</time>
      </trkpt>
      <trkpt lat="57.652893969789147" lon="-6.358726993203163">
        <ele>100.59999999999999</ele>
        <time>2023-08-27T10:06:42Z</time>
      </trkpt>
      <trkpt lat="57.652818029746413" lon="-6.358792958781123">
        <ele>101.56</ele>
        <time>2023-08-27T10:06:43Z</time>
      </trkpt>
      <trkpt lat="57.651973972097039" lon="-6.359532997012138">
        <ele>104.92</ele>
        <time>2023-08-27T10:06:53Z</time>
      </trkpt>
      <trkpt lat="57.65143996104598" lon="-6.359961982816458">
        <ele>106.84</ele>
        <time>2023-08-27T10:06:59Z</time>
      </trkpt>
      <trkpt lat="57.651349017396569" lon="-6.36002903804183">
        <ele>107.31999999999999</ele>
        <time>2023-08-27T10:07:00Z</time>
      </trkpt>
      <trkpt lat="57.650479981675744" lon="-6.360984994098544">
        <ele>106.84</ele>
        <time>2023-08-27T10:07:09Z</time>
      </trkpt>
      <trkpt lat="57.650317037478089" lon="-6.361191021278501">
        <ele>106.36</ele>
        <time>2023-08-27T10:07:11Z</time>
      </trkpt>
      <trkpt lat="57.649957034736872" lon="-6.361723020672798">
        <ele>102.04000000000001</ele>
        <time>2023-08-27T10:07:16Z</time>
      </trkpt>
      <trkpt lat="57.649866007268429" lon="-6.3617920037359">
        <ele>101.08</ele>
        <time>2023-08-27T10:07:17Z</time>
      </trkpt>
      <trkpt lat="57.649705996736884" lon="-6.361913960427046">
        <ele>98.670000000000002</ele>
        <time>2023-08-27T10:07:19Z</time>
      </trkpt>
      <trkpt lat="57.649631984531879" lon="-6.361993001773953">
        <ele>97.709999999999994</ele>
        <time>2023-08-27T10:07:20Z</time>
      </trkpt>
      <trkpt lat="57.649584040045738" lon="-6.362131973728538">
        <ele>96.269999999999996</ele>
        <time>2023-08-27T10:07:21Z</time>
      </trkpt>
      <trkpt lat="57.649526037275791" lon="-6.362301036715508">
        <ele>95.310000000000002</ele>
        <time>2023-08-27T10:07:22Z</time>
      </trkpt>
      <trkpt lat="57.649459987878799" lon="-6.362490970641375">
        <ele>93.870000000000005</ele>
        <time>2023-08-27T10:07:23Z</time>
      </trkpt>
      <trkpt lat="57.648982973769307" lon="-6.363669969141483">
        <ele>89.060000000000002</ele>
        <time>2023-08-27T10:07:30Z</time>
      </trkpt>
      <trkpt lat="57.648274032399058" lon="-6.365164965391159">
        <ele>83.290000000000006</ele>
        <time>2023-08-27T10:07:39Z</time>
      </trkpt>
      <trkpt lat="57.648120978847146" lon="-6.365580037236214">
        <ele>81.370000000000005</ele>
        <time>2023-08-27T10:07:42Z</time>
      </trkpt>
      <trkpt lat="57.648089965805411" lon="-6.36572202667594">
        <ele>80.890000000000001</ele>
        <time>2023-08-27T10:07:43Z</time>
      </trkpt>
      <trkpt lat="57.648059958592057" lon="-6.365858986973763">
        <ele>80.890000000000001</ele>
        <time>2023-08-27T10:07:44Z</time>
      </trkpt>
      <trkpt lat="57.648031041026115" lon="-6.365989996120334">
        <ele>81.370000000000005</ele>
        <time>2023-08-27T10:07:45Z</time>
      </trkpt>
      <trkpt lat="57.647992987185717" lon="-6.366118993610144">
        <ele>81.370000000000005</ele>
        <time>2023-08-27T10:07:46Z</time>
      </trkpt>
      <trkpt lat="57.647943031042814" lon="-6.366219995543361">
        <ele>81.849999999999994</ele>
        <time>2023-08-27T10:07:47Z</time>
      </trkpt>
      <trkpt lat="57.647903971374035" lon="-6.366298031061888">
        <ele>81.849999999999994</ele>
        <time>2023-08-27T10:07:48Z</time>
      </trkpt>
      <trkpt lat="57.647821996361017" lon="-6.366386041045189">
        <ele>82.329999999999998</ele>
        <time>2023-08-27T10:07:49Z</time>
      </trkpt>
      <trkpt lat="57.647757958620787" lon="-6.36645401827991">
        <ele>82.329999999999998</ele>
        <time>2023-08-27T10:07:50Z</time>
      </trkpt>
      <trkpt lat="57.647627033293247" lon="-6.366592990234494">
        <ele>82.810000000000002</ele>
        <time>2023-08-27T10:07:52Z</time>
      </trkpt>
      <trkpt lat="57.646783981472254" lon="-6.367123983800411">
        <ele>84.25</ele>
        <time>2023-08-27T10:08:01Z</time>
      </trkpt>
      <trkpt lat="57.645887034013867" lon="-6.367908027023077">
        <ele>88.099999999999994</ele>
        <time>2023-08-27T10:08:11Z</time>
      </trkpt>
      <trkpt lat="57.645738003775477" lon="-6.368135008960962">
        <ele>88.099999999999994</ele>
        <time>2023-08-27T10:08:13Z</time>
      </trkpt>
      <trkpt lat="57.645479002967477" lon="-6.368529964238405">
        <ele>89.060000000000002</ele>
        <time>2023-08-27T10:08:18Z</time>
      </trkpt>
      <trkpt lat="57.645479002967477" lon="-6.368671031668782">
        <ele>89.540000000000006</ele>
        <time>2023-08-27T10:08:19Z</time>
      </trkpt>
      <trkpt lat="57.645479002967477" lon="-6.368774967268109">
        <ele>89.540000000000006</ele>
        <time>2023-08-27T10:08:20Z</time>
      </trkpt>
      <trkpt lat="57.645479002967477" lon="-6.368851996958256">
        <ele>89.540000000000006</ele>
        <time>2023-08-27T10:08:21Z</time>
      </trkpt>
      <trkpt lat="57.645503981038928" lon="-6.368875969201326">
        <ele>89.540000000000006</ele>
        <time>2023-08-27T10:08:22Z</time>
      </trkpt>
      <trkpt lat="57.645556032657623" lon="-6.36892500333488">
        <ele>89.540000000000006</ele>
        <time>2023-08-27T10:08:23Z</time>
      </trkpt>
      <trkpt lat="57.645626021549106" lon="-6.368991974741221">
        <ele>89.540000000000006</ele>
        <time>2023-08-27T10:08:24Z</time>
      </trkpt>
      <trkpt lat="57.645715037360787" lon="-6.36907696723938">
        <ele>89.540000000000006</ele>
        <time>2023-08-27T10:08:25Z</time>
      </trkpt>
      <trkpt lat="57.645812015980482" lon="-6.369169000536203">
        <ele>89.060000000000002</ele>
        <time>2023-08-27T10:08:26Z</time>
      </trkpt>
      <trkpt lat="57.646795967593789" lon="-6.370564000681043">
        <ele>86.659999999999997</ele>
        <time>2023-08-27T10:08:38Z</time>
      </trkpt>
      <trkpt lat="57.647536005824804" lon="-6.37242796830833">
        <ele>85.209999999999994</ele>
        <time>2023-08-27T10:08:50Z</time>
      </trkpt>
      <trkpt lat="57.648226004093885" lon="-6.374864000827074">
        <ele>77.040000000000006</ele>
        <time>2023-08-27T10:09:04Z</time>
      </trkpt>
      <trkpt lat="57.648246958851814" lon="-6.375053012743592">
        <ele>76.560000000000002</ele>
        <time>2023-08-27T10:09:05Z</time>
      </trkpt>
      <trkpt lat="57.648246958851814" lon="-6.375249987468123">
        <ele>75.599999999999994</ele>
        <time>2023-08-27T10:09:06Z</time>
      </trkpt>
      <trkpt lat="57.648246958851814" lon="-6.375433970242739">
        <ele>74.640000000000001</ele>
        <time>2023-08-27T10:09:07Z</time>
      </trkpt>
      <trkpt lat="57.648246958851814" lon="-6.375600015744567">
        <ele>73.680000000000007</ele>
        <time>2023-08-27T10:09:08Z</time>
      </trkpt>
      <trkpt lat="57.648237990215421" lon="-6.375760026276112">
        <ele>72.239999999999995</ele>
        <time>2023-08-27T10:09:09Z</time>
      </trkpt>
      <trkpt lat="57.648203037679195" lon="-6.375911990180612">
        <ele>71.269999999999996</ele>
        <time>2023-08-27T10:09:10Z</time>
      </trkpt>
      <trkpt lat="57.648165989667177" lon="-6.376073006540537">
        <ele>70.310000000000002</ele>
        <time>2023-08-27T10:09:11Z</time>
      </trkpt>
      <trkpt lat="57.648114021867514" lon="-6.376235028728843">
        <ele>68.870000000000005</ele>
        <time>2023-08-27T10:09:12Z</time>
      </trkpt>
      <trkpt lat="57.64804202131927" lon="-6.37635899707675">
        <ele>67.909999999999997</ele>
        <time>2023-08-27T10:09:13Z</time>
      </trkpt>
      <trkpt lat="57.647971026599407" lon="-6.376481037586927">
        <ele>66.469999999999999</ele>
        <time>2023-08-27T10:09:14Z</time>
      </trkpt>
      <trkpt lat="57.647903971374035" lon="-6.37659796513617">
        <ele>65.510000000000005</ele>
        <time>2023-08-27T10:09:15Z</time>
      </trkpt>
      <trkpt lat="57.647812021896243" lon="-6.37668002396822">
        <ele>64.549999999999997</ele>
        <time>2023-08-27T10:09:16Z</time>
      </trkpt>
      <trkpt lat="57.647728035226464" lon="-6.376754958182573">
        <ele>63.100000000000001</ele>
        <time>2023-08-27T10:09:17Z</time>
      </trkpt>
      <trkpt lat="57.647649999707937" lon="-6.376825030893087">
        <ele>62.140000000000001</ele>
        <time>2023-08-27T10:09:18Z</time>
      </trkpt>
      <trkpt lat="57.647577999159694" lon="-6.376888984814286">
        <ele>60.700000000000003</ele>
        <time>2023-08-27T10:09:19Z</time>
      </trkpt>
      <trkpt lat="57.647513039410114" lon="-6.376946987584233">
        <ele>59.740000000000002</ele>
        <time>2023-08-27T10:09:20Z</time>
      </trkpt>
      <trkpt lat="57.647468028590083" lon="-6.377045977860689">
        <ele>58.780000000000001</ele>
        <time>2023-08-27T10:09:21Z</time>
      </trkpt>
      <trkpt lat="57.6474429666996" lon="-6.377173969522119">
        <ele>57.82</ele>
        <time>2023-08-27T10:09:22Z</time>
      </trkpt>
      <trkpt lat="57.647431986406446" lon="-6.37732601724565">
        <ele>56.859999999999999</ele>
        <time>2023-08-27T10:09:23Z</time>
      </trkpt>
      <trkpt lat="57.647435003891587" lon="-6.377503965049982">
        <ele>55.890000000000001</ele>
        <time>2023-08-27T10:09:24Z</time>
      </trkpt>
      <trkpt lat="57.647438021376729" lon="-6.377693982794881">
        <ele>55.409999999999997</ele>
        <time>2023-08-27T10:09:25Z</time>
      </trkpt>
      <trkpt lat="57.647443972527981" lon="-6.378054991364479">
        <ele>55.409999999999997</ele>
        <time>2023-08-27T10:09:27Z</time>
      </trkpt>
      <trkpt lat="57.647327966988087" lon="-6.379659958183765">
        <ele>55.409999999999997</ele>
        <time>2023-08-27T10:09:38Z</time>
      </trkpt>
      <trkpt lat="57.647318998351693" lon="-6.37973003089428">
        <ele>55.409999999999997</ele>
        <time>2023-08-27T10:09:39Z</time>
      </trkpt>
      <trkpt lat="57.64731296338141" lon="-6.37977696955204">
        <ele>55.409999999999997</ele>
        <time>2023-08-27T10:09:40Z</time>
      </trkpt>
      <trkpt lat="57.647239034995437" lon="-6.379826003685594">
        <ele>55.409999999999997</ele>
        <time>2023-08-27T10:09:41Z</time>
      </trkpt>
      <trkpt lat="57.647202992811799" lon="-6.379807982593775">
        <ele>55.409999999999997</ele>
        <time>2023-08-27T10:09:42Z</time>
      </trkpt>
      <trkpt lat="57.647143984213471" lon="-6.37977696955204">
        <ele>55.409999999999997</ele>
        <time>2023-08-27T10:09:43Z</time>
      </trkpt>
      <trkpt lat="57.647069972008467" lon="-6.379738999530673">
        <ele>55.890000000000001</ele>
        <time>2023-08-27T10:09:44Z</time>
      </trkpt>
      <trkpt lat="57.646983973681927" lon="-6.379693988710642">
        <ele>55.890000000000001</ele>
        <time>2023-08-27T10:09:45Z</time>
      </trkpt>
      <trkpt lat="57.64688297174871" lon="-6.379642020910978">
        <ele>55.890000000000001</ele>
        <time>2023-08-27T10:09:46Z</time>
      </trkpt>
      <trkpt lat="57.64563700184226" lon="-6.378886979073286">
        <ele>60.219999999999999</ele>
        <time>2023-08-27T10:09:56Z</time>
      </trkpt>
      <trkpt lat="57.64365803450346" lon="-6.377676967531443">
        <ele>62.619999999999997</ele>
        <time>2023-08-27T10:10:11Z</time>
      </trkpt>
      <trkpt lat="57.641850979998708" lon="-6.376706007868052">
        <ele>65.030000000000001</ele>
        <time>2023-08-27T10:10:24Z</time>
      </trkpt>
      <trkpt lat="57.6409309823066" lon="-6.376563012599945">
        <ele>66.469999999999999</ele>
        <time>2023-08-27T10:10:32Z</time>
      </trkpt>
      <trkpt lat="57.640409041196108" lon="-6.376529987901449">
        <ele>66.469999999999999</ele>
        <time>2023-08-27T10:10:39Z</time>
      </trkpt>
      <trkpt lat="57.639089981094003" lon="-6.376447007060051">
        <ele>71.269999999999996</ele>
        <time>2023-08-27T10:10:51Z</time>
      </trkpt>
      <trkpt lat="57.637932021170855" lon="-6.376374000683427">
        <ele>77.040000000000006</ele>
        <time>2023-08-27T10:11:02Z</time>
      </trkpt>
      <trkpt lat="57.636431995779276" lon="-6.376366959884763">
        <ele>80.409999999999997</ele>
        <time>2023-08-27T10:11:14Z</time>
      </trkpt>
      <trkpt lat="57.635018974542618" lon="-6.376527976244688">
        <ele>81.370000000000005</ele>
        <time>2023-08-27T10:11:25Z</time>
      </trkpt>
      <trkpt lat="57.633573012426496" lon="-6.377014964818955">
        <ele>79.930000000000007</ele>
        <time>2023-08-27T10:11:35Z</time>
      </trkpt>
      <trkpt lat="57.632254036143422" lon="-6.377587029710412">
        <ele>79.930000000000007</ele>
        <time>2023-08-27T10:11:46Z</time>
      </trkpt>
      <trkpt lat="57.630711011588573" lon="-6.378282979130745">
        <ele>76.079999999999998</ele>
        <time>2023-08-27T10:11:57Z</time>
      </trkpt>
      <trkpt lat="57.630057977512479" lon="-6.378417005762458">
        <ele>72.719999999999999</ele>
        <time>2023-08-27T10:12:02Z</time>
      </trkpt>
      <trkpt lat="57.629634020850062" lon="-6.378324972465634">
        <ele>69.349999999999994</ele>
        <time>2023-08-27T10:12:07Z</time>
      </trkpt>
      <trkpt lat="57.629110990092158" lon="-6.378172002732754">
        <ele>65.989999999999995</ele>
        <time>2023-08-27T10:12:14Z</time>
      </trkpt>
      <trkpt lat="57.628786023706198" lon="-6.37807703576982">
        <ele>64.069999999999993</ele>
        <time>2023-08-27T10:12:17Z</time>
      </trkpt>
      <trkpt lat="57.627509040758014" lon="-6.377704041078687">
        <ele>61.659999999999997</ele>
        <time>2023-08-27T10:12:27Z</time>
      </trkpt>
      <trkpt lat="57.626140024513006" lon="-6.377474963665009">
        <ele>62.140000000000001</ele>
        <time>2023-08-27T10:12:38Z</time>
      </trkpt>
      <trkpt lat="57.625088011845946" lon="-6.377358958125114">
        <ele>61.18</ele>
        <time>2023-08-27T10:12:47Z</time>
      </trkpt>
      <trkpt lat="57.624613009393215" lon="-6.377320988103747">
        <ele>60.700000000000003</ele>
        <time>2023-08-27T10:12:54Z</time>
      </trkpt>
      <trkpt lat="57.623382965102792" lon="-6.377442022785544">
        <ele>59.740000000000002</ele>
        <time>2023-08-27T10:13:04Z</time>
      </trkpt>
      <trkpt lat="57.62204697355628" lon="-6.37760597281158">
        <ele>58.299999999999997</ele>
        <time>2023-08-27T10:13:15Z</time>
      </trkpt>
      <trkpt lat="57.621949994936585" lon="-6.377539001405239">
        <ele>58.299999999999997</ele>
        <time>2023-08-27T10:13:16Z</time>
      </trkpt>
      <trkpt lat="57.6218749769032" lon="-6.377487033605576">
        <ele>57.82</ele>
        <time>2023-08-27T10:13:17Z</time>
      </trkpt>
      <trkpt lat="57.621804988011718" lon="-6.377439005300403">
        <ele>57.82</ele>
        <time>2023-08-27T10:13:18Z</time>
      </trkpt>
      <trkpt lat="57.62174597941339" lon="-6.377341020852327">
        <ele>57.340000000000003</ele>
        <time>2023-08-27T10:13:19Z</time>
      </trkpt>
      <trkpt lat="57.621707003563643" lon="-6.377214035019279">
        <ele>56.859999999999999</ele>
        <time>2023-08-27T10:13:20Z</time>
      </trkpt>
      <trkpt lat="57.621682025492191" lon="-6.377061987295747">
        <ele>56.859999999999999</ele>
        <time>2023-08-27T10:13:21Z</time>
      </trkpt>
      <trkpt lat="57.621682025492191" lon="-6.376897031441331">
        <ele>56.859999999999999</ele>
        <time>2023-08-27T10:13:22Z</time>
      </trkpt>
      <trkpt lat="57.621682025492191" lon="-6.376726040616632">
        <ele>56.369999999999997</ele>
        <time>2023-08-27T10:13:23Z</time>
      </trkpt>
      <trkpt lat="57.621682025492191" lon="-6.376545997336507">
        <ele>56.369999999999997</ele>
        <time>2023-08-27T10:13:24Z</time>
      </trkpt>
      <trkpt lat="57.621682025492191" lon="-6.375990025699139">
        <ele>56.369999999999997</ele>
        <time>2023-08-27T10:13:27Z</time>
      </trkpt>
      <trkpt lat="57.621653024107218" lon="-6.375471018254757">
        <ele>55.890000000000001</ele>
        <time>2023-08-27T10:13:30Z</time>
      </trkpt>
      <trkpt lat="57.621617987751961" lon="-6.375298015773296">
        <ele>55.890000000000001</ele>
        <time>2023-08-27T10:13:31Z</time>
      </trkpt>
      <trkpt lat="57.621582029387355" lon="-6.375124007463455">
        <ele>55.890000000000001</ele>
        <time>2023-08-27T10:13:32Z</time>
      </trkpt>
      <trkpt lat="57.621537018567324" lon="-6.37496299110353">
        <ele>55.890000000000001</ele>
        <time>2023-08-27T10:13:33Z</time>
      </trkpt>
      <trkpt lat="57.621454037725925" lon="-6.374828964471817">
        <ele>55.890000000000001</ele>
        <time>2023-08-27T10:13:34Z</time>
      </trkpt>
      <trkpt lat="57.621367033571005" lon="-6.374689992517233">
        <ele>55.890000000000001</ele>
        <time>2023-08-27T10:13:35Z</time>
      </trkpt>
      <trkpt lat="57.621278017759323" lon="-6.374546997249126">
        <ele>55.890000000000001</ele>
        <time>2023-08-27T10:13:36Z</time>
      </trkpt>
      <trkpt lat="57.620221981778741" lon="-6.373358024284244">
        <ele>55.409999999999997</ele>
        <time>2023-08-27T10:13:46Z</time>
      </trkpt>
      <trkpt lat="57.619711020961404" lon="-6.372797023504973">
        <ele>55.409999999999997</ele>
        <time>2023-08-27T10:13:51Z</time>
      </trkpt>
      <trkpt lat="57.619600966572762" lon="-6.372713958844543">
        <ele>55.409999999999997</ele>
        <time>2023-08-27T10:13:52Z</time>
      </trkpt>
      <trkpt lat="57.618344016373158" lon="-6.372101996093988">
        <ele>56.369999999999997</ele>
        <time>2023-08-27T10:14:03Z</time>
      </trkpt>
      <trkpt lat="57.618290036916733" lon="-6.372089004144073">
        <ele>56.369999999999997</ele>
        <time>2023-08-27T10:14:10Z</time>
      </trkpt>
      <trkpt lat="57.618055008351803" lon="-6.372034018859267">
        <ele>55.409999999999997</ele>
        <time>2023-08-27T10:14:17Z</time>
      </trkpt>
      <trkpt lat="57.617144985124469" lon="-6.37191298417747">
        <ele>53.009999999999998</ele>
        <time>2023-08-27T10:14:25Z</time>
      </trkpt>
      <trkpt lat="57.616786994040012" lon="-6.371820028871298">
        <ele>53.009999999999998</ele>
        <time>2023-08-27T10:14:28Z</time>
      </trkpt>
      <trkpt lat="57.61667400598526" lon="-6.371738975867629">
        <ele>53.009999999999998</ele>
        <time>2023-08-27T10:14:29Z</time>
      </trkpt>
      <trkpt lat="57.615496013313532" lon="-6.371190967038274">
        <ele>54.93</ele>
        <time>2023-08-27T10:14:39Z</time>
      </trkpt>
      <trkpt lat="57.614148035645485" lon="-6.371000027284026">
        <ele>57.340000000000003</ele>
        <time>2023-08-27T10:14:49Z</time>
      </trkpt>
      <trkpt lat="57.61360103264451" lon="-6.37092400342226">
        <ele>60.219999999999999</ele>
        <time>2023-08-27T10:14:55Z</time>
      </trkpt>
      <trkpt lat="57.612797962501645" lon="-6.37111603282392">
        <ele>64.069999999999993</ele>
        <time>2023-08-27T10:15:02Z</time>
      </trkpt>
      <trkpt lat="57.612095978111029" lon="-6.371578965336084">
        <ele>68.390000000000001</ele>
        <time>2023-08-27T10:15:10Z</time>
      </trkpt>
      <trkpt lat="57.612009979784489" lon="-6.371704023331404">
        <ele>68.390000000000001</ele>
        <time>2023-08-27T10:15:11Z</time>
      </trkpt>
      <trkpt lat="57.611030973494053" lon="-6.37296399101615">
        <ele>73.680000000000007</ele>
        <time>2023-08-27T10:15:22Z</time>
      </trkpt>
      <trkpt lat="57.609883993864059" lon="-6.373661030083895">
        <ele>77.519999999999996</ele>
        <time>2023-08-27T10:15:33Z</time>
      </trkpt>
      <trkpt lat="57.608641041442752" lon="-6.373893041163683">
        <ele>82.810000000000002</ele>
        <time>2023-08-27T10:15:43Z</time>
      </trkpt>
      <trkpt lat="57.607389958575368" lon="-6.374382963404059">
        <ele>88.099999999999994</ele>
        <time>2023-08-27T10:15:53Z</time>
      </trkpt>
      <trkpt lat="57.605876019224524" lon="-6.375310001894832">
        <ele>98.189999999999998</ele>
        <time>2023-08-27T10:16:06Z</time>
      </trkpt>
      <trkpt lat="57.605777028948069" lon="-6.375419972464442">
        <ele>99.150000000000006</ele>
        <time>2023-08-27T10:16:07Z</time>
      </trkpt>
      <trkpt lat="57.604715041816235" lon="-6.376396967098117">
        <ele>104.92</ele>
        <time>2023-08-27T10:16:17Z</time>
      </trkpt>
      <trkpt lat="57.603663029149175" lon="-6.377146979793906">
        <ele>108.77</ele>
        <time>2023-08-27T10:16:27Z</time>
      </trkpt>
      <trkpt lat="57.602155962958932" lon="-6.3778639677912">
        <ele>111.65000000000001</ele>
        <time>2023-08-27T10:16:41Z</time>
      </trkpt>
      <trkpt lat="57.602025959640741" lon="-6.377813005819917">
        <ele>111.65000000000001</ele>
        <time>2023-08-27T10:16:42Z</time>
      </trkpt>
      <trkpt lat="57.601909032091498" lon="-6.377767994999886">
        <ele>111.65000000000001</ele>
        <time>2023-08-27T10:16:43Z</time>
      </trkpt>
      <trkpt lat="57.601789003238082" lon="-6.377719966694713">
        <ele>112.13</ele>
        <time>2023-08-27T10:16:44Z</time>
      </trkpt>
      <trkpt lat="57.600579997524619" lon="-6.376873981207609">
        <ele>113.09</ele>
        <time>2023-08-27T10:16:53Z</time>
      </trkpt>
      <trkpt lat="57.599133029580116" lon="-6.375935962423682">
        <ele>113.56999999999999</ele>
        <time>2023-08-27T10:17:04Z</time>
      </trkpt>
      <trkpt lat="57.597818998619914" lon="-6.375679979100823">
        <ele>112.13</ele>
        <time>2023-08-27T10:17:14Z</time>
      </trkpt>
      <trkpt lat="57.596658021211624" lon="-6.375127024948597">
        <ele>112.61</ele>
        <time>2023-08-27T10:17:23Z</time>
      </trkpt>
      <trkpt lat="57.595616988837719" lon="-6.374407019466162">
        <ele>112.13</ele>
        <time>2023-08-27T10:17:32Z</time>
      </trkpt>
      <trkpt lat="57.594903018325567" lon="-6.373847024515271">
        <ele>110.69</ele>
        <time>2023-08-27T10:17:42Z</time>
      </trkpt>
      <trkpt lat="57.594280997291207" lon="-6.373358024284244">
        <ele>105.88</ele>
        <time>2023-08-27T10:17:50Z</time>
      </trkpt>
      <trkpt lat="57.594261970371008" lon="-6.373248975723982">
        <ele>105.40000000000001</ele>
        <time>2023-08-27T10:17:51Z</time>
      </trkpt>
      <trkpt lat="57.594247972592711" lon="-6.373169012367725">
        <ele>104.92</ele>
        <time>2023-08-27T10:17:52Z</time>
      </trkpt>
      <trkpt lat="57.594046974554658" lon="-6.372021026909351">
        <ele>104.92</ele>
        <time>2023-08-27T10:18:01Z</time>
      </trkpt>
      <trkpt lat="57.593779005110264" lon="-6.370485965162516">
        <ele>107.31999999999999</ele>
        <time>2023-08-27T10:18:14Z</time>
      </trkpt>
      <trkpt lat="57.593764001503587" lon="-6.370400972664356">
        <ele>107.31999999999999</ele>
        <time>2023-08-27T10:18:15Z</time>
      </trkpt>
      <trkpt lat="57.59375000372529" lon="-6.370028983801603">
        <ele>107.81</ele>
        <time>2023-08-27T10:18:18Z</time>
      </trkpt>
      <trkpt lat="57.593782022595406" lon="-6.369216023012996">
        <ele>107.81</ele>
        <time>2023-08-27T10:18:23Z</time>
      </trkpt>
      <trkpt lat="57.593982014805079" lon="-6.367217022925615">
        <ele>109.25</ele>
        <time>2023-08-27T10:18:33Z</time>
      </trkpt>
      <trkpt lat="57.594254007562995" lon="-6.363763008266687">
        <ele>115.98</ele>
        <time>2023-08-27T10:18:48Z</time>
      </trkpt>
      <trkpt lat="57.594864964485168" lon="-6.361915972083807">
        <ele>120.78</ele>
        <time>2023-08-27T10:18:57Z</time>
      </trkpt>
      <trkpt lat="57.596003981307149" lon="-6.359190009534359">
        <ele>127.98999999999999</ele>
        <time>2023-08-27T10:19:11Z</time>
      </trkpt>
      <trkpt lat="57.596075981855392" lon="-6.359000997617841">
        <ele>128.47</ele>
        <time>2023-08-27T10:19:12Z</time>
      </trkpt>
      <trkpt lat="57.596180001273751" lon="-6.358855990692973">
        <ele>128.47</ele>
        <time>2023-08-27T10:19:13Z</time>
      </trkpt>
      <trkpt lat="57.596286032348871" lon="-6.358717018738389">
        <ele>128.47</ele>
        <time>2023-08-27T10:19:14Z</time>
      </trkpt>
      <trkpt lat="57.597318012267351" lon="-6.357111968100071">
        <ele>130.88</ele>
        <time>2023-08-27T10:19:23Z</time>
      </trkpt>
      <trkpt lat="57.598139019683003" lon="-6.355817969888449">
        <ele>134.24000000000001</ele>
        <time>2023-08-27T10:19:31Z</time>
      </trkpt>
      <trkpt lat="57.598189981654286" lon="-6.355665000155568">
        <ele>134.72</ele>
        <time>2023-08-27T10:19:32Z</time>
      </trkpt>
      <trkpt lat="57.598233986645937" lon="-6.355513958260417">
        <ele>134.72</ele>
        <time>2023-08-27T10:19:33Z</time>
      </trkpt>
      <trkpt lat="57.598260976374149" lon="-6.355341961607337">
        <ele>135.19999999999999</ele>
        <time>2023-08-27T10:19:34Z</time>
      </trkpt>
      <trkpt lat="57.598289977759123" lon="-6.355159990489483">
        <ele>136.16</ele>
        <time>2023-08-27T10:19:35Z</time>
      </trkpt>
      <trkpt lat="57.598364995792508" lon="-6.35478800162673">
        <ele>137.13</ele>
        <time>2023-08-27T10:19:37Z</time>
      </trkpt>
      <trkpt lat="57.598427021875978" lon="-6.354628996923566">
        <ele>137.61000000000001</ele>
        <time>2023-08-27T10:19:38Z</time>
      </trkpt>
      <trkpt lat="57.598491981625557" lon="-6.354460017755628">
        <ele>138.56999999999999</ele>
        <time>2023-08-27T10:19:39Z</time>
      </trkpt>
      <trkpt lat="57.598847039043903" lon="-6.353546977043152">
        <ele>140.97</ele>
        <time>2023-08-27T10:19:44Z</time>
      </trkpt>
      <trkpt lat="57.598933037370443" lon="-6.35339098982513">
        <ele>141.44999999999999</ele>
        <time>2023-08-27T10:19:45Z</time>
      </trkpt>
      <trkpt lat="57.59903697296977" lon="-6.353302979841828">
        <ele>141.93000000000001</ele>
        <time>2023-08-27T10:19:46Z</time>
      </trkpt>
      <trkpt lat="57.600255031138659" lon="-6.352699985727668">
        <ele>148.18000000000001</ele>
        <time>2023-08-27T10:19:56Z</time>
      </trkpt>
      <trkpt lat="57.60094896890223" lon="-6.352451965212822">
        <ele>150.09999999999999</ele>
        <time>2023-08-27T10:20:01Z</time>
      </trkpt>
      <trkpt lat="57.60107696056366" lon="-6.352349035441876">
        <ele>150.09999999999999</ele>
        <time>2023-08-27T10:20:02Z</time>
      </trkpt>
      <trkpt lat="57.601206041872501" lon="-6.352244010195136">
        <ele>150.58000000000001</ele>
        <time>2023-08-27T10:20:03Z</time>
      </trkpt>
      <trkpt lat="57.601321041584015" lon="-6.352082993835211">
        <ele>151.06</ele>
        <time>2023-08-27T10:20:04Z</time>
      </trkpt>
      <trkpt lat="57.601425983011723" lon="-6.351916026324034">
        <ele>151.53999999999999</ele>
        <time>2023-08-27T10:20:05Z</time>
      </trkpt>
      <trkpt lat="57.601532014086843" lon="-6.351748974993825">
        <ele>152.03</ele>
        <time>2023-08-27T10:20:06Z</time>
      </trkpt>
      <trkpt lat="57.601843988522887" lon="-6.351255029439926">
        <ele>153.47</ele>
        <time>2023-08-27T10:20:09Z</time>
      </trkpt>
      <trkpt lat="57.601943984627724" lon="-6.351097030565143">
        <ele>154.43000000000001</ele>
        <time>2023-08-27T10:20:10Z</time>
      </trkpt>
      <trkpt lat="57.603498995304108" lon="-6.350005958229303">
        <ele>163.08000000000001</ele>
        <time>2023-08-27T10:20:22Z</time>
      </trkpt>
      <trkpt lat="57.604797016829252" lon="-6.349429031834006">
        <ele>167.41</ele>
        <time>2023-08-27T10:20:32Z</time>
      </trkpt>
      <trkpt lat="57.606181036680937" lon="-6.348837018013001">
        <ele>169.81</ele>
        <time>2023-08-27T10:20:43Z</time>
      </trkpt>
      <trkpt lat="57.607728000730276" lon="-6.348208962008357">
        <ele>169.81</ele>
        <time>2023-08-27T10:20:54Z</time>
      </trkpt>
      <trkpt lat="57.607862027361989" lon="-6.348208962008357">
        <ele>170.28999999999999</ele>
        <time>2023-08-27T10:20:55Z</time>
      </trkpt>
      <trkpt lat="57.607999993488193" lon="-6.348208962008357">
        <ele>170.28999999999999</ele>
        <time>2023-08-27T10:20:56Z</time>
      </trkpt>
      <trkpt lat="57.608139971271157" lon="-6.348222037777305">
        <ele>169.81</ele>
        <time>2023-08-27T10:20:57Z</time>
      </trkpt>
      <trkpt lat="57.608543979004025" lon="-6.348351035267115">
        <ele>169.33000000000001</ele>
        <time>2023-08-27T10:21:00Z</time>
      </trkpt>
      <trkpt lat="57.608674988150597" lon="-6.348334020003676">
        <ele>168.84999999999999</ele>
        <time>2023-08-27T10:21:01Z</time>
      </trkpt>
      <trkpt lat="57.608785964548588" lon="-6.348262019455433">
        <ele>168.37</ele>
        <time>2023-08-27T10:21:02Z</time>
      </trkpt>
      <trkpt lat="57.60887498036027" lon="-6.3481480255723">
        <ele>167.88999999999999</ele>
        <time>2023-08-27T10:21:03Z</time>
      </trkpt>
      <trkpt lat="57.608955027535558" lon="-6.348012993112207">
        <ele>167.41</ele>
        <time>2023-08-27T10:21:04Z</time>
      </trkpt>
      <trkpt lat="57.609044965356588" lon="-6.347851976752281">
        <ele>167.88999999999999</ele>
        <time>2023-08-27T10:21:05Z</time>
      </trkpt>
      <trkpt lat="57.609140016138554" lon="-6.347682997584343">
        <ele>167.88999999999999</ele>
        <time>2023-08-27T10:21:06Z</time>
      </trkpt>
      <trkpt lat="57.609236994758248" lon="-6.347508989274502">
        <ele>168.37</ele>
        <time>2023-08-27T10:21:07Z</time>
      </trkpt>
      <trkpt lat="57.609335985034704" lon="-6.347331963479519">
        <ele>168.84999999999999</ele>
        <time>2023-08-27T10:21:08Z</time>
      </trkpt>
      <trkpt lat="57.609441010281444" lon="-6.3471619784832">
        <ele>169.33000000000001</ele>
        <time>2023-08-27T10:21:09Z</time>
      </trkpt>
      <trkpt lat="57.61100297793746" lon="-6.345295999199152">
        <ele>172.69</ele>
        <time>2023-08-27T10:21:21Z</time>
      </trkpt>
      <trkpt lat="57.612361013889313" lon="-6.343386014923453">
        <ele>173.16999999999999</ele>
        <time>2023-08-27T10:21:32Z</time>
      </trkpt>
      <trkpt lat="57.612455980852246" lon="-6.343206977471709">
        <ele>172.69</ele>
        <time>2023-08-27T10:21:33Z</time>
      </trkpt>
      <trkpt lat="57.612563017755747" lon="-6.343080997467041">
        <ele>172.69</ele>
        <time>2023-08-27T10:21:34Z</time>
      </trkpt>
      <trkpt lat="57.612676005810499" lon="-6.342968009412289">
        <ele>172.69</ele>
        <time>2023-08-27T10:21:35Z</time>
      </trkpt>
      <trkpt lat="57.612794023007154" lon="-6.342849992215633">
        <ele>172.69</ele>
        <time>2023-08-27T10:21:36Z</time>
      </trkpt>
      <trkpt lat="57.612927965819836" lon="-6.34275795891881">
        <ele>172.69</ele>
        <time>2023-08-27T10:21:37Z</time>
      </trkpt>
      <trkpt lat="57.614130014553666" lon="-6.341803008690476">
        <ele>173.16999999999999</ele>
        <time>2023-08-27T10:21:46Z</time>
      </trkpt>
      <trkpt lat="57.614737031981349" lon="-6.3409089948982">
        <ele>176.53999999999999</ele>
        <time>2023-08-27T10:21:53Z</time>
      </trkpt>
      <trkpt lat="57.614866029471159" lon="-6.34069399908185">
        <ele>179.41999999999999</ele>
        <time>2023-08-27T10:21:59Z</time>
      </trkpt>
      <trkpt lat="57.614930989220738" lon="-6.34058696217835">
        <ele>179.41999999999999</ele>
        <time>2023-08-27T10:22:00Z</time>
      </trkpt>
      <trkpt lat="57.61570799164474" lon="-6.339289024472237">
        <ele>179.90000000000001</ele>
        <time>2023-08-27T10:22:08Z</time>
      </trkpt>
      <trkpt lat="57.616955973207951" lon="-6.337123978883028">
        <ele>191.44</ele>
        <time>2023-08-27T10:22:19Z</time>
      </trkpt>
      <trkpt lat="57.618126003071666" lon="-6.33530099876225">
        <ele>201.53</ele>
        <time>2023-08-27T10:22:30Z</time>
      </trkpt>
      <trkpt lat="57.618806026875973" lon="-6.334526007995009">
        <ele>206.34</ele>
        <time>2023-08-27T10:22:39Z</time>
      </trkpt>
      <trkpt lat="57.619777992367744" lon="-6.333030005916953">
        <ele>209.69999999999999</ele>
        <time>2023-08-27T10:22:49Z</time>
      </trkpt>
      <trkpt lat="57.620247965678573" lon="-6.332048987969756">
        <ele>213.06999999999999</ele>
        <time>2023-08-27T10:22:56Z</time>
      </trkpt>
      <trkpt lat="57.620247965678573" lon="-6.332048987969756">
        <ele>213.55000000000001</ele>
        <time>2023-08-27T10:23:05Z</time>
      </trkpt>
      <trkpt lat="57.620272021740675" lon="-6.331957038491964">
        <ele>213.55000000000001</ele>
        <time>2023-08-27T10:23:15Z</time>
      </trkpt>
      <trkpt lat="57.620320972055197" lon="-6.33173399604857">
        <ele>212.59</ele>
        <time>2023-08-27T10:23:18Z</time>
      </trkpt>
      <trkpt lat="57.620341004803777" lon="-6.331598041579127">
        <ele>212.59</ele>
        <time>2023-08-27T10:23:19Z</time>
      </trkpt>
      <trkpt lat="57.620365982875228" lon="-6.331428978592157">
        <ele>212.59</ele>
        <time>2023-08-27T10:23:20Z</time>
      </trkpt>
      <trkpt lat="57.620393978431821" lon="-6.331236027181149">
        <ele>212.59</ele>
        <time>2023-08-27T10:23:21Z</time>
      </trkpt>
      <trkpt lat="57.620423985645175" lon="-6.331030000001192">
        <ele>212.11000000000001</ele>
        <time>2023-08-27T10:23:22Z</time>
      </trkpt>
      <trkpt lat="57.62054200284183" lon="-6.3302300311625">
        <ele>212.59</ele>
        <time>2023-08-27T10:23:26Z</time>
      </trkpt>
      <trkpt lat="57.620610985904932" lon="-6.330093992874026">
        <ele>212.59</ele>
        <time>2023-08-27T10:23:27Z</time>
      </trkpt>
      <trkpt lat="57.620694972574711" lon="-6.329948985949159">
        <ele>213.06999999999999</ele>
        <time>2023-08-27T10:23:28Z</time>
      </trkpt>
      <trkpt lat="57.62077895924449" lon="-6.329897018149495">
        <ele>213.55000000000001</ele>
        <time>2023-08-27T10:23:29Z</time>
      </trkpt>
      <trkpt lat="57.620871998369694" lon="-6.329839015379548">
        <ele>214.03</ele>
        <time>2023-08-27T10:23:30Z</time>
      </trkpt>
      <trkpt lat="57.620963025838137" lon="-6.329782018437982">
        <ele>214.50999999999999</ele>
        <time>2023-08-27T10:23:31Z</time>
      </trkpt>
      <trkpt lat="57.621042989194393" lon="-6.329728038981557">
        <ele>214.99000000000001</ele>
        <time>2023-08-27T10:23:32Z</time>
      </trkpt>
      <trkpt lat="57.621119013056159" lon="-6.329619996249676">
        <ele>215.47</ele>
        <time>2023-08-27T10:23:33Z</time>
      </trkpt>
      <trkpt lat="57.621195036917925" lon="-6.329488987103105">
        <ele>215.94999999999999</ele>
        <time>2023-08-27T10:23:34Z</time>
      </trkpt>
      <trkpt lat="57.62122898362577" lon="-6.329317996278405">
        <ele>216.43000000000001</ele>
        <time>2023-08-27T10:23:35Z</time>
      </trkpt>
      <trkpt lat="57.621257985010743" lon="-6.329176006838679">
        <ele>216.43000000000001</ele>
        <time>2023-08-27T10:23:36Z</time>
      </trkpt>
      <trkpt lat="57.621275000274181" lon="-6.32909101434052">
        <ele>216.91</ele>
        <time>2023-08-27T10:23:37Z</time>
      </trkpt>
      <trkpt lat="57.621281035244465" lon="-6.328956987708807">
        <ele>218.36000000000001</ele>
        <time>2023-08-27T10:23:44Z</time>
      </trkpt>
      <trkpt lat="57.621284974738955" lon="-6.328882975503802">
        <ele>219.31999999999999</ele>
        <time>2023-08-27T10:23:48Z</time>
      </trkpt>
      <trkpt lat="57.621293021366" lon="-6.328707039356232">
        <ele>220.28</ele>
        <time>2023-08-27T10:23:50Z</time>
      </trkpt>
      <trkpt lat="57.621299978345633" lon="-6.328563960269094">
        <ele>220.75999999999999</ele>
        <time>2023-08-27T10:23:51Z</time>
      </trkpt>
      <trkpt lat="57.621325962245464" lon="-6.32801896892488">
        <ele>221.24000000000001</ele>
        <time>2023-08-27T10:23:54Z</time>
      </trkpt>
      <trkpt lat="57.621339038014412" lon="-6.32775996811688">
        <ele>221.24000000000001</ele>
        <time>2023-08-27T10:23:55Z</time>
      </trkpt>
      <trkpt lat="57.621371978893876" lon="-6.327601969242096">
        <ele>221.24000000000001</ele>
        <time>2023-08-27T10:23:56Z</time>
      </trkpt>
      <trkpt lat="57.621840024366975" lon="-6.325391996651888">
        <ele>225.09</ele>
        <time>2023-08-27T10:24:06Z</time>
      </trkpt>
      <trkpt lat="57.62221796438098" lon="-6.323041962459683">
        <ele>230.37</ele>
        <time>2023-08-27T10:24:16Z</time>
      </trkpt>
      <trkpt lat="57.622423991560936" lon="-6.321704965084791">
        <ele>233.74000000000001</ele>
        <time>2023-08-27T10:24:23Z</time>
      </trkpt>
      <trkpt lat="57.62245399877429" lon="-6.321512013673782">
        <ele>234.69999999999999</ele>
        <time>2023-08-27T10:24:25Z</time>
      </trkpt>
      <trkpt lat="57.6224759593606" lon="-6.321366000920534">
        <ele>234.69999999999999</ele>
        <time>2023-08-27T10:24:26Z</time>
      </trkpt>
      <trkpt lat="57.622477971017361" lon="-6.32129299454391">
        <ele>235.18000000000001</ele>
        <time>2023-08-27T10:24:27Z</time>
      </trkpt>
      <trkpt lat="57.622527005150914" lon="-6.319628013297916">
        <ele>238.06</ele>
        <time>2023-08-27T10:24:35Z</time>
      </trkpt>
      <trkpt lat="57.622541002929211" lon="-6.316771041601896">
        <ele>239.99000000000001</ele>
        <time>2023-08-27T10:24:45Z</time>
      </trkpt>
      <trkpt lat="57.622611997649074" lon="-6.313970983028412">
        <ele>243.34999999999999</ele>
        <time>2023-08-27T10:24:56Z</time>
      </trkpt>
      <trkpt lat="57.622768990695477" lon="-6.311675012111664">
        <ele>246.72</ele>
        <time>2023-08-27T10:25:06Z</time>
      </trkpt>
      <trkpt lat="57.62294702231884" lon="-6.309567969292402">
        <ele>248.63999999999999</ele>
        <time>2023-08-27T10:25:15Z</time>
      </trkpt>
      <trkpt lat="57.622945010662079" lon="-6.309344004839659">
        <ele>248.63999999999999</ele>
        <time>2023-08-27T10:25:16Z</time>
      </trkpt>
      <trkpt lat="57.622941993176937" lon="-6.309100007638335">
        <ele>248.63999999999999</ele>
        <time>2023-08-27T10:25:17Z</time>
      </trkpt>
      <trkpt lat="57.622985998168588" lon="-6.306937979534268">
        <ele>251.03999999999999</ele>
        <time>2023-08-27T10:25:25Z</time>
      </trkpt>
      <trkpt lat="57.623364022001624" lon="-6.304059969261289">
        <ele>251.52000000000001</ele>
        <time>2023-08-27T10:25:36Z</time>
      </trkpt>
      <trkpt lat="57.623502993956208" lon="-6.30341799929738">
        <ele>250.56</ele>
        <time>2023-08-27T10:25:39Z</time>
      </trkpt>
      <trkpt lat="57.623557979241014" lon="-6.303228987380862">
        <ele>250.56</ele>
        <time>2023-08-27T10:25:40Z</time>
      </trkpt>
      <trkpt lat="57.623813040554523" lon="-6.302369004115462">
        <ele>252</ele>
        <time>2023-08-27T10:25:45Z</time>
      </trkpt>
      <trkpt lat="57.623875988647342" lon="-6.302209999412298">
        <ele>252.47999999999999</ele>
        <time>2023-08-27T10:25:46Z</time>
      </trkpt>
      <trkpt lat="57.623938014730811" lon="-6.302050994709134">
        <ele>252.47999999999999</ele>
        <time>2023-08-27T10:25:47Z</time>
      </trkpt>
      <trkpt lat="57.624125014990568" lon="-6.301574986428022">
        <ele>253.44</ele>
        <time>2023-08-27T10:25:50Z</time>
      </trkpt>
      <trkpt lat="57.62419399805367" lon="-6.30139896646142">
        <ele>253.44</ele>
        <time>2023-08-27T10:25:51Z</time>
      </trkpt>
      <trkpt lat="57.62505498714745" lon="-6.299172984436154">
        <ele>257.29000000000002</ele>
        <time>2023-08-27T10:26:02Z</time>
      </trkpt>
      <trkpt lat="57.625626968219876" lon="-6.297492999583483">
        <ele>262.57999999999998</ele>
        <time>2023-08-27T10:26:11Z</time>
      </trkpt>
      <trkpt lat="57.625667033717036" lon="-6.297333994880319">
        <ele>263.54000000000002</ele>
        <time>2023-08-27T10:26:12Z</time>
      </trkpt>
      <trkpt lat="57.625695029273629" lon="-6.297183036804199">
        <ele>263.54000000000002</ele>
        <time>2023-08-27T10:26:13Z</time>
      </trkpt>
      <trkpt lat="57.625671979039907" lon="-6.296961000189185">
        <ele>264.01999999999998</ele>
        <time>2023-08-27T10:26:14Z</time>
      </trkpt>
      <trkpt lat="57.625652030110359" lon="-6.296764025464654">
        <ele>264.5</ele>
        <time>2023-08-27T10:26:15Z</time>
      </trkpt>
      <trkpt lat="57.625630991533399" lon="-6.296556992456317">
        <ele>264.5</ele>
        <time>2023-08-27T10:26:16Z</time>
      </trkpt>
      <trkpt lat="57.625631997361779" lon="-6.295935977250338">
        <ele>264.5</ele>
        <time>2023-08-27T10:26:19Z</time>
      </trkpt>
      <trkpt lat="57.625641971826553" lon="-6.295748976990581">
        <ele>264.5</ele>
        <time>2023-08-27T10:26:20Z</time>
      </trkpt>
      <trkpt lat="57.625660998746753" lon="-6.295559965074062">
        <ele>264.5</ele>
        <time>2023-08-27T10:26:21Z</time>
      </trkpt>
      <trkpt lat="57.625732999294996" lon="-6.295442031696439">
        <ele>264.98000000000002</ele>
        <time>2023-08-27T10:26:22Z</time>
      </trkpt>
      <trkpt lat="57.62580499984324" lon="-6.295323008671403">
        <ele>264.98000000000002</ele>
        <time>2023-08-27T10:26:23Z</time>
      </trkpt>
      <trkpt lat="57.62653598561883" lon="-6.294128000736237">
        <ele>264.98000000000002</ele>
        <time>2023-08-27T10:26:34Z</time>
      </trkpt>
      <trkpt lat="57.626591976732016" lon="-6.294035967439413">
        <ele>264.98000000000002</ele>
        <time>2023-08-27T10:26:35Z</time>
      </trkpt>
      <trkpt lat="57.626671018078923" lon="-6.294044014066458">
        <ele>264.98000000000002</ele>
        <time>2023-08-27T10:26:36Z</time>
      </trkpt>
      <trkpt lat="57.626743018627167" lon="-6.294058011844754">
        <ele>265.45999999999998</ele>
        <time>2023-08-27T10:26:37Z</time>
      </trkpt>
      <trkpt lat="57.626818036660552" lon="-6.294073015451431">
        <ele>265.45999999999998</ele>
        <time>2023-08-27T10:26:38Z</time>
      </trkpt>
      <trkpt lat="57.626890037208796" lon="-6.294088019058108">
        <ele>265.45999999999998</ele>
        <time>2023-08-27T10:26:39Z</time>
      </trkpt>
      <trkpt lat="57.626960026100278" lon="-6.29411299712956">
        <ele>265.45999999999998</ele>
        <time>2023-08-27T10:26:40Z</time>
      </trkpt>
      <trkpt lat="57.627033032476902" lon="-6.294146021828055">
        <ele>265.45999999999998</ele>
        <time>2023-08-27T10:26:41Z</time>
      </trkpt>
      <trkpt lat="57.627104027196765" lon="-6.29417896270752">
        <ele>265.45999999999998</ele>
        <time>2023-08-27T10:26:42Z</time>
      </trkpt>
      <trkpt lat="57.627305025234818" lon="-6.294273007661104">
        <ele>265.45999999999998</ele>
        <time>2023-08-27T10:26:45Z</time>
      </trkpt>
      <trkpt lat="57.627369984984398" lon="-6.294303014874458">
        <ele>265.45999999999998</ele>
        <time>2023-08-27T10:26:46Z</time>
      </trkpt>
      <trkpt lat="57.627519015222788" lon="-6.29437199793756">
        <ele>265.45999999999998</ele>
        <time>2023-08-27T10:26:48Z</time>
      </trkpt>
      <trkpt lat="57.627577017992735" lon="-6.294334027916193">
        <ele>265.45999999999998</ele>
        <time>2023-08-27T10:26:49Z</time>
      </trkpt>
      <trkpt lat="57.627629991620779" lon="-6.29426496103406">
        <ele>265.45999999999998</ele>
        <time>2023-08-27T10:26:50Z</time>
      </trkpt>
      <trkpt lat="57.627686988562346" lon="-6.294186003506184">
        <ele>265.94</ele>
        <time>2023-08-27T10:26:51Z</time>
      </trkpt>
      <trkpt lat="57.627748008817434" lon="-6.294103022664785">
        <ele>265.94</ele>
        <time>2023-08-27T10:26:52Z</time>
      </trkpt>
      <trkpt lat="57.627793019637465" lon="-6.294001014903188">
        <ele>266.42000000000002</ele>
        <time>2023-08-27T10:26:53Z</time>
      </trkpt>
      <trkpt lat="57.627841969951987" lon="-6.29387796856463">
        <ele>266.42000000000002</ele>
        <time>2023-08-27T10:26:54Z</time>
      </trkpt>
      <trkpt lat="57.627896033227444" lon="-6.293746959418058">
        <ele>266.42000000000002</ele>
        <time>2023-08-27T10:26:55Z</time>
      </trkpt>
      <trkpt lat="57.627948001027107" lon="-6.293618967756629">
        <ele>266.42000000000002</ele>
        <time>2023-08-27T10:26:56Z</time>
      </trkpt>
      <trkpt lat="57.627997035160661" lon="-6.293496005237103">
        <ele>266.42000000000002</ele>
        <time>2023-08-27T10:26:57Z</time>
      </trkpt>
      <trkpt lat="57.628386961296201" lon="-6.292211981490254">
        <ele>265.94</ele>
        <time>2023-08-27T10:27:06Z</time>
      </trkpt>
      <trkpt lat="57.628416968509555" lon="-6.292064040899277">
        <ele>265.45999999999998</ele>
        <time>2023-08-27T10:27:07Z</time>
      </trkpt>
      <trkpt lat="57.628437001258135" lon="-6.291909981518984">
        <ele>265.45999999999998</ele>
        <time>2023-08-27T10:27:08Z</time>
      </trkpt>
      <trkpt lat="57.628418980166316" lon="-6.291767992079258">
        <ele>265.45999999999998</ele>
        <time>2023-08-27T10:27:09Z</time>
      </trkpt>
      <trkpt lat="57.628400959074497" lon="-6.291627008467913">
        <ele>264.98000000000002</ele>
        <time>2023-08-27T10:27:10Z</time>
      </trkpt>
      <trkpt lat="57.62838302180171" lon="-6.291487030684948">
        <ele>264.98000000000002</ele>
        <time>2023-08-27T10:27:11Z</time>
      </trkpt>
      <trkpt lat="57.628366006538272" lon="-6.291351998224855">
        <ele>264.98000000000002</ele>
        <time>2023-08-27T10:27:12Z</time>
      </trkpt>
      <trkpt lat="57.628260981291533" lon="-6.29052503965795">
        <ele>263.54000000000002</ele>
        <time>2023-08-27T10:27:19Z</time>
      </trkpt>
      <trkpt lat="57.628248995169997" lon="-6.290420014411211">
        <ele>263.54000000000002</ele>
        <time>2023-08-27T10:27:20Z</time>
      </trkpt>
      <trkpt lat="57.628280008211732" lon="-6.290305014699698">
        <ele>263.54000000000002</ele>
        <time>2023-08-27T10:27:21Z</time>
      </trkpt>
      <trkpt lat="57.628311021253467" lon="-6.290185991674662">
        <ele>263.54000000000002</ele>
        <time>2023-08-27T10:27:22Z</time>
      </trkpt>
      <trkpt lat="57.628342034295201" lon="-6.290066968649626">
        <ele>263.06</ele>
        <time>2023-08-27T10:27:23Z</time>
      </trkpt>
      <trkpt lat="57.628372041508555" lon="-6.289953980594873">
        <ele>263.06</ele>
        <time>2023-08-27T10:27:24Z</time>
      </trkpt>
      <trkpt lat="57.628532974049449" lon="-6.289339000359178">
        <ele>261.13999999999999</ele>
        <time>2023-08-27T10:27:30Z</time>
      </trkpt>
      <trkpt lat="57.628553006798029" lon="-6.289261970669031">
        <ele>260.64999999999998</ele>
        <time>2023-08-27T10:27:31Z</time>
      </trkpt>
      <trkpt lat="57.628571027889848" lon="-6.289196005091071">
        <ele>260.64999999999998</ele>
        <time>2023-08-27T10:27:32Z</time>
      </trkpt>
      <trkpt lat="57.628585025668144" lon="-6.289140013977885">
        <ele>260.17000000000002</ele>
        <time>2023-08-27T10:27:33Z</time>
      </trkpt>
      <trkpt lat="57.628591982647777" lon="-6.289115035906434">
        <ele>259.69</ele>
        <time>2023-08-27T10:27:34Z</time>
      </trkpt>
      <trkpt lat="57.628591982647777" lon="-6.289115035906434">
        <ele>259.69</ele>
        <time>2023-08-27T10:27:35Z</time>
      </trkpt>
      <trkpt lat="57.628591982647777" lon="-6.289115035906434">
        <ele>259.20999999999998</ele>
        <time>2023-08-27T10:27:36Z</time>
      </trkpt>
      <trkpt lat="57.628591982647777" lon="-6.289115035906434">
        <ele>256.32999999999998</ele>
        <time>2023-08-27T10:27:46Z</time>
      </trkpt>
      <trkpt lat="57.628591982647777" lon="-6.289115035906434">
        <ele>256.32999999999998</ele>
        <time>2023-08-27T10:28:10Z</time>
      </trkpt>
      <trkpt lat="57.628591982647777" lon="-6.289115035906434">
        <ele>255.84999999999999</ele>
        <time>2023-08-27T10:29:10Z</time>
      </trkpt>
      <trkpt lat="57.628591982647777" lon="-6.289115035906434">
        <ele>255.37</ele>
        <time>2023-08-27T10:29:15Z</time>
      </trkpt>
      <trkpt lat="57.628591982647777" lon="-6.289115035906434">
        <ele>254.41</ele>
        <time>2023-08-27T10:29:16Z</time>
      </trkpt>
      <trkpt lat="57.628591982647777" lon="-6.289115035906434">
        <ele>253.93000000000001</ele>
        <time>2023-08-27T10:29:17Z</time>
      </trkpt>
      <trkpt lat="57.628366006538272" lon="-6.289061978459358">
        <ele>249.59999999999999</ele>
        <time>2023-08-27T10:29:22Z</time>
      </trkpt>
      <trkpt lat="57.628300040960312" lon="-6.289045969024301">
        <ele>249.12</ele>
        <time>2023-08-27T10:29:23Z</time>
      </trkpt>
      <trkpt lat="57.628227034583688" lon="-6.289029037579894">
        <ele>248.63999999999999</ele>
        <time>2023-08-27T10:29:24Z</time>
      </trkpt>
      <trkpt lat="57.628184035420418" lon="-6.288976985961199">
        <ele>247.68000000000001</ele>
        <time>2023-08-27T10:29:25Z</time>
      </trkpt>
      <trkpt lat="57.628145981580019" lon="-6.288930969312787">
        <ele>247.19999999999999</ele>
        <time>2023-08-27T10:29:26Z</time>
      </trkpt>
      <trkpt lat="57.628117986023426" lon="-6.288897022604942">
        <ele>246.22999999999999</ele>
        <time>2023-08-27T10:29:27Z</time>
      </trkpt>
      <trkpt lat="57.628089990466833" lon="-6.288861986249685">
        <ele>245.75</ele>
        <time>2023-08-27T10:29:28Z</time>
      </trkpt>
      <trkpt lat="57.62804196216166" lon="-6.288803983479738">
        <ele>242.87</ele>
        <time>2023-08-27T10:29:38Z</time>
      </trkpt>
      <trkpt lat="57.62804196216166" lon="-6.288803983479738">
        <ele>242.87</ele>
        <time>2023-08-27T10:29:56Z</time>
      </trkpt>
      <trkpt lat="57.627822021022439" lon="-6.288535008206964">
        <ele>237.09999999999999</ele>
        <time>2023-08-27T10:30:07Z</time>
      </trkpt>
      <trkpt lat="57.627280969172716" lon="-6.287873005494475">
        <ele>230.37</ele>
        <time>2023-08-27T10:30:15Z</time>
      </trkpt>
      <trkpt lat="57.627261020243168" lon="-6.287849033251405">
        <ele>229.41</ele>
        <time>2023-08-27T10:30:16Z</time>
      </trkpt>
      <trkpt lat="57.627212991937995" lon="-6.287720035761595">
        <ele>228.44999999999999</ele>
        <time>2023-08-27T10:30:17Z</time>
      </trkpt>
      <trkpt lat="57.627196982502937" lon="-6.287677036598325">
        <ele>227.97</ele>
        <time>2023-08-27T10:30:18Z</time>
      </trkpt>
      <trkpt lat="57.627206034958363" lon="-6.287612998858094">
        <ele>227.00999999999999</ele>
        <time>2023-08-27T10:30:19Z</time>
      </trkpt>
      <trkpt lat="57.627218021079898" lon="-6.287527000531554">
        <ele>226.05000000000001</ele>
        <time>2023-08-27T10:30:20Z</time>
      </trkpt>
      <trkpt lat="57.627249034121633" lon="-6.287492970004678">
        <ele>225.09</ele>
        <time>2023-08-27T10:30:21Z</time>
      </trkpt>
      <trkpt lat="57.62731097638607" lon="-6.287422981113195">
        <ele>224.12</ele>
        <time>2023-08-27T10:30:22Z</time>
      </trkpt>
      <trkpt lat="57.627391023561358" lon="-6.287333965301514">
        <ele>223.16</ele>
        <time>2023-08-27T10:30:23Z</time>
      </trkpt>
      <trkpt lat="57.627490013837814" lon="-6.287338994443417">
        <ele>222.19999999999999</ele>
        <time>2023-08-27T10:30:24Z</time>
      </trkpt>
      <trkpt lat="57.62758799828589" lon="-6.287343017756939">
        <ele>221.24000000000001</ele>
        <time>2023-08-27T10:30:25Z</time>
      </trkpt>
      <trkpt lat="57.62767500244081" lon="-6.28734796307981">
        <ele>219.80000000000001</ele>
        <time>2023-08-27T10:30:26Z</time>
      </trkpt>
      <trkpt lat="57.627753959968686" lon="-6.287350980564952">
        <ele>218.36000000000001</ele>
        <time>2023-08-27T10:30:27Z</time>
      </trkpt>
      <trkpt lat="57.62784599326551" lon="-6.287359027191997">
        <ele>217.40000000000001</ele>
        <time>2023-08-27T10:30:28Z</time>
      </trkpt>
      <trkpt lat="57.627920005470514" lon="-6.287414012476802">
        <ele>216.43000000000001</ele>
        <time>2023-08-27T10:30:29Z</time>
      </trkpt>
      <trkpt lat="57.628475977107882" lon="-6.287756999954581">
        <ele>210.19</ele>
        <time>2023-08-27T10:30:38Z</time>
      </trkpt>
      <trkpt lat="57.628661971539259" lon="-6.287806034088135">
        <ele>205.86000000000001</ele>
        <time>2023-08-27T10:30:44Z</time>
      </trkpt>
      <trkpt lat="57.628689967095852" lon="-6.287813996896148">
        <ele>204.41999999999999</ele>
        <time>2023-08-27T10:30:49Z</time>
      </trkpt>
      <trkpt lat="57.628742018714547" lon="-6.287827994674444">
        <ele>203.94</ele>
        <time>2023-08-27T10:30:50Z</time>
      </trkpt>
      <trkpt lat="57.628764985129237" lon="-6.287810979411006">
        <ele>203.46000000000001</ele>
        <time>2023-08-27T10:30:51Z</time>
      </trkpt>
      <trkpt lat="57.628961037844419" lon="-6.2876679841429">
        <ele>202.00999999999999</ele>
        <time>2023-08-27T10:30:54Z</time>
      </trkpt>
      <trkpt lat="57.629853961989284" lon="-6.286858962848783">
        <ele>195.28</ele>
        <time>2023-08-27T10:31:06Z</time>
      </trkpt>
      <trkpt lat="57.629883969202638" lon="-6.2868080008775">
        <ele>193.84</ele>
        <time>2023-08-27T10:31:14Z</time>
      </trkpt>
      <trkpt lat="57.630079016089439" lon="-6.286473982036114">
        <ele>191.44</ele>
        <time>2023-08-27T10:31:26Z</time>
      </trkpt>
      <trkpt lat="57.630628030747175" lon="-6.285117035731673">
        <ele>182.31</ele>
        <time>2023-08-27T10:31:36Z</time>
      </trkpt>
      <trkpt lat="57.630671029910445" lon="-6.28493900410831">
        <ele>181.34999999999999</ele>
        <time>2023-08-27T10:31:37Z</time>
      </trkpt>
      <trkpt lat="57.630714029073715" lon="-6.284761978313327">
        <ele>180.38</ele>
        <time>2023-08-27T10:31:38Z</time>
      </trkpt>
      <trkpt lat="57.630969006568193" lon="-6.283706026151776">
        <ele>174.62</ele>
        <time>2023-08-27T10:31:44Z</time>
      </trkpt>
      <trkpt lat="57.630958026275039" lon="-6.283503016456962">
        <ele>173.66</ele>
        <time>2023-08-27T10:31:45Z</time>
      </trkpt>
      <trkpt lat="57.6309410110116" lon="-6.283311992883682">
        <ele>173.16999999999999</ele>
        <time>2023-08-27T10:31:46Z</time>
      </trkpt>
      <trkpt lat="57.630922989919782" lon="-6.283110994845629">
        <ele>172.21000000000001</ele>
        <time>2023-08-27T10:31:47Z</time>
      </trkpt>
      <trkpt lat="57.630904968827963" lon="-6.282892981544137">
        <ele>171.25</ele>
        <time>2023-08-27T10:31:48Z</time>
      </trkpt>
      <trkpt lat="57.630885019898415" lon="-6.282667005434632">
        <ele>170.28999999999999</ele>
        <time>2023-08-27T10:31:49Z</time>
      </trkpt>
      <trkpt lat="57.630864987149835" lon="-6.282439017668366">
        <ele>169.33000000000001</ele>
        <time>2023-08-27T10:31:50Z</time>
      </trkpt>
      <trkpt lat="57.630845960229635" lon="-6.282213963568211">
        <ele>168.37</ele>
        <time>2023-08-27T10:31:51Z</time>
      </trkpt>
      <trkpt lat="57.630789969116449" lon="-6.282026963308454">
        <ele>167.41</ele>
        <time>2023-08-27T10:31:52Z</time>
      </trkpt>
      <trkpt lat="57.630740012973547" lon="-6.281863013282418">
        <ele>166.44999999999999</ele>
        <time>2023-08-27T10:31:53Z</time>
      </trkpt>
      <trkpt lat="57.630696007981896" lon="-6.28171599470079">
        <ele>165.96000000000001</ele>
        <time>2023-08-27T10:31:54Z</time>
      </trkpt>
      <trkpt lat="57.630657032132149" lon="-6.281590014696121">
        <ele>165</ele>
        <time>2023-08-27T10:31:55Z</time>
      </trkpt>
      <trkpt lat="57.630313038825989" lon="-6.280461978167296">
        <ele>159.72</ele>
        <time>2023-08-27T10:32:04Z</time>
      </trkpt>
      <trkpt lat="57.630325024947524" lon="-6.280322000384331">
        <ele>159.24000000000001</ele>
        <time>2023-08-27T10:32:05Z</time>
      </trkpt>
      <trkpt lat="57.630342040210962" lon="-6.280193002894521">
        <ele>159.24000000000001</ele>
        <time>2023-08-27T10:32:06Z</time>
      </trkpt>
      <trkpt lat="57.63036098331213" lon="-6.280047995969653">
        <ele>158.75</ele>
        <time>2023-08-27T10:32:07Z</time>
      </trkpt>
      <trkpt lat="57.630382021889091" lon="-6.279885973781347">
        <ele>157.78999999999999</ele>
        <time>2023-08-27T10:32:08Z</time>
      </trkpt>
      <trkpt lat="57.630404988303781" lon="-6.279710959643126">
        <ele>156.83000000000001</ele>
        <time>2023-08-27T10:32:09Z</time>
      </trkpt>
      <trkpt lat="57.630428960546851" lon="-6.279534017667174">
        <ele>156.34999999999999</ele>
        <time>2023-08-27T10:32:10Z</time>
      </trkpt>
      <trkpt lat="57.630452010780573" lon="-6.279356991872191">
        <ele>155.38999999999999</ele>
        <time>2023-08-27T10:32:11Z</time>
      </trkpt>
      <trkpt lat="57.630447987467051" lon="-6.279187006875873">
        <ele>154.91</ele>
        <time>2023-08-27T10:32:12Z</time>
      </trkpt>
      <trkpt lat="57.630432983860373" lon="-6.279012998566032">
        <ele>154.43000000000001</ele>
        <time>2023-08-27T10:32:13Z</time>
      </trkpt>
      <trkpt lat="57.630417980253696" lon="-6.278831027448177">
        <ele>153.94999999999999</ele>
        <time>2023-08-27T10:32:14Z</time>
      </trkpt>
      <trkpt lat="57.630298035219312" lon="-6.277512973174453">
        <ele>151.06</ele>
        <time>2023-08-27T10:32:21Z</time>
      </trkpt>
      <trkpt lat="57.6302520185709" lon="-6.27735698595643">
        <ele>150.58000000000001</ele>
        <time>2023-08-27T10:32:22Z</time>
      </trkpt>
      <trkpt lat="57.630204996094108" lon="-6.277197981253266">
        <ele>150.58000000000001</ele>
        <time>2023-08-27T10:32:23Z</time>
      </trkpt>
      <trkpt lat="57.630174988880754" lon="-6.277013998478651">
        <ele>150.09999999999999</ele>
        <time>2023-08-27T10:32:24Z</time>
      </trkpt>
      <trkpt lat="57.630144981667399" lon="-6.276824986562133">
        <ele>149.62</ele>
        <time>2023-08-27T10:32:25Z</time>
      </trkpt>
      <trkpt lat="57.630115980282426" lon="-6.276632035151124">
        <ele>149.62</ele>
        <time>2023-08-27T10:32:26Z</time>
      </trkpt>
      <trkpt lat="57.630084967240691" lon="-6.276431959122419">
        <ele>149.13999999999999</ele>
        <time>2023-08-27T10:32:27Z</time>
      </trkpt>
      <trkpt lat="57.629950018599629" lon="-6.275265030562878">
        <ele>144.34</ele>
        <time>2023-08-27T10:32:35Z</time>
      </trkpt>
      <trkpt lat="57.629957981407642" lon="-6.275232005864382">
        <ele>143.37</ele>
        <time>2023-08-27T10:32:44Z</time>
      </trkpt>
      <trkpt lat="57.629996035248041" lon="-6.275067972019315">
        <ele>142.88999999999999</ele>
        <time>2023-08-27T10:32:49Z</time>
      </trkpt>
      <trkpt lat="57.630022019147873" lon="-6.274960013106465">
        <ele>142.41</ele>
        <time>2023-08-27T10:32:50Z</time>
      </trkpt>
      <trkpt lat="57.630051020532846" lon="-6.274835960939527">
        <ele>142.41</ele>
        <time>2023-08-27T10:32:51Z</time>
      </trkpt>
      <trkpt lat="57.630373975262046" lon="-6.273472979664803">
        <ele>141.44999999999999</ele>
        <time>2023-08-27T10:32:59Z</time>
      </trkpt>
      <trkpt lat="57.630915027111769" lon="-6.271026972681284">
        <ele>140.00999999999999</ele>
        <time>2023-08-27T10:33:11Z</time>
      </trkpt>
      <trkpt lat="57.631317023187876" lon="-6.268728990107775">
        <ele>140.49000000000001</ele>
        <time>2023-08-27T10:33:22Z</time>
      </trkpt>
      <trkpt lat="57.631403021514416" lon="-6.267940001562238">
        <ele>141.44999999999999</ele>
        <time>2023-08-27T10:33:27Z</time>
      </trkpt>
      <trkpt lat="57.631407966837287" lon="-6.267865989357233">
        <ele>141.44999999999999</ele>
        <time>2023-08-27T10:33:28Z</time>
      </trkpt>
      <trkpt lat="57.631411990150809" lon="-6.267819972708821">
        <ele>141.44999999999999</ele>
        <time>2023-08-27T10:33:29Z</time>
      </trkpt>
      <trkpt lat="57.63141400180757" lon="-6.267784014344215">
        <ele>141.44999999999999</ele>
        <time>2023-08-27T10:33:30Z</time>
      </trkpt>
      <trkpt lat="57.631424982100725" lon="-6.267640013247728">
        <ele>141.93000000000001</ele>
        <time>2023-08-27T10:33:39Z</time>
      </trkpt>
      <trkpt lat="57.63143403455615" lon="-6.267519984394312">
        <ele>141.93000000000001</ele>
        <time>2023-08-27T10:33:40Z</time>
      </trkpt>
      <trkpt lat="57.631400004029274" lon="-6.26702000387013">
        <ele>141.93000000000001</ele>
        <time>2023-08-27T10:33:43Z</time>
      </trkpt>
      <trkpt lat="57.631373014301062" lon="-6.266818000003696">
        <ele>141.93000000000001</ele>
        <time>2023-08-27T10:33:44Z</time>
      </trkpt>
      <trkpt lat="57.631235970184207" lon="-6.265806974843144">
        <ele>142.88999999999999</ele>
        <time>2023-08-27T10:33:51Z</time>
      </trkpt>
      <trkpt lat="57.631057016551495" lon="-6.264481963589788">
        <ele>138.56999999999999</ele>
        <time>2023-08-27T10:33:59Z</time>
      </trkpt>
      <trkpt lat="57.631018040701747" lon="-6.264196978881955">
        <ele>136.63999999999999</ele>
        <time>2023-08-27T10:34:05Z</time>
      </trkpt>
      <trkpt lat="57.630978981032968" lon="-6.26390696503222">
        <ele>133.75999999999999</ele>
        <time>2023-08-27T10:34:14Z</time>
      </trkpt>
      <trkpt lat="57.630969006568193" lon="-6.263831024989486">
        <ele>133.75999999999999</ele>
        <time>2023-08-27T10:34:15Z</time>
      </trkpt>
      <trkpt lat="57.630954002961516" lon="-6.263724993914366">
        <ele>133.28</ele>
        <time>2023-08-27T10:34:16Z</time>
      </trkpt>
      <trkpt lat="57.630954002961516" lon="-6.263606976717711">
        <ele>133.28</ele>
        <time>2023-08-27T10:34:17Z</time>
      </trkpt>
      <trkpt lat="57.630957020446658" lon="-6.263459958136082">
        <ele>132.80000000000001</ele>
        <time>2023-08-27T10:34:18Z</time>
      </trkpt>
      <trkpt lat="57.6309600379318" lon="-6.26330497674644">
        <ele>132.80000000000001</ele>
        <time>2023-08-27T10:34:19Z</time>
      </trkpt>
      <trkpt lat="57.630961965769529" lon="-6.263155024498701">
        <ele>132.31999999999999</ele>
        <time>2023-08-27T10:34:20Z</time>
      </trkpt>
      <trkpt lat="57.630964983254671" lon="-6.263016974553466">
        <ele>132.31999999999999</ele>
        <time>2023-08-27T10:34:21Z</time>
      </trkpt>
      <trkpt lat="57.630971018224955" lon="-6.262682033702731">
        <ele>131.36000000000001</ele>
        <time>2023-08-27T10:34:24Z</time>
      </trkpt>
      <trkpt lat="57.630973029881716" lon="-6.262556975707412">
        <ele>130.88</ele>
        <time>2023-08-27T10:34:25Z</time>
      </trkpt>
      <trkpt lat="57.63087403960526" lon="-6.261359034106135">
        <ele>130.88</ele>
        <time>2023-08-27T10:34:32Z</time>
      </trkpt>
      <trkpt lat="57.630883008241653" lon="-6.261191982775927">
        <ele>131.36000000000001</ele>
        <time>2023-08-27T10:34:33Z</time>
      </trkpt>
      <trkpt lat="57.630908992141485" lon="-6.261028032749891">
        <ele>130.88</ele>
        <time>2023-08-27T10:34:34Z</time>
      </trkpt>
      <trkpt lat="57.63094000518322" lon="-6.260902974754572">
        <ele>130.88</ele>
        <time>2023-08-27T10:34:35Z</time>
      </trkpt>
      <trkpt lat="57.630961965769529" lon="-6.26081395894289">
        <ele>130.40000000000001</ele>
        <time>2023-08-27T10:34:36Z</time>
      </trkpt>
      <trkpt lat="57.630974035710096" lon="-6.26076802611351">
        <ele>129.91999999999999</ele>
        <time>2023-08-27T10:34:37Z</time>
      </trkpt>
      <trkpt lat="57.630999013781548" lon="-6.260667024180293">
        <ele>128.94999999999999</ele>
        <time>2023-08-27T10:34:50Z</time>
      </trkpt>
      <trkpt lat="57.631017034873366" lon="-6.260597035288811">
        <ele>128.47</ele>
        <time>2023-08-27T10:34:51Z</time>
      </trkpt>
      <trkpt lat="57.631041007116437" lon="-6.260501984506846">
        <ele>128.47</ele>
        <time>2023-08-27T10:34:52Z</time>
      </trkpt>
      <trkpt lat="57.631200011819601" lon="-6.259863032028079">
        <ele>126.55</ele>
        <time>2023-08-27T10:34:57Z</time>
      </trkpt>
      <trkpt lat="57.631237981840968" lon="-6.259722970426083">
        <ele>126.06999999999999</ele>
        <time>2023-08-27T10:34:58Z</time>
      </trkpt>
      <trkpt lat="57.631344012916088" lon="-6.259494982659817">
        <ele>126.06999999999999</ele>
        <time>2023-08-27T10:35:00Z</time>
      </trkpt>
      <trkpt lat="57.63139396905899" lon="-6.259385012090206">
        <ele>125.59</ele>
        <time>2023-08-27T10:35:01Z</time>
      </trkpt>
      <trkpt lat="57.631449038162827" lon="-6.259266994893551">
        <ele>125.59</ele>
        <time>2023-08-27T10:35:02Z</time>
      </trkpt>
      <trkpt lat="57.631506035104394" lon="-6.259142020717263">
        <ele>125.11</ele>
        <time>2023-08-27T10:35:03Z</time>
      </trkpt>
      <trkpt lat="57.63156495988369" lon="-6.259014029055834">
        <ele>125.11</ele>
        <time>2023-08-27T10:35:04Z</time>
      </trkpt>
      <trkpt lat="57.63205898925662" lon="-6.257941983640194">
        <ele>120.3</ele>
        <time>2023-08-27T10:35:13Z</time>
      </trkpt>
      <trkpt lat="57.632111040875316" lon="-6.257812986150384">
        <ele>119.34</ele>
        <time>2023-08-27T10:35:14Z</time>
      </trkpt>
      <trkpt lat="57.632111040875316" lon="-6.257652975618839">
        <ele>118.38</ele>
        <time>2023-08-27T10:35:15Z</time>
      </trkpt>
      <trkpt lat="57.632108023390174" lon="-6.257479973137379">
        <ele>117.42</ele>
        <time>2023-08-27T10:35:16Z</time>
      </trkpt>
      <trkpt lat="57.632085978984833" lon="-6.257301019504666">
        <ele>116.45999999999999</ele>
        <time>2023-08-27T10:35:17Z</time>
      </trkpt>
      <trkpt lat="57.632063012570143" lon="-6.257112007588148">
        <ele>115.98</ele>
        <time>2023-08-27T10:35:18Z</time>
      </trkpt>
      <trkpt lat="57.631688006222248" lon="-6.255521038547158">
        <ele>108.77</ele>
        <time>2023-08-27T10:35:28Z</time>
      </trkpt>
      <trkpt lat="57.631631009280682" lon="-6.255398998036981">
        <ele>107.81</ele>
        <time>2023-08-27T10:35:29Z</time>
      </trkpt>
      <trkpt lat="57.631545010954142" lon="-6.255324985831976">
        <ele>107.31999999999999</ele>
        <time>2023-08-27T10:35:30Z</time>
      </trkpt>
      <trkpt lat="57.63145700097084" lon="-6.255271006375551">
        <ele>106.84</ele>
        <time>2023-08-27T10:35:31Z</time>
      </trkpt>
      <trkpt lat="57.631354993209243" lon="-6.255252985283732">
        <ele>106.36</ele>
        <time>2023-08-27T10:35:32Z</time>
      </trkpt>
      <trkpt lat="57.631252985447645" lon="-6.255235970020294">
        <ele>105.88</ele>
        <time>2023-08-27T10:35:33Z</time>
      </trkpt>
      <trkpt lat="57.630758034065366" lon="-6.255093980580568">
        <ele>103.48</ele>
        <time>2023-08-27T10:35:38Z</time>
      </trkpt>
      <trkpt lat="57.630678992718458" lon="-6.255040001124144">
        <ele>102.52</ele>
        <time>2023-08-27T10:35:39Z</time>
      </trkpt>
      <trkpt lat="57.630585031583905" lon="-6.254969006404281">
        <ele>102.04000000000001</ele>
        <time>2023-08-27T10:35:40Z</time>
      </trkpt>
      <trkpt lat="57.630537003278732" lon="-6.25483799725771">
        <ele>101.08</ele>
        <time>2023-08-27T10:35:41Z</time>
      </trkpt>
      <trkpt lat="57.630491992458701" lon="-6.254677986726165">
        <ele>100.11</ele>
        <time>2023-08-27T10:35:42Z</time>
      </trkpt>
      <trkpt lat="57.630466008558869" lon="-6.254503978416324">
        <ele>98.670000000000002</ele>
        <time>2023-08-27T10:35:43Z</time>
      </trkpt>
      <trkpt lat="57.630437007173896" lon="-6.254313960671425">
        <ele>97.709999999999994</ele>
        <time>2023-08-27T10:35:44Z</time>
      </trkpt>
      <trkpt lat="57.63033801689744" lon="-6.2534190248698">
        <ele>92.900000000000006</ele>
        <time>2023-08-27T10:35:48Z</time>
      </trkpt>
      <trkpt lat="57.630328964442015" lon="-6.253195982426405">
        <ele>91.939999999999998</ele>
        <time>2023-08-27T10:35:49Z</time>
      </trkpt>
      <trkpt lat="57.630323013290763" lon="-6.253039995208383">
        <ele>90.980000000000004</ele>
        <time>2023-08-27T10:35:50Z</time>
      </trkpt>
      <trkpt lat="57.630319995805621" lon="-6.252979980781674">
        <ele>90.019999999999996</ele>
        <time>2023-08-27T10:35:51Z</time>
      </trkpt>
      <trkpt lat="57.630316978320479" lon="-6.252899011597037">
        <ele>84.25</ele>
        <time>2023-08-27T10:36:00Z</time>
      </trkpt>
      <trkpt lat="57.630371963605285" lon="-6.25180902890861">
        <ele>81.370000000000005</ele>
        <time>2023-08-27T10:36:07Z</time>
      </trkpt>
      <trkpt lat="57.630402976647019" lon="-6.251471992582083">
        <ele>80.409999999999997</ele>
        <time>2023-08-27T10:36:09Z</time>
      </trkpt>
      <trkpt lat="57.630433989688754" lon="-6.251377025619149">
        <ele>79.930000000000007</ele>
        <time>2023-08-27T10:36:10Z</time>
      </trkpt>
      <trkpt lat="57.630454022437334" lon="-6.251313993707299">
        <ele>79.450000000000003</ele>
        <time>2023-08-27T10:36:11Z</time>
      </trkpt>
      <trkpt lat="57.630533985793591" lon="-6.251068990677595">
        <ele>78</ele>
        <time>2023-08-27T10:36:15Z</time>
      </trkpt>
      <trkpt lat="57.630560975521803" lon="-6.250987015664578">
        <ele>77.519999999999996</ele>
        <time>2023-08-27T10:36:16Z</time>
      </trkpt>
      <trkpt lat="57.630629958584905" lon="-6.250774031504989">
        <ele>76.560000000000002</ele>
        <time>2023-08-27T10:36:18Z</time>
      </trkpt>
      <trkpt lat="57.630669018253684" lon="-6.250652996823192">
        <ele>76.079999999999998</ele>
        <time>2023-08-27T10:36:19Z</time>
      </trkpt>
      <trkpt lat="57.6306820102036" lon="-6.250488962978125">
        <ele>75.599999999999994</ele>
        <time>2023-08-27T10:36:20Z</time>
      </trkpt>
      <trkpt lat="57.630691984668374" lon="-6.250312021002173">
        <ele>75.120000000000005</ele>
        <time>2023-08-27T10:36:21Z</time>
      </trkpt>
      <trkpt lat="57.630688967183232" lon="-6.250118985772133">
        <ele>75.120000000000005</ele>
        <time>2023-08-27T10:36:22Z</time>
      </trkpt>
      <trkpt lat="57.6306820102036" lon="-6.249916981905699">
        <ele>74.159999999999997</ele>
        <time>2023-08-27T10:36:23Z</time>
      </trkpt>
      <trkpt lat="57.630660971626639" lon="-6.249366961419582">
        <ele>72.239999999999995</ele>
        <time>2023-08-27T10:36:28Z</time>
      </trkpt>
      <trkpt lat="57.630648985505104" lon="-6.249023973941803">
        <ele>70.790000000000006</ele>
        <time>2023-08-27T10:36:36Z</time>
      </trkpt>
      <trkpt lat="57.630636999383569" lon="-6.248711999505758">
        <ele>69.829999999999998</ele>
        <time>2023-08-27T10:36:38Z</time>
      </trkpt>
      <trkpt lat="57.630629958584905" lon="-6.248517036437988">
        <ele>69.349999999999994</ele>
        <time>2023-08-27T10:36:39Z</time>
      </trkpt>
      <trkpt lat="57.630640016868711" lon="-6.248358031734824">
        <ele>69.349999999999994</ele>
        <time>2023-08-27T10:36:40Z</time>
      </trkpt>
      <trkpt lat="57.630649991333485" lon="-6.2481779884547">
        <ele>68.870000000000005</ele>
        <time>2023-08-27T10:36:41Z</time>
      </trkpt>
      <trkpt lat="57.630702964961529" lon="-6.2480260245502">
        <ele>68.390000000000001</ele>
        <time>2023-08-27T10:36:42Z</time>
      </trkpt>
      <trkpt lat="57.630763985216618" lon="-6.24787699431181">
        <ele>67.909999999999997</ele>
        <time>2023-08-27T10:36:43Z</time>
      </trkpt>
      <trkpt lat="57.630826011300087" lon="-6.247723018750548">
        <ele>67.909999999999997</ele>
        <time>2023-08-27T10:36:44Z</time>
      </trkpt>
      <trkpt lat="57.630889965221286" lon="-6.247567031532526">
        <ele>67.430000000000007</ele>
        <time>2023-08-27T10:36:45Z</time>
      </trkpt>
      <trkpt lat="57.631188025698066" lon="-6.24680201523006">
        <ele>65.510000000000005</ele>
        <time>2023-08-27T10:36:50Z</time>
      </trkpt>
      <trkpt lat="57.631233958527446" lon="-6.246615014970303">
        <ele>64.549999999999997</ele>
        <time>2023-08-27T10:36:51Z</time>
      </trkpt>
      <trkpt lat="57.631815997883677" lon="-6.24474098905921">
        <ele>56.859999999999999</ele>
        <time>2023-08-27T10:37:01Z</time>
      </trkpt>
      <trkpt lat="57.631861008703709" lon="-6.244561029598117">
        <ele>56.369999999999997</ele>
        <time>2023-08-27T10:37:02Z</time>
      </trkpt>
      <trkpt lat="57.631880035623908" lon="-6.244371011853218">
        <ele>55.409999999999997</ele>
        <time>2023-08-27T10:37:03Z</time>
      </trkpt>
      <trkpt lat="57.631898978725076" lon="-6.244176970794797">
        <ele>54.450000000000003</ele>
        <time>2023-08-27T10:37:04Z</time>
      </trkpt>
      <trkpt lat="57.631918005645275" lon="-6.243987958878279">
        <ele>53.969999999999999</ele>
        <time>2023-08-27T10:37:05Z</time>
      </trkpt>
      <trkpt lat="57.631936026737094" lon="-6.243802970275283">
        <ele>53.009999999999998</ele>
        <time>2023-08-27T10:37:06Z</time>
      </trkpt>
      <trkpt lat="57.631961004808545" lon="-6.242685997858644">
        <ele>46.759999999999998</ele>
        <time>2023-08-27T10:37:14Z</time>
      </trkpt>
      <trkpt lat="57.631961004808545" lon="-6.242565969005227">
        <ele>44.840000000000003</ele>
        <time>2023-08-27T10:37:16Z</time>
      </trkpt>
      <trkpt lat="57.631896967068315" lon="-6.242431020364165">
        <ele>44.359999999999999</ele>
        <time>2023-08-27T10:37:17Z</time>
      </trkpt>
      <trkpt lat="57.631840975955129" lon="-6.24241903424263">
        <ele>43.399999999999999</ele>
        <time>2023-08-27T10:37:18Z</time>
      </trkpt>
      <trkpt lat="57.631767969578505" lon="-6.242403024807572">
        <ele>42.920000000000002</ele>
        <time>2023-08-27T10:37:19Z</time>
      </trkpt>
      <trkpt lat="57.631688006222248" lon="-6.242386009544134">
        <ele>41.950000000000003</ele>
        <time>2023-08-27T10:37:20Z</time>
      </trkpt>
      <trkpt lat="57.631601002067327" lon="-6.242307974025607">
        <ele>41.469999999999999</ele>
        <time>2023-08-27T10:37:21Z</time>
      </trkpt>
      <trkpt lat="57.631518021225929" lon="-6.24220596626401">
        <ele>40.509999999999998</ele>
        <time>2023-08-27T10:37:22Z</time>
      </trkpt>
      <trkpt lat="57.631437974050641" lon="-6.242052996531129">
        <ele>39.549999999999997</ele>
        <time>2023-08-27T10:37:23Z</time>
      </trkpt>
      <trkpt lat="57.631380977109075" lon="-6.241870019584894">
        <ele>38.590000000000003</ele>
        <time>2023-08-27T10:37:24Z</time>
      </trkpt>
      <trkpt lat="57.631322974339128" lon="-6.241683019325137">
        <ele>37.630000000000003</ele>
        <time>2023-08-27T10:37:25Z</time>
      </trkpt>
      <trkpt lat="57.630581008270383" lon="-6.239644037559629">
        <ele>26.57</ele>
        <time>2023-08-27T10:37:35Z</time>
      </trkpt>
      <trkpt lat="57.629968961700797" lon="-6.238306034356356">
        <ele>20.32</ele>
        <time>2023-08-27T10:37:42Z</time>
      </trkpt>
      <trkpt lat="57.629709038883448" lon="-6.237557027488947">
        <ele>19.359999999999999</ele>
        <time>2023-08-27T10:37:46Z</time>
      </trkpt>
      <trkpt lat="57.629545005038381" lon="-6.235943008214235">
        <ele>17.920000000000002</ele>
        <time>2023-08-27T10:37:54Z</time>
      </trkpt>
      <trkpt lat="57.629565959796309" lon="-6.235727006569505">
        <ele>17.440000000000001</ele>
        <time>2023-08-27T10:37:55Z</time>
      </trkpt>
      <trkpt lat="57.629941971972585" lon="-6.233047982677817">
        <ele>16.960000000000001</ele>
        <time>2023-08-27T10:38:06Z</time>
      </trkpt>
      <trkpt lat="57.630256963893771" lon="-6.230744970962405">
        <ele>19.84</ele>
        <time>2023-08-27T10:38:16Z</time>
      </trkpt>
      <trkpt lat="57.630297029390931" lon="-6.230397960171104">
        <ele>21.77</ele>
        <time>2023-08-27T10:38:23Z</time>
      </trkpt>
      <trkpt lat="57.630297029390931" lon="-6.230397960171104">
        <ele>21.77</ele>
        <time>2023-08-27T10:38:41Z</time>
      </trkpt>
      <trkpt lat="57.630297029390931" lon="-6.230397960171104">
        <ele>21.77</ele>
        <time>2023-08-27T10:39:34Z</time>
      </trkpt>
      <trkpt lat="57.630301974713802" lon="-6.230351021513343">
        <ele>22.25</ele>
        <time>2023-08-27T10:40:07Z</time>
      </trkpt>
      <trkpt lat="57.630309015512466" lon="-6.230284972116351">
        <ele>22.25</ele>
        <time>2023-08-27T10:40:08Z</time>
      </trkpt>
      <trkpt lat="57.630319995805621" lon="-6.230191010981798">
        <ele>21.77</ele>
        <time>2023-08-27T10:40:09Z</time>
      </trkpt>
      <trkpt lat="57.630431978031993" lon="-6.228917967528105">
        <ele>21.289999999999999</ele>
        <time>2023-08-27T10:40:16Z</time>
      </trkpt>
      <trkpt lat="57.630633981898427" lon="-6.226045992225409">
        <ele>23.690000000000001</ele>
        <time>2023-08-27T10:40:26Z</time>
      </trkpt>
      <trkpt lat="57.630931958556175" lon="-6.221506018191576">
        <ele>26.57</ele>
        <time>2023-08-27T10:40:39Z</time>
      </trkpt>
      <trkpt lat="57.631158018484712" lon="-6.217651013284922">
        <ele>31.379999999999999</ele>
        <time>2023-08-27T10:40:50Z</time>
      </trkpt>
      <trkpt lat="57.631165981292725" lon="-6.217320011928678">
        <ele>31.859999999999999</ele>
        <time>2023-08-27T10:40:51Z</time>
      </trkpt>
      <trkpt lat="57.630935981869698" lon="-6.214972995221615">
        <ele>31.379999999999999</ele>
        <time>2023-08-27T10:40:58Z</time>
      </trkpt>
      <trkpt lat="57.630214970558882" lon="-6.212460016831756">
        <ele>26.57</ele>
        <time>2023-08-27T10:41:06Z</time>
      </trkpt>
      <trkpt lat="57.629277035593987" lon="-6.210682969540358">
        <ele>23.690000000000001</ele>
        <time>2023-08-27T10:41:13Z</time>
      </trkpt>
      <trkpt lat="57.628040034323931" lon="-6.209276989102364">
        <ele>27.050000000000001</ele>
        <time>2023-08-27T10:41:21Z</time>
      </trkpt>
      <trkpt lat="57.626872016116977" lon="-6.207708986476064">
        <ele>29.460000000000001</ele>
        <time>2023-08-27T10:41:31Z</time>
      </trkpt>
      <trkpt lat="57.625592015683651" lon="-6.205154014751315">
        <ele>36.670000000000002</ele>
        <time>2023-08-27T10:41:44Z</time>
      </trkpt>
      <trkpt lat="57.624585013836622" lon="-6.203200025483966">
        <ele>45.799999999999997</ele>
        <time>2023-08-27T10:41:54Z</time>
      </trkpt>
      <trkpt lat="57.62316201813519" lon="-6.20086801238358">
        <ele>57.82</ele>
        <time>2023-08-27T10:42:07Z</time>
      </trkpt>
      <trkpt lat="57.621549004688859" lon="-6.19856801815331">
        <ele>71.269999999999996</ele>
        <time>2023-08-27T10:42:21Z</time>
      </trkpt>
      <trkpt lat="57.619637008756399" lon="-6.196100972592831">
        <ele>87.620000000000005</ele>
        <time>2023-08-27T10:42:37Z</time>
      </trkpt>
      <trkpt lat="57.618234967812896" lon="-6.194021003320813">
        <ele>94.349999999999994</ele>
        <time>2023-08-27T10:42:49Z</time>
      </trkpt>
      <trkpt lat="57.617131993174553" lon="-6.191377015784383">
        <ele>89.540000000000006</ele>
        <time>2023-08-27T10:42:59Z</time>
      </trkpt>
      <trkpt lat="57.615627022460103" lon="-6.187542965635657">
        <ele>76.560000000000002</ele>
        <time>2023-08-27T10:43:12Z</time>
      </trkpt>
      <trkpt lat="57.614897964522243" lon="-6.184692028909922">
        <ele>75.599999999999994</ele>
        <time>2023-08-27T10:43:21Z</time>
      </trkpt>
      <trkpt lat="57.613771017640829" lon="-6.180455982685089">
        <ele>76.560000000000002</ele>
        <time>2023-08-27T10:43:34Z</time>
      </trkpt>
      <trkpt lat="57.612630994990468" lon="-6.178127992898226">
        <ele>73.200000000000003</ele>
        <time>2023-08-27T10:43:43Z</time>
      </trkpt>
      <trkpt lat="57.611801018938422" lon="-6.176873976364732">
        <ele>69.829999999999998</ele>
        <time>2023-08-27T10:43:49Z</time>
      </trkpt>
      <trkpt lat="57.609895979985595" lon="-6.174858966842294">
        <ele>55.890000000000001</ele>
        <time>2023-08-27T10:44:01Z</time>
      </trkpt>
      <trkpt lat="57.60812102816999" lon="-6.173887001350522">
        <ele>53.490000000000002</ele>
        <time>2023-08-27T10:44:11Z</time>
      </trkpt>
      <trkpt lat="57.60685502551496" lon="-6.172407008707523">
        <ele>56.859999999999999</ele>
        <time>2023-08-27T10:44:19Z</time>
      </trkpt>
      <trkpt lat="57.605809969827533" lon="-6.171402018517256">
        <ele>60.219999999999999</ele>
        <time>2023-08-27T10:44:27Z</time>
      </trkpt>
      <trkpt lat="57.604278009384871" lon="-6.169951027259231">
        <ele>63.579999999999998</ele>
        <time>2023-08-27T10:44:38Z</time>
      </trkpt>
      <trkpt lat="57.602856019511819" lon="-6.167920008301735">
        <ele>68.870000000000005</ele>
        <time>2023-08-27T10:44:49Z</time>
      </trkpt>
      <trkpt lat="57.602035012096167" lon="-6.166746960952878">
        <ele>72.239999999999995</ele>
        <time>2023-08-27T10:44:54Z</time>
      </trkpt>
      <trkpt lat="57.600880991667509" lon="-6.165235033258796">
        <ele>76.079999999999998</ele>
        <time>2023-08-27T10:45:00Z</time>
      </trkpt>
      <trkpt lat="57.599196983501315" lon="-6.163581032305956">
        <ele>78</ele>
        <time>2023-08-27T10:45:09Z</time>
      </trkpt>
      <trkpt lat="57.596578979864717" lon="-6.161661995574832">
        <ele>80.890000000000001</ele>
        <time>2023-08-27T10:45:22Z</time>
      </trkpt>
      <trkpt lat="57.595338961109519" lon="-6.160792037844658">
        <ele>84.25</ele>
        <time>2023-08-27T10:45:29Z</time>
      </trkpt>
      <trkpt lat="57.593374997377396" lon="-6.159771038219333">
        <ele>79.450000000000003</ele>
        <time>2023-08-27T10:45:40Z</time>
      </trkpt>
      <trkpt lat="57.59200899861753" lon="-6.159464009106159">
        <ele>81.849999999999994</ele>
        <time>2023-08-27T10:45:48Z</time>
      </trkpt>
      <trkpt lat="57.590436972677708" lon="-6.158423982560635">
        <ele>86.659999999999997</ele>
        <time>2023-08-27T10:45:57Z</time>
      </trkpt>
      <trkpt lat="57.588334036991" lon="-6.157526029273868">
        <ele>89.540000000000006</ele>
        <time>2023-08-27T10:46:08Z</time>
      </trkpt>
      <trkpt lat="57.586684981361032" lon="-6.157138030976057">
        <ele>86.180000000000007</ele>
        <time>2023-08-27T10:46:17Z</time>
      </trkpt>
      <trkpt lat="57.585213035345078" lon="-6.157488981261849">
        <ele>81.849999999999994</ele>
        <time>2023-08-27T10:46:25Z</time>
      </trkpt>
      <trkpt lat="57.583605973049998" lon="-6.157793998718262">
        <ele>74.640000000000001</ele>
        <time>2023-08-27T10:46:35Z</time>
      </trkpt>
      <trkpt lat="57.581863962113857" lon="-6.157764997333288">
        <ele>70.310000000000002</ele>
        <time>2023-08-27T10:46:45Z</time>
      </trkpt>
      <trkpt lat="57.5796789675951" lon="-6.157660977914929">
        <ele>67.909999999999997</ele>
        <time>2023-08-27T10:46:56Z</time>
      </trkpt>
      <trkpt lat="57.578083975240588" lon="-6.156909037381411">
        <ele>73.680000000000007</ele>
        <time>2023-08-27T10:47:05Z</time>
      </trkpt>
      <trkpt lat="57.575854975730181" lon="-6.15512696094811">
        <ele>79.930000000000007</ele>
        <time>2023-08-27T10:47:18Z</time>
      </trkpt>
      <trkpt lat="57.574341036379337" lon="-6.154664028435946">
        <ele>83.769999999999996</ele>
        <time>2023-08-27T10:47:26Z</time>
      </trkpt>
      <trkpt lat="57.572630038484931" lon="-6.153743024915457">
        <ele>89.540000000000006</ele>
        <time>2023-08-27T10:47:35Z</time>
      </trkpt>
      <trkpt lat="57.569760996848345" lon="-6.152080977335572">
        <ele>94.349999999999994</ele>
        <time>2023-08-27T10:47:50Z</time>
      </trkpt>
      <trkpt lat="57.5683300383389" lon="-6.151657020673156">
        <ele>92.900000000000006</ele>
        <time>2023-08-27T10:47:58Z</time>
      </trkpt>
      <trkpt lat="57.567381039261818" lon="-6.152083994820714">
        <ele>89.540000000000006</ele>
        <time>2023-08-27T10:48:04Z</time>
      </trkpt>
      <trkpt lat="57.566481996327639" lon="-6.153395008295775">
        <ele>81.849999999999994</ele>
        <time>2023-08-27T10:48:11Z</time>
      </trkpt>
      <trkpt lat="57.565856035798788" lon="-6.155221005901694">
        <ele>71.269999999999996</ele>
        <time>2023-08-27T10:48:19Z</time>
      </trkpt>
      <trkpt lat="57.565579013898969" lon="-6.155816959217191">
        <ele>67.430000000000007</ele>
        <time>2023-08-27T10:48:22Z</time>
      </trkpt>
      <trkpt lat="57.565481029450893" lon="-6.155988033860922">
        <ele>65.989999999999995</ele>
        <time>2023-08-27T10:48:23Z</time>
      </trkpt>
      <trkpt lat="57.565387990325689" lon="-6.156148966401815">
        <ele>65.030000000000001</ele>
        <time>2023-08-27T10:48:24Z</time>
      </trkpt>
      <trkpt lat="57.565291011705995" lon="-6.156256003305316">
        <ele>64.069999999999993</ele>
        <time>2023-08-27T10:48:25Z</time>
      </trkpt>
      <trkpt lat="57.565185986459255" lon="-6.156335966661573">
        <ele>63.100000000000001</ele>
        <time>2023-08-27T10:48:26Z</time>
      </trkpt>
      <trkpt lat="57.565081967040896" lon="-6.156416013836861">
        <ele>62.140000000000001</ele>
        <time>2023-08-27T10:48:27Z</time>
      </trkpt>
      <trkpt lat="57.564980965107679" lon="-6.156488014385104">
        <ele>61.18</ele>
        <time>2023-08-27T10:48:28Z</time>
      </trkpt>
      <trkpt lat="57.564870994538069" lon="-6.1565210390836">
        <ele>61.18</ele>
        <time>2023-08-27T10:48:29Z</time>
      </trkpt>
      <trkpt lat="57.564777033403516" lon="-6.156550040468574">
        <ele>60.700000000000003</ele>
        <time>2023-08-27T10:48:30Z</time>
      </trkpt>
      <trkpt lat="57.564639989286661" lon="-6.156541993841529">
        <ele>60.700000000000003</ele>
        <time>2023-08-27T10:48:31Z</time>
      </trkpt>
      <trkpt lat="57.564507974311709" lon="-6.156535958871245">
        <ele>60.700000000000003</ele>
        <time>2023-08-27T10:48:32Z</time>
      </trkpt>
      <trkpt lat="57.564369002357125" lon="-6.156527996063232">
        <ele>60.700000000000003</ele>
        <time>2023-08-27T10:48:33Z</time>
      </trkpt>
      <trkpt lat="57.564230030402541" lon="-6.156459013000131">
        <ele>60.700000000000003</ele>
        <time>2023-08-27T10:48:34Z</time>
      </trkpt>
      <trkpt lat="57.564085023477674" lon="-6.156386006623507">
        <ele>61.18</ele>
        <time>2023-08-27T10:48:35Z</time>
      </trkpt>
      <trkpt lat="57.563939010724425" lon="-6.156287016347051">
        <ele>62.140000000000001</ele>
        <time>2023-08-27T10:48:36Z</time>
      </trkpt>
      <trkpt lat="57.562154000625014" lon="-6.155057977885008">
        <ele>78.480000000000004</ele>
        <time>2023-08-27T10:48:48Z</time>
      </trkpt>
      <trkpt lat="57.561018001288176" lon="-6.154596973210573">
        <ele>85.209999999999994</ele>
        <time>2023-08-27T10:48:55Z</time>
      </trkpt>
      <trkpt lat="57.55989097058773" lon="-6.154596973210573">
        <ele>88.579999999999998</ele>
        <time>2023-08-27T10:49:00Z</time>
      </trkpt>
      <trkpt lat="57.558392034843564" lon="-6.154346019029617">
        <ele>99.150000000000006</ele>
        <time>2023-08-27T10:49:07Z</time>
      </trkpt>
      <trkpt lat="57.555948961526155" lon="-6.15334102883935">
        <ele>120.3</ele>
        <time>2023-08-27T10:49:19Z</time>
      </trkpt>
      <trkpt lat="57.553742006421089" lon="-6.151794986799359">
        <ele>137.61000000000001</ele>
        <time>2023-08-27T10:49:30Z</time>
      </trkpt>
      <trkpt lat="57.550869025290012" lon="-6.149700013920665">
        <ele>156.83000000000001</ele>
        <time>2023-08-27T10:49:44Z</time>
      </trkpt>
      <trkpt lat="57.548537012189627" lon="-6.148338038474321">
        <ele>161.63999999999999</ele>
        <time>2023-08-27T10:49:55Z</time>
      </trkpt>
      <trkpt lat="57.547088032588363" lon="-6.148299984633923">
        <ele>163.56</ele>
        <time>2023-08-27T10:50:02Z</time>
      </trkpt>
      <trkpt lat="57.545389020815492" lon="-6.1479920335114">
        <ele>157.78999999999999</ele>
        <time>2023-08-27T10:50:10Z</time>
      </trkpt>
      <trkpt lat="57.543810037896037" lon="-6.146935997530818">
        <ele>157.31</ele>
        <time>2023-08-27T10:50:18Z</time>
      </trkpt>
      <trkpt lat="57.542483014985919" lon="-6.14597400650382">
        <ele>153.47</ele>
        <time>2023-08-27T10:50:26Z</time>
      </trkpt>
      <trkpt lat="57.540872013196349" lon="-6.145456004887819">
        <ele>141.93000000000001</ele>
        <time>2023-08-27T10:50:35Z</time>
      </trkpt>
      <trkpt lat="57.539229998365045" lon="-6.145797986537218">
        <ele>129.91999999999999</ele>
        <time>2023-08-27T10:50:44Z</time>
      </trkpt>
      <trkpt lat="57.537613967433572" lon="-6.147170020267367">
        <ele>116.94</ele>
        <time>2023-08-27T10:50:53Z</time>
      </trkpt>
      <trkpt lat="57.536264983937144" lon="-6.148655964061618">
        <ele>107.81</ele>
        <time>2023-08-27T10:51:01Z</time>
      </trkpt>
      <trkpt lat="57.536090975627303" lon="-6.148736011236906">
        <ele>106.84</ele>
        <time>2023-08-27T10:51:02Z</time>
      </trkpt>
      <trkpt lat="57.535916967317462" lon="-6.148773981258273">
        <ele>106.36</ele>
        <time>2023-08-27T10:51:03Z</time>
      </trkpt>
      <trkpt lat="57.535742959007621" lon="-6.148794014006853">
        <ele>105.88</ele>
        <time>2023-08-27T10:51:04Z</time>
      </trkpt>
      <trkpt lat="57.535568028688431" lon="-6.148759983479977">
        <ele>105.40000000000001</ele>
        <time>2023-08-27T10:51:05Z</time>
      </trkpt>
      <trkpt lat="57.535393014550209" lon="-6.148725030943751">
        <ele>104.92</ele>
        <time>2023-08-27T10:51:06Z</time>
      </trkpt>
      <trkpt lat="57.535218000411987" lon="-6.148631991818547">
        <ele>104.44</ele>
        <time>2023-08-27T10:51:07Z</time>
      </trkpt>
      <trkpt lat="57.535042986273766" lon="-6.148525038734078">
        <ele>103.95999999999999</ele>
        <time>2023-08-27T10:51:08Z</time>
      </trkpt>
      <trkpt lat="57.534161964431405" lon="-6.148004019632936">
        <ele>103.48</ele>
        <time>2023-08-27T10:51:13Z</time>
      </trkpt>
      <trkpt lat="57.53397898748517" lon="-6.147975018247962">
        <ele>103</ele>
        <time>2023-08-27T10:51:14Z</time>
      </trkpt>
      <trkpt lat="57.533791987225413" lon="-6.147945011034608">
        <ele>103</ele>
        <time>2023-08-27T10:51:15Z</time>
      </trkpt>
      <trkpt lat="57.533604986965656" lon="-6.147979963570833">
        <ele>102.52</ele>
        <time>2023-08-27T10:51:16Z</time>
      </trkpt>
      <trkpt lat="57.533421004191041" lon="-6.148016005754471">
        <ele>102.04000000000001</ele>
        <time>2023-08-27T10:51:17Z</time>
      </trkpt>
      <trkpt lat="57.533237021416426" lon="-6.148089012131095">
        <ele>101.56</ele>
        <time>2023-08-27T10:51:18Z</time>
      </trkpt>
      <trkpt lat="57.53305203281343" lon="-6.148194037377834">
        <ele>101.56</ele>
        <time>2023-08-27T10:51:19Z</time>
      </trkpt>
      <trkpt lat="57.532864026725292" lon="-6.148325968533754">
        <ele>101.08</ele>
        <time>2023-08-27T10:51:20Z</time>
      </trkpt>
      <trkpt lat="57.531784018501639" lon="-6.149283014237881">
        <ele>102.04000000000001</ele>
        <time>2023-08-27T10:51:26Z</time>
      </trkpt>
      <trkpt lat="57.531633982434869" lon="-6.149487029761076">
        <ele>103</ele>
        <time>2023-08-27T10:51:27Z</time>
      </trkpt>
      <trkpt lat="57.531482018530369" lon="-6.149693978950381">
        <ele>104.44</ele>
        <time>2023-08-27T10:51:28Z</time>
      </trkpt>
      <trkpt lat="57.53135796636343" lon="-6.149964965879917">
        <ele>105.88</ele>
        <time>2023-08-27T10:51:29Z</time>
      </trkpt>
      <trkpt lat="57.531233998015523" lon="-6.150241987779737">
        <ele>107.31999999999999</ele>
        <time>2023-08-27T10:51:30Z</time>
      </trkpt>
      <trkpt lat="57.531110029667616" lon="-6.150520015507937">
        <ele>109.25</ele>
        <time>2023-08-27T10:51:31Z</time>
      </trkpt>
      <trkpt lat="57.530218027532101" lon="-6.152925034984946">
        <ele>120.78</ele>
        <time>2023-08-27T10:51:40Z</time>
      </trkpt>
      <trkpt lat="57.529155034571886" lon="-6.154977008700371">
        <ele>126.55</ele>
        <time>2023-08-27T10:51:52Z</time>
      </trkpt>
      <trkpt lat="57.528021968901157" lon="-6.156540988013148">
        <ele>127.51000000000001</ele>
        <time>2023-08-27T10:52:05Z</time>
      </trkpt>
      <trkpt lat="57.52791803330183" lon="-6.156596979126334">
        <ele>127.03</ele>
        <time>2023-08-27T10:52:06Z</time>
      </trkpt>
      <trkpt lat="57.527805967256427" lon="-6.156655987724662">
        <ele>127.03</ele>
        <time>2023-08-27T10:52:07Z</time>
      </trkpt>
      <trkpt lat="57.527687028050423" lon="-6.156641989946365">
        <ele>126.55</ele>
        <time>2023-08-27T10:52:08Z</time>
      </trkpt>
      <trkpt lat="57.527556018903852" lon="-6.156625980511308">
        <ele>126.06999999999999</ele>
        <time>2023-08-27T10:52:09Z</time>
      </trkpt>
      <trkpt lat="57.527416041120887" lon="-6.156580969691277">
        <ele>125.59</ele>
        <time>2023-08-27T10:52:10Z</time>
      </trkpt>
      <trkpt lat="57.527269022539258" lon="-6.156474016606808">
        <ele>125.11</ele>
        <time>2023-08-27T10:52:11Z</time>
      </trkpt>
      <trkpt lat="57.527113035321236" lon="-6.156362034380436">
        <ele>124.15000000000001</ele>
        <time>2023-08-27T10:52:12Z</time>
      </trkpt>
      <trkpt lat="57.525670006871223" lon="-6.155086979269981">
        <ele>129.91999999999999</ele>
        <time>2023-08-27T10:52:21Z</time>
      </trkpt>
      <trkpt lat="57.524560997262597" lon="-6.15439597517252">
        <ele>141.44999999999999</ele>
        <time>2023-08-27T10:52:29Z</time>
      </trkpt>
      <trkpt lat="57.522831978276372" lon="-6.154033960774541">
        <ele>156.34999999999999</ele>
        <time>2023-08-27T10:52:39Z</time>
      </trkpt>
      <trkpt lat="57.519986992701888" lon="-6.153459968045354">
        <ele>174.13999999999999</ele>
        <time>2023-08-27T10:52:53Z</time>
      </trkpt>
      <trkpt lat="57.517565041780472" lon="-6.152939032763243">
        <ele>188.08000000000001</ele>
        <time>2023-08-27T10:53:05Z</time>
      </trkpt>
      <trkpt lat="57.516142968088388" lon="-6.15205398760736">
        <ele>186.15000000000001</ele>
        <time>2023-08-27T10:53:13Z</time>
      </trkpt>
      <trkpt lat="57.515789000317454" lon="-6.152021968737245">
        <ele>186.63</ele>
        <time>2023-08-27T10:53:15Z</time>
      </trkpt>
      <trkpt lat="57.515613986179233" lon="-6.152069997042418">
        <ele>187.11000000000001</ele>
        <time>2023-08-27T10:53:16Z</time>
      </trkpt>
      <trkpt lat="57.515432015061378" lon="-6.152120959013701">
        <ele>187.59</ele>
        <time>2023-08-27T10:53:17Z</time>
      </trkpt>
      <trkpt lat="57.514489972963929" lon="-6.152537036687136">
        <ele>190</ele>
        <time>2023-08-27T10:53:22Z</time>
      </trkpt>
      <trkpt lat="57.514300961047411" lon="-6.152561008930206">
        <ele>190</ele>
        <time>2023-08-27T10:53:23Z</time>
      </trkpt>
      <trkpt lat="57.514116978272796" lon="-6.152562014758587">
        <ele>190.47999999999999</ele>
        <time>2023-08-27T10:53:24Z</time>
      </trkpt>
      <trkpt lat="57.513941964134574" lon="-6.15248498506844">
        <ele>190.47999999999999</ele>
        <time>2023-08-27T10:53:25Z</time>
      </trkpt>
      <trkpt lat="57.513768961653113" lon="-6.152392029762268">
        <ele>190.96000000000001</ele>
        <time>2023-08-27T10:53:26Z</time>
      </trkpt>
      <trkpt lat="57.513595959171653" lon="-6.152250040322542">
        <ele>190.96000000000001</ele>
        <time>2023-08-27T10:53:27Z</time>
      </trkpt>
      <trkpt lat="57.513419017195702" lon="-6.152105033397675">
        <ele>190.96000000000001</ele>
        <time>2023-08-27T10:53:28Z</time>
      </trkpt>
      <trkpt lat="57.513241991400719" lon="-6.151961032301188">
        <ele>190.96000000000001</ele>
        <time>2023-08-27T10:53:29Z</time>
      </trkpt>
      <trkpt lat="57.511988980695605" lon="-6.151330964639783">
        <ele>190.47999999999999</ele>
        <time>2023-08-27T10:53:36Z</time>
      </trkpt>
      <trkpt lat="57.509688986465335" lon="-6.151155028492212">
        <ele>184.71000000000001</ele>
        <time>2023-08-27T10:53:47Z</time>
      </trkpt>
      <trkpt lat="57.507754024118185" lon="-6.151331970468164">
        <ele>184.71000000000001</ele>
        <time>2023-08-27T10:53:57Z</time>
      </trkpt>
      <trkpt lat="57.505773967131972" lon="-6.152048958465457">
        <ele>180.38</ele>
        <time>2023-08-27T10:54:08Z</time>
      </trkpt>
      <trkpt lat="57.503026966005564" lon="-6.15343096666038">
        <ele>179.41999999999999</ele>
        <time>2023-08-27T10:54:22Z</time>
      </trkpt>
      <trkpt lat="57.50226303935051" lon="-6.15422397851944">
        <ele>178.46000000000001</ele>
        <time>2023-08-27T10:54:28Z</time>
      </trkpt>
      <trkpt lat="57.501751994714141" lon="-6.154814986512065">
        <ele>177.97999999999999</ele>
        <time>2023-08-27T10:54:36Z</time>
      </trkpt>
      <trkpt lat="57.501353016123176" lon="-6.15527699701488">
        <ele>177.02000000000001</ele>
        <time>2023-08-27T10:54:45Z</time>
      </trkpt>
      <trkpt lat="57.501009022817016" lon="-6.155674969777465">
        <ele>176.53999999999999</ele>
        <time>2023-08-27T10:54:56Z</time>
      </trkpt>
      <trkpt lat="57.50061297789216" lon="-6.156125999987125">
        <ele>176.06</ele>
        <time>2023-08-27T10:55:07Z</time>
      </trkpt>
      <trkpt lat="57.500538965687156" lon="-6.156202023848891">
        <ele>176.06</ele>
        <time>2023-08-27T10:55:18Z</time>
      </trkpt>
      <trkpt lat="57.50016001984477" lon="-6.156591027975082">
        <ele>176.06</ele>
        <time>2023-08-27T10:55:29Z</time>
      </trkpt>
      <trkpt lat="57.499775039032102" lon="-6.156983971595764">
        <ele>175.09999999999999</ele>
        <time>2023-08-27T10:55:40Z</time>
      </trkpt>
      <trkpt lat="57.499183025211096" lon="-6.157488981261849">
        <ele>172.21000000000001</ele>
        <time>2023-08-27T10:55:50Z</time>
      </trkpt>
      <trkpt lat="57.498423038050532" lon="-6.158133968710899">
        <ele>168.37</ele>
        <time>2023-08-27T10:55:58Z</time>
      </trkpt>
      <trkpt lat="57.497053015977144" lon="-6.159578002989292">
        <ele>165.47999999999999</ele>
        <time>2023-08-27T10:56:10Z</time>
      </trkpt>
      <trkpt lat="57.495994968339801" lon="-6.160772005096078">
        <ele>163.08000000000001</ele>
        <time>2023-08-27T10:56:20Z</time>
      </trkpt>
      <trkpt lat="57.495255013927817" lon="-6.162106990814209">
        <ele>161.16</ele>
        <time>2023-08-27T10:56:30Z</time>
      </trkpt>
      <trkpt lat="57.494717985391617" lon="-6.163739031180739">
        <ele>157.78999999999999</ele>
        <time>2023-08-27T10:56:37Z</time>
      </trkpt>
      <trkpt lat="57.494153967127204" lon="-6.165886977687478">
        <ele>153.47</ele>
        <time>2023-08-27T10:56:44Z</time>
      </trkpt>
      <trkpt lat="57.494135024026036" lon="-6.166243962943554">
        <ele>152.99000000000001</ele>
        <time>2023-08-27T10:56:45Z</time>
      </trkpt>
      <trkpt lat="57.494117002934217" lon="-6.166604971513152">
        <ele>152.99000000000001</ele>
        <time>2023-08-27T10:56:46Z</time>
      </trkpt>
      <trkpt lat="57.494045002385974" lon="-6.167983962222934">
        <ele>152.50999999999999</ele>
        <time>2023-08-27T10:56:50Z</time>
      </trkpt>
      <trkpt lat="57.494016001001" lon="-6.168314963579178">
        <ele>152.50999999999999</ele>
        <time>2023-08-27T10:56:51Z</time>
      </trkpt>
      <trkpt lat="57.493932014331222" lon="-6.16859600879252">
        <ele>152.50999999999999</ele>
        <time>2023-08-27T10:56:52Z</time>
      </trkpt>
      <trkpt lat="57.493848027661443" lon="-6.168875964358449">
        <ele>152.50999999999999</ele>
        <time>2023-08-27T10:56:53Z</time>
      </trkpt>
      <trkpt lat="57.493732022121549" lon="-6.169119961559773">
        <ele>152.03</ele>
        <time>2023-08-27T10:56:54Z</time>
      </trkpt>
      <trkpt lat="57.493609981611371" lon="-6.169363958761096">
        <ele>152.03</ele>
        <time>2023-08-27T10:56:55Z</time>
      </trkpt>
      <trkpt lat="57.493462041020393" lon="-6.169550037011504">
        <ele>152.03</ele>
        <time>2023-08-27T10:56:56Z</time>
      </trkpt>
      <trkpt lat="57.493301024660468" lon="-6.169721027836204">
        <ele>152.03</ele>
        <time>2023-08-27T10:56:57Z</time>
      </trkpt>
      <trkpt lat="57.491842992603779" lon="-6.171206971630454">
        <ele>147.69999999999999</ele>
        <time>2023-08-27T10:57:07Z</time>
      </trkpt>
      <trkpt lat="57.490528961643577" lon="-6.171946004033089">
        <ele>147.69999999999999</ele>
        <time>2023-08-27T10:57:16Z</time>
      </trkpt>
      <trkpt lat="57.488711010664701" lon="-6.172858038917184">
        <ele>153.94999999999999</ele>
        <time>2023-08-27T10:57:28Z</time>
      </trkpt>
      <trkpt lat="57.486979980021715" lon="-6.174004012718797">
        <ele>154.43000000000001</ele>
        <time>2023-08-27T10:57:39Z</time>
      </trkpt>
      <trkpt lat="57.485088016837835" lon="-6.17499802261591">
        <ele>151.06</ele>
        <time>2023-08-27T10:57:47Z</time>
      </trkpt>
      <trkpt lat="57.482667993754148" lon="-6.17682795971632">
        <ele>146.74000000000001</ele>
        <time>2023-08-27T10:57:58Z</time>
      </trkpt>
      <trkpt lat="57.480514012277126" lon="-6.17914798669517">
        <ele>149.62</ele>
        <time>2023-08-27T10:58:09Z</time>
      </trkpt>
      <trkpt lat="57.479699961841106" lon="-6.180072007700801">
        <ele>149.13999999999999</ele>
        <time>2023-08-27T10:58:14Z</time>
      </trkpt>
      <trkpt lat="57.479565013200045" lon="-6.180132022127509">
        <ele>149.13999999999999</ele>
        <time>2023-08-27T10:58:15Z</time>
      </trkpt>
      <trkpt lat="57.479426963254809" lon="-6.180192036554217">
        <ele>149.62</ele>
        <time>2023-08-27T10:58:16Z</time>
      </trkpt>
      <trkpt lat="57.479124963283539" lon="-6.180218020454049">
        <ele>150.09999999999999</ele>
        <time>2023-08-27T10:58:18Z</time>
      </trkpt>
      <trkpt lat="57.478964030742645" lon="-6.180231012403965">
        <ele>150.58000000000001</ele>
        <time>2023-08-27T10:58:19Z</time>
      </trkpt>
      <trkpt lat="57.478794967755675" lon="-6.18022195994854">
        <ele>151.53999999999999</ele>
        <time>2023-08-27T10:58:20Z</time>
      </trkpt>
      <trkpt lat="57.477328972890973" lon="-6.179838990792632">
        <ele>155.38999999999999</ele>
        <time>2023-08-27T10:58:28Z</time>
      </trkpt>
      <trkpt lat="57.477038959041238" lon="-6.179762966930866">
        <ele>156.34999999999999</ele>
        <time>2023-08-27T10:58:30Z</time>
      </trkpt>
      <trkpt lat="57.476892024278641" lon="-6.179777970537543">
        <ele>156.34999999999999</ele>
        <time>2023-08-27T10:58:31Z</time>
      </trkpt>
      <trkpt lat="57.476738970726728" lon="-6.179841002449393">
        <ele>155.87</ele>
        <time>2023-08-27T10:58:32Z</time>
      </trkpt>
      <trkpt lat="57.476573009043932" lon="-6.17992197163403">
        <ele>155.38999999999999</ele>
        <time>2023-08-27T10:58:33Z</time>
      </trkpt>
      <trkpt lat="57.47639799490571" lon="-6.180057004094124">
        <ele>154.43000000000001</ele>
        <time>2023-08-27T10:58:34Z</time>
      </trkpt>
      <trkpt lat="57.476208982989192" lon="-6.180204022675753">
        <ele>153.47</ele>
        <time>2023-08-27T10:58:35Z</time>
      </trkpt>
      <trkpt lat="57.474746005609632" lon="-6.181207001209259">
        <ele>145.30000000000001</ele>
        <time>2023-08-27T10:58:42Z</time>
      </trkpt>
      <trkpt lat="57.47281095944345" lon="-6.182173015549779">
        <ele>140.00999999999999</ele>
        <time>2023-08-27T10:58:51Z</time>
      </trkpt>
      <trkpt lat="57.470426978543401" lon="-6.183246988803148">
        <ele>146.74000000000001</ele>
        <time>2023-08-27T10:59:02Z</time>
      </trkpt>
      <trkpt lat="57.469302965328097" lon="-6.183711010962725">
        <ele>150.09999999999999</ele>
        <time>2023-08-27T10:59:08Z</time>
      </trkpt>
      <trkpt lat="57.468042997643352" lon="-6.184365972876549">
        <ele>148.66</ele>
        <time>2023-08-27T10:59:15Z</time>
      </trkpt>
      <trkpt lat="57.467581992968917" lon="-6.184608964249492">
        <ele>147.22</ele>
        <time>2023-08-27T10:59:18Z</time>
      </trkpt>
      <trkpt lat="57.46741795912385" lon="-6.184640983119607">
        <ele>146.25999999999999</ele>
        <time>2023-08-27T10:59:19Z</time>
      </trkpt>
      <trkpt lat="57.466466026380658" lon="-6.184991011396051">
        <ele>142.88999999999999</ele>
        <time>2023-08-27T10:59:25Z</time>
      </trkpt>
      <trkpt lat="57.465690029785037" lon="-6.185094024986029">
        <ele>140.97</ele>
        <time>2023-08-27T10:59:30Z</time>
      </trkpt>
      <trkpt lat="57.465549968183041" lon="-6.18505597114563">
        <ele>140.97</ele>
        <time>2023-08-27T10:59:31Z</time>
      </trkpt>
      <trkpt lat="57.464576996862888" lon="-6.184692028909922">
        <ele>140.49000000000001</ele>
        <time>2023-08-27T10:59:38Z</time>
      </trkpt>
      <trkpt lat="57.464139964431524" lon="-6.184573005884886">
        <ele>140.49000000000001</ele>
        <time>2023-08-27T10:59:41Z</time>
      </trkpt>
      <trkpt lat="57.464011972770095" lon="-6.184602007269859">
        <ele>140.49000000000001</ele>
        <time>2023-08-27T10:59:42Z</time>
      </trkpt>
      <trkpt lat="57.463367991149426" lon="-6.184745002537966">
        <ele>141.44999999999999</ele>
        <time>2023-08-27T10:59:48Z</time>
      </trkpt>
      <trkpt lat="57.46277597732842" lon="-6.184708038344979">
        <ele>141.44999999999999</ele>
        <time>2023-08-27T10:59:54Z</time>
      </trkpt>
      <trkpt lat="57.461994029581547" lon="-6.184651041403413">
        <ele>142.88999999999999</ele>
        <time>2023-08-27T10:59:59Z</time>
      </trkpt>
      <trkpt lat="57.46045796200633" lon="-6.184408972039819">
        <ele>144.34</ele>
        <time>2023-08-27T11:00:07Z</time>
      </trkpt>
      <trkpt lat="57.458789041265845" lon="-6.184013010933995">
        <ele>151.53999999999999</ele>
        <time>2023-08-27T11:00:16Z</time>
      </trkpt>
      <trkpt lat="57.458632970228791" lon="-6.183934975415468">
        <ele>152.50999999999999</ele>
        <time>2023-08-27T11:00:17Z</time>
      </trkpt>
      <trkpt lat="57.458481006324291" lon="-6.183793991804123">
        <ele>153.47</ele>
        <time>2023-08-27T11:00:18Z</time>
      </trkpt>
      <trkpt lat="57.458331976085901" lon="-6.183613026514649">
        <ele>154.43000000000001</ele>
        <time>2023-08-27T11:00:19Z</time>
      </trkpt>
      <trkpt lat="57.457639966160059" lon="-6.182872988283634">
        <ele>160.68000000000001</ele>
        <time>2023-08-27T11:00:24Z</time>
      </trkpt>
      <trkpt lat="57.457496970891953" lon="-6.182813979685307">
        <ele>161.16</ele>
        <time>2023-08-27T11:00:25Z</time>
      </trkpt>
      <trkpt lat="57.457336960360408" lon="-6.18275698274374">
        <ele>162.12</ele>
        <time>2023-08-27T11:00:26Z</time>
      </trkpt>
      <trkpt lat="57.455777004361153" lon="-6.182214003056288">
        <ele>165.96000000000001</ele>
        <time>2023-08-27T11:00:34Z</time>
      </trkpt>
      <trkpt lat="57.453959975391626" lon="-6.181726008653641">
        <ele>169.33000000000001</ele>
        <time>2023-08-27T11:00:43Z</time>
      </trkpt>
      <trkpt lat="57.452588025480509" lon="-6.181267015635967">
        <ele>168.37</ele>
        <time>2023-08-27T11:00:50Z</time>
      </trkpt>
      <trkpt lat="57.450320972129703" lon="-6.180211985483766">
        <ele>158.75</ele>
        <time>2023-08-27T11:01:00Z</time>
      </trkpt>
      <trkpt lat="57.449799031019211" lon="-6.179801020771265">
        <ele>158.75</ele>
        <time>2023-08-27T11:01:03Z</time>
      </trkpt>
      <trkpt lat="57.44962502270937" lon="-6.179772019386292">
        <ele>158.75</ele>
        <time>2023-08-27T11:01:04Z</time>
      </trkpt>
      <trkpt lat="57.448242008686066" lon="-6.17976900190115">
        <ele>155.38999999999999</ele>
        <time>2023-08-27T11:01:11Z</time>
      </trkpt>
      <trkpt lat="57.446547020226717" lon="-6.179842008277774">
        <ele>146.25999999999999</ele>
        <time>2023-08-27T11:01:19Z</time>
      </trkpt>
      <trkpt lat="57.446182994171977" lon="-6.17979196831584">
        <ele>143.37</ele>
        <time>2023-08-27T11:01:21Z</time>
      </trkpt>
      <trkpt lat="57.446026001125574" lon="-6.179879978299141">
        <ele>142.41</ele>
        <time>2023-08-27T11:01:22Z</time>
      </trkpt>
      <trkpt lat="57.445879988372326" lon="-6.179980980232358">
        <ele>140.97</ele>
        <time>2023-08-27T11:01:23Z</time>
      </trkpt>
      <trkpt lat="57.444694032892585" lon="-6.181131983175874">
        <ele>139.05000000000001</ele>
        <time>2023-08-27T11:01:30Z</time>
      </trkpt>
      <trkpt lat="57.444514995440841" lon="-6.181262992322445">
        <ele>138.56999999999999</ele>
        <time>2023-08-27T11:01:31Z</time>
      </trkpt>
      <trkpt lat="57.444325983524323" lon="-6.181347984820604">
        <ele>138.56999999999999</ele>
        <time>2023-08-27T11:01:32Z</time>
      </trkpt>
      <trkpt lat="57.442469978705049" lon="-6.18202599696815">
        <ele>135.68000000000001</ele>
        <time>2023-08-27T11:01:42Z</time>
      </trkpt>
      <trkpt lat="57.440942041575909" lon="-6.182426987215877">
        <ele>131.36000000000001</ele>
        <time>2023-08-27T11:01:52Z</time>
      </trkpt>
      <trkpt lat="57.440018020570278" lon="-6.182331014424563">
        <ele>128.94999999999999</ele>
        <time>2023-08-27T11:01:59Z</time>
      </trkpt>
      <trkpt lat="57.439076984301209" lon="-6.181901022791863">
        <ele>124.15000000000001</ele>
        <time>2023-08-27T11:02:07Z</time>
      </trkpt>
      <trkpt lat="57.438937006518245" lon="-6.18191896006465">
        <ele>123.19</ele>
        <time>2023-08-27T11:02:08Z</time>
      </trkpt>
      <trkpt lat="57.438788982108235" lon="-6.181961037218571">
        <ele>121.73999999999999</ele>
        <time>2023-08-27T11:02:09Z</time>
      </trkpt>
      <trkpt lat="57.438634000718594" lon="-6.18200495839119">
        <ele>120.3</ele>
        <time>2023-08-27T11:02:10Z</time>
      </trkpt>
      <trkpt lat="57.438480025157332" lon="-6.182097997516394">
        <ele>119.34</ele>
        <time>2023-08-27T11:02:11Z</time>
      </trkpt>
      <trkpt lat="57.43832596577704" lon="-6.182212997227907">
        <ele>118.38</ele>
        <time>2023-08-27T11:02:12Z</time>
      </trkpt>
      <trkpt lat="57.43817400187254" lon="-6.18232699111104">
        <ele>117.42</ele>
        <time>2023-08-27T11:02:13Z</time>
      </trkpt>
      <trkpt lat="57.437759013846517" lon="-6.18260401301086">
        <ele>115.98</ele>
        <time>2023-08-27T11:02:16Z</time>
      </trkpt>
      <trkpt lat="57.437619036063552" lon="-6.182617004960775">
        <ele>115.5</ele>
        <time>2023-08-27T11:02:17Z</time>
      </trkpt>
      <trkpt lat="57.437476040795445" lon="-6.182631002739072">
        <ele>115.5</ele>
        <time>2023-08-27T11:02:18Z</time>
      </trkpt>
      <trkpt lat="57.436637012287974" lon="-6.182516003027558">
        <ele>112.13</ele>
        <time>2023-08-27T11:02:25Z</time>
      </trkpt>
      <trkpt lat="57.436268962919712" lon="-6.182452971115708">
        <ele>110.69</ele>
        <time>2023-08-27T11:02:33Z</time>
      </trkpt>
      <trkpt lat="57.436101995408535" lon="-6.182422963902354">
        <ele>110.20999999999999</ele>
        <time>2023-08-27T11:02:38Z</time>
      </trkpt>
      <trkpt lat="57.435479974374175" lon="-6.182315004989505">
        <ele>109.25</ele>
        <time>2023-08-27T11:02:45Z</time>
      </trkpt>
      <trkpt lat="57.434067958965898" lon="-6.182070001959801">
        <ele>105.88</ele>
        <time>2023-08-27T11:02:55Z</time>
      </trkpt>
      <trkpt lat="57.432712018489838" lon="-6.181879984214902">
        <ele>102.52</ele>
        <time>2023-08-27T11:03:05Z</time>
      </trkpt>
      <trkpt lat="57.432582015171647" lon="-6.181872021406889">
        <ele>102.52</ele>
        <time>2023-08-27T11:03:09Z</time>
      </trkpt>
      <trkpt lat="57.432545972988009" lon="-6.181877972558141">
        <ele>102.52</ele>
        <time>2023-08-27T11:03:23Z</time>
      </trkpt>
      <trkpt lat="57.432515965774655" lon="-6.181881995871663">
        <ele>103</ele>
        <time>2023-08-27T11:03:24Z</time>
      </trkpt>
      <trkpt lat="57.432484030723572" lon="-6.181888030841947">
        <ele>103.48</ele>
        <time>2023-08-27T11:03:25Z</time>
      </trkpt>
      <trkpt lat="57.432443965226412" lon="-6.181893981993198">
        <ele>103.48</ele>
        <time>2023-08-27T11:03:26Z</time>
      </trkpt>
      <trkpt lat="57.432386968284845" lon="-6.181903034448624">
        <ele>103.48</ele>
        <time>2023-08-27T11:03:27Z</time>
      </trkpt>
      <trkpt lat="57.431742986664176" lon="-6.18200495839119">
        <ele>103.48</ele>
        <time>2023-08-27T11:03:33Z</time>
      </trkpt>
      <trkpt lat="57.430395008996129" lon="-6.182546010240912">
        <ele>99.629999999999995</ele>
        <time>2023-08-27T11:03:44Z</time>
      </trkpt>
      <trkpt lat="57.429886981844902" lon="-6.182921016588807">
        <ele>95.790000000000006</ele>
        <time>2023-08-27T11:03:49Z</time>
      </trkpt>
      <trkpt lat="57.429802995175123" lon="-6.182996034622192">
        <ele>94.829999999999998</ele>
        <time>2023-08-27T11:03:50Z</time>
      </trkpt>
      <trkpt lat="57.429742980748415" lon="-6.183131989091635">
        <ele>93.870000000000005</ele>
        <time>2023-08-27T11:03:51Z</time>
      </trkpt>
      <trkpt lat="57.429698975756764" lon="-6.183276996016502">
        <ele>93.390000000000001</ele>
        <time>2023-08-27T11:03:52Z</time>
      </trkpt>
      <trkpt lat="57.429658994078636" lon="-6.18344496935606">
        <ele>92.900000000000006</ele>
        <time>2023-08-27T11:03:53Z</time>
      </trkpt>
      <trkpt lat="57.429615994915366" lon="-6.183627024292946">
        <ele>92.420000000000002</ele>
        <time>2023-08-27T11:03:54Z</time>
      </trkpt>
      <trkpt lat="57.429565032944083" lon="-6.183847971260548">
        <ele>92.420000000000002</ele>
        <time>2023-08-27T11:03:55Z</time>
      </trkpt>
      <trkpt lat="57.429523039609194" lon="-6.18413002230227">
        <ele>91.939999999999998</ele>
        <time>2023-08-27T11:03:56Z</time>
      </trkpt>
      <trkpt lat="57.429481968283653" lon="-6.184451971203089">
        <ele>91.459999999999994</ele>
        <time>2023-08-27T11:03:57Z</time>
      </trkpt>
      <trkpt lat="57.429368980228901" lon="-6.185358976945281">
        <ele>90.019999999999996</ele>
        <time>2023-08-27T11:04:00Z</time>
      </trkpt>
      <trkpt lat="57.429307959973812" lon="-6.185609009116888">
        <ele>89.540000000000006</ele>
        <time>2023-08-27T11:04:01Z</time>
      </trkpt>
      <trkpt lat="57.429235959425569" lon="-6.185832973569632">
        <ele>89.060000000000002</ele>
        <time>2023-08-27T11:04:02Z</time>
      </trkpt>
      <trkpt lat="57.429149961099029" lon="-6.186014022678137">
        <ele>88.579999999999998</ele>
        <time>2023-08-27T11:04:03Z</time>
      </trkpt>
      <trkpt lat="57.429053988307714" lon="-6.186163974925876">
        <ele>88.579999999999998</ele>
        <time>2023-08-27T11:04:04Z</time>
      </trkpt>
      <trkpt lat="57.428939994424582" lon="-6.186261959373951">
        <ele>88.099999999999994</ele>
        <time>2023-08-27T11:04:05Z</time>
      </trkpt>
      <trkpt lat="57.428823988884687" lon="-6.186362039297819">
        <ele>88.099999999999994</ele>
        <time>2023-08-27T11:04:06Z</time>
      </trkpt>
      <trkpt lat="57.428706977516413" lon="-6.186463041231036">
        <ele>87.620000000000005</ele>
        <time>2023-08-27T11:04:07Z</time>
      </trkpt>
      <trkpt lat="57.428587032482028" lon="-6.186566976830363">
        <ele>87.140000000000001</ele>
        <time>2023-08-27T11:04:08Z</time>
      </trkpt>
      <trkpt lat="57.427999963983893" lon="-6.186779960989952">
        <ele>84.25</ele>
        <time>2023-08-27T11:04:12Z</time>
      </trkpt>
      <trkpt lat="57.427845988422632" lon="-6.18677300401032">
        <ele>83.290000000000006</ele>
        <time>2023-08-27T11:04:13Z</time>
      </trkpt>
      <trkpt lat="57.426716024056077" lon="-6.186880962923169">
        <ele>78.969999999999999</ele>
        <time>2023-08-27T11:04:21Z</time>
      </trkpt>
      <trkpt lat="57.425549011677504" lon="-6.187281031161547">
        <ele>73.200000000000003</ele>
        <time>2023-08-27T11:04:30Z</time>
      </trkpt>
      <trkpt lat="57.425301996991038" lon="-6.187366023659706">
        <ele>71.269999999999996</ele>
        <time>2023-08-27T11:04:32Z</time>
      </trkpt>
      <trkpt lat="57.424144959077239" lon="-6.187842031940818">
        <ele>67.909999999999997</ele>
        <time>2023-08-27T11:04:42Z</time>
      </trkpt>
      <trkpt lat="57.42403700016439" lon="-6.187906991690397">
        <ele>67.430000000000007</ele>
        <time>2023-08-27T11:04:43Z</time>
      </trkpt>
      <trkpt lat="57.423937004059553" lon="-6.187967006117106">
        <ele>66.950000000000003</ele>
        <time>2023-08-27T11:04:44Z</time>
      </trkpt>
      <trkpt lat="57.423868020996451" lon="-6.188082005828619">
        <ele>66.469999999999999</ele>
        <time>2023-08-27T11:04:45Z</time>
      </trkpt>
      <trkpt lat="57.423820998519659" lon="-6.188200023025274">
        <ele>65.989999999999995</ele>
        <time>2023-08-27T11:04:46Z</time>
      </trkpt>
      <trkpt lat="57.423771964386106" lon="-6.188389034941793">
        <ele>65.030000000000001</ele>
        <time>2023-08-27T11:04:47Z</time>
      </trkpt>
      <trkpt lat="57.423727037385106" lon="-6.188562037423253">
        <ele>64.069999999999993</ele>
        <time>2023-08-27T11:04:48Z</time>
      </trkpt>
      <trkpt lat="57.423681020736694" lon="-6.188738979399204">
        <ele>62.619999999999997</ele>
        <time>2023-08-27T11:04:49Z</time>
      </trkpt>
      <trkpt lat="57.423613965511322" lon="-6.188885997980833">
        <ele>61.659999999999997</ele>
        <time>2023-08-27T11:04:50Z</time>
      </trkpt>
      <trkpt lat="57.423540959134698" lon="-6.189024969935417">
        <ele>60.700000000000003</ele>
        <time>2023-08-27T11:04:51Z</time>
      </trkpt>
      <trkpt lat="57.423469964414835" lon="-6.189148016273975">
        <ele>59.259999999999998</ele>
        <time>2023-08-27T11:04:52Z</time>
      </trkpt>
      <trkpt lat="57.423366028815508" lon="-6.189198978245258">
        <ele>58.299999999999997</ele>
        <time>2023-08-27T11:04:53Z</time>
      </trkpt>
      <trkpt lat="57.423253962770104" lon="-6.189254969358444">
        <ele>57.340000000000003</ele>
        <time>2023-08-27T11:04:54Z</time>
      </trkpt>
      <trkpt lat="57.423138041049242" lon="-6.189293023198843">
        <ele>56.369999999999997</ele>
        <time>2023-08-27T11:04:55Z</time>
      </trkpt>
      <trkpt lat="57.423020023852587" lon="-6.189288999885321">
        <ele>55.890000000000001</ele>
        <time>2023-08-27T11:04:56Z</time>
      </trkpt>
      <trkpt lat="57.422901000827551" lon="-6.189284976571798">
        <ele>54.93</ele>
        <time>2023-08-27T11:04:57Z</time>
      </trkpt>
      <trkpt lat="57.422428010031581" lon="-6.189324036240578">
        <ele>53.009999999999998</ele>
        <time>2023-08-27T11:05:01Z</time>
      </trkpt>
      <trkpt lat="57.42232097312808" lon="-6.189368041232228">
        <ele>52.530000000000001</ele>
        <time>2023-08-27T11:05:02Z</time>
      </trkpt>
      <trkpt lat="57.422216031700373" lon="-6.189411040395498">
        <ele>52.049999999999997</ele>
        <time>2023-08-27T11:05:03Z</time>
      </trkpt>
      <trkpt lat="57.421757038682699" lon="-6.189733995124698">
        <ele>50.130000000000003</ele>
        <time>2023-08-27T11:05:08Z</time>
      </trkpt>
      <trkpt lat="57.421689983457327" lon="-6.189809013158083">
        <ele>49.649999999999999</ele>
        <time>2023-08-27T11:05:09Z</time>
      </trkpt>
      <trkpt lat="57.421562997624278" lon="-6.190002970397472">
        <ele>48.68</ele>
        <time>2023-08-27T11:05:11Z</time>
      </trkpt>
      <trkpt lat="57.420726986601949" lon="-6.191282970830798">
        <ele>43.880000000000003</ele>
        <time>2023-08-27T11:05:21Z</time>
      </trkpt>
      <trkpt lat="57.420477038249373" lon="-6.191668035462499">
        <ele>43.399999999999999</ele>
        <time>2023-08-27T11:05:24Z</time>
      </trkpt>
      <trkpt lat="57.42040503770113" lon="-6.191803989931941">
        <ele>43.399999999999999</ele>
        <time>2023-08-27T11:05:25Z</time>
      </trkpt>
      <trkpt lat="57.420015027746558" lon="-6.192743014544249">
        <ele>42.920000000000002</ele>
        <time>2023-08-27T11:05:31Z</time>
      </trkpt>
      <trkpt lat="57.419959036633372" lon="-6.19283395819366">
        <ele>42.439999999999998</ele>
        <time>2023-08-27T11:05:32Z</time>
      </trkpt>
      <trkpt lat="57.419840013608336" lon="-6.192893972620368">
        <ele>41.950000000000003</ele>
        <time>2023-08-27T11:05:33Z</time>
      </trkpt>
      <trkpt lat="57.4197400175035" lon="-6.192944012582302">
        <ele>41.950000000000003</ele>
        <time>2023-08-27T11:05:34Z</time>
      </trkpt>
      <trkpt lat="57.419635998085141" lon="-6.192995980381966">
        <ele>41.469999999999999</ele>
        <time>2023-08-27T11:05:35Z</time>
      </trkpt>
      <trkpt lat="57.419532984495163" lon="-6.192979970946908">
        <ele>40.990000000000002</ele>
        <time>2023-08-27T11:05:36Z</time>
      </trkpt>
      <trkpt lat="57.419427959248424" lon="-6.192946024239063">
        <ele>40.990000000000002</ele>
        <time>2023-08-27T11:05:37Z</time>
      </trkpt>
      <trkpt lat="57.419322011992335" lon="-6.192911993712187">
        <ele>40.509999999999998</ele>
        <time>2023-08-27T11:05:38Z</time>
      </trkpt>
      <trkpt lat="57.419214975088835" lon="-6.19287796318531">
        <ele>40.030000000000001</ele>
        <time>2023-08-27T11:05:39Z</time>
      </trkpt>
      <trkpt lat="57.418139996007085" lon="-6.192137002944946">
        <ele>36.670000000000002</ele>
        <time>2023-08-27T11:05:50Z</time>
      </trkpt>
      <trkpt lat="57.417724002152681" lon="-6.191682033240795">
        <ele>36.189999999999998</ele>
        <time>2023-08-27T11:05:55Z</time>
      </trkpt>
      <trkpt lat="57.417627023532987" lon="-6.191624030470848">
        <ele>35.710000000000001</ele>
        <time>2023-08-27T11:05:56Z</time>
      </trkpt>
      <trkpt lat="57.417530966922641" lon="-6.191567033529282">
        <ele>35.710000000000001</ele>
        <time>2023-08-27T11:05:57Z</time>
      </trkpt>
      <trkpt lat="57.417438011616468" lon="-6.191510958597064">
        <ele>35.229999999999997</ele>
        <time>2023-08-27T11:05:58Z</time>
      </trkpt>
      <trkpt lat="57.417342038825154" lon="-6.191495032981038">
        <ele>35.229999999999997</ele>
        <time>2023-08-27T11:05:59Z</time>
      </trkpt>
      <trkpt lat="57.417240031063557" lon="-6.191483968868852">
        <ele>34.740000000000002</ele>
        <time>2023-08-27T11:06:00Z</time>
      </trkpt>
      <trkpt lat="57.417132994160056" lon="-6.191471982747316">
        <ele>34.259999999999998</ele>
        <time>2023-08-27T11:06:01Z</time>
      </trkpt>
      <trkpt lat="57.417027968913317" lon="-6.191461002454162">
        <ele>33.780000000000001</ele>
        <time>2023-08-27T11:06:02Z</time>
      </trkpt>
      <trkpt lat="57.416923027485609" lon="-6.191451027989388">
        <ele>32.82</ele>
        <time>2023-08-27T11:06:03Z</time>
      </trkpt>
      <trkpt lat="57.416610969230533" lon="-6.191418003290892">
        <ele>30.420000000000002</ele>
        <time>2023-08-27T11:06:06Z</time>
      </trkpt>
      <trkpt lat="57.41565702483058" lon="-6.190811991691589">
        <ele>23.210000000000001</ele>
        <time>2023-08-27T11:06:16Z</time>
      </trkpt>
      <trkpt lat="57.415119996294379" lon="-6.190286027267575">
        <ele>20.809999999999999</ele>
        <time>2023-08-27T11:06:22Z</time>
      </trkpt>
      <trkpt lat="57.415028968825936" lon="-6.190197011455894">
        <ele>20.809999999999999</ele>
        <time>2023-08-27T11:06:23Z</time>
      </trkpt>
      <trkpt lat="57.414937019348145" lon="-6.190105983987451">
        <ele>20.32</ele>
        <time>2023-08-27T11:06:24Z</time>
      </trkpt>
      <trkpt lat="57.414829982444644" lon="-6.190001964569092">
        <ele>20.32</ele>
        <time>2023-08-27T11:06:25Z</time>
      </trkpt>
      <trkpt lat="57.414751024916768" lon="-6.189916972070932">
        <ele>20.32</ele>
        <time>2023-08-27T11:06:26Z</time>
      </trkpt>
      <trkpt lat="57.414279961958528" lon="-6.18950198404491">
        <ele>19.84</ele>
        <time>2023-08-27T11:06:31Z</time>
      </trkpt>
      <trkpt lat="57.414196981117129" lon="-6.189440041780472">
        <ele>19.359999999999999</ele>
        <time>2023-08-27T11:06:32Z</time>
      </trkpt>
      <trkpt lat="57.414106959477067" lon="-6.189403999596834">
        <ele>19.359999999999999</ele>
        <time>2023-08-27T11:06:33Z</time>
      </trkpt>
      <trkpt lat="57.414012998342514" lon="-6.189412968233228">
        <ele>19.359999999999999</ele>
        <time>2023-08-27T11:06:34Z</time>
      </trkpt>
      <trkpt lat="57.413907973095775" lon="-6.189423026517034">
        <ele>19.359999999999999</ele>
        <time>2023-08-27T11:06:35Z</time>
      </trkpt>
      <trkpt lat="57.413210012018681" lon="-6.189801972359419">
        <ele>21.77</ele>
        <time>2023-08-27T11:06:43Z</time>
      </trkpt>
      <trkpt lat="57.413161983713508" lon="-6.189875984564424">
        <ele>22.25</ele>
        <time>2023-08-27T11:06:44Z</time>
      </trkpt>
      <trkpt lat="57.413128037005663" lon="-6.189969023689628">
        <ele>22.25</ele>
        <time>2023-08-27T11:06:45Z</time>
      </trkpt>
      <trkpt lat="57.413090988993645" lon="-6.190072959288955">
        <ele>22.73</ele>
        <time>2023-08-27T11:06:46Z</time>
      </trkpt>
      <trkpt lat="57.413071040064096" lon="-6.190202962607145">
        <ele>23.210000000000001</ele>
        <time>2023-08-27T11:06:47Z</time>
      </trkpt>
      <trkpt lat="57.413048995658755" lon="-6.190335983410478">
        <ele>23.210000000000001</ele>
        <time>2023-08-27T11:06:48Z</time>
      </trkpt>
      <trkpt lat="57.413028040900826" lon="-6.190471015870571">
        <ele>23.690000000000001</ele>
        <time>2023-08-27T11:06:49Z</time>
      </trkpt>
      <trkpt lat="57.412936007604003" lon="-6.191348014399409">
        <ele>24.170000000000002</ele>
        <time>2023-08-27T11:06:56Z</time>
      </trkpt>
      <trkpt lat="57.412933995947242" lon="-6.191440969705582">
        <ele>24.170000000000002</ele>
        <time>2023-08-27T11:06:57Z</time>
      </trkpt>
      <trkpt lat="57.412922009825706" lon="-6.19201697409153">
        <ele>22.25</ele>
        <time>2023-08-27T11:07:04Z</time>
      </trkpt>
      <trkpt lat="57.412921003997326" lon="-6.192085035145283">
        <ele>21.77</ele>
        <time>2023-08-27T11:07:05Z</time>
      </trkpt>
      <trkpt lat="57.412884039804339" lon="-6.192131973803043">
        <ele>21.77</ele>
        <time>2023-08-27T11:07:06Z</time>
      </trkpt>
      <trkpt lat="57.412850009277463" lon="-6.192158041521907">
        <ele>21.289999999999999</ele>
        <time>2023-08-27T11:07:07Z</time>
      </trkpt>
      <trkpt lat="57.412815978750587" lon="-6.192183019593358">
        <ele>20.809999999999999</ele>
        <time>2023-08-27T11:07:08Z</time>
      </trkpt>
      <trkpt lat="57.412784965708852" lon="-6.192206991836429">
        <ele>20.32</ele>
        <time>2023-08-27T11:07:09Z</time>
      </trkpt>
      <trkpt lat="57.412751019001007" lon="-6.19223196990788">
        <ele>20.32</ele>
        <time>2023-08-27T11:07:10Z</time>
      </trkpt>
      <trkpt lat="57.412714976817369" lon="-6.192258959636092">
        <ele>19.84</ele>
        <time>2023-08-27T11:07:11Z</time>
      </trkpt>
      <trkpt lat="57.412233017385006" lon="-6.192513015121222">
        <ele>19.84</ele>
        <time>2023-08-27T11:07:19Z</time>
      </trkpt>
      <trkpt lat="57.412159005180001" lon="-6.192614017054439">
        <ele>20.32</ele>
        <time>2023-08-27T11:07:21Z</time>
      </trkpt>
      <trkpt lat="57.412148024886847" lon="-6.192641006782651">
        <ele>20.32</ele>
        <time>2023-08-27T11:07:22Z</time>
      </trkpt>
      <trkpt lat="57.412154981866479" lon="-6.192690040916205">
        <ele>20.32</ele>
        <time>2023-08-27T11:07:23Z</time>
      </trkpt>
      <trkpt lat="57.412165040150285" lon="-6.1927679926157">
        <ele>19.84</ele>
        <time>2023-08-27T11:07:24Z</time>
      </trkpt>
      <trkpt lat="57.412178032100201" lon="-6.192863965407014">
        <ele>19.84</ele>
        <time>2023-08-27T11:07:25Z</time>
      </trkpt>
      <trkpt lat="57.412192029878497" lon="-6.192971002310515">
        <ele>19.359999999999999</ele>
        <time>2023-08-27T11:07:26Z</time>
      </trkpt>
      <trkpt lat="57.412424962967634" lon="-6.19446499273181">
        <ele>17.920000000000002</ele>
        <time>2023-08-27T11:07:39Z</time>
      </trkpt>
      <trkpt lat="57.412709025666118" lon="-6.195437964051962">
        <ele>15.52</ele>
        <time>2023-08-27T11:07:48Z</time>
      </trkpt>
      <trkpt lat="57.412795023992658" lon="-6.196408001706004">
        <ele>15.039999999999999</ele>
        <time>2023-08-27T11:07:55Z</time>
      </trkpt>
      <trkpt lat="57.412857972085476" lon="-6.196879986673594">
        <ele>14.56</ele>
        <time>2023-08-27T11:07:58Z</time>
      </trkpt>
      <trkpt lat="57.412903988733888" lon="-6.197045026347041">
        <ele>14.08</ele>
        <time>2023-08-27T11:07:59Z</time>
      </trkpt>
      <trkpt lat="57.413218980655074" lon="-6.198615040630102">
        <ele>11.19</ele>
        <time>2023-08-27T11:08:08Z</time>
      </trkpt>
      <trkpt lat="57.41323197260499" lon="-6.198797011747956">
        <ele>10.710000000000001</ele>
        <time>2023-08-27T11:08:09Z</time>
      </trkpt>
      <trkpt lat="57.413243958726525" lon="-6.198966996744275">
        <ele>10.23</ele>
        <time>2023-08-27T11:08:10Z</time>
      </trkpt>
      <trkpt lat="57.413255022838712" lon="-6.199124995619059">
        <ele>9.75</ele>
        <time>2023-08-27T11:08:11Z</time>
      </trkpt>
      <trkpt lat="57.413259968161583" lon="-6.199295986443758">
        <ele>9.27</ele>
        <time>2023-08-27T11:08:12Z</time>
      </trkpt>
      <trkpt lat="57.413244964554906" lon="-6.199444010853767">
        <ele>8.789999999999999</ele>
        <time>2023-08-27T11:08:13Z</time>
      </trkpt>
      <trkpt lat="57.413230966776609" lon="-6.199591029435396">
        <ele>8.789999999999999</ele>
        <time>2023-08-27T11:08:14Z</time>
      </trkpt>
      <trkpt lat="57.41318897344172" lon="-6.200019009411335">
        <ele>7.83</ele>
        <time>2023-08-27T11:08:17Z</time>
      </trkpt>
      <trkpt lat="57.413013037294149" lon="-6.200625021010637">
        <ele>6.87</ele>
        <time>2023-08-27T11:08:22Z</time>
      </trkpt>
      <trkpt lat="57.412959979847074" lon="-6.200711019337177">
        <ele>7.35</ele>
        <time>2023-08-27T11:08:23Z</time>
      </trkpt>
      <trkpt lat="57.412921003997326" lon="-6.200773967429996">
        <ele>7.35</ele>
        <time>2023-08-27T11:08:24Z</time>
      </trkpt>
      <trkpt lat="57.412833999842405" lon="-6.200847979635">
        <ele>7.83</ele>
        <time>2023-08-27T11:08:25Z</time>
      </trkpt>
      <trkpt lat="57.412761999294162" lon="-6.20091000571847">
        <ele>8.310000000000001</ele>
        <time>2023-08-27T11:08:26Z</time>
      </trkpt>
      <trkpt lat="57.412687987089157" lon="-6.20097303763032">
        <ele>8.789999999999999</ele>
        <time>2023-08-27T11:08:27Z</time>
      </trkpt>
      <trkpt lat="57.412602994590998" lon="-6.201032968237996">
        <ele>9.27</ele>
        <time>2023-08-27T11:08:28Z</time>
      </trkpt>
      <trkpt lat="57.412511967122555" lon="-6.201042020693421">
        <ele>10.23</ele>
        <time>2023-08-27T11:08:29Z</time>
      </trkpt>
      <trkpt lat="57.412417000159621" lon="-6.201050989329815">
        <ele>10.710000000000001</ele>
        <time>2023-08-27T11:08:30Z</time>
      </trkpt>
      <trkpt lat="57.411357024684548" lon="-6.201378973200917">
        <ele>14.56</ele>
        <time>2023-08-27T11:08:40Z</time>
      </trkpt>
      <trkpt lat="57.410281039774418" lon="-6.202018009498715">
        <ele>15.039999999999999</ele>
        <time>2023-08-27T11:08:49Z</time>
      </trkpt>
      <trkpt lat="57.409547958523035" lon="-6.2022640183568">
        <ele>16.48</ele>
        <time>2023-08-27T11:08:55Z</time>
      </trkpt>
      <trkpt lat="57.409418039023876" lon="-6.202296037226915">
        <ele>16.960000000000001</ele>
        <time>2023-08-27T11:08:56Z</time>
      </trkpt>
      <trkpt lat="57.408305006101727" lon="-6.201852969825268">
        <ele>18.399999999999999</ele>
        <time>2023-08-27T11:09:05Z</time>
      </trkpt>
      <trkpt lat="57.406773967668414" lon="-6.20133999735117">
        <ele>22.25</ele>
        <time>2023-08-27T11:09:17Z</time>
      </trkpt>
      <trkpt lat="57.405144022777677" lon="-6.200806992128491">
        <ele>26.09</ele>
        <time>2023-08-27T11:09:29Z</time>
      </trkpt>
      <trkpt lat="57.403761008754373" lon="-6.200488982722163">
        <ele>24.649999999999999</ele>
        <time>2023-08-27T11:09:40Z</time>
      </trkpt>
      <trkpt lat="57.402687035501003" lon="-6.200412958860397">
        <ele>25.129999999999999</ele>
        <time>2023-08-27T11:09:51Z</time>
      </trkpt>
      <trkpt lat="57.401572996750474" lon="-6.200624015182257">
        <ele>23.690000000000001</ele>
        <time>2023-08-27T11:10:03Z</time>
      </trkpt>
      <trkpt lat="57.401428995653987" lon="-6.200657039880753">
        <ele>23.690000000000001</ele>
        <time>2023-08-27T11:10:05Z</time>
      </trkpt>
      <trkpt lat="57.40137099288404" lon="-6.200670031830668">
        <ele>23.690000000000001</ele>
        <time>2023-08-27T11:10:06Z</time>
      </trkpt>
      <trkpt lat="57.401325982064009" lon="-6.200680006295443">
        <ele>23.210000000000001</ele>
        <time>2023-08-27T11:10:07Z</time>
      </trkpt>
      <trkpt lat="57.401320030912757" lon="-6.200873963534832">
        <ele>23.210000000000001</ele>
        <time>2023-08-27T11:10:08Z</time>
      </trkpt>
      <trkpt lat="57.401334028691053" lon="-6.200959961861372">
        <ele>23.210000000000001</ele>
        <time>2023-08-27T11:10:09Z</time>
      </trkpt>
      <trkpt lat="57.401347020640969" lon="-6.201041014865041">
        <ele>22.73</ele>
        <time>2023-08-27T11:10:10Z</time>
      </trkpt>
      <trkpt lat="57.401359006762505" lon="-6.201116032898426">
        <ele>22.25</ele>
        <time>2023-08-27T11:10:11Z</time>
      </trkpt>
      <trkpt lat="57.40137099288404" lon="-6.20118803344667">
        <ele>22.25</ele>
        <time>2023-08-27T11:10:12Z</time>
      </trkpt>
      <trkpt lat="57.401376022025943" lon="-6.201223991811276">
        <ele>22.25</ele>
        <time>2023-08-27T11:10:13Z</time>
      </trkpt>
      <trkpt lat="57.401422960683703" lon="-6.201201025396586">
        <ele>22.25</ele>
        <time>2023-08-27T11:10:14Z</time>
      </trkpt>
      <trkpt lat="57.401469983160496" lon="-6.201177975162864">
        <ele>21.77</ele>
        <time>2023-08-27T11:10:15Z</time>
      </trkpt>
      <trkpt lat="57.401518011465669" lon="-6.201154002919793">
        <ele>21.77</ele>
        <time>2023-08-27T11:10:16Z</time>
      </trkpt>
      <trkpt lat="57.401568973436952" lon="-6.201128019019961">
        <ele>21.289999999999999</ele>
        <time>2023-08-27T11:10:17Z</time>
      </trkpt>
      <trkpt lat="57.401849012821913" lon="-6.200988041236997">
        <ele>19.359999999999999</ele>
        <time>2023-08-27T11:10:27Z</time>
      </trkpt>
      <trkpt lat="57.402052022516727" lon="-6.20088703930378">
        <ele>17.440000000000001</ele>
        <time>2023-08-27T11:10:40Z</time>
      </trkpt>
      <trkpt lat="57.40210298448801" lon="-6.200860971584916">
        <ele>16.48</ele>
        <time>2023-08-27T11:10:45Z</time>
      </trkpt>
      <trkpt lat="57.402149001136422" lon="-6.200838005170226">
        <ele>16.960000000000001</ele>
        <time>2023-08-27T11:10:46Z</time>
      </trkpt>
      <trkpt lat="57.402149001136422" lon="-6.200838005170226">
        <ele>16.48</ele>
        <time>2023-08-27T11:10:47Z</time>
      </trkpt>
      <trkpt lat="57.402149001136422" lon="-6.200838005170226">
        <ele>17.920000000000002</ele>
        <time>2023-08-27T11:10:58Z</time>
      </trkpt>
      <trkpt lat="57.402141038328409" lon="-6.200871029868722">
        <ele>18.879999999999999</ele>
        <time>2023-08-27T12:32:20Z</time>
      </trkpt>
      <trkpt lat="57.40210298448801" lon="-6.200860971584916">
        <ele>26.09</ele>
        <time>2023-08-27T12:32:27Z</time>
      </trkpt>
      <trkpt lat="57.402057973667979" lon="-6.200884021818638">
        <ele>24.649999999999999</ele>
        <time>2023-08-27T12:32:28Z</time>
      </trkpt>
      <trkpt lat="57.402007011696696" lon="-6.200908999890089">
        <ele>24.170000000000002</ele>
        <time>2023-08-27T12:32:29Z</time>
      </trkpt>
      <trkpt lat="57.40195102058351" lon="-6.200936995446682">
        <ele>22.25</ele>
        <time>2023-08-27T12:32:30Z</time>
      </trkpt>
      <trkpt lat="57.401884971186519" lon="-6.200970020145178">
        <ele>22.73</ele>
        <time>2023-08-27T12:32:31Z</time>
      </trkpt>
      <trkpt lat="57.401816993951797" lon="-6.201003966853023">
        <ele>22.73</ele>
        <time>2023-08-27T12:32:32Z</time>
      </trkpt>
      <trkpt lat="57.401612978428602" lon="-6.20110597461462">
        <ele>23.210000000000001</ele>
        <time>2023-08-27T12:32:35Z</time>
      </trkpt>
      <trkpt lat="57.40143796429038" lon="-6.201193984597921">
        <ele>22.73</ele>
        <time>2023-08-27T12:32:38Z</time>
      </trkpt>
      <trkpt lat="57.401376022025943" lon="-6.201223991811276">
        <ele>22.73</ele>
        <time>2023-08-27T12:32:39Z</time>
      </trkpt>
      <trkpt lat="57.401360012590885" lon="-6.201121984049678">
        <ele>22.73</ele>
        <time>2023-08-27T12:32:40Z</time>
      </trkpt>
      <trkpt lat="57.40134802646935" lon="-6.201047971844673">
        <ele>22.25</ele>
        <time>2023-08-27T12:32:41Z</time>
      </trkpt>
      <trkpt lat="57.401336040347815" lon="-6.200971025973558">
        <ele>21.77</ele>
        <time>2023-08-27T12:32:42Z</time>
      </trkpt>
      <trkpt lat="57.401324976235628" lon="-6.200901959091425">
        <ele>20.809999999999999</ele>
        <time>2023-08-27T12:32:43Z</time>
      </trkpt>
      <trkpt lat="57.401317013427615" lon="-6.200854014605284">
        <ele>20.32</ele>
        <time>2023-08-27T12:32:44Z</time>
      </trkpt>
      <trkpt lat="57.401367975398898" lon="-6.200671037659049">
        <ele>19.84</ele>
        <time>2023-08-27T12:32:45Z</time>
      </trkpt>
      <trkpt lat="57.401451040059328" lon="-6.20065201073885">
        <ele>16.960000000000001</ele>
        <time>2023-08-27T12:32:53Z</time>
      </trkpt>
      <trkpt lat="57.402066020295024" lon="-6.200513960793614">
        <ele>16.48</ele>
        <time>2023-08-27T12:32:59Z</time>
      </trkpt>
      <trkpt lat="57.403394971042871" lon="-6.2004370149225">
        <ele>18.879999999999999</ele>
        <time>2023-08-27T12:33:09Z</time>
      </trkpt>
      <trkpt lat="57.4049580283463" lon="-6.200755024328828">
        <ele>20.32</ele>
        <time>2023-08-27T12:33:21Z</time>
      </trkpt>
      <trkpt lat="57.406556038185954" lon="-6.201290041208267">
        <ele>19.359999999999999</ele>
        <time>2023-08-27T12:33:34Z</time>
      </trkpt>
      <trkpt lat="57.408241974189878" lon="-6.201824974268675">
        <ele>17.440000000000001</ele>
        <time>2023-08-27T12:33:48Z</time>
      </trkpt>
      <trkpt lat="57.409418039023876" lon="-6.202296037226915">
        <ele>14.56</ele>
        <time>2023-08-27T12:33:58Z</time>
      </trkpt>
      <trkpt lat="57.410367960110307" lon="-6.20196302421391">
        <ele>14.08</ele>
        <time>2023-08-27T12:34:06Z</time>
      </trkpt>
      <trkpt lat="57.410712037235498" lon="-6.201750040054321">
        <ele>13.6</ele>
        <time>2023-08-27T12:34:09Z</time>
      </trkpt>
      <trkpt lat="57.411762038245797" lon="-6.201184010133147">
        <ele>12.630000000000001</ele>
        <time>2023-08-27T12:34:18Z</time>
      </trkpt>
      <trkpt lat="57.412003017961979" lon="-6.201090971007943">
        <ele>13.6</ele>
        <time>2023-08-27T12:34:20Z</time>
      </trkpt>
      <trkpt lat="57.412122962996364" lon="-6.201078984886408">
        <ele>13.6</ele>
        <time>2023-08-27T12:34:21Z</time>
      </trkpt>
      <trkpt lat="57.412238968536258" lon="-6.201068004593253">
        <ele>14.08</ele>
        <time>2023-08-27T12:34:22Z</time>
      </trkpt>
      <trkpt lat="57.412658985704184" lon="-6.200998015701771">
        <ele>14.08</ele>
        <time>2023-08-27T12:34:26Z</time>
      </trkpt>
      <trkpt lat="57.412750013172626" lon="-6.200920986011624">
        <ele>13.6</ele>
        <time>2023-08-27T12:34:27Z</time>
      </trkpt>
      <trkpt lat="57.412838023155928" lon="-6.200844962149859">
        <ele>13.119999999999999</ele>
        <time>2023-08-27T12:34:28Z</time>
      </trkpt>
      <trkpt lat="57.412921003997326" lon="-6.200773967429996">
        <ele>12.15</ele>
        <time>2023-08-27T12:34:29Z</time>
      </trkpt>
      <trkpt lat="57.412986969575286" lon="-6.200667014345527">
        <ele>12.15</ele>
        <time>2023-08-27T12:34:30Z</time>
      </trkpt>
      <trkpt lat="57.413044972345233" lon="-6.200550002977252">
        <ele>11.67</ele>
        <time>2023-08-27T12:34:31Z</time>
      </trkpt>
      <trkpt lat="57.413093000650406" lon="-6.200398961082101">
        <ele>10.710000000000001</ele>
        <time>2023-08-27T12:34:32Z</time>
      </trkpt>
      <trkpt lat="57.413142034783959" lon="-6.200243979692459">
        <ele>10.23</ele>
        <time>2023-08-27T12:34:33Z</time>
      </trkpt>
      <trkpt lat="57.413182016462088" lon="-6.200092015787959">
        <ele>9.75</ele>
        <time>2023-08-27T12:34:34Z</time>
      </trkpt>
      <trkpt lat="57.413200959563255" lon="-6.199895963072777">
        <ele>9.27</ele>
        <time>2023-08-27T12:34:35Z</time>
      </trkpt>
      <trkpt lat="57.413220992311835" lon="-6.199693037196994">
        <ele>8.789999999999999</ele>
        <time>2023-08-27T12:34:36Z</time>
      </trkpt>
      <trkpt lat="57.413241025060415" lon="-6.199483992531896">
        <ele>8.789999999999999</ele>
        <time>2023-08-27T12:34:37Z</time>
      </trkpt>
      <trkpt lat="57.413250999525189" lon="-6.19906397536397">
        <ele>8.789999999999999</ele>
        <time>2023-08-27T12:34:39Z</time>
      </trkpt>
      <trkpt lat="57.413220992311835" lon="-6.198643958196044">
        <ele>8.310000000000001</ele>
        <time>2023-08-27T12:34:41Z</time>
      </trkpt>
      <trkpt lat="57.413200037553906" lon="-6.198348999023438">
        <ele>8.310000000000001</ele>
        <time>2023-08-27T12:34:42Z</time>
      </trkpt>
      <trkpt lat="57.413167012855411" lon="-6.198184965178371">
        <ele>8.310000000000001</ele>
        <time>2023-08-27T12:34:43Z</time>
      </trkpt>
      <trkpt lat="57.413117978721857" lon="-6.197941973805428">
        <ele>8.310000000000001</ele>
        <time>2023-08-27T12:34:44Z</time>
      </trkpt>
      <trkpt lat="57.413075985386968" lon="-6.197733012959361">
        <ele>8.310000000000001</ele>
        <time>2023-08-27T12:34:45Z</time>
      </trkpt>
      <trkpt lat="57.412810027599335" lon="-6.196655016392469">
        <ele>7.83</ele>
        <time>2023-08-27T12:34:51Z</time>
      </trkpt>
      <trkpt lat="57.412799969315529" lon="-6.196501962840557">
        <ele>7.83</ele>
        <time>2023-08-27T12:34:52Z</time>
      </trkpt>
      <trkpt lat="57.412791000679135" lon="-6.196352010592818">
        <ele>7.35</ele>
        <time>2023-08-27T12:34:53Z</time>
      </trkpt>
      <trkpt lat="57.412774991244078" lon="-6.196078006178141">
        <ele>7.35</ele>
        <time>2023-08-27T12:34:55Z</time>
      </trkpt>
      <trkpt lat="57.412764010950923" lon="-6.195951020345092">
        <ele>7.35</ele>
        <time>2023-08-27T12:34:56Z</time>
      </trkpt>
      <trkpt lat="57.412726040929556" lon="-6.195598980411887">
        <ele>7.35</ele>
        <time>2023-08-27T12:34:59Z</time>
      </trkpt>
      <trkpt lat="57.412422029301524" lon="-6.194455018267036">
        <ele>8.310000000000001</ele>
        <time>2023-08-27T12:35:10Z</time>
      </trkpt>
      <trkpt lat="57.412406019866467" lon="-6.194401038810611">
        <ele>8.310000000000001</ele>
        <time>2023-08-27T12:35:11Z</time>
      </trkpt>
      <trkpt lat="57.412383975461125" lon="-6.194265000522137">
        <ele>8.789999999999999</ele>
        <time>2023-08-27T12:35:12Z</time>
      </trkpt>
      <trkpt lat="57.412353968247771" lon="-6.194084035232663">
        <ele>8.310000000000001</ele>
        <time>2023-08-27T12:35:14Z</time>
      </trkpt>
      <trkpt lat="57.412237040698528" lon="-6.193310972303152">
        <ele>9.27</ele>
        <time>2023-08-27T12:35:25Z</time>
      </trkpt>
      <trkpt lat="57.412150036543608" lon="-6.192658022046089">
        <ele>10.710000000000001</ele>
        <time>2023-08-27T12:35:36Z</time>
      </trkpt>
      <trkpt lat="57.412148024886847" lon="-6.192641006782651">
        <ele>11.19</ele>
        <time>2023-08-27T12:35:44Z</time>
      </trkpt>
      <trkpt lat="57.412148024886847" lon="-6.192641006782651">
        <ele>11.19</ele>
        <time>2023-08-27T12:35:45Z</time>
      </trkpt>
      <trkpt lat="57.412149030715227" lon="-6.19263899512589">
        <ele>10.710000000000001</ele>
        <time>2023-08-27T12:35:46Z</time>
      </trkpt>
      <trkpt lat="57.412191024050117" lon="-6.19253396987915">
        <ele>10.23</ele>
        <time>2023-08-27T12:35:47Z</time>
      </trkpt>
      <trkpt lat="57.412191024050117" lon="-6.19253396987915">
        <ele>10.23</ele>
        <time>2023-08-27T12:35:48Z</time>
      </trkpt>
      <trkpt lat="57.412191024050117" lon="-6.19253396987915">
        <ele>10.23</ele>
        <time>2023-08-27T12:35:49Z</time>
      </trkpt>
      <trkpt lat="57.412205021828413" lon="-6.192527012899518">
        <ele>10.23</ele>
        <time>2023-08-27T12:35:50Z</time>
      </trkpt>
      <trkpt lat="57.412205021828413" lon="-6.192527012899518">
        <ele>10.23</ele>
        <time>2023-08-27T12:36:04Z</time>
      </trkpt>
      <trkpt lat="57.412303006276488" lon="-6.192528018727899">
        <ele>27.530000000000001</ele>
        <time>2023-08-27T13:08:16Z</time>
      </trkpt>
      <trkpt lat="57.412227988243103" lon="-6.192642012611032">
        <ele>11.19</ele>
        <time>2023-08-27T13:08:45Z</time>
      </trkpt>
      <trkpt lat="57.412243997678161" lon="-6.192603958770633">
        <ele>13.6</ele>
        <time>2023-08-27T13:09:19Z</time>
      </trkpt>
      <trkpt lat="57.412214996293187" lon="-6.192647963762283">
        <ele>9.75</ele>
        <time>2023-08-27T13:09:48Z</time>
      </trkpt>
      <trkpt lat="57.412190018221736" lon="-6.192646035924554">
        <ele>8.310000000000001</ele>
        <time>2023-08-27T13:10:32Z</time>
      </trkpt>
      <trkpt lat="57.412193035706878" lon="-6.192645030096173">
        <ele>8.789999999999999</ele>
        <time>2023-08-27T13:10:56Z</time>
      </trkpt>
      <trkpt lat="57.412193035706878" lon="-6.192645030096173">
        <ele>8.789999999999999</ele>
        <time>2023-08-27T13:11:16Z</time>
      </trkpt>
      <trkpt lat="57.412205021828413" lon="-6.192642012611032">
        <ele>8.789999999999999</ele>
        <time>2023-08-27T13:12:00Z</time>
      </trkpt>
      <trkpt lat="57.412209967151284" lon="-6.19263899512589">
        <ele>8.310000000000001</ele>
        <time>2023-08-27T13:12:35Z</time>
      </trkpt>
      <trkpt lat="57.412545997649431" lon="-6.192357027903199">
        <ele>5.91</ele>
        <time>2023-08-27T13:12:43Z</time>
      </trkpt>
      <trkpt lat="57.412767028436065" lon="-6.192219983786345">
        <ele>5.91</ele>
        <time>2023-08-27T13:12:47Z</time>
      </trkpt>
      <trkpt lat="57.412807010114193" lon="-6.19218997657299">
        <ele>5.42</ele>
        <time>2023-08-27T13:12:48Z</time>
      </trkpt>
      <trkpt lat="57.412841962650418" lon="-6.192163992673159">
        <ele>4.94</ele>
        <time>2023-08-27T13:12:49Z</time>
      </trkpt>
      <trkpt lat="57.412864007055759" lon="-6.19214697740972">
        <ele>4.94</ele>
        <time>2023-08-27T13:12:50Z</time>
      </trkpt>
      <trkpt lat="57.412889990955591" lon="-6.192128034308553">
        <ele>4.94</ele>
        <time>2023-08-27T13:12:59Z</time>
      </trkpt>
      <trkpt lat="57.412909017875791" lon="-6.192114036530256">
        <ele>4.46</ele>
        <time>2023-08-27T13:13:00Z</time>
      </trkpt>
      <trkpt lat="57.412909017875791" lon="-6.192114036530256">
        <ele>4.46</ele>
        <time>2023-08-27T13:13:01Z</time>
      </trkpt>
      <trkpt lat="57.412922009825706" lon="-6.192029966041446">
        <ele>6.39</ele>
        <time>2023-08-27T13:13:14Z</time>
      </trkpt>
      <trkpt lat="57.412923015654087" lon="-6.192002976313233">
        <ele>6.87</ele>
        <time>2023-08-27T13:13:15Z</time>
      </trkpt>
      <trkpt lat="57.412921003997326" lon="-6.192104984074831">
        <ele>7.35</ele>
        <time>2023-08-27T13:13:16Z</time>
      </trkpt>
      <trkpt lat="57.412921003997326" lon="-6.192104984074831">
        <ele>7.35</ele>
        <time>2023-08-27T13:13:17Z</time>
      </trkpt>
      <trkpt lat="57.412894014269114" lon="-6.192125016823411">
        <ele>6.87</ele>
        <time>2023-08-27T13:13:18Z</time>
      </trkpt>
      <trkpt lat="57.412856966257095" lon="-6.192152006551623">
        <ele>6.39</ele>
        <time>2023-08-27T13:13:19Z</time>
      </trkpt>
      <trkpt lat="57.412820002064109" lon="-6.192180002108216">
        <ele>6.39</ele>
        <time>2023-08-27T13:13:20Z</time>
      </trkpt>
      <trkpt lat="57.412669965997338" lon="-6.192292990162969">
        <ele>6.39</ele>
        <time>2023-08-27T13:13:29Z</time>
      </trkpt>
      <trkpt lat="57.412269981577992" lon="-6.192493988201022">
        <ele>8.310000000000001</ele>
        <time>2023-08-27T13:13:42Z</time>
      </trkpt>
      <trkpt lat="57.41215699352324" lon="-6.19261896237731">
        <ele>9.27</ele>
        <time>2023-08-27T13:13:46Z</time>
      </trkpt>
      <trkpt lat="57.412148024886847" lon="-6.192641006782651">
        <ele>9.27</ele>
        <time>2023-08-27T13:13:47Z</time>
      </trkpt>
      <trkpt lat="57.412159005180001" lon="-6.192720970138907">
        <ele>9.27</ele>
        <time>2023-08-27T13:13:48Z</time>
      </trkpt>
      <trkpt lat="57.412171997129917" lon="-6.192819960415363">
        <ele>9.27</ele>
        <time>2023-08-27T13:13:49Z</time>
      </trkpt>
      <trkpt lat="57.412184989079833" lon="-6.192916017025709">
        <ele>9.27</ele>
        <time>2023-08-27T13:13:50Z</time>
      </trkpt>
      <trkpt lat="57.412196975201368" lon="-6.193009978160262">
        <ele>9.27</ele>
        <time>2023-08-27T13:13:51Z</time>
      </trkpt>
      <trkpt lat="57.412248020991683" lon="-6.193386996164918">
        <ele>9.27</ele>
        <time>2023-08-27T13:13:55Z</time>
      </trkpt>
      <trkpt lat="57.412288002669811" lon="-6.193677010014653">
        <ele>9.27</ele>
        <time>2023-08-27T13:13:57Z</time>
      </trkpt>
      <trkpt lat="57.412309041246772" lon="-6.193802990019321">
        <ele>9.75</ele>
        <time>2023-08-27T13:13:58Z</time>
      </trkpt>
      <trkpt lat="57.412325972691178" lon="-6.193912038579583">
        <ele>9.75</ele>
        <time>2023-08-27T13:13:59Z</time>
      </trkpt>
      <trkpt lat="57.412341982126236" lon="-6.194010023027659">
        <ele>10.23</ele>
        <time>2023-08-27T13:14:00Z</time>
      </trkpt>
      <trkpt lat="57.412357991561294" lon="-6.194109013304114">
        <ele>10.23</ele>
        <time>2023-08-27T13:14:01Z</time>
      </trkpt>
      <trkpt lat="57.41239202208817" lon="-6.194315040484071">
        <ele>10.710000000000001</ele>
        <time>2023-08-27T13:14:03Z</time>
      </trkpt>
      <trkpt lat="57.412408031523228" lon="-6.194409001618624">
        <ele>10.710000000000001</ele>
        <time>2023-08-27T13:14:04Z</time>
      </trkpt>
      <trkpt lat="57.412440972402692" lon="-6.194519978016615">
        <ele>11.19</ele>
        <time>2023-08-27T13:14:05Z</time>
      </trkpt>
      <trkpt lat="57.412475002929568" lon="-6.194633971899748">
        <ele>11.19</ele>
        <time>2023-08-27T13:14:06Z</time>
      </trkpt>
      <trkpt lat="57.412509033456445" lon="-6.194747965782881">
        <ele>10.710000000000001</ele>
        <time>2023-08-27T13:14:07Z</time>
      </trkpt>
      <trkpt lat="57.412706008180976" lon="-6.195408962666988">
        <ele>9.27</ele>
        <time>2023-08-27T13:14:12Z</time>
      </trkpt>
      <trkpt lat="57.412719000130892" lon="-6.195528991520405">
        <ele>8.789999999999999</ele>
        <time>2023-08-27T13:14:13Z</time>
      </trkpt>
      <trkpt lat="57.412826959043741" lon="-6.196768004447222">
        <ele>6.39</ele>
        <time>2023-08-27T13:14:22Z</time>
      </trkpt>
      <trkpt lat="57.412854032590985" lon="-6.196864983066917">
        <ele>6.39</ele>
        <time>2023-08-27T13:14:23Z</time>
      </trkpt>
      <trkpt lat="57.413128037005663" lon="-6.197990002110601">
        <ele>5.42</ele>
        <time>2023-08-27T13:14:31Z</time>
      </trkpt>
      <trkpt lat="57.413201965391636" lon="-6.198381017893553">
        <ele>4.94</ele>
        <time>2023-08-27T13:14:33Z</time>
      </trkpt>
      <trkpt lat="57.413263991475105" lon="-6.199246030300856">
        <ele>5.42</ele>
        <time>2023-08-27T13:14:37Z</time>
      </trkpt>
      <trkpt lat="57.413245970383286" lon="-6.199434036388993">
        <ele>5.91</ele>
        <time>2023-08-27T13:14:38Z</time>
      </trkpt>
      <trkpt lat="57.413227027282119" lon="-6.199626987800002">
        <ele>5.91</ele>
        <time>2023-08-27T13:14:39Z</time>
      </trkpt>
      <trkpt lat="57.4132090061903" lon="-6.199818011373282">
        <ele>5.91</ele>
        <time>2023-08-27T13:14:40Z</time>
      </trkpt>
      <trkpt lat="57.413189979270101" lon="-6.200006017461419">
        <ele>6.39</ele>
        <time>2023-08-27T13:14:41Z</time>
      </trkpt>
      <trkpt lat="57.413158966228366" lon="-6.200192011892796">
        <ele>6.39</ele>
        <time>2023-08-27T13:14:42Z</time>
      </trkpt>
      <trkpt lat="57.413113033398986" lon="-6.200335007160902">
        <ele>6.39</ele>
        <time>2023-08-27T13:14:43Z</time>
      </trkpt>
      <trkpt lat="57.413075985386968" lon="-6.200451012700796">
        <ele>6.39</ele>
        <time>2023-08-27T13:14:44Z</time>
      </trkpt>
      <trkpt lat="57.413045978173614" lon="-6.20054597966373">
        <ele>6.87</ele>
        <time>2023-08-27T13:14:45Z</time>
      </trkpt>
      <trkpt lat="57.413007002323866" lon="-6.200636001303792">
        <ele>6.87</ele>
        <time>2023-08-27T13:14:46Z</time>
      </trkpt>
      <trkpt lat="57.412967020645738" lon="-6.200700039044023">
        <ele>6.87</ele>
        <time>2023-08-27T13:14:47Z</time>
      </trkpt>
      <trkpt lat="57.412933995947242" lon="-6.200753012672067">
        <ele>7.35</ele>
        <time>2023-08-27T13:14:48Z</time>
      </trkpt>
      <trkpt lat="57.412966014817357" lon="-6.200843034312129">
        <ele>7.35</ele>
        <time>2023-08-27T13:14:49Z</time>
      </trkpt>
      <trkpt lat="57.413000967353582" lon="-6.200922997668386">
        <ele>7.35</ele>
        <time>2023-08-27T13:14:50Z</time>
      </trkpt>
      <trkpt lat="57.413047989830375" lon="-6.201029028743506">
        <ele>7.35</ele>
        <time>2023-08-27T13:14:51Z</time>
      </trkpt>
      <trkpt lat="57.413109010085464" lon="-6.201163977384567">
        <ele>7.35</ele>
        <time>2023-08-27T13:14:52Z</time>
      </trkpt>
      <trkpt lat="57.413184028118849" lon="-6.2012969981879">
        <ele>7.35</ele>
        <time>2023-08-27T13:14:53Z</time>
      </trkpt>
      <trkpt lat="57.413272960111499" lon="-6.201431024819613">
        <ele>7.35</ele>
        <time>2023-08-27T13:14:54Z</time>
      </trkpt>
      <trkpt lat="57.413806971162558" lon="-6.202445989474654">
        <ele>9.27</ele>
        <time>2023-08-27T13:15:01Z</time>
      </trkpt>
      <trkpt lat="57.413862040266395" lon="-6.202612034976482">
        <ele>9.27</ele>
        <time>2023-08-27T13:15:02Z</time>
      </trkpt>
      <trkpt lat="57.413938986137509" lon="-6.202985029667616">
        <ele>9.75</ele>
        <time>2023-08-27T13:15:04Z</time>
      </trkpt>
      <trkpt lat="57.414244003593922" lon="-6.205106992274523">
        <ele>14.56</ele>
        <time>2023-08-27T13:15:14Z</time>
      </trkpt>
      <trkpt lat="57.414463022723794" lon="-6.206080969423056">
        <ele>16</ele>
        <time>2023-08-27T13:15:19Z</time>
      </trkpt>
      <trkpt lat="57.41544303484261" lon="-6.207861034199596">
        <ele>16.48</ele>
        <time>2023-08-27T13:15:30Z</time>
      </trkpt>
      <trkpt lat="57.416535029187799" lon="-6.209380002692342">
        <ele>14.56</ele>
        <time>2023-08-27T13:15:41Z</time>
      </trkpt>
      <trkpt lat="57.416896959766746" lon="-6.209687031805515">
        <ele>14.56</ele>
        <time>2023-08-27T13:15:45Z</time>
      </trkpt>
      <trkpt lat="57.41772199049592" lon="-6.210430003702641">
        <ele>13.119999999999999</ele>
        <time>2023-08-27T13:15:53Z</time>
      </trkpt>
      <trkpt lat="57.419511023908854" lon="-6.211572038009763">
        <ele>14.56</ele>
        <time>2023-08-27T13:16:07Z</time>
      </trkpt>
      <trkpt lat="57.421172987669706" lon="-6.212295982986689">
        <ele>17.920000000000002</ele>
        <time>2023-08-27T13:16:18Z</time>
      </trkpt>
      <trkpt lat="57.422775020822883" lon="-6.212998973205686">
        <ele>25.609999999999999</ele>
        <time>2023-08-27T13:16:28Z</time>
      </trkpt>
      <trkpt lat="57.424242021515965" lon="-6.213857028633356">
        <ele>33.780000000000001</ele>
        <time>2023-08-27T13:16:38Z</time>
      </trkpt>
      <trkpt lat="57.426603036001325" lon="-6.215255968272686">
        <ele>42.439999999999998</ele>
        <time>2023-08-27T13:16:51Z</time>
      </trkpt>
      <trkpt lat="57.429365962743759" lon="-6.21708900667727">
        <ele>45.799999999999997</ele>
        <time>2023-08-27T13:17:06Z</time>
      </trkpt>
      <trkpt lat="57.431463031098247" lon="-6.218940988183022">
        <ele>50.609999999999999</ele>
        <time>2023-08-27T13:17:18Z</time>
      </trkpt>
      <trkpt lat="57.43332096375525" lon="-6.221023974940181">
        <ele>52.049999999999997</ele>
        <time>2023-08-27T13:17:29Z</time>
      </trkpt>
      <trkpt lat="57.434788970276713" lon="-6.222001975402236">
        <ele>57.82</ele>
        <time>2023-08-27T13:17:37Z</time>
      </trkpt>
      <trkpt lat="57.435310995206237" lon="-6.222268017008901">
        <ele>60.700000000000003</ele>
        <time>2023-08-27T13:17:40Z</time>
      </trkpt>
      <trkpt lat="57.435462037101388" lon="-6.22235200367868">
        <ele>61.659999999999997</ele>
        <time>2023-08-27T13:17:41Z</time>
      </trkpt>
      <trkpt lat="57.435579970479012" lon="-6.222505979239941">
        <ele>63.100000000000001</ele>
        <time>2023-08-27T13:17:42Z</time>
      </trkpt>
      <trkpt lat="57.435692036524415" lon="-6.222678981721401">
        <ele>64.549999999999997</ele>
        <time>2023-08-27T13:17:43Z</time>
      </trkpt>
      <trkpt lat="57.43578901514411" lon="-6.222904035821557">
        <ele>65.989999999999995</ele>
        <time>2023-08-27T13:17:44Z</time>
      </trkpt>
      <trkpt lat="57.435890017077327" lon="-6.223141998052597">
        <ele>66.950000000000003</ele>
        <time>2023-08-27T13:17:45Z</time>
      </trkpt>
      <trkpt lat="57.43690699338913" lon="-6.225104033946991">
        <ele>72.239999999999995</ele>
        <time>2023-08-27T13:17:53Z</time>
      </trkpt>
      <trkpt lat="57.437260961160064" lon="-6.225811969488859">
        <ele>74.159999999999997</ele>
        <time>2023-08-27T13:17:56Z</time>
      </trkpt>
      <trkpt lat="57.437335979193449" lon="-6.22609200887382">
        <ele>74.640000000000001</ele>
        <time>2023-08-27T13:17:57Z</time>
      </trkpt>
      <trkpt lat="57.437410997226834" lon="-6.22636903077364">
        <ele>75.120000000000005</ele>
        <time>2023-08-27T13:17:58Z</time>
      </trkpt>
      <trkpt lat="57.437484003603458" lon="-6.226638006046414">
        <ele>76.079999999999998</ele>
        <time>2023-08-27T13:17:59Z</time>
      </trkpt>
      <trkpt lat="57.437544018030167" lon="-6.226912010461092">
        <ele>77.040000000000006</ele>
        <time>2023-08-27T13:18:00Z</time>
      </trkpt>
      <trkpt lat="57.43759598582983" lon="-6.227193977683783">
        <ele>78</ele>
        <time>2023-08-27T13:18:01Z</time>
      </trkpt>
      <trkpt lat="57.437649965286255" lon="-6.227482985705137">
        <ele>78.969999999999999</ele>
        <time>2023-08-27T13:18:02Z</time>
      </trkpt>
      <trkpt lat="57.437719032168388" lon="-6.227769982069731">
        <ele>79.930000000000007</ele>
        <time>2023-08-27T13:18:03Z</time>
      </trkpt>
      <trkpt lat="57.438456974923611" lon="-6.230556964874268">
        <ele>89.540000000000006</ele>
        <time>2023-08-27T13:18:12Z</time>
      </trkpt>
      <trkpt lat="57.439087964594364" lon="-6.233466994017363">
        <ele>100.11</ele>
        <time>2023-08-27T13:18:21Z</time>
      </trkpt>
      <trkpt lat="57.439515022560954" lon="-6.236380040645599">
        <ele>107.81</ele>
        <time>2023-08-27T13:18:30Z</time>
      </trkpt>
      <trkpt lat="57.439934033900499" lon="-6.239806981757283">
        <ele>105.40000000000001</ele>
        <time>2023-08-27T13:18:40Z</time>
      </trkpt>
      <trkpt lat="57.440074011683464" lon="-6.24057199805975">
        <ele>105.40000000000001</ele>
        <time>2023-08-27T13:18:43Z</time>
      </trkpt>
      <trkpt lat="57.440128996968269" lon="-6.240792023018003">
        <ele>105.40000000000001</ele>
        <time>2023-08-27T13:18:44Z</time>
      </trkpt>
      <trkpt lat="57.440205020830035" lon="-6.240961002185941">
        <ele>105.88</ele>
        <time>2023-08-27T13:18:45Z</time>
      </trkpt>
      <trkpt lat="57.440304011106491" lon="-6.24110902659595">
        <ele>105.88</ele>
        <time>2023-08-27T13:18:46Z</time>
      </trkpt>
      <trkpt lat="57.440415993332863" lon="-6.241232994943857">
        <ele>106.36</ele>
        <time>2023-08-27T13:18:47Z</time>
      </trkpt>
      <trkpt lat="57.440547002479434" lon="-6.241316981613636">
        <ele>107.31999999999999</ele>
        <time>2023-08-27T13:18:48Z</time>
      </trkpt>
      <trkpt lat="57.440684968605638" lon="-6.241405997425318">
        <ele>107.81</ele>
        <time>2023-08-27T13:18:49Z</time>
      </trkpt>
      <trkpt lat="57.442220030352473" lon="-6.242589019238949">
        <ele>113.09</ele>
        <time>2023-08-27T13:18:59Z</time>
      </trkpt>
      <trkpt lat="57.443341026082635" lon="-6.244241008535028">
        <ele>109.25</ele>
        <time>2023-08-27T13:19:07Z</time>
      </trkpt>
      <trkpt lat="57.444647010415792" lon="-6.246514013037086">
        <ele>97.230000000000004</ele>
        <time>2023-08-27T13:19:17Z</time>
      </trkpt>
      <trkpt lat="57.445485033094883" lon="-6.248152004554868">
        <ele>90.980000000000004</ele>
        <time>2023-08-27T13:19:24Z</time>
      </trkpt>
      <trkpt lat="57.445625010877848" lon="-6.24832802452147">
        <ele>90.019999999999996</ele>
        <time>2023-08-27T13:19:25Z</time>
      </trkpt>
      <trkpt lat="57.445771023631096" lon="-6.248485017567873">
        <ele>89.540000000000006</ele>
        <time>2023-08-27T13:19:26Z</time>
      </trkpt>
      <trkpt lat="57.447007019072771" lon="-6.249698968604207">
        <ele>85.689999999999998</ele>
        <time>2023-08-27T13:19:34Z</time>
      </trkpt>
      <trkpt lat="57.448334963992238" lon="-6.251676008105278">
        <ele>81.370000000000005</ele>
        <time>2023-08-27T13:19:43Z</time>
      </trkpt>
      <trkpt lat="57.449168963357806" lon="-6.253977008163929">
        <ele>78</ele>
        <time>2023-08-27T13:19:51Z</time>
      </trkpt>
      <trkpt lat="57.450231034308672" lon="-6.257673008367419">
        <ele>73.680000000000007</ele>
        <time>2023-08-27T13:20:02Z</time>
      </trkpt>
      <trkpt lat="57.450563041493297" lon="-6.25945801846683">
        <ele>71.269999999999996</ele>
        <time>2023-08-27T13:20:08Z</time>
      </trkpt>
      <trkpt lat="57.451051035895944" lon="-6.262799967080355">
        <ele>64.069999999999993</ele>
        <time>2023-08-27T13:20:21Z</time>
      </trkpt>
      <trkpt lat="57.450949028134346" lon="-6.264798967167735">
        <ele>59.740000000000002</ele>
        <time>2023-08-27T13:20:28Z</time>
      </trkpt>
      <trkpt lat="57.450674017891288" lon="-6.26852497458458">
        <ele>53.490000000000002</ele>
        <time>2023-08-27T13:20:38Z</time>
      </trkpt>
      <trkpt lat="57.45067703537643" lon="-6.273817978799343">
        <ele>47.719999999999999</ele>
        <time>2023-08-27T13:20:51Z</time>
      </trkpt>
      <trkpt lat="57.450773008167744" lon="-6.276896987110376">
        <ele>41.469999999999999</ele>
        <time>2023-08-27T13:21:00Z</time>
      </trkpt>
      <trkpt lat="57.45093796402216" lon="-6.281176032498479">
        <ele>32.82</ele>
        <time>2023-08-27T13:21:14Z</time>
      </trkpt>
      <trkpt lat="57.451179027557373" lon="-6.283772997558117">
        <ele>31.379999999999999</ele>
        <time>2023-08-27T13:21:24Z</time>
      </trkpt>
      <trkpt lat="57.451187996193767" lon="-6.28386503085494">
        <ele>31.379999999999999</ele>
        <time>2023-08-27T13:21:25Z</time>
      </trkpt>
      <trkpt lat="57.451132005080581" lon="-6.284031998366118">
        <ele>31.379999999999999</ele>
        <time>2023-08-27T13:21:26Z</time>
      </trkpt>
      <trkpt lat="57.45108800008893" lon="-6.284047001972795">
        <ele>31.379999999999999</ele>
        <time>2023-08-27T13:21:27Z</time>
      </trkpt>
      <trkpt lat="57.451037038117647" lon="-6.284064017236233">
        <ele>31.379999999999999</ele>
        <time>2023-08-27T13:21:28Z</time>
      </trkpt>
      <trkpt lat="57.45097802951932" lon="-6.284083966165781">
        <ele>31.379999999999999</ele>
        <time>2023-08-27T13:21:29Z</time>
      </trkpt>
      <trkpt lat="57.450921032577753" lon="-6.284103998914361">
        <ele>31.379999999999999</ele>
        <time>2023-08-27T13:21:30Z</time>
      </trkpt>
      <trkpt lat="57.450864035636187" lon="-6.28412302583456">
        <ele>30.899999999999999</ele>
        <time>2023-08-27T13:21:31Z</time>
      </trkpt>
      <trkpt lat="57.450143024325371" lon="-6.28427498973906">
        <ele>29.940000000000001</ele>
        <time>2023-08-27T13:21:42Z</time>
      </trkpt>
      <trkpt lat="57.450006986036897" lon="-6.284268032759428">
        <ele>29.460000000000001</ele>
        <time>2023-08-27T13:21:44Z</time>
      </trkpt>
      <trkpt lat="57.449745973572135" lon="-6.284113973379135">
        <ele>28.98</ele>
        <time>2023-08-27T13:21:48Z</time>
      </trkpt>
      <trkpt lat="57.449537012726068" lon="-6.283935019746423">
        <ele>28.02</ele>
        <time>2023-08-27T13:21:51Z</time>
      </trkpt>
      <trkpt lat="57.449458977207541" lon="-6.283812979236245">
        <ele>27.530000000000001</ele>
        <time>2023-08-27T13:21:52Z</time>
      </trkpt>
      <trkpt lat="57.449373984709382" lon="-6.283679958432913">
        <ele>27.050000000000001</ele>
        <time>2023-08-27T13:21:53Z</time>
      </trkpt>
      <trkpt lat="57.44893996976316" lon="-6.283002030104399">
        <ele>24.170000000000002</ele>
        <time>2023-08-27T13:21:58Z</time>
      </trkpt>
      <trkpt lat="57.448883978649974" lon="-6.282914020121098">
        <ele>23.690000000000001</ele>
        <time>2023-08-27T13:21:59Z</time>
      </trkpt>
      <trkpt lat="57.44878901168704" lon="-6.282914020121098">
        <ele>23.690000000000001</ele>
        <time>2023-08-27T13:22:00Z</time>
      </trkpt>
      <trkpt lat="57.448709970340133" lon="-6.282914020121098">
        <ele>23.210000000000001</ele>
        <time>2023-08-27T13:22:01Z</time>
      </trkpt>
      <trkpt lat="57.448635958135128" lon="-6.282928017899394">
        <ele>23.210000000000001</ele>
        <time>2023-08-27T13:22:02Z</time>
      </trkpt>
      <trkpt lat="57.448562029749155" lon="-6.283023990690708">
        <ele>22.73</ele>
        <time>2023-08-27T13:22:03Z</time>
      </trkpt>
      <trkpt lat="57.448496986180544" lon="-6.283106971532106">
        <ele>22.73</ele>
        <time>2023-08-27T13:22:04Z</time>
      </trkpt>
      <trkpt lat="57.448419034481049" lon="-6.283275028690696">
        <ele>22.73</ele>
        <time>2023-08-27T13:22:05Z</time>
      </trkpt>
      <trkpt lat="57.448346028104424" lon="-6.283429004251957">
        <ele>22.73</ele>
        <time>2023-08-27T13:22:06Z</time>
      </trkpt>
      <trkpt lat="57.447661980986595" lon="-6.284884018823504">
        <ele>21.289999999999999</ele>
        <time>2023-08-27T13:22:17Z</time>
      </trkpt>
      <trkpt lat="57.44687701575458" lon="-6.28612102009356">
        <ele>20.809999999999999</ele>
        <time>2023-08-27T13:22:27Z</time>
      </trkpt>
      <trkpt lat="57.446801997721195" lon="-6.286239959299564">
        <ele>20.809999999999999</ele>
        <time>2023-08-27T13:22:28Z</time>
      </trkpt>
      <trkpt lat="57.446712981909513" lon="-6.286298967897892">
        <ele>20.809999999999999</ele>
        <time>2023-08-27T13:22:29Z</time>
      </trkpt>
      <trkpt lat="57.446622038260102" lon="-6.286359988152981">
        <ele>21.289999999999999</ele>
        <time>2023-08-27T13:22:30Z</time>
      </trkpt>
      <trkpt lat="57.446520030498505" lon="-6.286375997588038">
        <ele>21.289999999999999</ele>
        <time>2023-08-27T13:22:31Z</time>
      </trkpt>
      <trkpt lat="57.446405030786991" lon="-6.286386977881193">
        <ele>21.289999999999999</ele>
        <time>2023-08-27T13:22:32Z</time>
      </trkpt>
      <trkpt lat="57.446288019418716" lon="-6.286349007859826">
        <ele>20.809999999999999</ele>
        <time>2023-08-27T13:22:33Z</time>
      </trkpt>
      <trkpt lat="57.446164973080158" lon="-6.286289999261499">
        <ele>20.809999999999999</ele>
        <time>2023-08-27T13:22:34Z</time>
      </trkpt>
      <trkpt lat="57.446041004732251" lon="-6.286230990663171">
        <ele>20.809999999999999</ele>
        <time>2023-08-27T13:22:35Z</time>
      </trkpt>
      <trkpt lat="57.445919970050454" lon="-6.286171982064843">
        <ele>21.289999999999999</ele>
        <time>2023-08-27T13:22:36Z</time>
      </trkpt>
      <trkpt lat="57.445788960903883" lon="-6.286139041185379">
        <ele>21.289999999999999</ele>
        <time>2023-08-27T13:22:37Z</time>
      </trkpt>
      <trkpt lat="57.445657029747963" lon="-6.286156978458166">
        <ele>21.289999999999999</ele>
        <time>2023-08-27T13:22:38Z</time>
      </trkpt>
      <trkpt lat="57.445103991776705" lon="-6.286285975947976">
        <ele>21.77</ele>
        <time>2023-08-27T13:22:42Z</time>
      </trkpt>
      <trkpt lat="57.445002989843488" lon="-6.286349007859826">
        <ele>22.25</ele>
        <time>2023-08-27T13:22:43Z</time>
      </trkpt>
      <trkpt lat="57.444936018437147" lon="-6.286389995366335">
        <ele>22.25</ele>
        <time>2023-08-27T13:22:44Z</time>
      </trkpt>
      <trkpt lat="57.444868041202426" lon="-6.286525027826428">
        <ele>22.73</ele>
        <time>2023-08-27T13:22:45Z</time>
      </trkpt>
      <trkpt lat="57.444799980148673" lon="-6.286661988124251">
        <ele>22.73</ele>
        <time>2023-08-27T13:22:46Z</time>
      </trkpt>
      <trkpt lat="57.444721022620797" lon="-6.286818981170654">
        <ele>22.73</ele>
        <time>2023-08-27T13:22:47Z</time>
      </trkpt>
      <trkpt lat="57.444667965173721" lon="-6.287020985037088">
        <ele>23.210000000000001</ele>
        <time>2023-08-27T13:22:48Z</time>
      </trkpt>
      <trkpt lat="57.444369988515973" lon="-6.288187997415662">
        <ele>24.170000000000002</ele>
        <time>2023-08-27T13:22:53Z</time>
      </trkpt>
      <trkpt lat="57.444230010733008" lon="-6.288840025663376">
        <ele>24.170000000000002</ele>
        <time>2023-08-27T13:22:56Z</time>
      </trkpt>
      <trkpt lat="57.444182988256216" lon="-6.289054015651345">
        <ele>24.170000000000002</ele>
        <time>2023-08-27T13:22:57Z</time>
      </trkpt>
      <trkpt lat="57.444100007414818" lon="-6.289231963455677">
        <ele>24.170000000000002</ele>
        <time>2023-08-27T13:22:58Z</time>
      </trkpt>
      <trkpt lat="57.443680996075273" lon="-6.290126983076334">
        <ele>24.649999999999999</ele>
        <time>2023-08-27T13:23:03Z</time>
      </trkpt>
      <trkpt lat="57.443631961941719" lon="-6.290232008323073">
        <ele>24.649999999999999</ele>
        <time>2023-08-27T13:23:04Z</time>
      </trkpt>
      <trkpt lat="57.443561973050237" lon="-6.290381038561463">
        <ele>24.170000000000002</ele>
        <time>2023-08-27T13:23:05Z</time>
      </trkpt>
      <trkpt lat="57.443501958623528" lon="-6.290371986106038">
        <ele>24.170000000000002</ele>
        <time>2023-08-27T13:23:06Z</time>
      </trkpt>
      <trkpt lat="57.443403974175453" lon="-6.290353965014219">
        <ele>24.170000000000002</ele>
        <time>2023-08-27T13:23:07Z</time>
      </trkpt>
      <trkpt lat="57.44330900721252" lon="-6.290279030799866">
        <ele>24.170000000000002</ele>
        <time>2023-08-27T13:23:08Z</time>
      </trkpt>
      <trkpt lat="57.443199958652258" lon="-6.290192026644945">
        <ele>24.170000000000002</ele>
        <time>2023-08-27T13:23:09Z</time>
      </trkpt>
      <trkpt lat="57.442139983177185" lon="-6.289229029789567">
        <ele>27.530000000000001</ele>
        <time>2023-08-27T13:23:18Z</time>
      </trkpt>
      <trkpt lat="57.441809987649322" lon="-6.288947984576225">
        <ele>28.02</ele>
        <time>2023-08-27T13:23:21Z</time>
      </trkpt>
      <trkpt lat="57.441704040393233" lon="-6.288940021768212">
        <ele>28.5</ele>
        <time>2023-08-27T13:23:22Z</time>
      </trkpt>
      <trkpt lat="57.441449984908104" lon="-6.288929963484407">
        <ele>28.98</ele>
        <time>2023-08-27T13:23:24Z</time>
      </trkpt>
      <trkpt lat="57.440136959776282" lon="-6.289100032299757">
        <ele>30.420000000000002</ele>
        <time>2023-08-27T13:23:32Z</time>
      </trkpt>
      <trkpt lat="57.439174968749285" lon="-6.289255013689399">
        <ele>34.259999999999998</ele>
        <time>2023-08-27T13:23:39Z</time>
      </trkpt>
      <trkpt lat="57.438766015693545" lon="-6.289276974275708">
        <ele>36.670000000000002</ele>
        <time>2023-08-27T13:23:43Z</time>
      </trkpt>
      <trkpt lat="57.438665013760328" lon="-6.289234980940819">
        <ele>37.149999999999999</ele>
        <time>2023-08-27T13:23:44Z</time>
      </trkpt>
      <trkpt lat="57.438252959400415" lon="-6.2890649959445">
        <ele>39.549999999999997</ele>
        <time>2023-08-27T13:23:48Z</time>
      </trkpt>
      <trkpt lat="57.438137959688902" lon="-6.289087040349841">
        <ele>40.030000000000001</ele>
        <time>2023-08-27T13:23:49Z</time>
      </trkpt>
      <trkpt lat="57.438037041574717" lon="-6.289131967350841">
        <ele>40.030000000000001</ele>
        <time>2023-08-27T13:23:50Z</time>
      </trkpt>
      <trkpt lat="57.4379360396415" lon="-6.289177983999252">
        <ele>40.509999999999998</ele>
        <time>2023-08-27T13:23:51Z</time>
      </trkpt>
      <trkpt lat="57.437835959717631" lon="-6.289221988990903">
        <ele>40.990000000000002</ele>
        <time>2023-08-27T13:23:52Z</time>
      </trkpt>
      <trkpt lat="57.43774401023984" lon="-6.289262976497412">
        <ele>41.469999999999999</ele>
        <time>2023-08-27T13:23:53Z</time>
      </trkpt>
      <trkpt lat="57.4376580119133" lon="-6.289302036166191">
        <ele>41.950000000000003</ele>
        <time>2023-08-27T13:23:54Z</time>
      </trkpt>
      <trkpt lat="57.437580982223153" lon="-6.289314022287726">
        <ele>42.439999999999998</ele>
        <time>2023-08-27T13:23:55Z</time>
      </trkpt>
      <trkpt lat="57.43750898167491" lon="-6.289242021739483">
        <ele>43.399999999999999</ele>
        <time>2023-08-27T13:23:56Z</time>
      </trkpt>
      <trkpt lat="57.437435975298285" lon="-6.289139008149505">
        <ele>43.880000000000003</ele>
        <time>2023-08-27T13:23:57Z</time>
      </trkpt>
      <trkpt lat="57.437366992235184" lon="-6.289004981517792">
        <ele>44.840000000000003</ele>
        <time>2023-08-27T13:23:58Z</time>
      </trkpt>
      <trkpt lat="57.437292980030179" lon="-6.288859974592924">
        <ele>45.32</ele>
        <time>2023-08-27T13:23:59Z</time>
      </trkpt>
      <trkpt lat="57.436956027522683" lon="-6.288292016834021">
        <ele>48.200000000000003</ele>
        <time>2023-08-27T13:24:03Z</time>
      </trkpt>
      <trkpt lat="57.436861982569098" lon="-6.288175005465746">
        <ele>49.159999999999997</ele>
        <time>2023-08-27T13:24:04Z</time>
      </trkpt>
      <trkpt lat="57.436766009777784" lon="-6.288089007139206">
        <ele>49.649999999999999</ele>
        <time>2023-08-27T13:24:05Z</time>
      </trkpt>
      <trkpt lat="57.43667003698647" lon="-6.288024969398975">
        <ele>50.609999999999999</ele>
        <time>2023-08-27T13:24:06Z</time>
      </trkpt>
      <trkpt lat="57.436570040881634" lon="-6.287991022691131">
        <ele>51.57</ele>
        <time>2023-08-27T13:24:07Z</time>
      </trkpt>
      <trkpt lat="57.436469960957766" lon="-6.287976019084454">
        <ele>52.049999999999997</ele>
        <time>2023-08-27T13:24:08Z</time>
      </trkpt>
      <trkpt lat="57.436368959024549" lon="-6.287962021306157">
        <ele>53.009999999999998</ele>
        <time>2023-08-27T13:24:09Z</time>
      </trkpt>
      <trkpt lat="57.436269968748093" lon="-6.287909969687462">
        <ele>53.969999999999999</ele>
        <time>2023-08-27T13:24:10Z</time>
      </trkpt>
      <trkpt lat="57.436170978471637" lon="-6.287836041301489">
        <ele>54.93</ele>
        <time>2023-08-27T13:24:11Z</time>
      </trkpt>
      <trkpt lat="57.435902003198862" lon="-6.287634037435055">
        <ele>57.340000000000003</ele>
        <time>2023-08-27T13:24:14Z</time>
      </trkpt>
      <trkpt lat="57.435827990993857" lon="-6.287612998858094">
        <ele>57.82</ele>
        <time>2023-08-27T13:24:15Z</time>
      </trkpt>
      <trkpt lat="57.435740986838937" lon="-6.287597995251417">
        <ele>58.299999999999997</ele>
        <time>2023-08-27T13:24:16Z</time>
      </trkpt>
      <trkpt lat="57.435651971027255" lon="-6.287658009678125">
        <ele>58.780000000000001</ele>
        <time>2023-08-27T13:24:17Z</time>
      </trkpt>
      <trkpt lat="57.435550969094038" lon="-6.287724981084466">
        <ele>58.780000000000001</ele>
        <time>2023-08-27T13:24:18Z</time>
      </trkpt>
      <trkpt lat="57.435003966093063" lon="-6.288239965215325">
        <ele>60.219999999999999</ele>
        <time>2023-08-27T13:24:24Z</time>
      </trkpt>
      <trkpt lat="57.4349329713732" lon="-6.288261003792286">
        <ele>60.219999999999999</ele>
        <time>2023-08-27T13:24:25Z</time>
      </trkpt>
      <trkpt lat="57.434786036610603" lon="-6.288302997127175">
        <ele>59.740000000000002</ele>
        <time>2023-08-27T13:24:27Z</time>
      </trkpt>
      <trkpt lat="57.434721998870373" lon="-6.288321018218994">
        <ele>59.740000000000002</ele>
        <time>2023-08-27T13:24:28Z</time>
      </trkpt>
      <trkpt lat="57.43467103689909" lon="-6.288253040984273">
        <ele>59.740000000000002</ele>
        <time>2023-08-27T13:24:29Z</time>
      </trkpt>
      <trkpt lat="57.434618985280395" lon="-6.28818397410214">
        <ele>59.740000000000002</ele>
        <time>2023-08-27T13:24:30Z</time>
      </trkpt>
      <trkpt lat="57.434585960581899" lon="-6.288105016574264">
        <ele>59.740000000000002</ele>
        <time>2023-08-27T13:24:31Z</time>
      </trkpt>
      <trkpt lat="57.434567017480731" lon="-6.287974007427692">
        <ele>60.219999999999999</ele>
        <time>2023-08-27T13:24:32Z</time>
      </trkpt>
      <trkpt lat="57.43454497307539" lon="-6.287830006331205">
        <ele>60.219999999999999</ele>
        <time>2023-08-27T13:24:33Z</time>
      </trkpt>
      <trkpt lat="57.434519995003939" lon="-6.287663038820028">
        <ele>61.18</ele>
        <time>2023-08-27T13:24:34Z</time>
      </trkpt>
      <trkpt lat="57.434490993618965" lon="-6.287462962791324">
        <ele>61.659999999999997</ele>
        <time>2023-08-27T13:24:35Z</time>
      </trkpt>
      <trkpt lat="57.434113975614309" lon="-6.285972995683551">
        <ele>65.030000000000001</ele>
        <time>2023-08-27T13:24:42Z</time>
      </trkpt>
      <trkpt lat="57.434070976451039" lon="-6.285769985988736">
        <ele>65.030000000000001</ele>
        <time>2023-08-27T13:24:43Z</time>
      </trkpt>
      <trkpt lat="57.434035018086433" lon="-6.285595977678895">
        <ele>65.510000000000005</ele>
        <time>2023-08-27T13:24:44Z</time>
      </trkpt>
      <trkpt lat="57.434025965631008" lon="-6.285382993519306">
        <ele>65.989999999999995</ele>
        <time>2023-08-27T13:24:45Z</time>
      </trkpt>
      <trkpt lat="57.433946002274752" lon="-6.283432021737099">
        <ele>70.310000000000002</ele>
        <time>2023-08-27T13:24:54Z</time>
      </trkpt>
      <trkpt lat="57.433811975643039" lon="-6.281353980302811">
        <ele>70.790000000000006</ele>
        <time>2023-08-27T13:25:03Z</time>
      </trkpt>
      <trkpt lat="57.433740980923176" lon="-6.280525010079145">
        <ele>71.269999999999996</ele>
        <time>2023-08-27T13:25:07Z</time>
      </trkpt>
      <trkpt lat="57.433713991194963" lon="-6.280401963740587">
        <ele>71.269999999999996</ele>
        <time>2023-08-27T13:25:08Z</time>
      </trkpt>
      <trkpt lat="57.433653976768255" lon="-6.280271960422397">
        <ele>71.760000000000005</ele>
        <time>2023-08-27T13:25:09Z</time>
      </trkpt>
      <trkpt lat="57.433587005361915" lon="-6.28012896515429">
        <ele>71.760000000000005</ele>
        <time>2023-08-27T13:25:10Z</time>
      </trkpt>
      <trkpt lat="57.433513998985291" lon="-6.279972977936268">
        <ele>71.760000000000005</ele>
        <time>2023-08-27T13:25:11Z</time>
      </trkpt>
      <trkpt lat="57.432873034849763" lon="-6.278356024995446">
        <ele>68.870000000000005</ele>
        <time>2023-08-27T13:25:19Z</time>
      </trkpt>
      <trkpt lat="57.432177001610398" lon="-6.276750974357128">
        <ele>65.989999999999995</ele>
        <time>2023-08-27T13:25:28Z</time>
      </trkpt>
      <trkpt lat="57.431409973651171" lon="-6.275496035814285">
        <ele>61.659999999999997</ele>
        <time>2023-08-27T13:25:37Z</time>
      </trkpt>
      <trkpt lat="57.430835980921984" lon="-6.27505699172616">
        <ele>61.18</ele>
        <time>2023-08-27T13:25:46Z</time>
      </trkpt>
      <trkpt lat="57.430132990702987" lon="-6.274613002315164">
        <ele>64.069999999999993</ele>
        <time>2023-08-27T13:25:59Z</time>
      </trkpt>
      <trkpt lat="57.42930200882256" lon="-6.273653022944927">
        <ele>68.390000000000001</ele>
        <time>2023-08-27T13:26:07Z</time>
      </trkpt>
      <trkpt lat="57.428024020045996" lon="-6.271958034485579">
        <ele>75.599999999999994</ele>
        <time>2023-08-27T13:26:18Z</time>
      </trkpt>
      <trkpt lat="57.427224973216653" lon="-6.270976010710001">
        <ele>78</ele>
        <time>2023-08-27T13:26:26Z</time>
      </trkpt>
      <trkpt lat="57.426650980487466" lon="-6.270292969420552">
        <ele>78</ele>
        <time>2023-08-27T13:26:32Z</time>
      </trkpt>
      <trkpt lat="57.426565987989306" lon="-6.270150979980826">
        <ele>78</ele>
        <time>2023-08-27T13:26:33Z</time>
      </trkpt>
      <trkpt lat="57.426480995491147" lon="-6.270012008026242">
        <ele>78.480000000000004</ele>
        <time>2023-08-27T13:26:34Z</time>
      </trkpt>
      <trkpt lat="57.426159968599677" lon="-6.269481014460325">
        <ele>80.409999999999997</ele>
        <time>2023-08-27T13:26:38Z</time>
      </trkpt>
      <trkpt lat="57.426095008850098" lon="-6.26942602917552">
        <ele>80.890000000000001</ele>
        <time>2023-08-27T13:26:39Z</time>
      </trkpt>
      <trkpt lat="57.425185991451144" lon="-6.268846001476049">
        <ele>83.290000000000006</ele>
        <time>2023-08-27T13:26:47Z</time>
      </trkpt>
      <trkpt lat="57.424866976216435" lon="-6.268640980124474">
        <ele>84.25</ele>
        <time>2023-08-27T13:26:50Z</time>
      </trkpt>
      <trkpt lat="57.424763962626457" lon="-6.268561016768217">
        <ele>84.730000000000004</ele>
        <time>2023-08-27T13:26:51Z</time>
      </trkpt>
      <trkpt lat="57.42465902119875" lon="-6.268464960157871">
        <ele>85.209999999999994</ele>
        <time>2023-08-27T13:26:52Z</time>
      </trkpt>
      <trkpt lat="57.42457302287221" lon="-6.268341997638345">
        <ele>85.689999999999998</ele>
        <time>2023-08-27T13:26:53Z</time>
      </trkpt>
      <trkpt lat="57.424498004838824" lon="-6.268234038725495">
        <ele>86.659999999999997</ele>
        <time>2023-08-27T13:26:54Z</time>
      </trkpt>
      <trkpt lat="57.423842959105968" lon="-6.267159981653094">
        <ele>90.5</ele>
        <time>2023-08-27T13:27:03Z</time>
      </trkpt>
      <trkpt lat="57.423219010233879" lon="-6.266019036993384">
        <ele>91.939999999999998</ele>
        <time>2023-08-27T13:27:12Z</time>
      </trkpt>
      <trkpt lat="57.423179028555751" lon="-6.26594603061676">
        <ele>91.939999999999998</ele>
        <time>2023-08-27T13:27:13Z</time>
      </trkpt>
      <trkpt lat="57.423144998028874" lon="-6.265884004533291">
        <ele>92.420000000000002</ele>
        <time>2023-08-27T13:27:14Z</time>
      </trkpt>
      <trkpt lat="57.42311499081552" lon="-6.265830025076866">
        <ele>92.420000000000002</ele>
        <time>2023-08-27T13:27:15Z</time>
      </trkpt>
      <trkpt lat="57.423069979995489" lon="-6.265747966244817">
        <ele>92.420000000000002</ele>
        <time>2023-08-27T13:27:16Z</time>
      </trkpt>
      <trkpt lat="57.4230279866606" lon="-6.265832036733627">
        <ele>92.420000000000002</ele>
        <time>2023-08-27T13:27:17Z</time>
      </trkpt>
      <trkpt lat="57.423002002760768" lon="-6.26588299870491">
        <ele>92.420000000000002</ele>
        <time>2023-08-27T13:27:18Z</time>
      </trkpt>
      <trkpt lat="57.422976018860936" lon="-6.265934966504574">
        <ele>92.420000000000002</ele>
        <time>2023-08-27T13:27:19Z</time>
      </trkpt>
      <trkpt lat="57.42296596057713" lon="-6.265996992588043">
        <ele>92.420000000000002</ele>
        <time>2023-08-27T13:27:20Z</time>
      </trkpt>
      <trkpt lat="57.422976018860936" lon="-6.266088020056486">
        <ele>92.420000000000002</ele>
        <time>2023-08-27T13:27:21Z</time>
      </trkpt>
      <trkpt lat="57.422989010810852" lon="-6.266208970919251">
        <ele>91.939999999999998</ele>
        <time>2023-08-27T13:27:22Z</time>
      </trkpt>
      <trkpt lat="57.4231350235641" lon="-6.267572036013007">
        <ele>94.349999999999994</ele>
        <time>2023-08-27T13:27:29Z</time>
      </trkpt>
      <trkpt lat="57.423118008300662" lon="-6.2677519954741">
        <ele>95.310000000000002</ele>
        <time>2023-08-27T13:27:30Z</time>
      </trkpt>
      <trkpt lat="57.423101998865604" lon="-6.267933966591954">
        <ele>96.269999999999996</ele>
        <time>2023-08-27T13:27:31Z</time>
      </trkpt>
      <trkpt lat="57.423069979995489" lon="-6.26809598878026">
        <ele>97.709999999999994</ele>
        <time>2023-08-27T13:27:32Z</time>
      </trkpt>
      <trkpt lat="57.423012983053923" lon="-6.268239989876747">
        <ele>98.189999999999998</ele>
        <time>2023-08-27T13:27:33Z</time>
      </trkpt>
      <trkpt lat="57.422949029132724" lon="-6.268398994579911">
        <ele>99.150000000000006</ele>
        <time>2023-08-27T13:27:34Z</time>
      </trkpt>
      <trkpt lat="57.422879040241241" lon="-6.268575014546514">
        <ele>100.11</ele>
        <time>2023-08-27T13:27:35Z</time>
      </trkpt>
      <trkpt lat="57.422738978639245" lon="-6.26897600479424">
        <ele>102.04000000000001</ele>
        <time>2023-08-27T13:27:37Z</time>
      </trkpt>
      <trkpt lat="57.422689022496343" lon="-6.269199969246984">
        <ele>103</ele>
        <time>2023-08-27T13:27:38Z</time>
      </trkpt>
      <trkpt lat="57.422659015282989" lon="-6.269429968670011">
        <ele>103.48</ele>
        <time>2023-08-27T13:27:39Z</time>
      </trkpt>
      <trkpt lat="57.422629008069634" lon="-6.269661979749799">
        <ele>104.44</ele>
        <time>2023-08-27T13:27:40Z</time>
      </trkpt>
      <trkpt lat="57.422620039433241" lon="-6.269907988607884">
        <ele>105.40000000000001</ele>
        <time>2023-08-27T13:27:41Z</time>
      </trkpt>
      <trkpt lat="57.422620039433241" lon="-6.270177969709039">
        <ele>105.88</ele>
        <time>2023-08-27T13:27:42Z</time>
      </trkpt>
      <trkpt lat="57.422677036374807" lon="-6.273600971326232">
        <ele>104.92</ele>
        <time>2023-08-27T13:27:53Z</time>
      </trkpt>
      <trkpt lat="57.422731015831232" lon="-6.276524998247623">
        <ele>109.25</ele>
        <time>2023-08-27T13:28:03Z</time>
      </trkpt>
      <trkpt lat="57.422672007232904" lon="-6.27739897929132">
        <ele>109.73</ele>
        <time>2023-08-27T13:28:08Z</time>
      </trkpt>
      <trkpt lat="57.42259900085628" lon="-6.27791496925056">
        <ele>108.77</ele>
        <time>2023-08-27T13:28:15Z</time>
      </trkpt>
      <trkpt lat="57.422293983399868" lon="-6.279303012415767">
        <ele>105.88</ele>
        <time>2023-08-27T13:28:22Z</time>
      </trkpt>
      <trkpt lat="57.42169601842761" lon="-6.281536035239697">
        <ele>101.08</ele>
        <time>2023-08-27T13:28:32Z</time>
      </trkpt>
      <trkpt lat="57.420928990468383" lon="-6.283705020323396">
        <ele>92.420000000000002</ele>
        <time>2023-08-27T13:28:42Z</time>
      </trkpt>
      <trkpt lat="57.420485001057386" lon="-6.285684993490577">
        <ele>98.189999999999998</ele>
        <time>2023-08-27T13:28:51Z</time>
      </trkpt>
      <trkpt lat="57.419803971424699" lon="-6.28794701769948">
        <ele>103</ele>
        <time>2023-08-27T13:29:01Z</time>
      </trkpt>
      <trkpt lat="57.41922402754426" lon="-6.290884036570787">
        <ele>103</ele>
        <time>2023-08-27T13:29:12Z</time>
      </trkpt>
      <trkpt lat="57.419072985649109" lon="-6.291565988212824">
        <ele>103.95999999999999</ele>
        <time>2023-08-27T13:29:15Z</time>
      </trkpt>
      <trkpt lat="57.419010959565639" lon="-6.291762962937355">
        <ele>104.44</ele>
        <time>2023-08-27T13:29:16Z</time>
      </trkpt>
      <trkpt lat="57.418930996209383" lon="-6.29192003980279">
        <ele>104.44</ele>
        <time>2023-08-27T13:29:17Z</time>
      </trkpt>
      <trkpt lat="57.418850027024746" lon="-6.292053982615471">
        <ele>105.40000000000001</ele>
        <time>2023-08-27T13:29:18Z</time>
      </trkpt>
      <trkpt lat="57.418765034526587" lon="-6.292193038389087">
        <ele>105.40000000000001</ele>
        <time>2023-08-27T13:29:19Z</time>
      </trkpt>
      <trkpt lat="57.418661015108228" lon="-6.292305020615459">
        <ele>104.92</ele>
        <time>2023-08-27T13:29:20Z</time>
      </trkpt>
      <trkpt lat="57.418540986254811" lon="-6.292428988963366">
        <ele>104.44</ele>
        <time>2023-08-27T13:29:21Z</time>
      </trkpt>
      <trkpt lat="57.417633980512619" lon="-6.293544033542275">
        <ele>100.11</ele>
        <time>2023-08-27T13:29:28Z</time>
      </trkpt>
      <trkpt lat="57.416744995862246" lon="-6.29454298876226">
        <ele>91.939999999999998</ele>
        <time>2023-08-27T13:29:34Z</time>
      </trkpt>
      <trkpt lat="57.415560968220234" lon="-6.295905970036984">
        <ele>78.480000000000004</ele>
        <time>2023-08-27T13:29:43Z</time>
      </trkpt>
      <trkpt lat="57.415324011817575" lon="-6.296023987233639">
        <ele>75.599999999999994</ele>
        <time>2023-08-27T13:29:45Z</time>
      </trkpt>
      <trkpt lat="57.415189985185862" lon="-6.296205958351493">
        <ele>74.159999999999997</ele>
        <time>2023-08-27T13:29:46Z</time>
      </trkpt>
      <trkpt lat="57.414203016087413" lon="-6.29753096960485">
        <ele>75.120000000000005</ele>
        <time>2023-08-27T13:29:53Z</time>
      </trkpt>
      <trkpt lat="57.413692977279425" lon="-6.298041008412838">
        <ele>79.450000000000003</ele>
        <time>2023-08-27T13:29:57Z</time>
      </trkpt>
      <trkpt lat="57.413606978952885" lon="-6.298247035592794">
        <ele>80.409999999999997</ele>
        <time>2023-08-27T13:29:58Z</time>
      </trkpt>
      <trkpt lat="57.413517041131854" lon="-6.298463959246874">
        <ele>81.849999999999994</ele>
        <time>2023-08-27T13:29:59Z</time>
      </trkpt>
      <trkpt lat="57.413332974538207" lon="-6.29890501499176">
        <ele>84.730000000000004</ele>
        <time>2023-08-27T13:30:01Z</time>
      </trkpt>
      <trkpt lat="57.413229960948229" lon="-6.299108024686575">
        <ele>86.180000000000007</ele>
        <time>2023-08-27T13:30:02Z</time>
      </trkpt>
      <trkpt lat="57.413103980943561" lon="-6.299244984984398">
        <ele>87.620000000000005</ele>
        <time>2023-08-27T13:30:03Z</time>
      </trkpt>
      <trkpt lat="57.412971965968609" lon="-6.299389991909266">
        <ele>89.060000000000002</ele>
        <time>2023-08-27T13:30:04Z</time>
      </trkpt>
      <trkpt lat="57.412836011499166" lon="-6.299538016319275">
        <ele>90.980000000000004</ele>
        <time>2023-08-27T13:30:05Z</time>
      </trkpt>
      <trkpt lat="57.412366038188338" lon="-6.300050988793373">
        <ele>97.709999999999994</ele>
        <time>2023-08-27T13:30:09Z</time>
      </trkpt>
      <trkpt lat="57.412293031811714" lon="-6.300166994333267">
        <ele>99.629999999999995</ele>
        <time>2023-08-27T13:30:10Z</time>
      </trkpt>
      <trkpt lat="57.412234023213387" lon="-6.300312001258135">
        <ele>101.56</ele>
        <time>2023-08-27T13:30:11Z</time>
      </trkpt>
      <trkpt lat="57.412173002958298" lon="-6.300462959334254">
        <ele>103</ele>
        <time>2023-08-27T13:30:12Z</time>
      </trkpt>
      <trkpt lat="57.412105025723577" lon="-6.300629004836083">
        <ele>103.95999999999999</ele>
        <time>2023-08-27T13:30:13Z</time>
      </trkpt>
      <trkpt lat="57.411507982760668" lon="-6.302039008587599">
        <ele>111.17</ele>
        <time>2023-08-27T13:30:20Z</time>
      </trkpt>
      <trkpt lat="57.410295037552714" lon="-6.303926026448607">
        <ele>122.70999999999999</ele>
        <time>2023-08-27T13:30:30Z</time>
      </trkpt>
      <trkpt lat="57.40955600515008" lon="-6.305255983024836">
        <ele>129.43000000000001</ele>
        <time>2023-08-27T13:30:37Z</time>
      </trkpt>
      <trkpt lat="57.409460032358766" lon="-6.30543895997107">
        <ele>129.91999999999999</ele>
        <time>2023-08-27T13:30:38Z</time>
      </trkpt>
      <trkpt lat="57.409367999061942" lon="-6.305656973272562">
        <ele>130.40000000000001</ele>
        <time>2023-08-27T13:30:39Z</time>
      </trkpt>
      <trkpt lat="57.408661991357803" lon="-6.307964008301497">
        <ele>131.84</ele>
        <time>2023-08-27T13:30:48Z</time>
      </trkpt>
      <trkpt lat="57.408623015508056" lon="-6.30818797275424">
        <ele>131.84</ele>
        <time>2023-08-27T13:30:49Z</time>
      </trkpt>
      <trkpt lat="57.408606000244617" lon="-6.308412021026015">
        <ele>132.31999999999999</ele>
        <time>2023-08-27T13:30:50Z</time>
      </trkpt>
      <trkpt lat="57.408602982759476" lon="-6.308649983257055">
        <ele>132.31999999999999</ele>
        <time>2023-08-27T13:30:51Z</time>
      </trkpt>
      <trkpt lat="57.408598959445953" lon="-6.308899009600282">
        <ele>132.31999999999999</ele>
        <time>2023-08-27T13:30:52Z</time>
      </trkpt>
      <trkpt lat="57.408622009679675" lon="-6.310200970619917">
        <ele>130.40000000000001</ele>
        <time>2023-08-27T13:30:59Z</time>
      </trkpt>
      <trkpt lat="57.408638019114733" lon="-6.310370033606887">
        <ele>129.91999999999999</ele>
        <time>2023-08-27T13:31:00Z</time>
      </trkpt>
      <trkpt lat="57.408726029098034" lon="-6.311530005186796">
        <ele>127.03</ele>
        <time>2023-08-27T13:31:05Z</time>
      </trkpt>
      <trkpt lat="57.408704990521073" lon="-6.311766961589456">
        <ele>126.55</ele>
        <time>2023-08-27T13:31:06Z</time>
      </trkpt>
      <trkpt lat="57.408674983307719" lon="-6.312006013467908">
        <ele>126.55</ele>
        <time>2023-08-27T13:31:07Z</time>
      </trkpt>
      <trkpt lat="57.408630978316069" lon="-6.312245987355709">
        <ele>126.06999999999999</ele>
        <time>2023-08-27T13:31:08Z</time>
      </trkpt>
      <trkpt lat="57.408585967496037" lon="-6.312497025355697">
        <ele>125.11</ele>
        <time>2023-08-27T13:31:09Z</time>
      </trkpt>
      <trkpt lat="57.408511033281684" lon="-6.312985019758344">
        <ele>123.67</ele>
        <time>2023-08-27T13:31:11Z</time>
      </trkpt>
      <trkpt lat="57.408493012189865" lon="-6.313224993646145">
        <ele>123.19</ele>
        <time>2023-08-27T13:31:12Z</time>
      </trkpt>
      <trkpt lat="57.40848496556282" lon="-6.313448958098888">
        <ele>122.70999999999999</ele>
        <time>2023-08-27T13:31:13Z</time>
      </trkpt>
      <trkpt lat="57.408514972776175" lon="-6.313679963350296">
        <ele>122.22</ele>
        <time>2023-08-27T13:31:14Z</time>
      </trkpt>
      <trkpt lat="57.408545985817909" lon="-6.31392203271389">
        <ele>121.26000000000001</ele>
        <time>2023-08-27T13:31:15Z</time>
      </trkpt>
      <trkpt lat="57.408616980537772" lon="-6.314571965485811">
        <ele>119.34</ele>
        <time>2023-08-27T13:31:18Z</time>
      </trkpt>
      <trkpt lat="57.408626032993197" lon="-6.314760977402329">
        <ele>118.86</ele>
        <time>2023-08-27T13:31:19Z</time>
      </trkpt>
      <trkpt lat="57.408573981374502" lon="-6.314945966005325">
        <ele>118.38</ele>
        <time>2023-08-27T13:31:20Z</time>
      </trkpt>
      <trkpt lat="57.40850399248302" lon="-6.31510597653687">
        <ele>117.90000000000001</ele>
        <time>2023-08-27T13:31:21Z</time>
      </trkpt>
      <trkpt lat="57.40841899998486" lon="-6.31525500677526">
        <ele>117.90000000000001</ele>
        <time>2023-08-27T13:31:22Z</time>
      </trkpt>
      <trkpt lat="57.408316992223263" lon="-6.315408982336521">
        <ele>117.90000000000001</ele>
        <time>2023-08-27T13:31:23Z</time>
      </trkpt>
      <trkpt lat="57.40745197981596" lon="-6.316776992753148">
        <ele>119.81999999999999</ele>
        <time>2023-08-27T13:31:30Z</time>
      </trkpt>
      <trkpt lat="57.407361036166549" lon="-6.317005986347795">
        <ele>119.81999999999999</ele>
        <time>2023-08-27T13:31:31Z</time>
      </trkpt>
      <trkpt lat="57.407267997041345" lon="-6.317235985770822">
        <ele>120.3</ele>
        <time>2023-08-27T13:31:32Z</time>
      </trkpt>
      <trkpt lat="57.407194990664721" lon="-6.317499009892345">
        <ele>120.3</ele>
        <time>2023-08-27T13:31:33Z</time>
      </trkpt>
      <trkpt lat="57.407157020643353" lon="-6.317765973508358">
        <ele>120.3</ele>
        <time>2023-08-27T13:31:34Z</time>
      </trkpt>
      <trkpt lat="57.407138999551535" lon="-6.3180279918015">
        <ele>120.3</ele>
        <time>2023-08-27T13:31:35Z</time>
      </trkpt>
      <trkpt lat="57.407127013429999" lon="-6.318292021751404">
        <ele>120.3</ele>
        <time>2023-08-27T13:31:36Z</time>
      </trkpt>
      <trkpt lat="57.407115027308464" lon="-6.31856401450932">
        <ele>120.3</ele>
        <time>2023-08-27T13:31:37Z</time>
      </trkpt>
      <trkpt lat="57.407017964869738" lon="-6.320274006575346">
        <ele>121.26000000000001</ele>
        <time>2023-08-27T13:31:43Z</time>
      </trkpt>
      <trkpt lat="57.406826019287109" lon="-6.322566037997603">
        <ele>123.19</ele>
        <time>2023-08-27T13:31:51Z</time>
      </trkpt>
      <trkpt lat="57.406225958839059" lon="-6.324626980349422">
        <ele>119.81999999999999</ele>
        <time>2023-08-27T13:31:59Z</time>
      </trkpt>
      <trkpt lat="57.406107019633055" lon="-6.324807023629546">
        <ele>118.86</ele>
        <time>2023-08-27T13:32:00Z</time>
      </trkpt>
      <trkpt lat="57.405991014093161" lon="-6.324980026111007">
        <ele>118.38</ele>
        <time>2023-08-27T13:32:01Z</time>
      </trkpt>
      <trkpt lat="57.405655989423394" lon="-6.32548201829195">
        <ele>116.94</ele>
        <time>2023-08-27T13:32:04Z</time>
      </trkpt>
      <trkpt lat="57.405568985268474" lon="-6.325671030208468">
        <ele>116.45999999999999</ele>
        <time>2023-08-27T13:32:05Z</time>
      </trkpt>
      <trkpt lat="57.405479969456792" lon="-6.325893988832831">
        <ele>115.5</ele>
        <time>2023-08-27T13:32:06Z</time>
      </trkpt>
      <trkpt lat="57.405076967552304" lon="-6.32690099067986">
        <ele>114.05</ele>
        <time>2023-08-27T13:32:10Z</time>
      </trkpt>
      <trkpt lat="57.4049580283463" lon="-6.327111041173339">
        <ele>114.53</ele>
        <time>2023-08-27T13:32:11Z</time>
      </trkpt>
      <trkpt lat="57.403931999579072" lon="-6.328913988545537">
        <ele>115.5</ele>
        <time>2023-08-27T13:32:20Z</time>
      </trkpt>
      <trkpt lat="57.403846001252532" lon="-6.329066036269069">
        <ele>115.98</ele>
        <time>2023-08-27T13:32:21Z</time>
      </trkpt>
      <trkpt lat="57.403795039281249" lon="-6.329252030700445">
        <ele>116.45999999999999</ele>
        <time>2023-08-27T13:32:22Z</time>
      </trkpt>
      <trkpt lat="57.403754973784089" lon="-6.329439030960202">
        <ele>116.94</ele>
        <time>2023-08-27T13:32:23Z</time>
      </trkpt>
      <trkpt lat="57.403737958520651" lon="-6.329648997634649">
        <ele>117.42</ele>
        <time>2023-08-27T13:32:24Z</time>
      </trkpt>
      <trkpt lat="57.403723038733006" lon="-6.329846978187561">
        <ele>117.90000000000001</ele>
        <time>2023-08-27T13:32:25Z</time>
      </trkpt>
      <trkpt lat="57.403709040954709" lon="-6.330026015639305">
        <ele>118.38</ele>
        <time>2023-08-27T13:32:26Z</time>
      </trkpt>
      <trkpt lat="57.403686996549368" lon="-6.330366991460323">
        <ele>119.34</ele>
        <time>2023-08-27T13:32:28Z</time>
      </trkpt>
      <trkpt lat="57.403679033741355" lon="-6.330537982285023">
        <ele>119.81999999999999</ele>
        <time>2023-08-27T13:32:29Z</time>
      </trkpt>
      <trkpt lat="57.403664030134678" lon="-6.330712996423245">
        <ele>120.78</ele>
        <time>2023-08-27T13:32:30Z</time>
      </trkpt>
      <trkpt lat="57.403625976294279" lon="-6.330864960327745">
        <ele>121.26000000000001</ele>
        <time>2023-08-27T13:32:31Z</time>
      </trkpt>
      <trkpt lat="57.403568979352713" lon="-6.330998986959457">
        <ele>121.73999999999999</ele>
        <time>2023-08-27T13:32:32Z</time>
      </trkpt>
      <trkpt lat="57.403501002117991" lon="-6.331108035519719">
        <ele>123.19</ele>
        <time>2023-08-27T13:32:33Z</time>
      </trkpt>
      <trkpt lat="57.403409974649549" lon="-6.331167966127396">
        <ele>123.67</ele>
        <time>2023-08-27T13:32:34Z</time>
      </trkpt>
      <trkpt lat="57.403315007686615" lon="-6.331232003867626">
        <ele>124.15000000000001</ele>
        <time>2023-08-27T13:32:35Z</time>
      </trkpt>
      <trkpt lat="57.403243007138371" lon="-6.331279026344419">
        <ele>125.11</ele>
        <time>2023-08-27T13:32:36Z</time>
      </trkpt>
      <trkpt lat="57.40317502990365" lon="-6.331444988027215">
        <ele>126.06999999999999</ele>
        <time>2023-08-27T13:32:37Z</time>
      </trkpt>
      <trkpt lat="57.403122978284955" lon="-6.331571973860264">
        <ele>127.03</ele>
        <time>2023-08-27T13:32:38Z</time>
      </trkpt>
      <trkpt lat="57.403077967464924" lon="-6.331723015755415">
        <ele>127.98999999999999</ele>
        <time>2023-08-27T13:32:39Z</time>
      </trkpt>
      <trkpt lat="57.403042009100318" lon="-6.331917978823185">
        <ele>128.47</ele>
        <time>2023-08-27T13:32:40Z</time>
      </trkpt>
      <trkpt lat="57.403000015765429" lon="-6.33214202709496">
        <ele>128.94999999999999</ele>
        <time>2023-08-27T13:32:41Z</time>
      </trkpt>
      <trkpt lat="57.402563989162445" lon="-6.334343031048775">
        <ele>134.72</ele>
        <time>2023-08-27T13:32:49Z</time>
      </trkpt>
      <trkpt lat="57.402417976409197" lon="-6.335010984912515">
        <ele>137.13</ele>
        <time>2023-08-27T13:32:54Z</time>
      </trkpt>
      <trkpt lat="57.402408001944423" lon="-6.335054989904165">
        <ele>138.09</ele>
        <time>2023-08-27T13:32:58Z</time>
      </trkpt>
      <trkpt lat="57.402398027479649" lon="-6.335102012380958">
        <ele>138.56999999999999</ele>
        <time>2023-08-27T13:32:59Z</time>
      </trkpt>
      <trkpt lat="57.402382018044591" lon="-6.335173007100821">
        <ele>139.05000000000001</ele>
        <time>2023-08-27T13:33:00Z</time>
      </trkpt>
      <trkpt lat="57.402357961982489" lon="-6.335281971842051">
        <ele>139.53</ele>
        <time>2023-08-27T13:33:01Z</time>
      </trkpt>
      <trkpt lat="57.402328960597515" lon="-6.335412980988622">
        <ele>139.53</ele>
        <time>2023-08-27T13:33:02Z</time>
      </trkpt>
      <trkpt lat="57.402291996404529" lon="-6.335565028712153">
        <ele>140.00999999999999</ele>
        <time>2023-08-27T13:33:03Z</time>
      </trkpt>
      <trkpt lat="57.402228964492679" lon="-6.335706012323499">
        <ele>140.00999999999999</ele>
        <time>2023-08-27T13:33:04Z</time>
      </trkpt>
      <trkpt lat="57.402157969772816" lon="-6.335864011198282">
        <ele>140.00999999999999</ele>
        <time>2023-08-27T13:33:05Z</time>
      </trkpt>
      <trkpt lat="57.40208001807332" lon="-6.336039025336504">
        <ele>140.00999999999999</ele>
        <time>2023-08-27T13:33:06Z</time>
      </trkpt>
      <trkpt lat="57.401646003127098" lon="-6.336679989472032">
        <ele>140.49000000000001</ele>
        <time>2023-08-27T13:33:10Z</time>
      </trkpt>
      <trkpt lat="57.401511976495385" lon="-6.336820973083377">
        <ele>140.49000000000001</ele>
        <time>2023-08-27T13:33:11Z</time>
      </trkpt>
      <trkpt lat="57.401365963742137" lon="-6.33693303912878">
        <ele>140.97</ele>
        <time>2023-08-27T13:33:12Z</time>
      </trkpt>
      <trkpt lat="57.400497011840343" lon="-6.337437964975834">
        <ele>141.44999999999999</ele>
        <time>2023-08-27T13:33:18Z</time>
      </trkpt>
      <trkpt lat="57.400009017437696" lon="-6.337423967197537">
        <ele>143.84999999999999</ele>
        <time>2023-08-27T13:33:22Z</time>
      </trkpt>
      <trkpt lat="57.399530997499824" lon="-6.337308967486024">
        <ele>147.69999999999999</ele>
        <time>2023-08-27T13:33:26Z</time>
      </trkpt>
      <trkpt lat="57.399388002231717" lon="-6.33736495859921">
        <ele>148.66</ele>
        <time>2023-08-27T13:33:27Z</time>
      </trkpt>
      <trkpt lat="57.39926696754992" lon="-6.337411981076002">
        <ele>149.13999999999999</ele>
        <time>2023-08-27T13:33:28Z</time>
      </trkpt>
      <trkpt lat="57.399145010858774" lon="-6.337459003552795">
        <ele>150.09999999999999</ele>
        <time>2023-08-27T13:33:29Z</time>
      </trkpt>
      <trkpt lat="57.399035040289164" lon="-6.337597975507379">
        <ele>150.09999999999999</ele>
        <time>2023-08-27T13:33:30Z</time>
      </trkpt>
      <trkpt lat="57.398928003385663" lon="-6.337733007967472">
        <ele>150.58000000000001</ele>
        <time>2023-08-27T13:33:31Z</time>
      </trkpt>
      <trkpt lat="57.398819038644433" lon="-6.337870974093676">
        <ele>151.06</ele>
        <time>2023-08-27T13:33:32Z</time>
      </trkpt>
      <trkpt lat="57.398708984255791" lon="-6.338010029867292">
        <ele>151.06</ele>
        <time>2023-08-27T13:33:33Z</time>
      </trkpt>
      <trkpt lat="57.398600019514561" lon="-6.338145984336734">
        <ele>152.03</ele>
        <time>2023-08-27T13:33:34Z</time>
      </trkpt>
      <trkpt lat="57.398290978744626" lon="-6.338535994291306">
        <ele>153.47</ele>
        <time>2023-08-27T13:33:37Z</time>
      </trkpt>
      <trkpt lat="57.39823398180306" lon="-6.33867203257978">
        <ele>153.94999999999999</ele>
        <time>2023-08-27T13:33:38Z</time>
      </trkpt>
      <trkpt lat="57.39821202121675" lon="-6.338836988434196">
        <ele>154.43000000000001</ele>
        <time>2023-08-27T13:33:39Z</time>
      </trkpt>
      <trkpt lat="57.398187965154648" lon="-6.339021977037191">
        <ele>154.43000000000001</ele>
        <time>2023-08-27T13:33:40Z</time>
      </trkpt>
      <trkpt lat="57.398160975426435" lon="-6.339226998388767">
        <ele>154.43000000000001</ele>
        <time>2023-08-27T13:33:41Z</time>
      </trkpt>
      <trkpt lat="57.398133985698223" lon="-6.339437970891595">
        <ele>154.43000000000001</ele>
        <time>2023-08-27T13:33:42Z</time>
      </trkpt>
      <trkpt lat="57.398088974878192" lon="-6.339625976979733">
        <ele>154.91</ele>
        <time>2023-08-27T13:33:43Z</time>
      </trkpt>
      <trkpt lat="57.398002976551652" lon="-6.339767966419458">
        <ele>154.91</ele>
        <time>2023-08-27T13:33:44Z</time>
      </trkpt>
      <trkpt lat="57.397913038730621" lon="-6.339914985001087">
        <ele>154.91</ele>
        <time>2023-08-27T13:33:45Z</time>
      </trkpt>
      <trkpt lat="57.397827040404081" lon="-6.340056974440813">
        <ele>154.91</ele>
        <time>2023-08-27T13:33:46Z</time>
      </trkpt>
      <trkpt lat="57.397725032642484" lon="-6.340116988867521">
        <ele>154.91</ele>
        <time>2023-08-27T13:33:47Z</time>
      </trkpt>
      <trkpt lat="57.397624030709267" lon="-6.340160993859172">
        <ele>154.91</ele>
        <time>2023-08-27T13:33:48Z</time>
      </trkpt>
      <trkpt lat="57.397527974098921" lon="-6.340153031051159">
        <ele>154.91</ele>
        <time>2023-08-27T13:33:49Z</time>
      </trkpt>
      <trkpt lat="57.397428983822465" lon="-6.340141966938973">
        <ele>154.91</ele>
        <time>2023-08-27T13:33:50Z</time>
      </trkpt>
      <trkpt lat="57.397328987717628" lon="-6.340129980817437">
        <ele>154.91</ele>
        <time>2023-08-27T13:33:51Z</time>
      </trkpt>
      <trkpt lat="57.397235026583076" lon="-6.340120006352663">
        <ele>154.91</ele>
        <time>2023-08-27T13:33:52Z</time>
      </trkpt>
      <trkpt lat="57.397123966366053" lon="-6.340158982202411">
        <ele>154.91</ele>
        <time>2023-08-27T13:33:53Z</time>
      </trkpt>
      <trkpt lat="57.397007960826159" lon="-6.34019996970892">
        <ele>154.91</ele>
        <time>2023-08-27T13:33:54Z</time>
      </trkpt>
      <trkpt lat="57.396869994699955" lon="-6.340249003842473">
        <ele>154.91</ele>
        <time>2023-08-27T13:33:55Z</time>
      </trkpt>
      <trkpt lat="57.396747032180429" lon="-6.340335002169013">
        <ele>154.91</ele>
        <time>2023-08-27T13:33:56Z</time>
      </trkpt>
      <trkpt lat="57.395623018965125" lon="-6.341126002371311">
        <ele>152.50999999999999</ele>
        <time>2023-08-27T13:34:03Z</time>
      </trkpt>
      <trkpt lat="57.395497038960457" lon="-6.341214012354612">
        <ele>152.50999999999999</ele>
        <time>2023-08-27T13:34:04Z</time>
      </trkpt>
      <trkpt lat="57.395353959873319" lon="-6.341214012354612">
        <ele>152.50999999999999</ele>
        <time>2023-08-27T13:34:05Z</time>
      </trkpt>
      <trkpt lat="57.39522797986865" lon="-6.341214012354612">
        <ele>152.99000000000001</ele>
        <time>2023-08-27T13:34:06Z</time>
      </trkpt>
      <trkpt lat="57.395109040662646" lon="-6.341214012354612">
        <ele>152.99000000000001</ele>
        <time>2023-08-27T13:34:07Z</time>
      </trkpt>
      <trkpt lat="57.394999992102385" lon="-6.341214012354612">
        <ele>153.47</ele>
        <time>2023-08-27T13:34:08Z</time>
      </trkpt>
      <trkpt lat="57.394894966855645" lon="-6.341214012354612">
        <ele>153.94999999999999</ele>
        <time>2023-08-27T13:34:09Z</time>
      </trkpt>
      <trkpt lat="57.394809974357486" lon="-6.341214012354612">
        <ele>153.94999999999999</ele>
        <time>2023-08-27T13:34:10Z</time>
      </trkpt>
      <trkpt lat="57.394696986302733" lon="-6.341356001794338">
        <ele>154.43000000000001</ele>
        <time>2023-08-27T13:34:11Z</time>
      </trkpt>
      <trkpt lat="57.394604030996561" lon="-6.341473013162613">
        <ele>154.43000000000001</ele>
        <time>2023-08-27T13:34:12Z</time>
      </trkpt>
      <trkpt lat="57.394505962729454" lon="-6.341595975682139">
        <ele>154.43000000000001</ele>
        <time>2023-08-27T13:34:13Z</time>
      </trkpt>
      <trkpt lat="57.394400015473366" lon="-6.341728996485472">
        <ele>154.91</ele>
        <time>2023-08-27T13:34:14Z</time>
      </trkpt>
      <trkpt lat="57.393204001709819" lon="-6.343204965814948">
        <ele>153.94999999999999</ele>
        <time>2023-08-27T13:34:23Z</time>
      </trkpt>
      <trkpt lat="57.39176700823009" lon="-6.344924010336399">
        <ele>149.13999999999999</ele>
        <time>2023-08-27T13:34:33Z</time>
      </trkpt>
      <trkpt lat="57.39125101827085" lon="-6.345566986128688">
        <ele>145.78</ele>
        <time>2023-08-27T13:34:39Z</time>
      </trkpt>
      <trkpt lat="57.391183041036129" lon="-6.345669999718666">
        <ele>145.30000000000001</ele>
        <time>2023-08-27T13:34:40Z</time>
      </trkpt>
      <trkpt lat="57.391107017174363" lon="-6.34578600525856">
        <ele>144.81999999999999</ele>
        <time>2023-08-27T13:34:41Z</time>
      </trkpt>
      <trkpt lat="57.390419030562043" lon="-6.346788983792067">
        <ele>142.88999999999999</ele>
        <time>2023-08-27T13:34:47Z</time>
      </trkpt>
      <trkpt lat="57.388851027935743" lon="-6.348440973088145">
        <ele>142.41</ele>
        <time>2023-08-27T13:34:58Z</time>
      </trkpt>
      <trkpt lat="57.388131022453308" lon="-6.349445041269064">
        <ele>141.44999999999999</ele>
        <time>2023-08-27T13:35:05Z</time>
      </trkpt>
      <trkpt lat="57.387809995561838" lon="-6.350024985149503">
        <ele>140.97</ele>
        <time>2023-08-27T13:35:08Z</time>
      </trkpt>
      <trkpt lat="57.387680998072028" lon="-6.350155994296074">
        <ele>140.97</ele>
        <time>2023-08-27T13:35:09Z</time>
      </trkpt>
      <trkpt lat="57.387545965611935" lon="-6.350278034806252">
        <ele>140.97</ele>
        <time>2023-08-27T13:35:10Z</time>
      </trkpt>
      <trkpt lat="57.386406026780605" lon="-6.35150296613574">
        <ele>140.97</ele>
        <time>2023-08-27T13:35:18Z</time>
      </trkpt>
      <trkpt lat="57.385157039389014" lon="-6.352819008752704">
        <ele>139.53</ele>
        <time>2023-08-27T13:35:27Z</time>
      </trkpt>
      <trkpt lat="57.385038016363978" lon="-6.352997962385416">
        <ele>139.05000000000001</ele>
        <time>2023-08-27T13:35:28Z</time>
      </trkpt>
      <trkpt lat="57.384912958368659" lon="-6.353184040635824">
        <ele>138.56999999999999</ele>
        <time>2023-08-27T13:35:29Z</time>
      </trkpt>
      <trkpt lat="57.38469896838069" lon="-6.35367002338171">
        <ele>137.61000000000001</ele>
        <time>2023-08-27T13:35:31Z</time>
      </trkpt>
      <trkpt lat="57.384317005053163" lon="-6.354554984718561">
        <ele>134.72</ele>
        <time>2023-08-27T13:35:35Z</time>
      </trkpt>
      <trkpt lat="57.384232012555003" lon="-6.354753971099854">
        <ele>134.24000000000001</ele>
        <time>2023-08-27T13:35:36Z</time>
      </trkpt>
      <trkpt lat="57.384208962321281" lon="-6.354941977187991">
        <ele>133.75999999999999</ele>
        <time>2023-08-27T13:35:37Z</time>
      </trkpt>
      <trkpt lat="57.384181972593069" lon="-6.355155967175961">
        <ele>132.80000000000001</ele>
        <time>2023-08-27T13:35:38Z</time>
      </trkpt>
      <trkpt lat="57.384156994521618" lon="-6.355360988527536">
        <ele>131.84</ele>
        <time>2023-08-27T13:35:39Z</time>
      </trkpt>
      <trkpt lat="57.384080970659852" lon="-6.355983009561896">
        <ele>129.91999999999999</ele>
        <time>2023-08-27T13:35:42Z</time>
      </trkpt>
      <trkpt lat="57.384036965668201" lon="-6.356188030913472">
        <ele>128.94999999999999</ele>
        <time>2023-08-27T13:35:43Z</time>
      </trkpt>
      <trkpt lat="57.383952978998423" lon="-6.356333959847689">
        <ele>128.47</ele>
        <time>2023-08-27T13:35:44Z</time>
      </trkpt>
      <trkpt lat="57.383861029520631" lon="-6.356492964550853">
        <ele>127.98999999999999</ele>
        <time>2023-08-27T13:35:45Z</time>
      </trkpt>
      <trkpt lat="57.383764972910285" lon="-6.356659010052681">
        <ele>127.98999999999999</ele>
        <time>2023-08-27T13:35:46Z</time>
      </trkpt>
      <trkpt lat="57.382996017113328" lon="-6.357898022979498">
        <ele>131.84</ele>
        <time>2023-08-27T13:35:54Z</time>
      </trkpt>
      <trkpt lat="57.382902977988124" lon="-6.35801101103425">
        <ele>132.31999999999999</ele>
        <time>2023-08-27T13:35:55Z</time>
      </trkpt>
      <trkpt lat="57.382824020460248" lon="-6.358107989653945">
        <ele>132.80000000000001</ele>
        <time>2023-08-27T13:35:56Z</time>
      </trkpt>
      <trkpt lat="57.382761994376779" lon="-6.358221983537078">
        <ele>133.28</ele>
        <time>2023-08-27T13:35:57Z</time>
      </trkpt>
      <trkpt lat="57.382707009091973" lon="-6.358359027653933">
        <ele>134.24000000000001</ele>
        <time>2023-08-27T13:35:58Z</time>
      </trkpt>
      <trkpt lat="57.382640037685633" lon="-6.358523983508349">
        <ele>134.24000000000001</ele>
        <time>2023-08-27T13:35:59Z</time>
      </trkpt>
      <trkpt lat="57.382031008601189" lon="-6.359761990606785">
        <ele>136.16</ele>
        <time>2023-08-27T13:36:06Z</time>
      </trkpt>
      <trkpt lat="57.38194802775979" lon="-6.359912026673555">
        <ele>136.63999999999999</ele>
        <time>2023-08-27T13:36:07Z</time>
      </trkpt>
      <trkpt lat="57.381863035261631" lon="-6.360064996406436">
        <ele>137.13</ele>
        <time>2023-08-27T13:36:08Z</time>
      </trkpt>
      <trkpt lat="57.381102964282036" lon="-6.361688990145922">
        <ele>143.84999999999999</ele>
        <time>2023-08-27T13:36:16Z</time>
      </trkpt>
      <trkpt lat="57.380651012063026" lon="-6.362834963947535">
        <ele>143.37</ele>
        <time>2023-08-27T13:36:21Z</time>
      </trkpt>
      <trkpt lat="57.380615975707769" lon="-6.363045014441013">
        <ele>142.88999999999999</ele>
        <time>2023-08-27T13:36:22Z</time>
      </trkpt>
      <trkpt lat="57.380584040656686" lon="-6.363240983337164">
        <ele>142.41</ele>
        <time>2023-08-27T13:36:23Z</time>
      </trkpt>
      <trkpt lat="57.380552021786571" lon="-6.363438041880727">
        <ele>141.93000000000001</ele>
        <time>2023-08-27T13:36:24Z</time>
      </trkpt>
      <trkpt lat="57.380521008744836" lon="-6.363624958321452">
        <ele>140.97</ele>
        <time>2023-08-27T13:36:25Z</time>
      </trkpt>
      <trkpt lat="57.380469962954521" lon="-6.363796032965183">
        <ele>140.97</ele>
        <time>2023-08-27T13:36:26Z</time>
      </trkpt>
      <trkpt lat="57.380377007648349" lon="-6.3638970348984">
        <ele>140.49000000000001</ele>
        <time>2023-08-27T13:36:27Z</time>
      </trkpt>
      <trkpt lat="57.380273994058371" lon="-6.364008011296392">
        <ele>140.97</ele>
        <time>2023-08-27T13:36:28Z</time>
      </trkpt>
      <trkpt lat="57.38016402348876" lon="-6.364128040149808">
        <ele>140.97</ele>
        <time>2023-08-27T13:36:29Z</time>
      </trkpt>
      <trkpt lat="57.379281995818019" lon="-6.365079972893">
        <ele>140.49000000000001</ele>
        <time>2023-08-27T13:36:37Z</time>
      </trkpt>
      <trkpt lat="57.378455037251115" lon="-6.366290990263224">
        <ele>131.84</ele>
        <time>2023-08-27T13:36:44Z</time>
      </trkpt>
      <trkpt lat="57.37743403762579" lon="-6.368224024772644">
        <ele>118.38</ele>
        <time>2023-08-27T13:36:53Z</time>
      </trkpt>
      <trkpt lat="57.376483026891947" lon="-6.370356967672706">
        <ele>107.31999999999999</ele>
        <time>2023-08-27T13:37:02Z</time>
      </trkpt>
      <trkpt lat="57.376375989988446" lon="-6.370584033429623">
        <ele>106.36</ele>
        <time>2023-08-27T13:37:03Z</time>
      </trkpt>
      <trkpt lat="57.375864023342729" lon="-6.371579971164465">
        <ele>99.150000000000006</ele>
        <time>2023-08-27T13:37:08Z</time>
      </trkpt>
      <trkpt lat="57.375748017802835" lon="-6.371737970039249">
        <ele>97.709999999999994</ele>
        <time>2023-08-27T13:37:09Z</time>
      </trkpt>
      <trkpt lat="57.37554500810802" lon="-6.372013986110687">
        <ele>95.790000000000006</ele>
        <time>2023-08-27T13:37:11Z</time>
      </trkpt>
      <trkpt lat="57.375464038923383" lon="-6.372123034670949">
        <ele>95.310000000000002</ele>
        <time>2023-08-27T13:37:12Z</time>
      </trkpt>
      <trkpt lat="57.375415004789829" lon="-6.372274998575449">
        <ele>94.829999999999998</ele>
        <time>2023-08-27T13:37:13Z</time>
      </trkpt>
      <trkpt lat="57.375360019505024" lon="-6.372463004663587">
        <ele>94.349999999999994</ele>
        <time>2023-08-27T13:37:14Z</time>
      </trkpt>
      <trkpt lat="57.375298999249935" lon="-6.372670037671924">
        <ele>93.870000000000005</ele>
        <time>2023-08-27T13:37:15Z</time>
      </trkpt>
      <trkpt lat="57.374669015407562" lon="-6.374829970300198">
        <ele>88.579999999999998</ele>
        <time>2023-08-27T13:37:24Z</time>
      </trkpt>
      <trkpt lat="57.374404985457659" lon="-6.375681990757585">
        <ele>85.209999999999994</ele>
        <time>2023-08-27T13:37:28Z</time>
      </trkpt>
      <trkpt lat="57.374328961595893" lon="-6.375848958268762">
        <ele>84.730000000000004</ele>
        <time>2023-08-27T13:37:29Z</time>
      </trkpt>
      <trkpt lat="57.374231982976198" lon="-6.376062026247382">
        <ele>84.25</ele>
        <time>2023-08-27T13:37:30Z</time>
      </trkpt>
      <trkpt lat="57.374152019619942" lon="-6.376150958240032">
        <ele>83.769999999999996</ele>
        <time>2023-08-27T13:37:31Z</time>
      </trkpt>
      <trkpt lat="57.374041965231299" lon="-6.37627299875021">
        <ele>83.769999999999996</ele>
        <time>2023-08-27T13:37:32Z</time>
      </trkpt>
      <trkpt lat="57.372919041663408" lon="-6.377440011128783">
        <ele>81.849999999999994</ele>
        <time>2023-08-27T13:37:41Z</time>
      </trkpt>
      <trkpt lat="57.372516039758921" lon="-6.377828009426594">
        <ele>81.849999999999994</ele>
        <time>2023-08-27T13:37:45Z</time>
      </trkpt>
      <trkpt lat="57.372418977320194" lon="-6.377921970561147">
        <ele>81.849999999999994</ele>
        <time>2023-08-27T13:37:46Z</time>
      </trkpt>
      <trkpt lat="57.371564023196697" lon="-6.379276989027858">
        <ele>80.409999999999997</ele>
        <time>2023-08-27T13:37:54Z</time>
      </trkpt>
      <trkpt lat="57.370570013299584" lon="-6.381307002156973">
        <ele>74.640000000000001</ele>
        <time>2023-08-27T13:38:03Z</time>
      </trkpt>
      <trkpt lat="57.369488999247551" lon="-6.382496980950236">
        <ele>70.310000000000002</ele>
        <time>2023-08-27T13:38:11Z</time>
      </trkpt>
      <trkpt lat="57.368518961593509" lon="-6.383462995290756">
        <ele>69.349999999999994</ele>
        <time>2023-08-27T13:38:19Z</time>
      </trkpt>
      <trkpt lat="57.368419971317053" lon="-6.383600039407611">
        <ele>69.349999999999994</ele>
        <time>2023-08-27T13:38:20Z</time>
      </trkpt>
      <trkpt lat="57.368331961333752" lon="-6.383721996098757">
        <ele>69.349999999999994</ele>
        <time>2023-08-27T13:38:21Z</time>
      </trkpt>
      <trkpt lat="57.368275970220566" lon="-6.383902039378882">
        <ele>69.349999999999994</ele>
        <time>2023-08-27T13:38:22Z</time>
      </trkpt>
      <trkpt lat="57.368216961622238" lon="-6.384092979133129">
        <ele>68.870000000000005</ele>
        <time>2023-08-27T13:38:23Z</time>
      </trkpt>
      <trkpt lat="57.368156025186181" lon="-6.384293977171183">
        <ele>68.870000000000005</ele>
        <time>2023-08-27T13:38:24Z</time>
      </trkpt>
      <trkpt lat="57.368099028244615" lon="-6.38452397659421">
        <ele>68.390000000000001</ele>
        <time>2023-08-27T13:38:25Z</time>
      </trkpt>
      <trkpt lat="57.368037002161145" lon="-6.384770991280675">
        <ele>67.909999999999997</ele>
        <time>2023-08-27T13:38:26Z</time>
      </trkpt>
      <trkpt lat="57.367973970249295" lon="-6.385022029280663">
        <ele>67.430000000000007</ele>
        <time>2023-08-27T13:38:27Z</time>
      </trkpt>
      <trkpt lat="57.367895012721419" lon="-6.385246999561787">
        <ele>66.950000000000003</ele>
        <time>2023-08-27T13:38:28Z</time>
      </trkpt>
      <trkpt lat="57.367812031880021" lon="-6.38546995818615">
        <ele>66.950000000000003</ele>
        <time>2023-08-27T13:38:29Z</time>
      </trkpt>
      <trkpt lat="57.36757499165833" lon="-6.386110000312328">
        <ele>66.469999999999999</ele>
        <time>2023-08-27T13:38:32Z</time>
      </trkpt>
      <trkpt lat="57.367515983060002" lon="-6.386318961158395">
        <ele>66.469999999999999</ele>
        <time>2023-08-27T13:38:33Z</time>
      </trkpt>
      <trkpt lat="57.367265028879046" lon="-6.387553028762341">
        <ele>65.510000000000005</ele>
        <time>2023-08-27T13:38:39Z</time>
      </trkpt>
      <trkpt lat="57.3671879991889" lon="-6.387700969353318">
        <ele>65.030000000000001</ele>
        <time>2023-08-27T13:38:40Z</time>
      </trkpt>
      <trkpt lat="57.367100995033979" lon="-6.387843964621425">
        <ele>65.030000000000001</ele>
        <time>2023-08-27T13:38:41Z</time>
      </trkpt>
      <trkpt lat="57.367019020020962" lon="-6.387978997081518">
        <ele>65.030000000000001</ele>
        <time>2023-08-27T13:38:42Z</time>
      </trkpt>
      <trkpt lat="57.366933021694422" lon="-6.388121992349625">
        <ele>65.030000000000001</ele>
        <time>2023-08-27T13:38:43Z</time>
      </trkpt>
      <trkpt lat="57.366830008104444" lon="-6.388291977345944">
        <ele>64.549999999999997</ele>
        <time>2023-08-27T13:38:44Z</time>
      </trkpt>
      <trkpt lat="57.366763036698103" lon="-6.388476965948939">
        <ele>63.579999999999998</ele>
        <time>2023-08-27T13:38:45Z</time>
      </trkpt>
      <trkpt lat="57.366680977866054" lon="-6.388701014220715">
        <ele>63.100000000000001</ele>
        <time>2023-08-27T13:38:46Z</time>
      </trkpt>
      <trkpt lat="57.36581495963037" lon="-6.390804033726454">
        <ele>56.369999999999997</ele>
        <time>2023-08-27T13:38:54Z</time>
      </trkpt>
      <trkpt lat="57.365162009373307" lon="-6.392358038574457">
        <ele>53.490000000000002</ele>
        <time>2023-08-27T13:39:01Z</time>
      </trkpt>
      <trkpt lat="57.364619029685855" lon="-6.394199039787054">
        <ele>50.130000000000003</ele>
        <time>2023-08-27T13:39:09Z</time>
      </trkpt>
      <trkpt lat="57.364422976970673" lon="-6.394995991140604">
        <ele>47.240000000000002</ele>
        <time>2023-08-27T13:39:13Z</time>
      </trkpt>
      <trkpt lat="57.364378971979022" lon="-6.395176034420729">
        <ele>46.280000000000001</ele>
        <time>2023-08-27T13:39:14Z</time>
      </trkpt>
      <trkpt lat="57.363735996186733" lon="-6.396486964076757">
        <ele>36.670000000000002</ele>
        <time>2023-08-27T13:39:21Z</time>
      </trkpt>
      <trkpt lat="57.363201985135674" lon="-6.39711300842464">
        <ele>33.299999999999997</ele>
        <time>2023-08-27T13:39:27Z</time>
      </trkpt>
      <trkpt lat="57.362837959080935" lon="-6.39747703447938">
        <ele>31.859999999999999</ele>
        <time>2023-08-27T13:39:32Z</time>
      </trkpt>
      <trkpt lat="57.362749027088284" lon="-6.397533025592566">
        <ele>30.899999999999999</ele>
        <time>2023-08-27T13:39:33Z</time>
      </trkpt>
      <trkpt lat="57.362649030983448" lon="-6.397562026977539">
        <ele>29.940000000000001</ele>
        <time>2023-08-27T13:39:34Z</time>
      </trkpt>
      <trkpt lat="57.362306965515018" lon="-6.397605026140809">
        <ele>26.57</ele>
        <time>2023-08-27T13:39:37Z</time>
      </trkpt>
      <trkpt lat="57.362187020480633" lon="-6.397583987563849">
        <ele>25.129999999999999</ele>
        <time>2023-08-27T13:39:38Z</time>
      </trkpt>
      <trkpt lat="57.362064979970455" lon="-6.39756303280592">
        <ele>24.170000000000002</ele>
        <time>2023-08-27T13:39:39Z</time>
      </trkpt>
      <trkpt lat="57.361484030261636" lon="-6.397391958162189">
        <ele>16.960000000000001</ele>
        <time>2023-08-27T13:39:44Z</time>
      </trkpt>
      <trkpt lat="57.361396020278335" lon="-6.39730897732079">
        <ele>15.52</ele>
        <time>2023-08-27T13:39:45Z</time>
      </trkpt>
      <trkpt lat="57.361317984759808" lon="-6.397233959287405">
        <ele>14.56</ele>
        <time>2023-08-27T13:39:46Z</time>
      </trkpt>
      <trkpt lat="57.361246990039945" lon="-6.397166987881064">
        <ele>13.6</ele>
        <time>2023-08-27T13:39:47Z</time>
      </trkpt>
      <trkpt lat="57.361181024461985" lon="-6.397104039788246">
        <ele>12.15</ele>
        <time>2023-08-27T13:39:48Z</time>
      </trkpt>
      <trkpt lat="57.361142970621586" lon="-6.397069003432989">
        <ele>11.19</ele>
        <time>2023-08-27T13:39:49Z</time>
      </trkpt>
      <trkpt lat="57.361097037792206" lon="-6.397115020081401">
        <ele>9.75</ele>
        <time>2023-08-27T13:39:50Z</time>
      </trkpt>
      <trkpt lat="57.361066024750471" lon="-6.397146033123136">
        <ele>8.789999999999999</ele>
        <time>2023-08-27T13:39:51Z</time>
      </trkpt>
      <trkpt lat="57.361039035022259" lon="-6.397173022851348">
        <ele>7.83</ele>
        <time>2023-08-27T13:39:52Z</time>
      </trkpt>
      <trkpt lat="57.360925963148475" lon="-6.397153995931149">
        <ele>6.39</ele>
        <time>2023-08-27T13:39:53Z</time>
      </trkpt>
      <trkpt lat="57.360905008390546" lon="-6.397115020081401">
        <ele>4.46</ele>
        <time>2023-08-27T13:39:55Z</time>
      </trkpt>
      <trkpt lat="57.360476022586226" lon="-6.396436002105475">
        <ele>1.1</ele>
        <time>2023-08-27T13:40:00Z</time>
      </trkpt>
      <trkpt lat="57.360346019268036" lon="-6.396299963817">
        <ele>0.62</ele>
        <time>2023-08-27T13:40:01Z</time>
      </trkpt>
      <trkpt lat="57.360212998464704" lon="-6.396159986034036">
        <ele>0.14</ele>
        <time>2023-08-27T13:40:02Z</time>
      </trkpt>
      <trkpt lat="57.360065979883075" lon="-6.396111035719514">
        <ele>-0.34</ele>
        <time>2023-08-27T13:40:03Z</time>
      </trkpt>
      <trkpt lat="57.359920972958207" lon="-6.396073987707496">
        <ele>-0.82</ele>
        <time>2023-08-27T13:40:04Z</time>
      </trkpt>
      <trkpt lat="57.359769009053707" lon="-6.396034006029367">
        <ele>-0.82</ele>
        <time>2023-08-27T13:40:05Z</time>
      </trkpt>
      <trkpt lat="57.359617967158556" lon="-6.395996036008">
        <ele>-1.3</ele>
        <time>2023-08-27T13:40:06Z</time>
      </trkpt>
      <trkpt lat="57.359472960233688" lon="-6.396051021292806">
        <ele>-1.79</ele>
        <time>2023-08-27T13:40:07Z</time>
      </trkpt>
      <trkpt lat="57.359320996329188" lon="-6.396109024062753">
        <ele>-1.79</ele>
        <time>2023-08-27T13:40:08Z</time>
      </trkpt>
      <trkpt lat="57.359168026596308" lon="-6.39616803266108">
        <ele>-1.79</ele>
        <time>2023-08-27T13:40:09Z</time>
      </trkpt>
      <trkpt lat="57.35872495919466" lon="-6.396567011252046">
        <ele>-1.79</ele>
        <time>2023-08-27T13:40:12Z</time>
      </trkpt>
      <trkpt lat="57.358591016381979" lon="-6.396773038432002">
        <ele>-1.79</ele>
        <time>2023-08-27T13:40:13Z</time>
      </trkpt>
      <trkpt lat="57.357043968513608" lon="-6.399337984621525">
        <ele>1.1</ele>
        <time>2023-08-27T13:40:24Z</time>
      </trkpt>
      <trkpt lat="57.355431038886309" lon="-6.401808969676495">
        <ele>6.39</ele>
        <time>2023-08-27T13:40:35Z</time>
      </trkpt>
      <trkpt lat="57.354582035914063" lon="-6.403577970340848">
        <ele>7.35</ele>
        <time>2023-08-27T13:40:42Z</time>
      </trkpt>
      <trkpt lat="57.35410301014781" lon="-6.404587989673019">
        <ele>6.39</ele>
        <time>2023-08-27T13:40:46Z</time>
      </trkpt>
      <trkpt lat="57.353959009051323" lon="-6.404795022681356">
        <ele>6.39</ele>
        <time>2023-08-27T13:40:47Z</time>
      </trkpt>
      <trkpt lat="57.353810984641314" lon="-6.404999038204551">
        <ele>6.39</ele>
        <time>2023-08-27T13:40:48Z</time>
      </trkpt>
      <trkpt lat="57.353645022958517" lon="-6.40514899045229">
        <ele>6.39</ele>
        <time>2023-08-27T13:40:49Z</time>
      </trkpt>
      <trkpt lat="57.353478977456689" lon="-6.405296009033918">
        <ele>6.39</ele>
        <time>2023-08-27T13:40:50Z</time>
      </trkpt>
      <trkpt lat="57.353303963318467" lon="-6.405405979603529">
        <ele>6.87</ele>
        <time>2023-08-27T13:40:51Z</time>
      </trkpt>
      <trkpt lat="57.353122998028994" lon="-6.405506981536746">
        <ele>7.35</ele>
        <time>2023-08-27T13:40:52Z</time>
      </trkpt>
      <trkpt lat="57.351375035941601" lon="-6.406311979517341">
        <ele>10.710000000000001</ele>
        <time>2023-08-27T13:41:02Z</time>
      </trkpt>
      <trkpt lat="57.351206978783011" lon="-6.406293958425522">
        <ele>11.19</ele>
        <time>2023-08-27T13:41:03Z</time>
      </trkpt>
      <trkpt lat="57.351040011271834" lon="-6.406276021152735">
        <ele>11.67</ele>
        <time>2023-08-27T13:41:04Z</time>
      </trkpt>
      <trkpt lat="57.349747018888593" lon="-6.405908977612853">
        <ele>15.039999999999999</ele>
        <time>2023-08-27T13:41:11Z</time>
      </trkpt>
      <trkpt lat="57.3495480325073" lon="-6.405908977612853">
        <ele>16</ele>
        <time>2023-08-27T13:41:12Z</time>
      </trkpt>
      <trkpt lat="57.349348962306976" lon="-6.405947031453252">
        <ele>16.960000000000001</ele>
        <time>2023-08-27T13:41:13Z</time>
      </trkpt>
      <trkpt lat="57.347505027428269" lon="-6.406179964542389">
        <ele>24.649999999999999</ele>
        <time>2023-08-27T13:41:22Z</time>
      </trkpt>
      <trkpt lat="57.347323978319764" lon="-6.406080974265933">
        <ele>25.129999999999999</ele>
        <time>2023-08-27T13:41:23Z</time>
      </trkpt>
      <trkpt lat="57.347145024687052" lon="-6.405983995646238">
        <ele>26.09</ele>
        <time>2023-08-27T13:41:24Z</time>
      </trkpt>
      <trkpt lat="57.34697001054883" lon="-6.405850974842906">
        <ele>27.050000000000001</ele>
        <time>2023-08-27T13:41:25Z</time>
      </trkpt>
      <trkpt lat="57.346802959218621" lon="-6.405676966533065">
        <ele>27.530000000000001</ele>
        <time>2023-08-27T13:41:26Z</time>
      </trkpt>
      <trkpt lat="57.346634985879064" lon="-6.405501030385494">
        <ele>28.5</ele>
        <time>2023-08-27T13:41:27Z</time>
      </trkpt>
      <trkpt lat="57.346482016146183" lon="-6.405285028740764">
        <ele>29.460000000000001</ele>
        <time>2023-08-27T13:41:28Z</time>
      </trkpt>
      <trkpt lat="57.346338015049696" lon="-6.405044971033931">
        <ele>30.420000000000002</ele>
        <time>2023-08-27T13:41:29Z</time>
      </trkpt>
      <trkpt lat="57.346202982589602" lon="-6.40478303655982">
        <ele>30.899999999999999</ele>
        <time>2023-08-27T13:41:30Z</time>
      </trkpt>
      <trkpt lat="57.346083959564567" lon="-6.404498973861337">
        <ele>31.859999999999999</ele>
        <time>2023-08-27T13:41:31Z</time>
      </trkpt>
      <trkpt lat="57.345982035622001" lon="-6.404194040223956">
        <ele>33.299999999999997</ele>
        <time>2023-08-27T13:41:32Z</time>
      </trkpt>
      <trkpt lat="57.345890002325177" lon="-6.403877958655357">
        <ele>34.259999999999998</ele>
        <time>2023-08-27T13:41:33Z</time>
      </trkpt>
      <trkpt lat="57.345796041190624" lon="-6.403555003926158">
        <ele>35.229999999999997</ele>
        <time>2023-08-27T13:41:34Z</time>
      </trkpt>
      <trkpt lat="57.345417011529207" lon="-6.400950998067856">
        <ele>40.509999999999998</ele>
        <time>2023-08-27T13:41:41Z</time>
      </trkpt>
      <trkpt lat="57.345479959622025" lon="-6.398491999134421">
        <ele>43.880000000000003</ele>
        <time>2023-08-27T13:41:47Z</time>
      </trkpt>
      <trkpt lat="57.345651034265757" lon="-6.39629602432251">
        <ele>45.32</ele>
        <time>2023-08-27T13:41:53Z</time>
      </trkpt>
      <trkpt lat="57.345620021224022" lon="-6.393147027119994">
        <ele>47.240000000000002</ele>
        <time>2023-08-27T13:42:02Z</time>
      </trkpt>
      <trkpt lat="57.346185967326164" lon="-6.389996018260717">
        <ele>58.780000000000001</ele>
        <time>2023-08-27T13:42:11Z</time>
      </trkpt>
      <trkpt lat="57.346759038046002" lon="-6.386924972757697">
        <ele>71.269999999999996</ele>
        <time>2023-08-27T13:42:20Z</time>
      </trkpt>
      <trkpt lat="57.346803965047002" lon="-6.386572010815144">
        <ele>72.719999999999999</ele>
        <time>2023-08-27T13:42:21Z</time>
      </trkpt>
      <trkpt lat="57.346831038594246" lon="-6.386216031387448">
        <ele>73.680000000000007</ele>
        <time>2023-08-27T13:42:22Z</time>
      </trkpt>
      <trkpt lat="57.346819974482059" lon="-6.385869020596147">
        <ele>74.640000000000001</ele>
        <time>2023-08-27T13:42:23Z</time>
      </trkpt>
      <trkpt lat="57.346767000854015" lon="-6.385550005361438">
        <ele>75.599999999999994</ele>
        <time>2023-08-27T13:42:24Z</time>
      </trkpt>
      <trkpt lat="57.346704974770546" lon="-6.385214980691671">
        <ele>76.560000000000002</ele>
        <time>2023-08-27T13:42:25Z</time>
      </trkpt>
      <trkpt lat="57.346618976444006" lon="-6.384882973507047">
        <ele>77.519999999999996</ele>
        <time>2023-08-27T13:42:26Z</time>
      </trkpt>
      <trkpt lat="57.346502970904112" lon="-6.384561024606228">
        <ele>78.969999999999999</ele>
        <time>2023-08-27T13:42:27Z</time>
      </trkpt>
      <trkpt lat="57.346361987292767" lon="-6.384264975786209">
        <ele>79.930000000000007</ele>
        <time>2023-08-27T13:42:28Z</time>
      </trkpt>
      <trkpt lat="57.346193008124828" lon="-6.383978985249996">
        <ele>81.370000000000005</ele>
        <time>2023-08-27T13:42:29Z</time>
      </trkpt>
      <trkpt lat="57.346018999814987" lon="-6.383686037734151">
        <ele>82.329999999999998</ele>
        <time>2023-08-27T13:42:30Z</time>
      </trkpt>
      <trkpt lat="57.344355024397373" lon="-6.380974994972348">
        <ele>99.150000000000006</ele>
        <time>2023-08-27T13:42:40Z</time>
      </trkpt>
      <trkpt lat="57.342602033168077" lon="-6.378512978553772">
        <ele>117.90000000000001</ele>
        <time>2023-08-27T13:42:51Z</time>
      </trkpt>
      <trkpt lat="57.341042999178171" lon="-6.37646796181798">
        <ele>114.05</ele>
        <time>2023-08-27T13:43:00Z</time>
      </trkpt>
      <trkpt lat="57.340489039197564" lon="-6.374931978061795">
        <ele>107.31999999999999</ele>
        <time>2023-08-27T13:43:05Z</time>
      </trkpt>
      <trkpt lat="57.340420978143811" lon="-6.374562000855804">
        <ele>105.40000000000001</ele>
        <time>2023-08-27T13:43:06Z</time>
      </trkpt>
      <trkpt lat="57.34037303365767" lon="-6.374167967587709">
        <ele>103.95999999999999</ele>
        <time>2023-08-27T13:43:07Z</time>
      </trkpt>
      <trkpt lat="57.340329028666019" lon="-6.373778963461518">
        <ele>102.52</ele>
        <time>2023-08-27T13:43:08Z</time>
      </trkpt>
      <trkpt lat="57.340321987867355" lon="-6.373366992920637">
        <ele>101.08</ele>
        <time>2023-08-27T13:43:09Z</time>
      </trkpt>
      <trkpt lat="57.340315030887723" lon="-6.372947981581092">
        <ele>99.629999999999995</ele>
        <time>2023-08-27T13:43:10Z</time>
      </trkpt>
      <trkpt lat="57.340307990089059" lon="-6.372542968019843">
        <ele>98.670000000000002</ele>
        <time>2023-08-27T13:43:11Z</time>
      </trkpt>
      <trkpt lat="57.340364987030625" lon="-6.372163016349077">
        <ele>97.709999999999994</ele>
        <time>2023-08-27T13:43:12Z</time>
      </trkpt>
      <trkpt lat="57.340421983972192" lon="-6.371788010001183">
        <ele>97.230000000000004</ele>
        <time>2023-08-27T13:43:13Z</time>
      </trkpt>
      <trkpt lat="57.340479986742139" lon="-6.371398000046611">
        <ele>96.75</ele>
        <time>2023-08-27T13:43:14Z</time>
      </trkpt>
      <trkpt lat="57.341156993061304" lon="-6.366904964670539">
        <ele>93.390000000000001</ele>
        <time>2023-08-27T13:43:25Z</time>
      </trkpt>
      <trkpt lat="57.341496963053942" lon="-6.364330966025591">
        <ele>91.939999999999998</ele>
        <time>2023-08-27T13:43:32Z</time>
      </trkpt>
      <trkpt lat="57.341510038822889" lon="-6.364024020731449">
        <ele>91.459999999999994</ele>
        <time>2023-08-27T13:43:33Z</time>
      </trkpt>
      <trkpt lat="57.341455975547433" lon="-6.363656977191567">
        <ele>90.980000000000004</ele>
        <time>2023-08-27T13:43:34Z</time>
      </trkpt>
      <trkpt lat="57.341404007747769" lon="-6.363298986107111">
        <ele>90.5</ele>
        <time>2023-08-27T13:43:35Z</time>
      </trkpt>
      <trkpt lat="57.341328989714384" lon="-6.362955998629332">
        <ele>90.019999999999996</ele>
        <time>2023-08-27T13:43:36Z</time>
      </trkpt>
      <trkpt lat="57.341236034408212" lon="-6.362612005323172">
        <ele>89.540000000000006</ele>
        <time>2023-08-27T13:43:37Z</time>
      </trkpt>
      <trkpt lat="57.341131009161472" lon="-6.362282009795308">
        <ele>89.060000000000002</ele>
        <time>2023-08-27T13:43:38Z</time>
      </trkpt>
      <trkpt lat="57.341008968651295" lon="-6.361954025924206">
        <ele>89.060000000000002</ele>
        <time>2023-08-27T13:43:39Z</time>
      </trkpt>
      <trkpt lat="57.33947197906673" lon="-6.357802972197533">
        <ele>94.829999999999998</ele>
        <time>2023-08-27T13:43:51Z</time>
      </trkpt>
      <trkpt lat="57.338231960311532" lon="-6.355487974360585">
        <ele>103.95999999999999</ele>
        <time>2023-08-27T13:43:59Z</time>
      </trkpt>
      <trkpt lat="57.335731973871589" lon="-6.351990038529038">
        <ele>113.56999999999999</ele>
        <time>2023-08-27T13:44:13Z</time>
      </trkpt>
      <trkpt lat="57.333797011524439" lon="-6.349087972193956">
        <ele>120.78</ele>
        <time>2023-08-27T13:44:24Z</time>
      </trkpt>
      <trkpt lat="57.33242598362267" lon="-6.346010975539684">
        <ele>127.03</ele>
        <time>2023-08-27T13:44:34Z</time>
      </trkpt>
      <trkpt lat="57.331141959875822" lon="-6.342148007825017">
        <ele>120.78</ele>
        <time>2023-08-27T13:44:45Z</time>
      </trkpt>
      <trkpt lat="57.330264961346984" lon="-6.338891973719001">
        <ele>111.65000000000001</ele>
        <time>2023-08-27T13:44:54Z</time>
      </trkpt>
      <trkpt lat="57.329350998625159" lon="-6.336056040599942">
        <ele>105.88</ele>
        <time>2023-08-27T13:45:03Z</time>
      </trkpt>
      <trkpt lat="57.32868698425591" lon="-6.334152007475495">
        <ele>102.04000000000001</ele>
        <time>2023-08-27T13:45:10Z</time>
      </trkpt>
      <trkpt lat="57.328561004251242" lon="-6.334000965580344">
        <ele>101.56</ele>
        <time>2023-08-27T13:45:11Z</time>
      </trkpt>
      <trkpt lat="57.328415997326374" lon="-6.333865011110902">
        <ele>101.56</ele>
        <time>2023-08-27T13:45:12Z</time>
      </trkpt>
      <trkpt lat="57.328273002058268" lon="-6.333746993914247">
        <ele>101.08</ele>
        <time>2023-08-27T13:45:13Z</time>
      </trkpt>
      <trkpt lat="57.32810796238482" lon="-6.333656972274184">
        <ele>101.08</ele>
        <time>2023-08-27T13:45:14Z</time>
      </trkpt>
      <trkpt lat="57.327936971560121" lon="-6.333600981160998">
        <ele>101.08</ele>
        <time>2023-08-27T13:45:15Z</time>
      </trkpt>
      <trkpt lat="57.327757012099028" lon="-6.333551025018096">
        <ele>101.08</ele>
        <time>2023-08-27T13:45:16Z</time>
      </trkpt>
      <trkpt lat="57.325674025341868" lon="-6.332762958481908">
        <ele>103</ele>
        <time>2023-08-27T13:45:27Z</time>
      </trkpt>
      <trkpt lat="57.324050031602383" lon="-6.331140976399183">
        <ele>106.36</ele>
        <time>2023-08-27T13:45:36Z</time>
      </trkpt>
      <trkpt lat="57.321606958284974" lon="-6.327646980062127">
        <ele>115.5</ele>
        <time>2023-08-27T13:45:50Z</time>
      </trkpt>
      <trkpt lat="57.320324024185538" lon="-6.324893021956086">
        <ele>125.11</ele>
        <time>2023-08-27T13:45:59Z</time>
      </trkpt>
      <trkpt lat="57.318903040140867" lon="-6.322966022416949">
        <ele>134.72</ele>
        <time>2023-08-27T13:46:07Z</time>
      </trkpt>
      <trkpt lat="57.31697796843946" lon="-6.321367006748915">
        <ele>146.74000000000001</ele>
        <time>2023-08-27T13:46:17Z</time>
      </trkpt>
      <trkpt lat="57.314717033877969" lon="-6.320093041285873">
        <ele>153.94999999999999</ele>
        <time>2023-08-27T13:46:28Z</time>
      </trkpt>
      <trkpt lat="57.312294999137521" lon="-6.319279996678233">
        <ele>154.91</ele>
        <time>2023-08-27T13:46:39Z</time>
      </trkpt>
      <trkpt lat="57.310678968206048" lon="-6.318455971777439">
        <ele>151.06</ele>
        <time>2023-08-27T13:46:47Z</time>
      </trkpt>
      <trkpt lat="57.308361958712339" lon="-6.316847987473011">
        <ele>139.05000000000001</ele>
        <time>2023-08-27T13:46:59Z</time>
      </trkpt>
      <trkpt lat="57.306567979976535" lon="-6.315098013728857">
        <ele>126.55</ele>
        <time>2023-08-27T13:47:09Z</time>
      </trkpt>
      <trkpt lat="57.305629039183259" lon="-6.313693961128593">
        <ele>118.86</ele>
        <time>2023-08-27T13:47:15Z</time>
      </trkpt>
      <trkpt lat="57.305508004501462" lon="-6.313388021662831">
        <ele>117.42</ele>
        <time>2023-08-27T13:47:16Z</time>
      </trkpt>
      <trkpt lat="57.30539501644671" lon="-6.313070012256503">
        <ele>115.98</ele>
        <time>2023-08-27T13:47:17Z</time>
      </trkpt>
      <trkpt lat="57.30513702146709" lon="-6.311653973534703">
        <ele>109.73</ele>
        <time>2023-08-27T13:47:21Z</time>
      </trkpt>
      <trkpt lat="57.305111037567258" lon="-6.311311991885305">
        <ele>108.29000000000001</ele>
        <time>2023-08-27T13:47:22Z</time>
      </trkpt>
      <trkpt lat="57.305111959576607" lon="-6.311005968600512">
        <ele>106.84</ele>
        <time>2023-08-27T13:47:23Z</time>
      </trkpt>
      <trkpt lat="57.305156970396638" lon="-6.310710003599525">
        <ele>105.40000000000001</ele>
        <time>2023-08-27T13:47:24Z</time>
      </trkpt>
      <trkpt lat="57.305201981216669" lon="-6.31042099557817">
        <ele>103.95999999999999</ele>
        <time>2023-08-27T13:47:25Z</time>
      </trkpt>
      <trkpt lat="57.305265013128519" lon="-6.31016300059855">
        <ele>103</ele>
        <time>2023-08-27T13:47:26Z</time>
      </trkpt>
      <trkpt lat="57.30535302311182" lon="-6.30992503836751">
        <ele>102.04000000000001</ele>
        <time>2023-08-27T13:47:27Z</time>
      </trkpt>
      <trkpt lat="57.305452013388276" lon="-6.309727979823947">
        <ele>101.08</ele>
        <time>2023-08-27T13:47:28Z</time>
      </trkpt>
      <trkpt lat="57.305560978129506" lon="-6.309534022584558">
        <ele>100.11</ele>
        <time>2023-08-27T13:47:29Z</time>
      </trkpt>
      <trkpt lat="57.305682012811303" lon="-6.309388009831309">
        <ele>99.150000000000006</ele>
        <time>2023-08-27T13:47:30Z</time>
      </trkpt>
      <trkpt lat="57.305817967280746" lon="-6.309227999299765">
        <ele>98.189999999999998</ele>
        <time>2023-08-27T13:47:31Z</time>
      </trkpt>
      <trkpt lat="57.305958028882742" lon="-6.309063965454698">
        <ele>96.75</ele>
        <time>2023-08-27T13:47:32Z</time>
      </trkpt>
      <trkpt lat="57.306296993046999" lon="-6.308524003252387">
        <ele>93.870000000000005</ele>
        <time>2023-08-27T13:47:35Z</time>
      </trkpt>
      <trkpt lat="57.30631903745234" lon="-6.308470023795962">
        <ele>92.900000000000006</ele>
        <time>2023-08-27T13:47:36Z</time>
      </trkpt>
      <trkpt lat="57.306339992210269" lon="-6.308276988565922">
        <ele>91.939999999999998</ele>
        <time>2023-08-27T13:47:37Z</time>
      </trkpt>
      <trkpt lat="57.30631803162396" lon="-6.308095017448068">
        <ele>90.980000000000004</ele>
        <time>2023-08-27T13:47:38Z</time>
      </trkpt>
      <trkpt lat="57.306296993046999" lon="-6.307932995259762">
        <ele>90.019999999999996</ele>
        <time>2023-08-27T13:47:39Z</time>
      </trkpt>
      <trkpt lat="57.306250976398587" lon="-6.307840039953589">
        <ele>89.060000000000002</ele>
        <time>2023-08-27T13:47:40Z</time>
      </trkpt>
      <trkpt lat="57.306176964193583" lon="-6.30769201554358">
        <ele>88.099999999999994</ele>
        <time>2023-08-27T13:47:41Z</time>
      </trkpt>
      <trkpt lat="57.306114016100764" lon="-6.307665025815368">
        <ele>87.140000000000001</ele>
        <time>2023-08-27T13:47:42Z</time>
      </trkpt>
      <trkpt lat="57.305992981418967" lon="-6.307639963924885">
        <ele>85.689999999999998</ele>
        <time>2023-08-27T13:47:43Z</time>
      </trkpt>
      <trkpt lat="57.305854009464383" lon="-6.307610962539911">
        <ele>84.730000000000004</ele>
        <time>2023-08-27T13:47:44Z</time>
      </trkpt>
      <trkpt lat="57.305705985054374" lon="-6.307580033317208">
        <ele>83.769999999999996</ele>
        <time>2023-08-27T13:47:45Z</time>
      </trkpt>
      <trkpt lat="57.305368026718497" lon="-6.307418011128902">
        <ele>80.409999999999997</ele>
        <time>2023-08-27T13:47:47Z</time>
      </trkpt>
      <trkpt lat="57.305220002308488" lon="-6.307311980053783">
        <ele>78.969999999999999</ele>
        <time>2023-08-27T13:47:48Z</time>
      </trkpt>
      <trkpt lat="57.305063009262085" lon="-6.307115005329251">
        <ele>77.519999999999996</ele>
        <time>2023-08-27T13:47:49Z</time>
      </trkpt>
      <trkpt lat="57.304947003722191" lon="-6.306930016726255">
        <ele>76.079999999999998</ele>
        <time>2023-08-27T13:47:50Z</time>
      </trkpt>
      <trkpt lat="57.304834015667439" lon="-6.306685013696551">
        <ele>75.120000000000005</ele>
        <time>2023-08-27T13:47:51Z</time>
      </trkpt>
      <trkpt lat="57.304740976542234" lon="-6.30644797347486">
        <ele>74.159999999999997</ele>
        <time>2023-08-27T13:47:52Z</time>
      </trkpt>
      <trkpt lat="57.304659001529217" lon="-6.306165000423789">
        <ele>73.200000000000003</ele>
        <time>2023-08-27T13:47:53Z</time>
      </trkpt>
      <trkpt lat="57.304588006809354" lon="-6.305882027372718">
        <ele>72.239999999999995</ele>
        <time>2023-08-27T13:47:54Z</time>
      </trkpt>
      <trkpt lat="57.304517012089491" lon="-6.305595031008124">
        <ele>71.269999999999996</ele>
        <time>2023-08-27T13:47:55Z</time>
      </trkpt>
      <trkpt lat="57.304477030411363" lon="-6.30526696331799">
        <ele>70.310000000000002</ele>
        <time>2023-08-27T13:47:56Z</time>
      </trkpt>
      <trkpt lat="57.30445196852088" lon="-6.304944008588791">
        <ele>69.349999999999994</ele>
        <time>2023-08-27T13:47:57Z</time>
      </trkpt>
      <trkpt lat="57.304427996277809" lon="-6.304619964212179">
        <ele>68.390000000000001</ele>
        <time>2023-08-27T13:47:58Z</time>
      </trkpt>
      <trkpt lat="57.304403018206358" lon="-6.304291980341077">
        <ele>67.430000000000007</ele>
        <time>2023-08-27T13:47:59Z</time>
      </trkpt>
      <trkpt lat="57.304393965750933" lon="-6.303957961499691">
        <ele>66.950000000000003</ele>
        <time>2023-08-27T13:48:00Z</time>
      </trkpt>
      <trkpt lat="57.304410981014371" lon="-6.303617991507053">
        <ele>65.989999999999995</ele>
        <time>2023-08-27T13:48:01Z</time>
      </trkpt>
      <trkpt lat="57.304431013762951" lon="-6.303234016522765">
        <ele>65.510000000000005</ele>
        <time>2023-08-27T13:48:02Z</time>
      </trkpt>
      <trkpt lat="57.304462026804686" lon="-6.302935034036636">
        <ele>64.549999999999997</ele>
        <time>2023-08-27T13:48:03Z</time>
      </trkpt>
      <trkpt lat="57.304496979340911" lon="-6.302597997710109">
        <ele>64.069999999999993</ele>
        <time>2023-08-27T13:48:04Z</time>
      </trkpt>
      <trkpt lat="57.304555987939239" lon="-6.302269008010626">
        <ele>63.100000000000001</ele>
        <time>2023-08-27T13:48:05Z</time>
      </trkpt>
      <trkpt lat="57.304924037307501" lon="-6.300208987668157">
        <ele>58.299999999999997</ele>
        <time>2023-08-27T13:48:12Z</time>
      </trkpt>
      <trkpt lat="57.304899981245399" lon="-6.300001032650471">
        <ele>57.82</ele>
        <time>2023-08-27T13:48:13Z</time>
      </trkpt>
      <trkpt lat="57.304876009002328" lon="-6.29978695884347">
        <ele>57.340000000000003</ele>
        <time>2023-08-27T13:48:14Z</time>
      </trkpt>
      <trkpt lat="57.304813982918859" lon="-6.299554025754333">
        <ele>56.859999999999999</ele>
        <time>2023-08-27T13:48:15Z</time>
      </trkpt>
      <trkpt lat="57.304702000692487" lon="-6.299324026331306">
        <ele>56.369999999999997</ele>
        <time>2023-08-27T13:48:16Z</time>
      </trkpt>
      <trkpt lat="57.30457803234458" lon="-6.299237022176385">
        <ele>56.369999999999997</ele>
        <time>2023-08-27T13:48:17Z</time>
      </trkpt>
      <trkpt lat="57.304421961307526" lon="-6.299179019406438">
        <ele>55.890000000000001</ele>
        <time>2023-08-27T13:48:18Z</time>
      </trkpt>
      <trkpt lat="57.304268991574645" lon="-6.299210032448173">
        <ele>55.890000000000001</ele>
        <time>2023-08-27T13:48:19Z</time>
      </trkpt>
      <trkpt lat="57.304135970771313" lon="-6.299287984147668">
        <ele>55.409999999999997</ele>
        <time>2023-08-27T13:48:20Z</time>
      </trkpt>
      <trkpt lat="57.303991969674826" lon="-6.299370964989066">
        <ele>55.409999999999997</ele>
        <time>2023-08-27T13:48:21Z</time>
      </trkpt>
      <trkpt lat="57.303844029083848" lon="-6.299456963315606">
        <ele>55.409999999999997</ele>
        <time>2023-08-27T13:48:22Z</time>
      </trkpt>
      <trkpt lat="57.303696004673839" lon="-6.299542961642146">
        <ele>54.93</ele>
        <time>2023-08-27T13:48:23Z</time>
      </trkpt>
      <trkpt lat="57.303563989698887" lon="-6.29957196302712">
        <ele>54.93</ele>
        <time>2023-08-27T13:48:24Z</time>
      </trkpt>
      <trkpt lat="57.303425017744303" lon="-6.299583027139306">
        <ele>54.450000000000003</ele>
        <time>2023-08-27T13:48:25Z</time>
      </trkpt>
      <trkpt lat="57.303297026082873" lon="-6.299546984955668">
        <ele>53.969999999999999</ele>
        <time>2023-08-27T13:48:26Z</time>
      </trkpt>
      <trkpt lat="57.303155036643147" lon="-6.299481019377708">
        <ele>53.490000000000002</ele>
        <time>2023-08-27T13:48:27Z</time>
      </trkpt>
      <trkpt lat="57.30301396921277" lon="-6.299414969980717">
        <ele>53.009999999999998</ele>
        <time>2023-08-27T13:48:28Z</time>
      </trkpt>
      <trkpt lat="57.302888995036483" lon="-6.299265017732978">
        <ele>52.530000000000001</ele>
        <time>2023-08-27T13:48:29Z</time>
      </trkpt>
      <trkpt lat="57.302753962576389" lon="-6.299105007201433">
        <ele>51.57</ele>
        <time>2023-08-27T13:48:30Z</time>
      </trkpt>
      <trkpt lat="57.302624965086579" lon="-6.29892798140645">
        <ele>51.090000000000003</ele>
        <time>2023-08-27T13:48:31Z</time>
      </trkpt>
      <trkpt lat="57.302494961768389" lon="-6.298707034438849">
        <ele>50.130000000000003</ele>
        <time>2023-08-27T13:48:32Z</time>
      </trkpt>
      <trkpt lat="57.301142038777471" lon="-6.296410979703069">
        <ele>40.509999999999998</ele>
        <time>2023-08-27T13:48:42Z</time>
      </trkpt>
      <trkpt lat="57.299802023917437" lon="-6.294576013460755">
        <ele>35.229999999999997</ele>
        <time>2023-08-27T13:48:52Z</time>
      </trkpt>
      <trkpt lat="57.299155024811625" lon="-6.293267011642456">
        <ele>32.82</ele>
        <time>2023-08-27T13:48:59Z</time>
      </trkpt>
      <trkpt lat="57.298982022330165" lon="-6.292916983366013">
        <ele>31.379999999999999</ele>
        <time>2023-08-27T13:49:06Z</time>
      </trkpt>
      <trkpt lat="57.298941034823656" lon="-6.292901979759336">
        <ele>30.899999999999999</ele>
        <time>2023-08-27T13:49:08Z</time>
      </trkpt>
      <trkpt lat="57.298913961276412" lon="-6.292949002236128">
        <ele>30.420000000000002</ele>
        <time>2023-08-27T13:49:09Z</time>
      </trkpt>
      <trkpt lat="57.298882026225328" lon="-6.293004993349314">
        <ele>30.420000000000002</ele>
        <time>2023-08-27T13:49:10Z</time>
      </trkpt>
      <trkpt lat="57.298872973769903" lon="-6.293072970584035">
        <ele>30.420000000000002</ele>
        <time>2023-08-27T13:49:11Z</time>
      </trkpt>
      <trkpt lat="57.298872973769903" lon="-6.293168021366">
        <ele>30.420000000000002</ele>
        <time>2023-08-27T13:49:12Z</time>
      </trkpt>
      <trkpt lat="57.298893006518483" lon="-6.293229041621089">
        <ele>29.940000000000001</ele>
        <time>2023-08-27T13:49:13Z</time>
      </trkpt>
      <trkpt lat="57.298942040652037" lon="-6.293326020240784">
        <ele>29.460000000000001</ele>
        <time>2023-08-27T13:49:14Z</time>
      </trkpt>
      <trkpt lat="57.299005994573236" lon="-6.29344898276031">
        <ele>28.5</ele>
        <time>2023-08-27T13:49:15Z</time>
      </trkpt>
      <trkpt lat="57.299085035920143" lon="-6.293601030483842">
        <ele>28.02</ele>
        <time>2023-08-27T13:49:16Z</time>
      </trkpt>
      <trkpt lat="57.299601025879383" lon="-6.295092003419995">
        <ele>22.25</ele>
        <time>2023-08-27T13:49:22Z</time>
      </trkpt>
      <trkpt lat="57.300169989466667" lon="-6.296809036284685">
        <ele>16</ele>
        <time>2023-08-27T13:49:28Z</time>
      </trkpt>
      <trkpt lat="57.300195973366499" lon="-6.297072982415557">
        <ele>14.56</ele>
        <time>2023-08-27T13:49:29Z</time>
      </trkpt>
      <trkpt lat="57.300219023600221" lon="-6.297311028465629">
        <ele>13.6</ele>
        <time>2023-08-27T13:49:30Z</time>
      </trkpt>
      <trkpt lat="57.30019798502326" lon="-6.297540022060275">
        <ele>12.15</ele>
        <time>2023-08-27T13:49:31Z</time>
      </trkpt>
      <trkpt lat="57.300164038315415" lon="-6.297754012048245">
        <ele>10.710000000000001</ele>
        <time>2023-08-27T13:49:32Z</time>
      </trkpt>
      <trkpt lat="57.300129001960158" lon="-6.297970013692975">
        <ele>9.75</ele>
        <time>2023-08-27T13:49:33Z</time>
      </trkpt>
      <trkpt lat="57.300048032775521" lon="-6.298170005902648">
        <ele>8.310000000000001</ele>
        <time>2023-08-27T13:49:34Z</time>
      </trkpt>
      <trkpt lat="57.299949964508414" lon="-6.298335967585445">
        <ele>6.87</ele>
        <time>2023-08-27T13:49:35Z</time>
      </trkpt>
      <trkpt lat="57.299828007817268" lon="-6.298446021974087">
        <ele>5.42</ele>
        <time>2023-08-27T13:49:36Z</time>
      </trkpt>
      <trkpt lat="57.299693981185555" lon="-6.298566972836852">
        <ele>3.98</ele>
        <time>2023-08-27T13:49:37Z</time>
      </trkpt>
      <trkpt lat="57.299556015059352" lon="-6.298693036660552">
        <ele>2.54</ele>
        <time>2023-08-27T13:49:38Z</time>
      </trkpt>
      <trkpt lat="57.299429029226303" lon="-6.298848018050194">
        <ele>1.1</ele>
        <time>2023-08-27T13:49:39Z</time>
      </trkpt>
      <trkpt lat="57.299305982887745" lon="-6.299015991389751">
        <ele>0.14</ele>
        <time>2023-08-27T13:49:40Z</time>
      </trkpt>
      <trkpt lat="57.299205986782908" lon="-6.299230987206101">
        <ele>-1.3</ele>
        <time>2023-08-27T13:49:41Z</time>
      </trkpt>
      <trkpt lat="57.299110013991594" lon="-6.299461992457509">
        <ele>-2.27</ele>
        <time>2023-08-27T13:49:42Z</time>
      </trkpt>
      <trkpt lat="57.299014963209629" lon="-6.299689980223775">
        <ele>-3.23</ele>
        <time>2023-08-27T13:49:43Z</time>
      </trkpt>
      <trkpt lat="57.298845984041691" lon="-6.300177974626422">
        <ele>-4.19</ele>
        <time>2023-08-27T13:49:45Z</time>
      </trkpt>
      <trkpt lat="57.298793010413647" lon="-6.300468994304538">
        <ele>-4.67</ele>
        <time>2023-08-27T13:49:46Z</time>
      </trkpt>
      <trkpt lat="57.298753028735518" lon="-6.300760013982654">
        <ele>-5.15</ele>
        <time>2023-08-27T13:49:47Z</time>
      </trkpt>
      <trkpt lat="57.298727966845036" lon="-6.301052961498499">
        <ele>-5.63</ele>
        <time>2023-08-27T13:49:48Z</time>
      </trkpt>
      <trkpt lat="57.298724027350545" lon="-6.301328977569938">
        <ele>-5.63</ele>
        <time>2023-08-27T13:49:49Z</time>
      </trkpt>
      <trkpt lat="57.298731990158558" lon="-6.302746022120118">
        <ele>-6.59</ele>
        <time>2023-08-27T13:49:56Z</time>
      </trkpt>
      <trkpt lat="57.298734001815319" lon="-6.303019020706415">
        <ele>-7.55</ele>
        <time>2023-08-27T13:50:02Z</time>
      </trkpt>
      <trkpt lat="57.298734001815319" lon="-6.303088003769517">
        <ele>-7.55</ele>
        <time>2023-08-27T13:50:03Z</time>
      </trkpt>
      <trkpt lat="57.2987350076437" lon="-6.303135026246309">
        <ele>-8.029999999999999</ele>
        <time>2023-08-27T13:50:04Z</time>
      </trkpt>
      <trkpt lat="57.298739030957222" lon="-6.303936000913382">
        <ele>-7.07</ele>
        <time>2023-08-27T13:50:10Z</time>
      </trkpt>
      <trkpt lat="57.298742970451713" lon="-6.304507981985807">
        <ele>-6.59</ele>
        <time>2023-08-27T13:50:13Z</time>
      </trkpt>
      <trkpt lat="57.298743976280093" lon="-6.3047069683671">
        <ele>-6.59</ele>
        <time>2023-08-27T13:50:14Z</time>
      </trkpt>
      <trkpt lat="57.298712963238358" lon="-6.304895980283618">
        <ele>-6.11</ele>
        <time>2023-08-27T13:50:15Z</time>
      </trkpt>
      <trkpt lat="57.298664012923837" lon="-6.305076023563743">
        <ele>-6.11</ele>
        <time>2023-08-27T13:50:16Z</time>
      </trkpt>
      <trkpt lat="57.298614978790283" lon="-6.305254977196455">
        <ele>-5.63</ele>
        <time>2023-08-27T13:50:17Z</time>
      </trkpt>
      <trkpt lat="57.298568962141871" lon="-6.305424962192774">
        <ele>-5.63</ele>
        <time>2023-08-27T13:50:18Z</time>
      </trkpt>
      <trkpt lat="57.298274002969265" lon="-6.306790038943291">
        <ele>-3.71</ele>
        <time>2023-08-27T13:50:26Z</time>
      </trkpt>
      <trkpt lat="57.297956999391317" lon="-6.308650989085436">
        <ele>-1.3</ele>
        <time>2023-08-27T13:50:37Z</time>
      </trkpt>
      <trkpt lat="57.297601019963622" lon="-6.310432981699705">
        <ele>-3.71</ele>
        <time>2023-08-27T13:50:46Z</time>
      </trkpt>
      <trkpt lat="57.297584004700184" lon="-6.31061302497983">
        <ele>-3.71</ele>
        <time>2023-08-27T13:50:47Z</time>
      </trkpt>
      <trkpt lat="57.297580987215042" lon="-6.310784015804529">
        <ele>-3.71</ele>
        <time>2023-08-27T13:50:48Z</time>
      </trkpt>
      <trkpt lat="57.297578975558281" lon="-6.310945032164455">
        <ele>-3.23</ele>
        <time>2023-08-27T13:50:49Z</time>
      </trkpt>
      <trkpt lat="57.297576041892171" lon="-6.31108702160418">
        <ele>-3.23</ele>
        <time>2023-08-27T13:50:50Z</time>
      </trkpt>
      <trkpt lat="57.297573024407029" lon="-6.31128097884357">
        <ele>-3.23</ele>
        <time>2023-08-27T13:50:52Z</time>
      </trkpt>
      <trkpt lat="57.297567995265126" lon="-6.311550037935376">
        <ele>-2.75</ele>
        <time>2023-08-27T13:50:55Z</time>
      </trkpt>
      <trkpt lat="57.297565983608365" lon="-6.311654979363084">
        <ele>-2.75</ele>
        <time>2023-08-27T13:50:56Z</time>
      </trkpt>
      <trkpt lat="57.297386024147272" lon="-6.312841018661857">
        <ele>-1.79</ele>
        <time>2023-08-27T13:51:06Z</time>
      </trkpt>
      <trkpt lat="57.297263983637094" lon="-6.313575021922588">
        <ele>0.62</ele>
        <time>2023-08-27T13:51:10Z</time>
      </trkpt>
      <trkpt lat="57.297216961160302" lon="-6.31375003606081">
        <ele>0.62</ele>
        <time>2023-08-27T13:51:11Z</time>
      </trkpt>
      <trkpt lat="57.297143032774329" lon="-6.313882973045111">
        <ele>1.1</ele>
        <time>2023-08-27T13:51:12Z</time>
      </trkpt>
      <trkpt lat="57.297068014740944" lon="-6.314016999676824">
        <ele>1.1</ele>
        <time>2023-08-27T13:51:13Z</time>
      </trkpt>
      <trkpt lat="57.2969960141927" lon="-6.314145997166634">
        <ele>1.1</ele>
        <time>2023-08-27T13:51:14Z</time>
      </trkpt>
      <trkpt lat="57.296778000891209" lon="-6.314535001292825">
        <ele>1.1</ele>
        <time>2023-08-27T13:51:20Z</time>
      </trkpt>
      <trkpt lat="57.296700971201062" lon="-6.314671961590648">
        <ele>-1.3</ele>
        <time>2023-08-27T13:51:32Z</time>
      </trkpt>
      <trkpt lat="57.296700971201062" lon="-6.314671961590648">
        <ele>-1.3</ele>
        <time>2023-08-27T13:52:02Z</time>
      </trkpt>
      <trkpt lat="57.296693008393049" lon="-6.314686965197325">
        <ele>-2.27</ele>
        <time>2023-08-27T13:52:11Z</time>
      </trkpt>
      <trkpt lat="57.296505002304912" lon="-6.31547000259161">
        <ele>-2.27</ele>
        <time>2023-08-27T13:52:18Z</time>
      </trkpt>
      <trkpt lat="57.296230997890234" lon="-6.317116040736437">
        <ele>-3.23</ele>
        <time>2023-08-27T13:52:27Z</time>
      </trkpt>
      <trkpt lat="57.296220017597079" lon="-6.318411966785789">
        <ele>-0.34</ele>
        <time>2023-08-27T13:52:35Z</time>
      </trkpt>
      <trkpt lat="57.29622202925384" lon="-6.318458989262581">
        <ele>0.14</ele>
        <time>2023-08-27T13:52:42Z</time>
      </trkpt>
      <trkpt lat="57.296225968748331" lon="-6.31858597509563">
        <ele>0.62</ele>
        <time>2023-08-27T13:52:49Z</time>
      </trkpt>
      <trkpt lat="57.296229992061853" lon="-6.318697035312653">
        <ele>1.1</ele>
        <time>2023-08-27T13:52:50Z</time>
      </trkpt>
      <trkpt lat="57.296233009546995" lon="-6.318832989782095">
        <ele>1.58</ele>
        <time>2023-08-27T13:52:51Z</time>
      </trkpt>
      <trkpt lat="57.296181041747332" lon="-6.320227989926934">
        <ele>4.46</ele>
        <time>2023-08-27T13:52:58Z</time>
      </trkpt>
      <trkpt lat="57.29611499235034" lon="-6.322583975270391">
        <ele>11.19</ele>
        <time>2023-08-27T13:53:06Z</time>
      </trkpt>
      <trkpt lat="57.296047015115619" lon="-6.326208980754018">
        <ele>25.609999999999999</ele>
        <time>2023-08-27T13:53:16Z</time>
      </trkpt>
      <trkpt lat="57.295910976827145" lon="-6.328516015782952">
        <ele>33.780000000000001</ele>
        <time>2023-08-27T13:53:24Z</time>
      </trkpt>
      <trkpt lat="57.295645019039512" lon="-6.330747026950121">
        <ele>41.469999999999999</ele>
        <time>2023-08-27T13:53:33Z</time>
      </trkpt>
      <trkpt lat="57.295313011854887" lon="-6.332762036472559">
        <ele>47.240000000000002</ele>
        <time>2023-08-27T13:53:44Z</time>
      </trkpt>
      <trkpt lat="57.294948985800147" lon="-6.334260972216725">
        <ele>52.049999999999997</ele>
        <time>2023-08-27T13:53:56Z</time>
      </trkpt>
      <trkpt lat="57.294906992465258" lon="-6.334517039358616">
        <ele>53.969999999999999</ele>
        <time>2023-08-27T13:54:02Z</time>
      </trkpt>
      <trkpt lat="57.294907998293638" lon="-6.334564983844757">
        <ele>53.969999999999999</ele>
        <time>2023-08-27T13:54:03Z</time>
      </trkpt>
      <trkpt lat="57.29491101577878" lon="-6.334629021584988">
        <ele>54.450000000000003</ele>
        <time>2023-08-27T13:54:04Z</time>
      </trkpt>
      <trkpt lat="57.294914033263922" lon="-6.334709990769625">
        <ele>54.450000000000003</ele>
        <time>2023-08-27T13:54:05Z</time>
      </trkpt>
      <trkpt lat="57.294916966930032" lon="-6.334810992702842">
        <ele>54.93</ele>
        <time>2023-08-27T13:54:06Z</time>
      </trkpt>
      <trkpt lat="57.295209998264909" lon="-6.336280005052686">
        <ele>57.340000000000003</ele>
        <time>2023-08-27T13:54:17Z</time>
      </trkpt>
      <trkpt lat="57.295523984357715" lon="-6.337761003524065">
        <ele>59.740000000000002</ele>
        <time>2023-08-27T13:54:26Z</time>
      </trkpt>
      <trkpt lat="57.295534964650869" lon="-6.337824035435915">
        <ele>60.219999999999999</ele>
        <time>2023-08-27T13:54:27Z</time>
      </trkpt>
      <trkpt lat="57.295542005449533" lon="-6.337864017114043">
        <ele>60.219999999999999</ele>
        <time>2023-08-27T13:54:35Z</time>
      </trkpt>
      <trkpt lat="57.295614005997777" lon="-6.338281016796827">
        <ele>61.18</ele>
        <time>2023-08-27T13:54:47Z</time>
      </trkpt>
      <trkpt lat="57.295846017077565" lon="-6.339308973401785">
        <ele>63.100000000000001</ele>
        <time>2023-08-27T13:54:54Z</time>
      </trkpt>
      <trkpt lat="57.296186992898583" lon="-6.340545974671841">
        <ele>64.069999999999993</ele>
        <time>2023-08-27T13:55:02Z</time>
      </trkpt>
      <trkpt lat="57.296692002564669" lon="-6.342383036389947">
        <ele>61.18</ele>
        <time>2023-08-27T13:55:12Z</time>
      </trkpt>
      <trkpt lat="57.29706097394228" lon="-6.343932012096047">
        <ele>62.140000000000001</ele>
        <time>2023-08-27T13:55:21Z</time>
      </trkpt>
      <trkpt lat="57.297153007239103" lon="-6.345941992476583">
        <ele>62.140000000000001</ele>
        <time>2023-08-27T13:55:31Z</time>
      </trkpt>
      <trkpt lat="57.297008000314236" lon="-6.347535979002714">
        <ele>64.549999999999997</ele>
        <time>2023-08-27T13:55:41Z</time>
      </trkpt>
      <trkpt lat="57.296844972297549" lon="-6.349194003269076">
        <ele>65.030000000000001</ele>
        <time>2023-08-27T13:55:52Z</time>
      </trkpt>
      <trkpt lat="57.296757968142629" lon="-6.34976196102798">
        <ele>65.030000000000001</ele>
        <time>2023-08-27T13:55:55Z</time>
      </trkpt>
      <trkpt lat="57.29676098562777" lon="-6.349916020408273">
        <ele>64.549999999999997</ele>
        <time>2023-08-27T13:55:56Z</time>
      </trkpt>
      <trkpt lat="57.296784035861492" lon="-6.350102014839649">
        <ele>64.549999999999997</ele>
        <time>2023-08-27T13:55:57Z</time>
      </trkpt>
      <trkpt lat="57.296808008104563" lon="-6.350294966250658">
        <ele>64.549999999999997</ele>
        <time>2023-08-27T13:55:58Z</time>
      </trkpt>
      <trkpt lat="57.296830974519253" lon="-6.350488001480699">
        <ele>64.549999999999997</ele>
        <time>2023-08-27T13:55:59Z</time>
      </trkpt>
      <trkpt lat="57.296855030581355" lon="-6.350677013397217">
        <ele>65.030000000000001</ele>
        <time>2023-08-27T13:56:00Z</time>
      </trkpt>
      <trkpt lat="57.296923007816076" lon="-6.351229967549443">
        <ele>65.989999999999995</ele>
        <time>2023-08-27T13:56:03Z</time>
      </trkpt>
      <trkpt lat="57.296942034736276" lon="-6.35158603079617">
        <ele>65.989999999999995</ele>
        <time>2023-08-27T13:56:05Z</time>
      </trkpt>
      <trkpt lat="57.296942034736276" lon="-6.351781999692321">
        <ele>66.469999999999999</ele>
        <time>2023-08-27T13:56:06Z</time>
      </trkpt>
      <trkpt lat="57.296942034736276" lon="-6.351980986073613">
        <ele>66.469999999999999</ele>
        <time>2023-08-27T13:56:07Z</time>
      </trkpt>
      <trkpt lat="57.296942034736276" lon="-6.352178966626525">
        <ele>66.469999999999999</ele>
        <time>2023-08-27T13:56:08Z</time>
      </trkpt>
      <trkpt lat="57.296942034736276" lon="-6.352363033220172">
        <ele>66.469999999999999</ele>
        <time>2023-08-27T13:56:09Z</time>
      </trkpt>
      <trkpt lat="57.296893000602722" lon="-6.352600995451212">
        <ele>66.950000000000003</ele>
        <time>2023-08-27T13:56:10Z</time>
      </trkpt>
      <trkpt lat="57.296834997832775" lon="-6.352694034576416">
        <ele>67.430000000000007</ele>
        <time>2023-08-27T13:56:11Z</time>
      </trkpt>
      <trkpt lat="57.296577002853155" lon="-6.352651035413146">
        <ele>67.909999999999997</ele>
        <time>2023-08-27T13:56:12Z</time>
      </trkpt>
      <trkpt lat="57.296542972326279" lon="-6.352677019312978">
        <ele>68.870000000000005</ele>
        <time>2023-08-27T13:56:13Z</time>
      </trkpt>
      <trkpt lat="57.296054977923632" lon="-6.353409010916948">
        <ele>74.159999999999997</ele>
        <time>2023-08-27T13:56:18Z</time>
      </trkpt>
      <trkpt lat="57.295965040102601" lon="-6.353538008406758">
        <ele>75.599999999999994</ele>
        <time>2023-08-27T13:56:19Z</time>
      </trkpt>
      <trkpt lat="57.295912988483906" lon="-6.353726014494896">
        <ele>76.560000000000002</ele>
        <time>2023-08-27T13:56:20Z</time>
      </trkpt>
      <trkpt lat="57.295867977663875" lon="-6.353916032239795">
        <ele>78</ele>
        <time>2023-08-27T13:56:21Z</time>
      </trkpt>
      <trkpt lat="57.295821961015463" lon="-6.354109989479184">
        <ele>79.450000000000003</ele>
        <time>2023-08-27T13:56:22Z</time>
      </trkpt>
      <trkpt lat="57.295112013816833" lon="-6.356243016198278">
        <ele>93.870000000000005</ele>
        <time>2023-08-27T13:56:34Z</time>
      </trkpt>
      <trkpt lat="57.294667018577456" lon="-6.357509018853307">
        <ele>99.629999999999995</ele>
        <time>2023-08-27T13:56:41Z</time>
      </trkpt>
      <trkpt lat="57.294597029685974" lon="-6.357669029384852">
        <ele>100.11</ele>
        <time>2023-08-27T13:56:42Z</time>
      </trkpt>
      <trkpt lat="57.294517988339067" lon="-6.357784029096365">
        <ele>100.59999999999999</ele>
        <time>2023-08-27T13:56:43Z</time>
      </trkpt>
      <trkpt lat="57.294440036639571" lon="-6.357896011322737">
        <ele>101.08</ele>
        <time>2023-08-27T13:56:44Z</time>
      </trkpt>
      <trkpt lat="57.294338028877974" lon="-6.357973963022232">
        <ele>101.56</ele>
        <time>2023-08-27T13:56:45Z</time>
      </trkpt>
      <trkpt lat="57.294243983924389" lon="-6.358040012419224">
        <ele>102.04000000000001</ele>
        <time>2023-08-27T13:56:46Z</time>
      </trkpt>
      <trkpt lat="57.294147005304694" lon="-6.358108995482326">
        <ele>103</ele>
        <time>2023-08-27T13:56:47Z</time>
      </trkpt>
      <trkpt lat="57.294044997543097" lon="-6.358222989365459">
        <ele>103.48</ele>
        <time>2023-08-27T13:56:48Z</time>
      </trkpt>
      <trkpt lat="57.293980037793517" lon="-6.358400015160441">
        <ele>103.95999999999999</ele>
        <time>2023-08-27T13:56:49Z</time>
      </trkpt>
      <trkpt lat="57.293913988396525" lon="-6.358577962964773">
        <ele>104.92</ele>
        <time>2023-08-27T13:56:50Z</time>
      </trkpt>
      <trkpt lat="57.293851040303707" lon="-6.358747025951743">
        <ele>105.88</ele>
        <time>2023-08-27T13:56:51Z</time>
      </trkpt>
      <trkpt lat="57.293788008391857" lon="-6.358917010948062">
        <ele>106.84</ele>
        <time>2023-08-27T13:56:52Z</time>
      </trkpt>
      <trkpt lat="57.293763030320406" lon="-6.359088001772761">
        <ele>107.81</ele>
        <time>2023-08-27T13:56:53Z</time>
      </trkpt>
      <trkpt lat="57.29355800896883" lon="-6.360662961378694">
        <ele>113.09</ele>
        <time>2023-08-27T13:57:01Z</time>
      </trkpt>
      <trkpt lat="57.293566977605224" lon="-6.360871000215411">
        <ele>113.56999999999999</ele>
        <time>2023-08-27T13:57:02Z</time>
      </trkpt>
      <trkpt lat="57.29357996955514" lon="-6.362398015335202">
        <ele>115.01000000000001</ele>
        <time>2023-08-27T13:57:10Z</time>
      </trkpt>
      <trkpt lat="57.293497994542122" lon="-6.36342303827405">
        <ele>119.81999999999999</ele>
        <time>2023-08-27T13:57:19Z</time>
      </trkpt>
      <trkpt lat="57.2934939712286" lon="-6.36346603743732">
        <ele>120.3</ele>
        <time>2023-08-27T13:57:20Z</time>
      </trkpt>
      <trkpt lat="57.293534958735108" lon="-6.36353200301528">
        <ele>120.78</ele>
        <time>2023-08-27T13:57:21Z</time>
      </trkpt>
      <trkpt lat="57.293565971776843" lon="-6.363519011065364">
        <ele>122.22</ele>
        <time>2023-08-27T13:57:23Z</time>
      </trkpt>
      <trkpt lat="57.293683988973498" lon="-6.36346997693181">
        <ele>123.19</ele>
        <time>2023-08-27T13:57:24Z</time>
      </trkpt>
      <trkpt lat="57.294502984732389" lon="-6.362921968102455">
        <ele>124.63</ele>
        <time>2023-08-27T13:57:33Z</time>
      </trkpt>
      <trkpt lat="57.295572012662888" lon="-6.362172961235046">
        <ele>121.26000000000001</ele>
        <time>2023-08-27T13:57:42Z</time>
      </trkpt>
      <trkpt lat="57.296075010672212" lon="-6.361742969602346">
        <ele>118.38</ele>
        <time>2023-08-27T13:57:48Z</time>
      </trkpt>
      <trkpt lat="57.296148017048836" lon="-6.36166300624609">
        <ele>117.90000000000001</ele>
        <time>2023-08-27T13:57:49Z</time>
      </trkpt>
      <trkpt lat="57.296162014827132" lon="-6.361614977940917">
        <ele>116.94</ele>
        <time>2023-08-27T13:57:50Z</time>
      </trkpt>
      <trkpt lat="57.296187998726964" lon="-6.361524034291506">
        <ele>116.45999999999999</ele>
        <time>2023-08-27T13:57:51Z</time>
      </trkpt>
      <trkpt lat="57.296168971806765" lon="-6.361373998224735">
        <ele>115.98</ele>
        <time>2023-08-27T13:57:52Z</time>
      </trkpt>
      <trkpt lat="57.296151034533978" lon="-6.361262015998364">
        <ele>115.01000000000001</ele>
        <time>2023-08-27T13:57:53Z</time>
      </trkpt>
      <trkpt lat="57.2961360309273" lon="-6.361162019893527">
        <ele>114.05</ele>
        <time>2023-08-27T13:57:54Z</time>
      </trkpt>
      <trkpt lat="57.296105017885566" lon="-6.361066969111562">
        <ele>113.56999999999999</ele>
        <time>2023-08-27T13:57:55Z</time>
      </trkpt>
      <trkpt lat="57.296062018722296" lon="-6.360993040725589">
        <ele>112.61</ele>
        <time>2023-08-27T13:57:56Z</time>
      </trkpt>
      <trkpt lat="57.296000998467207" lon="-6.360924979671836">
        <ele>112.13</ele>
        <time>2023-08-27T13:57:57Z</time>
      </trkpt>
      <trkpt lat="57.295930003747344" lon="-6.360871000215411">
        <ele>111.17</ele>
        <time>2023-08-27T13:57:58Z</time>
      </trkpt>
      <trkpt lat="57.295547034591436" lon="-6.360577968880534">
        <ele>105.88</ele>
        <time>2023-08-27T13:58:03Z</time>
      </trkpt>
      <trkpt lat="57.295478973537683" lon="-6.360527006909251">
        <ele>104.44</ele>
        <time>2023-08-27T13:58:04Z</time>
      </trkpt>
      <trkpt lat="57.295285016298294" lon="-6.360378982499242">
        <ele>101.08</ele>
        <time>2023-08-27T13:58:07Z</time>
      </trkpt>
      <trkpt lat="57.295226007699966" lon="-6.360333971679211">
        <ele>99.629999999999995</ele>
        <time>2023-08-27T13:58:08Z</time>
      </trkpt>
      <trkpt lat="57.295219972729683" lon="-6.360245039686561">
        <ele>98.189999999999998</ele>
        <time>2023-08-27T13:58:09Z</time>
      </trkpt>
      <trkpt lat="57.295214021578431" lon="-6.360127022489905">
        <ele>97.230000000000004</ele>
        <time>2023-08-27T13:58:10Z</time>
      </trkpt>
      <trkpt lat="57.295206980779767" lon="-6.360001964494586">
        <ele>95.790000000000006</ele>
        <time>2023-08-27T13:58:11Z</time>
      </trkpt>
      <trkpt lat="57.295203963294625" lon="-6.359946979209781">
        <ele>94.829999999999998</ele>
        <time>2023-08-27T13:58:12Z</time>
      </trkpt>
      <trkpt lat="57.295233970507979" lon="-6.359834996983409">
        <ele>93.870000000000005</ele>
        <time>2023-08-27T13:58:13Z</time>
      </trkpt>
      <trkpt lat="57.295259032398462" lon="-6.359740030020475">
        <ele>92.900000000000006</ele>
        <time>2023-08-27T13:58:14Z</time>
      </trkpt>
      <trkpt lat="57.295289961621165" lon="-6.359625030308962">
        <ele>92.420000000000002</ele>
        <time>2023-08-27T13:58:15Z</time>
      </trkpt>
      <trkpt lat="57.295316029340029" lon="-6.359580019488931">
        <ele>91.459999999999994</ele>
        <time>2023-08-27T13:58:16Z</time>
      </trkpt>
      <trkpt lat="57.295369002968073" lon="-6.359488992020488">
        <ele>90.980000000000004</ele>
        <time>2023-08-27T13:58:17Z</time>
      </trkpt>
      <trkpt lat="57.295764964073896" lon="-6.3588079623878">
        <ele>86.180000000000007</ele>
        <time>2023-08-27T13:58:23Z</time>
      </trkpt>
      <trkpt lat="57.29585699737072" lon="-6.358759012073278">
        <ele>85.209999999999994</ele>
        <time>2023-08-27T13:58:24Z</time>
      </trkpt>
      <trkpt lat="57.297044964507222" lon="-6.358187031000853">
        <ele>76.560000000000002</ele>
        <time>2023-08-27T13:58:34Z</time>
      </trkpt>
      <trkpt lat="57.297599008306861" lon="-6.358059961348772">
        <ele>73.680000000000007</ele>
        <time>2023-08-27T13:58:39Z</time>
      </trkpt>
      <trkpt lat="57.298498973250389" lon="-6.358071025460959">
        <ele>68.390000000000001</ele>
        <time>2023-08-27T13:58:46Z</time>
      </trkpt>
      <trkpt lat="57.299407990649343" lon="-6.358049986883998">
        <ele>63.100000000000001</ele>
        <time>2023-08-27T13:58:55Z</time>
      </trkpt>
      <trkpt lat="57.300297981128097" lon="-6.357933981344104">
        <ele>51.090000000000003</ele>
        <time>2023-08-27T13:59:05Z</time>
      </trkpt>
      <trkpt lat="57.301101973280311" lon="-6.357829961925745">
        <ele>40.990000000000002</ele>
        <time>2023-08-27T13:59:13Z</time>
      </trkpt>
      <trkpt lat="57.302016019821167" lon="-6.357711022719741">
        <ele>28.02</ele>
        <time>2023-08-27T13:59:23Z</time>
      </trkpt>
      <trkpt lat="57.302186004817486" lon="-6.3576889783144">
        <ele>24.649999999999999</ele>
        <time>2023-08-27T13:59:25Z</time>
      </trkpt>
      <trkpt lat="57.302347021177411" lon="-6.357668023556471">
        <ele>21.77</ele>
        <time>2023-08-27T13:59:27Z</time>
      </trkpt>
      <trkpt lat="57.302426984533668" lon="-6.357657965272665">
        <ele>20.32</ele>
        <time>2023-08-27T13:59:28Z</time>
      </trkpt>
      <trkpt lat="57.302504014223814" lon="-6.357643967494369">
        <ele>18.399999999999999</ele>
        <time>2023-08-27T13:59:29Z</time>
      </trkpt>
      <trkpt lat="57.30258297175169" lon="-6.35762301273644">
        <ele>16.960000000000001</ele>
        <time>2023-08-27T13:59:30Z</time>
      </trkpt>
      <trkpt lat="57.302666958421469" lon="-6.357599962502718">
        <ele>15.52</ele>
        <time>2023-08-27T13:59:31Z</time>
      </trkpt>
      <trkpt lat="57.302743988111615" lon="-6.35758001357317">
        <ele>13.6</ele>
        <time>2023-08-27T13:59:32Z</time>
      </trkpt>
      <trkpt lat="57.302980022504926" lon="-6.357515975832939">
        <ele>6.87</ele>
        <time>2023-08-27T13:59:36Z</time>
      </trkpt>
      <trkpt lat="57.303017992526293" lon="-6.357504995539784">
        <ele>5.42</ele>
        <time>2023-08-27T13:59:37Z</time>
      </trkpt>
      <trkpt lat="57.303036013618112" lon="-6.357500972226262">
        <ele>3.98</ele>
        <time>2023-08-27T13:59:38Z</time>
      </trkpt>
      <trkpt lat="57.303049005568027" lon="-6.357469037175179">
        <ele>2.54</ele>
        <time>2023-08-27T13:59:39Z</time>
      </trkpt>
      <trkpt lat="57.303072977811098" lon="-6.35740801692009">
        <ele>1.58</ele>
        <time>2023-08-27T13:59:40Z</time>
      </trkpt>
      <trkpt lat="57.303094016388059" lon="-6.357354959473014">
        <ele>0.14</ele>
        <time>2023-08-27T13:59:41Z</time>
      </trkpt>
      <trkpt lat="57.303122011944652" lon="-6.357285976409912">
        <ele>-1.3</ele>
        <time>2023-08-27T13:59:42Z</time>
      </trkpt>
      <trkpt lat="57.303122011944652" lon="-6.357268039137125">
        <ele>-2.27</ele>
        <time>2023-08-27T13:59:43Z</time>
      </trkpt>
      <trkpt lat="57.303122011944652" lon="-6.357268039137125">
        <ele>-3.71</ele>
        <time>2023-08-27T13:59:55Z</time>
      </trkpt>
      <trkpt lat="57.303108014166355" lon="-6.356969978660345">
        <ele>-3.23</ele>
        <time>2023-08-27T14:00:09Z</time>
      </trkpt>
      <trkpt lat="57.303074989467859" lon="-6.356835030019283">
        <ele>-2.27</ele>
        <time>2023-08-27T14:00:13Z</time>
      </trkpt>
      <trkpt lat="57.302982034161687" lon="-6.356950029730797">
        <ele>-2.27</ele>
        <time>2023-08-27T14:00:21Z</time>
      </trkpt>
      <trkpt lat="57.302982034161687" lon="-6.356950029730797">
        <ele>-2.27</ele>
        <time>2023-08-27T14:00:53Z</time>
      </trkpt>
      <trkpt lat="57.302983039990067" lon="-6.35695899836719">
        <ele>-3.23</ele>
        <time>2023-08-27T14:01:40Z</time>
      </trkpt>
      <trkpt lat="57.302945991978049" lon="-6.356939971446991">
        <ele>-2.27</ele>
        <time>2023-08-27T14:01:57Z</time>
      </trkpt>
      <trkpt lat="57.302945991978049" lon="-6.356939971446991">
        <ele>-2.27</ele>
        <time>2023-08-27T14:02:02Z</time>
      </trkpt>
      <trkpt lat="57.303122011944652" lon="-6.357028987258673">
        <ele>-2.75</ele>
        <time>2023-08-27T14:02:06Z</time>
      </trkpt>
      <trkpt lat="57.303066020831466" lon="-6.356794964522123">
        <ele>-3.23</ele>
        <time>2023-08-27T14:02:07Z</time>
      </trkpt>
      <trkpt lat="57.30305403470993" lon="-6.356746014207602">
        <ele>-3.71</ele>
        <time>2023-08-27T14:02:08Z</time>
      </trkpt>
      <trkpt lat="57.303037019446492" lon="-6.35667803697288">
        <ele>-4.19</ele>
        <time>2023-08-27T14:02:09Z</time>
      </trkpt>
      <trkpt lat="57.303018998354673" lon="-6.356600001454353">
        <ele>-4.19</ele>
        <time>2023-08-27T14:02:10Z</time>
      </trkpt>
      <trkpt lat="57.302997959777713" lon="-6.356512997299433">
        <ele>-4.67</ele>
        <time>2023-08-27T14:02:11Z</time>
      </trkpt>
      <trkpt lat="57.30275597423315" lon="-6.355510018765926">
        <ele>-5.15</ele>
        <time>2023-08-27T14:02:25Z</time>
      </trkpt>
      <trkpt lat="57.302738958969712" lon="-6.355437012389302">
        <ele>-5.15</ele>
        <time>2023-08-27T14:02:26Z</time>
      </trkpt>
      <trkpt lat="57.302627982571721" lon="-6.355050019919872">
        <ele>-2.75</ele>
        <time>2023-08-27T14:02:36Z</time>
      </trkpt>
      <trkpt lat="57.302457997575402" lon="-6.354636959731579">
        <ele>-0.34</ele>
        <time>2023-08-27T14:02:45Z</time>
      </trkpt>
      <trkpt lat="57.302443999797106" lon="-6.354609970003367">
        <ele>0.14</ele>
        <time>2023-08-27T14:02:46Z</time>
      </trkpt>
      <trkpt lat="57.302462020888925" lon="-6.354930996894836">
        <ele>0.62</ele>
        <time>2023-08-27T14:02:47Z</time>
      </trkpt>
      <trkpt lat="57.302436036989093" lon="-6.354953041300178">
        <ele>1.1</ele>
        <time>2023-08-27T14:02:48Z</time>
      </trkpt>
      <trkpt lat="57.3024080414325" lon="-6.354978019371629">
        <ele>1.58</ele>
        <time>2023-08-27T14:02:49Z</time>
      </trkpt>
      <trkpt lat="57.302385997027159" lon="-6.354997968301177">
        <ele>1.58</ele>
        <time>2023-08-27T14:02:50Z</time>
      </trkpt>
      <trkpt lat="57.302359007298946" lon="-6.355294017121196">
        <ele>2.54</ele>
        <time>2023-08-27T14:03:03Z</time>
      </trkpt>
      <trkpt lat="57.302435031160712" lon="-6.355327963829041">
        <ele>3.5</ele>
        <time>2023-08-27T14:03:08Z</time>
      </trkpt>
      <trkpt lat="57.302534021437168" lon="-6.355256969109178">
        <ele>5.42</ele>
        <time>2023-08-27T14:03:15Z</time>
      </trkpt>
      <trkpt lat="57.302529998123646" lon="-6.355187986046076">
        <ele>5.91</ele>
        <time>2023-08-27T14:03:29Z</time>
      </trkpt>
      <trkpt lat="57.302634017542005" lon="-6.35506896302104">
        <ele>5.91</ele>
        <time>2023-08-27T14:03:32Z</time>
      </trkpt>
      <trkpt lat="57.302632005885243" lon="-6.355063011869788">
        <ele>5.91</ele>
        <time>2023-08-27T14:03:33Z</time>
      </trkpt>
      <trkpt lat="57.302403012290597" lon="-6.354981958866119">
        <ele>5.91</ele>
        <time>2023-08-27T14:03:34Z</time>
      </trkpt>
      <trkpt lat="57.302370993420482" lon="-6.355010960251093">
        <ele>5.91</ele>
        <time>2023-08-27T14:03:35Z</time>
      </trkpt>
      <trkpt lat="57.302370993420482" lon="-6.355011966079474">
        <ele>5.91</ele>
        <time>2023-08-27T14:03:36Z</time>
      </trkpt>
      <trkpt lat="57.302370993420482" lon="-6.355011966079474">
        <ele>5.91</ele>
        <time>2023-08-27T14:03:37Z</time>
      </trkpt>
      <trkpt lat="57.302339980378747" lon="-6.355193015187979">
        <ele>5.91</ele>
        <time>2023-08-27T14:03:43Z</time>
      </trkpt>
      <trkpt lat="57.302370993420482" lon="-6.355011966079474">
        <ele>5.42</ele>
        <time>2023-08-27T14:03:45Z</time>
      </trkpt>
      <trkpt lat="57.302370993420482" lon="-6.355011966079474">
        <ele>5.91</ele>
        <time>2023-08-27T14:03:46Z</time>
      </trkpt>
      <trkpt lat="57.302370993420482" lon="-6.355011966079474">
        <ele>5.91</ele>
        <time>2023-08-27T14:03:47Z</time>
      </trkpt>
      <trkpt lat="57.302370993420482" lon="-6.355011966079474">
        <ele>5.42</ele>
        <time>2023-08-27T14:03:48Z</time>
      </trkpt>
      <trkpt lat="57.302370993420482" lon="-6.355011966079474">
        <ele>5.91</ele>
        <time>2023-08-27T14:03:49Z</time>
      </trkpt>
      <trkpt lat="57.302091959863901" lon="-6.354861008003354">
        <ele>5.91</ele>
        <time>2023-08-27T14:03:50Z</time>
      </trkpt>
      <trkpt lat="57.302091959863901" lon="-6.354861008003354">
        <ele>5.42</ele>
        <time>2023-08-27T14:03:51Z</time>
      </trkpt>
      <trkpt lat="57.302091959863901" lon="-6.354861008003354">
        <ele>5.42</ele>
        <time>2023-08-27T14:04:01Z</time>
      </trkpt>
      <trkpt lat="57.302091959863901" lon="-6.354861008003354">
        <ele>5.42</ele>
        <time>2023-08-27T14:04:22Z</time>
      </trkpt>
      <trkpt lat="57.302089026197791" lon="-6.355274990200996">
        <ele>3.5</ele>
        <time>2023-08-27T14:32:03Z</time>
      </trkpt>
      <trkpt lat="57.302077040076256" lon="-6.35528102517128">
        <ele>19.359999999999999</ele>
        <time>2023-08-27T14:32:30Z</time>
      </trkpt>
      <trkpt lat="57.302074022591114" lon="-6.355270966887474">
        <ele>13.119999999999999</ele>
        <time>2023-08-27T14:33:15Z</time>
      </trkpt>
      <trkpt lat="57.302078967913985" lon="-6.355285970494151">
        <ele>14.56</ele>
        <time>2023-08-27T14:33:57Z</time>
      </trkpt>
      <trkpt lat="57.302091959863901" lon="-6.354861008003354">
        <ele>13.6</ele>
        <time>2023-08-27T14:34:01Z</time>
      </trkpt>
      <trkpt lat="57.302091959863901" lon="-6.354861008003354">
        <ele>13.119999999999999</ele>
        <time>2023-08-27T14:34:02Z</time>
      </trkpt>
      <trkpt lat="57.302370993420482" lon="-6.355011966079474">
        <ele>12.15</ele>
        <time>2023-08-27T14:34:05Z</time>
      </trkpt>
      <trkpt lat="57.302370993420482" lon="-6.355011966079474">
        <ele>12.15</ele>
        <time>2023-08-27T14:34:06Z</time>
      </trkpt>
      <trkpt lat="57.302390020340681" lon="-6.354995034635067">
        <ele>11.67</ele>
        <time>2023-08-27T14:34:07Z</time>
      </trkpt>
      <trkpt lat="57.3025409784168" lon="-6.354796970263124">
        <ele>9.75</ele>
        <time>2023-08-27T14:34:13Z</time>
      </trkpt>
      <trkpt lat="57.302513988688588" lon="-6.35474500246346">
        <ele>9.27</ele>
        <time>2023-08-27T14:34:14Z</time>
      </trkpt>
      <trkpt lat="57.302473001182079" lon="-6.354665961116552">
        <ele>9.27</ele>
        <time>2023-08-27T14:34:15Z</time>
      </trkpt>
      <trkpt lat="57.301933038979769" lon="-6.3536929897964">
        <ele>11.67</ele>
        <time>2023-08-27T14:34:25Z</time>
      </trkpt>
      <trkpt lat="57.301785014569759" lon="-6.353371040895581">
        <ele>12.15</ele>
        <time>2023-08-27T14:34:28Z</time>
      </trkpt>
      <trkpt lat="57.301747966557741" lon="-6.353289987891913">
        <ele>12.15</ele>
        <time>2023-08-27T14:34:29Z</time>
      </trkpt>
      <trkpt lat="57.301719971001148" lon="-6.353230979293585">
        <ele>12.630000000000001</ele>
        <time>2023-08-27T14:34:30Z</time>
      </trkpt>
      <trkpt lat="57.301703039556742" lon="-6.353192003443837">
        <ele>12.630000000000001</ele>
        <time>2023-08-27T14:34:31Z</time>
      </trkpt>
      <trkpt lat="57.301689963787794" lon="-6.353165013715625">
        <ele>13.119999999999999</ele>
        <time>2023-08-27T14:34:32Z</time>
      </trkpt>
      <trkpt lat="57.301677977666259" lon="-6.353138023987413">
        <ele>13.119999999999999</ele>
        <time>2023-08-27T14:34:33Z</time>
      </trkpt>
      <trkpt lat="57.301666997373104" lon="-6.353114973753691">
        <ele>13.6</ele>
        <time>2023-08-27T14:34:34Z</time>
      </trkpt>
      <trkpt lat="57.301656017079949" lon="-6.35309100151062">
        <ele>13.6</ele>
        <time>2023-08-27T14:34:35Z</time>
      </trkpt>
      <trkpt lat="57.301645958796144" lon="-6.35306803509593">
        <ele>14.08</ele>
        <time>2023-08-27T14:34:36Z</time>
      </trkpt>
      <trkpt lat="57.301610000431538" lon="-6.352989999577403">
        <ele>15.039999999999999</ele>
        <time>2023-08-27T14:34:48Z</time>
      </trkpt>
      <trkpt lat="57.301452001556754" lon="-6.352646006271243">
        <ele>16.960000000000001</ele>
        <time>2023-08-27T14:34:56Z</time>
      </trkpt>
      <trkpt lat="57.301194006577134" lon="-6.352121969684959">
        <ele>16.960000000000001</ele>
        <time>2023-08-27T14:35:01Z</time>
      </trkpt>
      <trkpt lat="57.3011439666152" lon="-6.352020967751741">
        <ele>16.960000000000001</ele>
        <time>2023-08-27T14:35:02Z</time>
      </trkpt>
      <trkpt lat="57.30092603713274" lon="-6.35158603079617">
        <ele>16.48</ele>
        <time>2023-08-27T14:35:07Z</time>
      </trkpt>
      <trkpt lat="57.30088597163558" lon="-6.351505983620882">
        <ele>16</ele>
        <time>2023-08-27T14:35:08Z</time>
      </trkpt>
      <trkpt lat="57.300263028591871" lon="-6.350349029526115">
        <ele>17.440000000000001</ele>
        <time>2023-08-27T14:35:22Z</time>
      </trkpt>
      <trkpt lat="57.29974796064198" lon="-6.349444035440683">
        <ele>19.359999999999999</ele>
        <time>2023-08-27T14:35:31Z</time>
      </trkpt>
      <trkpt lat="57.299687024205923" lon="-6.349323000758886">
        <ele>19.84</ele>
        <time>2023-08-27T14:35:32Z</time>
      </trkpt>
      <trkpt lat="57.299025021493435" lon="-6.348274005576968">
        <ele>30.420000000000002</ele>
        <time>2023-08-27T14:35:41Z</time>
      </trkpt>
      <trkpt lat="57.298065964132547" lon="-6.346841035410762">
        <ele>42.439999999999998</ele>
        <time>2023-08-27T14:35:53Z</time>
      </trkpt>
      <trkpt lat="57.297752983868122" lon="-6.346294032409787">
        <ele>45.799999999999997</ele>
        <time>2023-08-27T14:35:57Z</time>
      </trkpt>
      <trkpt lat="57.297374038025737" lon="-6.345071028918028">
        <ele>53.009999999999998</ele>
        <time>2023-08-27T14:36:04Z</time>
      </trkpt>
      <trkpt lat="57.297096010297537" lon="-6.343911979347467">
        <ele>60.700000000000003</ele>
        <time>2023-08-27T14:36:11Z</time>
      </trkpt>
      <trkpt lat="57.297043958678842" lon="-6.343662030994892">
        <ele>63.579999999999998</ele>
        <time>2023-08-27T14:36:15Z</time>
      </trkpt>
      <trkpt lat="57.297032978385687" lon="-6.343622971326113">
        <ele>64.549999999999997</ele>
        <time>2023-08-27T14:36:16Z</time>
      </trkpt>
      <trkpt lat="57.297048987820745" lon="-6.34368197992444">
        <ele>65.989999999999995</ele>
        <time>2023-08-27T14:36:18Z</time>
      </trkpt>
      <trkpt lat="57.297049993649125" lon="-6.343693966045976">
        <ele>66.469999999999999</ele>
        <time>2023-08-27T14:36:19Z</time>
      </trkpt>
      <trkpt lat="57.297053011134267" lon="-6.343769989907742">
        <ele>66.950000000000003</ele>
        <time>2023-08-27T14:36:20Z</time>
      </trkpt>
      <trkpt lat="57.29705804027617" lon="-6.3438740093261">
        <ele>67.430000000000007</ele>
        <time>2023-08-27T14:36:21Z</time>
      </trkpt>
      <trkpt lat="57.297063991427422" lon="-6.344007030129433">
        <ele>67.909999999999997</ele>
        <time>2023-08-27T14:36:22Z</time>
      </trkpt>
      <trkpt lat="57.297071032226086" lon="-6.34415396489203">
        <ele>68.390000000000001</ele>
        <time>2023-08-27T14:36:23Z</time>
      </trkpt>
      <trkpt lat="57.297157030552626" lon="-6.34602103382349">
        <ele>67.909999999999997</ele>
        <time>2023-08-27T14:36:33Z</time>
      </trkpt>
      <trkpt lat="57.297139009460807" lon="-6.346200993284583">
        <ele>68.390000000000001</ele>
        <time>2023-08-27T14:36:34Z</time>
      </trkpt>
      <trkpt lat="57.297119982540607" lon="-6.346393022686243">
        <ele>68.390000000000001</ele>
        <time>2023-08-27T14:36:35Z</time>
      </trkpt>
      <trkpt lat="57.296906998381019" lon="-6.348565025255084">
        <ele>72.239999999999995</ele>
        <time>2023-08-27T14:36:46Z</time>
      </trkpt>
      <trkpt lat="57.296785041689873" lon="-6.349603962153196">
        <ele>73.200000000000003</ele>
        <time>2023-08-27T14:36:51Z</time>
      </trkpt>
      <trkpt lat="57.296752016991377" lon="-6.349796997383237">
        <ele>73.200000000000003</ele>
        <time>2023-08-27T14:36:52Z</time>
      </trkpt>
      <trkpt lat="57.296769032254815" lon="-6.349978968501091">
        <ele>72.719999999999999</ele>
        <time>2023-08-27T14:36:53Z</time>
      </trkpt>
      <trkpt lat="57.296793004497886" lon="-6.350177032873035">
        <ele>72.719999999999999</ele>
        <time>2023-08-27T14:36:54Z</time>
      </trkpt>
      <trkpt lat="57.296816976740956" lon="-6.350370990112424">
        <ele>72.719999999999999</ele>
        <time>2023-08-27T14:36:55Z</time>
      </trkpt>
      <trkpt lat="57.296842038631439" lon="-6.350571988150477">
        <ele>72.719999999999999</ele>
        <time>2023-08-27T14:36:56Z</time>
      </trkpt>
      <trkpt lat="57.296917978674173" lon="-6.351188980042934">
        <ele>72.239999999999995</ele>
        <time>2023-08-27T14:36:59Z</time>
      </trkpt>
      <trkpt lat="57.296941028907895" lon="-6.351380003616214">
        <ele>72.239999999999995</ele>
        <time>2023-08-27T14:37:00Z</time>
      </trkpt>
      <trkpt lat="57.296942034736276" lon="-6.351553006097674">
        <ele>72.239999999999995</ele>
        <time>2023-08-27T14:37:01Z</time>
      </trkpt>
      <trkpt lat="57.296942034736276" lon="-6.351747969165444">
        <ele>72.239999999999995</ele>
        <time>2023-08-27T14:37:02Z</time>
      </trkpt>
      <trkpt lat="57.296942034736276" lon="-6.351947039365768">
        <ele>72.719999999999999</ele>
        <time>2023-08-27T14:37:03Z</time>
      </trkpt>
      <trkpt lat="57.296942034736276" lon="-6.352135967463255">
        <ele>72.719999999999999</ele>
        <time>2023-08-27T14:37:04Z</time>
      </trkpt>
      <trkpt lat="57.296942034736276" lon="-6.352309975773096">
        <ele>72.719999999999999</ele>
        <time>2023-08-27T14:37:05Z</time>
      </trkpt>
      <trkpt lat="57.296913033351302" lon="-6.352567970752716">
        <ele>73.200000000000003</ele>
        <time>2023-08-27T14:37:06Z</time>
      </trkpt>
      <trkpt lat="57.296838015317917" lon="-6.352689005434513">
        <ele>73.200000000000003</ele>
        <time>2023-08-27T14:37:07Z</time>
      </trkpt>
      <trkpt lat="57.296834997832775" lon="-6.352694034576416">
        <ele>73.680000000000007</ele>
        <time>2023-08-27T14:37:08Z</time>
      </trkpt>
      <trkpt lat="57.296577002853155" lon="-6.352651035413146">
        <ele>74.159999999999997</ele>
        <time>2023-08-27T14:37:09Z</time>
      </trkpt>
      <trkpt lat="57.296497039496899" lon="-6.352710966020823">
        <ele>74.640000000000001</ele>
        <time>2023-08-27T14:37:10Z</time>
      </trkpt>
      <trkpt lat="57.296037040650845" lon="-6.35343499481678">
        <ele>79.450000000000003</ele>
        <time>2023-08-27T14:37:15Z</time>
      </trkpt>
      <trkpt lat="57.295954981818795" lon="-6.353552006185055">
        <ele>80.890000000000001</ele>
        <time>2023-08-27T14:37:16Z</time>
      </trkpt>
      <trkpt lat="57.295907037332654" lon="-6.353753004223108">
        <ele>81.849999999999994</ele>
        <time>2023-08-27T14:37:17Z</time>
      </trkpt>
      <trkpt lat="57.295860014855862" lon="-6.353952996432781">
        <ele>83.290000000000006</ele>
        <time>2023-08-27T14:37:18Z</time>
      </trkpt>
      <trkpt lat="57.295810980722308" lon="-6.354159023612738">
        <ele>84.730000000000004</ele>
        <time>2023-08-27T14:37:19Z</time>
      </trkpt>
      <trkpt lat="57.295188037678599" lon="-6.356025002896786">
        <ele>96.75</ele>
        <time>2023-08-27T14:37:29Z</time>
      </trkpt>
      <trkpt lat="57.294571967795491" lon="-6.357704987749457">
        <ele>105.88</ele>
        <time>2023-08-27T14:37:39Z</time>
      </trkpt>
      <trkpt lat="57.294477000832558" lon="-6.357843037694693">
        <ele>106.84</ele>
        <time>2023-08-27T14:37:40Z</time>
      </trkpt>
      <trkpt lat="57.294351020827889" lon="-6.357964994385839">
        <ele>107.31999999999999</ele>
        <time>2023-08-27T14:37:41Z</time>
      </trkpt>
      <trkpt lat="57.294106017798185" lon="-6.358137996867299">
        <ele>109.25</ele>
        <time>2023-08-27T14:37:43Z</time>
      </trkpt>
      <trkpt lat="57.294018007814884" lon="-6.358295995742083">
        <ele>110.20999999999999</ele>
        <time>2023-08-27T14:37:44Z</time>
      </trkpt>
      <trkpt lat="57.29394500143826" lon="-6.358493976294994">
        <ele>111.17</ele>
        <time>2023-08-27T14:37:45Z</time>
      </trkpt>
      <trkpt lat="57.293871995061636" lon="-6.358690029010177">
        <ele>112.61</ele>
        <time>2023-08-27T14:37:46Z</time>
      </trkpt>
      <trkpt lat="57.293788008391857" lon="-6.358917010948062">
        <ele>114.05</ele>
        <time>2023-08-27T14:37:47Z</time>
      </trkpt>
      <trkpt lat="57.293766969814897" lon="-6.359059000387788">
        <ele>115.5</ele>
        <time>2023-08-27T14:37:48Z</time>
      </trkpt>
      <trkpt lat="57.293562032282352" lon="-6.360749965533614">
        <ele>120.78</ele>
        <time>2023-08-27T14:37:58Z</time>
      </trkpt>
      <trkpt lat="57.293547028675675" lon="-6.362809985876083">
        <ele>122.70999999999999</ele>
        <time>2023-08-27T14:38:09Z</time>
      </trkpt>
      <trkpt lat="57.293496988713741" lon="-6.363429995253682">
        <ele>125.11</ele>
        <time>2023-08-27T14:38:13Z</time>
      </trkpt>
      <trkpt lat="57.29345097206533" lon="-6.363579025492072">
        <ele>126.06999999999999</ele>
        <time>2023-08-27T14:38:14Z</time>
      </trkpt>
      <trkpt lat="57.293376037850976" lon="-6.363635016605258">
        <ele>126.55</ele>
        <time>2023-08-27T14:38:15Z</time>
      </trkpt>
      <trkpt lat="57.293288027867675" lon="-6.363700982183218">
        <ele>127.03</ele>
        <time>2023-08-27T14:38:16Z</time>
      </trkpt>
      <trkpt lat="57.293190965428948" lon="-6.363773988559842">
        <ele>127.51000000000001</ele>
        <time>2023-08-27T14:38:17Z</time>
      </trkpt>
      <trkpt lat="57.29308401234448" lon="-6.36385403573513">
        <ele>128.47</ele>
        <time>2023-08-27T14:38:18Z</time>
      </trkpt>
      <trkpt lat="57.291885986924171" lon="-6.364625003188849">
        <ele>128.94999999999999</ele>
        <time>2023-08-27T14:38:28Z</time>
      </trkpt>
      <trkpt lat="57.291611982509494" lon="-6.364789037033916">
        <ele>130.40000000000001</ele>
        <time>2023-08-27T14:38:31Z</time>
      </trkpt>
      <trkpt lat="57.29153998196125" lon="-6.364937983453274">
        <ele>131.36000000000001</ele>
        <time>2023-08-27T14:38:32Z</time>
      </trkpt>
      <trkpt lat="57.291476028040051" lon="-6.365094976499677">
        <ele>131.84</ele>
        <time>2023-08-27T14:38:33Z</time>
      </trkpt>
      <trkpt lat="57.291407966986299" lon="-6.365259010344744">
        <ele>132.31999999999999</ele>
        <time>2023-08-27T14:38:34Z</time>
      </trkpt>
      <trkpt lat="57.291343007236719" lon="-6.365416003391147">
        <ele>133.28</ele>
        <time>2023-08-27T14:38:35Z</time>
      </trkpt>
      <trkpt lat="57.290988033637404" lon="-6.366286966949701">
        <ele>138.09</ele>
        <time>2023-08-27T14:38:42Z</time>
      </trkpt>
      <trkpt lat="57.29009997099638" lon="-6.368594001978636">
        <ele>149.13999999999999</ele>
        <time>2023-08-27T14:38:57Z</time>
      </trkpt>
      <trkpt lat="57.289973990991712" lon="-6.369094988331199">
        <ele>152.03</ele>
        <time>2023-08-27T14:39:00Z</time>
      </trkpt>
      <trkpt lat="57.289618011564016" lon="-6.370587972924113">
        <ele>161.16</ele>
        <time>2023-08-27T14:39:08Z</time>
      </trkpt>
      <trkpt lat="57.289460012689233" lon="-6.371209993958473">
        <ele>164.52000000000001</ele>
        <time>2023-08-27T14:39:12Z</time>
      </trkpt>
      <trkpt lat="57.289148038253188" lon="-6.372136026620865">
        <ele>169.33000000000001</ele>
        <time>2023-08-27T14:39:18Z</time>
      </trkpt>
      <trkpt lat="57.289096992462873" lon="-6.372284973040223">
        <ele>169.81</ele>
        <time>2023-08-27T14:39:19Z</time>
      </trkpt>
      <trkpt lat="57.289060028269887" lon="-6.372475996613503">
        <ele>170.28999999999999</ele>
        <time>2023-08-27T14:39:20Z</time>
      </trkpt>
      <trkpt lat="57.289047036319971" lon="-6.372682023793459">
        <ele>170.77000000000001</ele>
        <time>2023-08-27T14:39:21Z</time>
      </trkpt>
      <trkpt lat="57.289033038541675" lon="-6.372892996296287">
        <ele>171.72999999999999</ele>
        <time>2023-08-27T14:39:22Z</time>
      </trkpt>
      <trkpt lat="57.28900495916605" lon="-6.373305972665548">
        <ele>173.16999999999999</ele>
        <time>2023-08-27T14:39:24Z</time>
      </trkpt>
      <trkpt lat="57.288696002215147" lon="-6.375572020187974">
        <ele>180.38</ele>
        <time>2023-08-27T14:39:35Z</time>
      </trkpt>
      <trkpt lat="57.28827103972435" lon="-6.377511005848646">
        <ele>179.90000000000001</ele>
        <time>2023-08-27T14:39:44Z</time>
      </trkpt>
      <trkpt lat="57.288254024460912" lon="-6.377723990008235">
        <ele>179.90000000000001</ele>
        <time>2023-08-27T14:39:45Z</time>
      </trkpt>
      <trkpt lat="57.288256958127022" lon="-6.377954995259643">
        <ele>180.38</ele>
        <time>2023-08-27T14:39:46Z</time>
      </trkpt>
      <trkpt lat="57.288366006687284" lon="-6.380471996963024">
        <ele>185.66999999999999</ele>
        <time>2023-08-27T14:39:56Z</time>
      </trkpt>
      <trkpt lat="57.288302974775434" lon="-6.381950983777642">
        <ele>191.44</ele>
        <time>2023-08-27T14:40:03Z</time>
      </trkpt>
      <trkpt lat="57.288202978670597" lon="-6.384549960494041">
        <ele>194.31999999999999</ele>
        <time>2023-08-27T14:40:14Z</time>
      </trkpt>
      <trkpt lat="57.288222005590796" lon="-6.384751964360476">
        <ele>193.84</ele>
        <time>2023-08-27T14:40:15Z</time>
      </trkpt>
      <trkpt lat="57.288241032510996" lon="-6.384955979883671">
        <ele>193.36000000000001</ele>
        <time>2023-08-27T14:40:16Z</time>
      </trkpt>
      <trkpt lat="57.288248995319009" lon="-6.385153960436583">
        <ele>193.36000000000001</ele>
        <time>2023-08-27T14:40:17Z</time>
      </trkpt>
      <trkpt lat="57.288243966177106" lon="-6.385356970131397">
        <ele>192.88</ele>
        <time>2023-08-27T14:40:18Z</time>
      </trkpt>
      <trkpt lat="57.288237009197474" lon="-6.385571965947747">
        <ele>192.40000000000001</ele>
        <time>2023-08-27T14:40:19Z</time>
      </trkpt>
      <trkpt lat="57.28823097422719" lon="-6.385785033926368">
        <ele>191.91999999999999</ele>
        <time>2023-08-27T14:40:20Z</time>
      </trkpt>
      <trkpt lat="57.288198033347726" lon="-6.385972034186125">
        <ele>191.44</ele>
        <time>2023-08-27T14:40:21Z</time>
      </trkpt>
      <trkpt lat="57.288156962022185" lon="-6.386159034445882">
        <ele>190.96000000000001</ele>
        <time>2023-08-27T14:40:22Z</time>
      </trkpt>
      <trkpt lat="57.288116980344057" lon="-6.386338993906975">
        <ele>190.96000000000001</ele>
        <time>2023-08-27T14:40:23Z</time>
      </trkpt>
      <trkpt lat="57.288078004494309" lon="-6.386518031358719">
        <ele>190.47999999999999</ele>
        <time>2023-08-27T14:40:24Z</time>
      </trkpt>
      <trkpt lat="57.288037016987801" lon="-6.386705031618476">
        <ele>190</ele>
        <time>2023-08-27T14:40:25Z</time>
      </trkpt>
      <trkpt lat="57.288011033087969" lon="-6.386923966929317">
        <ele>190</ele>
        <time>2023-08-27T14:40:26Z</time>
      </trkpt>
      <trkpt lat="57.287756977602839" lon="-6.38953099027276">
        <ele>179.90000000000001</ele>
        <time>2023-08-27T14:40:37Z</time>
      </trkpt>
      <trkpt lat="57.287626974284649" lon="-6.391138974577189">
        <ele>176.53999999999999</ele>
        <time>2023-08-27T14:40:45Z</time>
      </trkpt>
      <trkpt lat="57.28764901868999" lon="-6.391811035573483">
        <ele>177.02000000000001</ele>
        <time>2023-08-27T14:40:49Z</time>
      </trkpt>
      <trkpt lat="57.287664022296667" lon="-6.391984038054943">
        <ele>177.02000000000001</ele>
        <time>2023-08-27T14:40:50Z</time>
      </trkpt>
      <trkpt lat="57.287779022008181" lon="-6.39365597628057">
        <ele>179.90000000000001</ele>
        <time>2023-08-27T14:40:59Z</time>
      </trkpt>
      <trkpt lat="57.287750020623207" lon="-6.393850017338991">
        <ele>179.41999999999999</ele>
        <time>2023-08-27T14:41:00Z</time>
      </trkpt>
      <trkpt lat="57.287716995924711" lon="-6.394044980406761">
        <ele>179.41999999999999</ele>
        <time>2023-08-27T14:41:01Z</time>
      </trkpt>
      <trkpt lat="57.287522032856941" lon="-6.395539976656437">
        <ele>176.06</ele>
        <time>2023-08-27T14:41:08Z</time>
      </trkpt>
      <trkpt lat="57.287522032856941" lon="-6.395765030756593">
        <ele>175.09999999999999</ele>
        <time>2023-08-27T14:41:09Z</time>
      </trkpt>
      <trkpt lat="57.287738034501672" lon="-6.397838965058327">
        <ele>172.69</ele>
        <time>2023-08-27T14:41:18Z</time>
      </trkpt>
      <trkpt lat="57.288003992289305" lon="-6.400219006463885">
        <ele>171.25</ele>
        <time>2023-08-27T14:41:29Z</time>
      </trkpt>
      <trkpt lat="57.288011033087969" lon="-6.400392008945346">
        <ele>171.25</ele>
        <time>2023-08-27T14:41:30Z</time>
      </trkpt>
      <trkpt lat="57.287860997021198" lon="-6.401826990768313">
        <ele>169.33000000000001</ele>
        <time>2023-08-27T14:41:38Z</time>
      </trkpt>
      <trkpt lat="57.287849010899663" lon="-6.40201298519969">
        <ele>168.84999999999999</ele>
        <time>2023-08-27T14:41:39Z</time>
      </trkpt>
      <trkpt lat="57.288030982017517" lon="-6.404334018006921">
        <ele>161.16</ele>
        <time>2023-08-27T14:41:51Z</time>
      </trkpt>
      <trkpt lat="57.288197027519345" lon="-6.405333979055286">
        <ele>157.31</ele>
        <time>2023-08-27T14:41:58Z</time>
      </trkpt>
      <trkpt lat="57.288377992808819" lon="-6.406840961426497">
        <ele>152.99000000000001</ele>
        <time>2023-08-27T14:42:07Z</time>
      </trkpt>
      <trkpt lat="57.288525011390448" lon="-6.408227998763323">
        <ele>145.78</ele>
        <time>2023-08-27T14:42:15Z</time>
      </trkpt>
      <trkpt lat="57.288530962541699" lon="-6.409653006121516">
        <ele>142.41</ele>
        <time>2023-08-27T14:42:23Z</time>
      </trkpt>
      <trkpt lat="57.288507996127009" lon="-6.409818967804313">
        <ele>141.93000000000001</ele>
        <time>2023-08-27T14:42:24Z</time>
      </trkpt>
      <trkpt lat="57.288478994742036" lon="-6.409995993599296">
        <ele>141.44999999999999</ele>
        <time>2023-08-27T14:42:25Z</time>
      </trkpt>
      <trkpt lat="57.288448987528682" lon="-6.41017603687942">
        <ele>141.44999999999999</ele>
        <time>2023-08-27T14:42:26Z</time>
      </trkpt>
      <trkpt lat="57.288419986143708" lon="-6.410351973026991">
        <ele>141.44999999999999</ele>
        <time>2023-08-27T14:42:27Z</time>
      </trkpt>
      <trkpt lat="57.288390984758735" lon="-6.410524975508452">
        <ele>141.44999999999999</ele>
        <time>2023-08-27T14:42:28Z</time>
      </trkpt>
      <trkpt lat="57.288358965888619" lon="-6.410715999081731">
        <ele>140.97</ele>
        <time>2023-08-27T14:42:29Z</time>
      </trkpt>
      <trkpt lat="57.288252012804151" lon="-6.412041010335088">
        <ele>138.56999999999999</ele>
        <time>2023-08-27T14:42:37Z</time>
      </trkpt>
      <trkpt lat="57.288209013640881" lon="-6.413854015991092">
        <ele>136.16</ele>
        <time>2023-08-27T14:42:47Z</time>
      </trkpt>
      <trkpt lat="57.288060989230871" lon="-6.415425958111882">
        <ele>132.31999999999999</ele>
        <time>2023-08-27T14:42:57Z</time>
      </trkpt>
      <trkpt lat="57.288053026422858" lon="-6.415512040257454">
        <ele>131.84</ele>
        <time>2023-08-27T14:43:06Z</time>
      </trkpt>
      <trkpt lat="57.288051014766097" lon="-6.415531989187002">
        <ele>131.84</ele>
        <time>2023-08-27T14:43:08Z</time>
      </trkpt>
      <trkpt lat="57.28803601115942" lon="-6.415687976405025">
        <ele>130.88</ele>
        <time>2023-08-27T14:43:10Z</time>
      </trkpt>
      <trkpt lat="57.288023019209504" lon="-6.415825020521879">
        <ele>130.88</ele>
        <time>2023-08-27T14:43:11Z</time>
      </trkpt>
      <trkpt lat="57.287942972034216" lon="-6.417487990111113">
        <ele>121.26000000000001</ele>
        <time>2023-08-27T14:43:20Z</time>
      </trkpt>
      <trkpt lat="57.288029976189137" lon="-6.419489001855254">
        <ele>112.61</ele>
        <time>2023-08-27T14:43:31Z</time>
      </trkpt>
      <trkpt lat="57.288090996444225" lon="-6.420417968183756">
        <ele>110.69</ele>
        <time>2023-08-27T14:43:36Z</time>
      </trkpt>
      <trkpt lat="57.288377992808819" lon="-6.422567004337907">
        <ele>105.88</ele>
        <time>2023-08-27T14:43:47Z</time>
      </trkpt>
      <trkpt lat="57.288631964474916" lon="-6.425075037404895">
        <ele>101.08</ele>
        <time>2023-08-27T14:43:59Z</time>
      </trkpt>
      <trkpt lat="57.288664989173412" lon="-6.425262037664652">
        <ele>101.08</ele>
        <time>2023-08-27T14:44:00Z</time>
      </trkpt>
      <trkpt lat="57.288712011650205" lon="-6.425438979640603">
        <ele>100.11</ele>
        <time>2023-08-27T14:44:01Z</time>
      </trkpt>
      <trkpt lat="57.288771020248532" lon="-6.425608964636922">
        <ele>99.150000000000006</ele>
        <time>2023-08-27T14:44:02Z</time>
      </trkpt>
      <trkpt lat="57.289029015228152" lon="-6.426431983709335">
        <ele>93.870000000000005</ele>
        <time>2023-08-27T14:44:07Z</time>
      </trkpt>
      <trkpt lat="57.289058016613126" lon="-6.426602974534035">
        <ele>92.420000000000002</ele>
        <time>2023-08-27T14:44:08Z</time>
      </trkpt>
      <trkpt lat="57.289051981642842" lon="-6.426753010600805">
        <ele>91.459999999999994</ele>
        <time>2023-08-27T14:44:09Z</time>
      </trkpt>
      <trkpt lat="57.289027003571391" lon="-6.426917966455221">
        <ele>90.019999999999996</ele>
        <time>2023-08-27T14:44:10Z</time>
      </trkpt>
      <trkpt lat="57.289000013843179" lon="-6.427091974765062">
        <ele>89.060000000000002</ele>
        <time>2023-08-27T14:44:11Z</time>
      </trkpt>
      <trkpt lat="57.288972018286586" lon="-6.427273023873568">
        <ele>88.099999999999994</ele>
        <time>2023-08-27T14:44:12Z</time>
      </trkpt>
      <trkpt lat="57.288682004436851" lon="-6.429160963743925">
        <ele>78.480000000000004</ele>
        <time>2023-08-27T14:44:23Z</time>
      </trkpt>
      <trkpt lat="57.28870103135705" lon="-6.429281998425722">
        <ele>77.519999999999996</ele>
        <time>2023-08-27T14:44:24Z</time>
      </trkpt>
      <trkpt lat="57.288721986114979" lon="-6.429394986480475">
        <ele>76.560000000000002</ele>
        <time>2023-08-27T14:44:25Z</time>
      </trkpt>
      <trkpt lat="57.288741013035178" lon="-6.429500011727214">
        <ele>76.079999999999998</ele>
        <time>2023-08-27T14:44:26Z</time>
      </trkpt>
      <trkpt lat="57.288759034126997" lon="-6.42960000783205">
        <ele>75.120000000000005</ele>
        <time>2023-08-27T14:44:27Z</time>
      </trkpt>
      <trkpt lat="57.288778983056545" lon="-6.4297079667449">
        <ele>74.640000000000001</ele>
        <time>2023-08-27T14:44:28Z</time>
      </trkpt>
      <trkpt lat="57.288800021633506" lon="-6.429825983941555">
        <ele>73.680000000000007</ele>
        <time>2023-08-27T14:44:29Z</time>
      </trkpt>
      <trkpt lat="57.288803961127996" lon="-6.429969985038042">
        <ele>73.200000000000003</ele>
        <time>2023-08-27T14:44:30Z</time>
      </trkpt>
      <trkpt lat="57.288794992491603" lon="-6.430106023326516">
        <ele>72.239999999999995</ele>
        <time>2023-08-27T14:44:31Z</time>
      </trkpt>
      <trkpt lat="57.288785018026829" lon="-6.430250024423003">
        <ele>71.269999999999996</ele>
        <time>2023-08-27T14:44:32Z</time>
      </trkpt>
      <trkpt lat="57.28868099860847" lon="-6.431857002899051">
        <ele>61.18</ele>
        <time>2023-08-27T14:44:41Z</time>
      </trkpt>
      <trkpt lat="57.288763979449868" lon="-6.433159969747067">
        <ele>50.609999999999999</ele>
        <time>2023-08-27T14:44:48Z</time>
      </trkpt>
      <trkpt lat="57.28878702968359" lon="-6.433297013863921">
        <ele>49.159999999999997</ele>
        <time>2023-08-27T14:44:49Z</time>
      </trkpt>
      <trkpt lat="57.288804966956377" lon="-6.433400027453899">
        <ele>48.200000000000003</ele>
        <time>2023-08-27T14:44:50Z</time>
      </trkpt>
      <trkpt lat="57.288845032453537" lon="-6.433634972199798">
        <ele>39.07</ele>
        <time>2023-08-27T14:44:58Z</time>
      </trkpt>
      <trkpt lat="57.288858024403453" lon="-6.433708984404802">
        <ele>37.630000000000003</ele>
        <time>2023-08-27T14:45:03Z</time>
      </trkpt>
      <trkpt lat="57.288874033838511" lon="-6.433804035186768">
        <ele>36.670000000000002</ele>
        <time>2023-08-27T14:45:04Z</time>
      </trkpt>
      <trkpt lat="57.288874033838511" lon="-6.433909982442856">
        <ele>36.189999999999998</ele>
        <time>2023-08-27T14:45:05Z</time>
      </trkpt>
      <trkpt lat="57.288719974458218" lon="-6.43544496037066">
        <ele>32.82</ele>
        <time>2023-08-27T14:45:15Z</time>
      </trkpt>
      <trkpt lat="57.288302974775434" lon="-6.437253020703793">
        <ele>29.940000000000001</ele>
        <time>2023-08-27T14:45:25Z</time>
      </trkpt>
      <trkpt lat="57.288116980344057" lon="-6.437704972922802">
        <ele>28.98</ele>
        <time>2023-08-27T14:45:29Z</time>
      </trkpt>
      <trkpt lat="57.288069035857916" lon="-6.437817038968206">
        <ele>28.98</ele>
        <time>2023-08-27T14:45:30Z</time>
      </trkpt>
      <trkpt lat="57.287994017824531" lon="-6.437988029792905">
        <ele>28.5</ele>
        <time>2023-08-27T14:45:31Z</time>
      </trkpt>
      <trkpt lat="57.287609959021211" lon="-6.438533021137118">
        <ele>27.530000000000001</ele>
        <time>2023-08-27T14:45:38Z</time>
      </trkpt>
      <trkpt lat="57.287587998434901" lon="-6.438590018078685">
        <ele>27.050000000000001</ele>
        <time>2023-08-27T14:45:39Z</time>
      </trkpt>
      <trkpt lat="57.287532007321715" lon="-6.438734019175172">
        <ele>25.609999999999999</ele>
        <time>2023-08-27T14:45:49Z</time>
      </trkpt>
      <trkpt lat="57.287420025095344" lon="-6.438848013058305">
        <ele>23.210000000000001</ele>
        <time>2023-08-27T14:46:13Z</time>
      </trkpt>
      <trkpt lat="57.287420025095344" lon="-6.438848013058305">
        <ele>20.32</ele>
        <time>2023-08-27T14:46:20Z</time>
      </trkpt>
      <trkpt lat="57.287495965138078" lon="-6.438782969489694">
        <ele>19.84</ele>
        <time>2023-08-27T14:46:23Z</time>
      </trkpt>
      <trkpt lat="57.287495965138078" lon="-6.438782969489694">
        <ele>18.879999999999999</ele>
        <time>2023-08-27T14:46:32Z</time>
      </trkpt>
      <trkpt lat="57.287495965138078" lon="-6.438782969489694">
        <ele>18.399999999999999</ele>
        <time>2023-08-27T14:47:10Z</time>
      </trkpt>
      <trkpt lat="57.287505017593503" lon="-6.438776012510061">
        <ele>18.399999999999999</ele>
        <time>2023-08-27T14:47:36Z</time>
      </trkpt>
      <trkpt lat="57.287560002878308" lon="-6.438661012798548">
        <ele>18.399999999999999</ele>
        <time>2023-08-27T14:47:38Z</time>
      </trkpt>
      <trkpt lat="57.287633009254932" lon="-6.438477030023933">
        <ele>18.879999999999999</ele>
        <time>2023-08-27T14:47:40Z</time>
      </trkpt>
      <trkpt lat="57.288116980344057" lon="-6.437703967094421">
        <ele>20.32</ele>
        <time>2023-08-27T14:47:49Z</time>
      </trkpt>
      <trkpt lat="57.288164002820849" lon="-6.437596008181572">
        <ele>20.809999999999999</ele>
        <time>2023-08-27T14:47:50Z</time>
      </trkpt>
      <trkpt lat="57.288213036954403" lon="-6.4374840259552">
        <ele>21.289999999999999</ele>
        <time>2023-08-27T14:47:51Z</time>
      </trkpt>
      <trkpt lat="57.288513025268912" lon="-6.436596969142556">
        <ele>23.210000000000001</ele>
        <time>2023-08-27T14:47:58Z</time>
      </trkpt>
      <trkpt lat="57.288739001378417" lon="-6.435298025608063">
        <ele>27.050000000000001</ele>
        <time>2023-08-27T14:48:08Z</time>
      </trkpt>
      <trkpt lat="57.288761967793107" lon="-6.435112031176686">
        <ele>28.02</ele>
        <time>2023-08-27T14:48:10Z</time>
      </trkpt>
      <trkpt lat="57.288773031905293" lon="-6.435030978173018">
        <ele>28.5</ele>
        <time>2023-08-27T14:48:11Z</time>
      </trkpt>
      <trkpt lat="57.288791975006461" lon="-6.434875996783376">
        <ele>29.940000000000001</ele>
        <time>2023-08-27T14:48:13Z</time>
      </trkpt>
      <trkpt lat="57.288803039118648" lon="-6.434791004285216">
        <ele>30.420000000000002</ele>
        <time>2023-08-27T14:48:14Z</time>
      </trkpt>
      <trkpt lat="57.288814019411802" lon="-6.434704000130296">
        <ele>31.379999999999999</ele>
        <time>2023-08-27T14:48:15Z</time>
      </trkpt>
      <trkpt lat="57.288826005533338" lon="-6.434614984318614">
        <ele>31.859999999999999</ele>
        <time>2023-08-27T14:48:16Z</time>
      </trkpt>
      <trkpt lat="57.288836985826492" lon="-6.434524962678552">
        <ele>32.340000000000003</ele>
        <time>2023-08-27T14:48:17Z</time>
      </trkpt>
      <trkpt lat="57.288861041888595" lon="-6.434337962418795">
        <ele>33.299999999999997</ele>
        <time>2023-08-27T14:48:19Z</time>
      </trkpt>
      <trkpt lat="57.288874033838511" lon="-6.434150962159038">
        <ele>34.259999999999998</ele>
        <time>2023-08-27T14:48:21Z</time>
      </trkpt>
      <trkpt lat="57.288874033838511" lon="-6.434075022116303">
        <ele>34.740000000000002</ele>
        <time>2023-08-27T14:48:22Z</time>
      </trkpt>
      <trkpt lat="57.288874033838511" lon="-6.434005033224821">
        <ele>35.229999999999997</ele>
        <time>2023-08-27T14:48:23Z</time>
      </trkpt>
      <trkpt lat="57.288874033838511" lon="-6.433804035186768">
        <ele>36.189999999999998</ele>
        <time>2023-08-27T14:48:26Z</time>
      </trkpt>
      <trkpt lat="57.288846960291266" lon="-6.433644024655223">
        <ele>39.07</ele>
        <time>2023-08-27T14:48:33Z</time>
      </trkpt>
      <trkpt lat="57.288846960291266" lon="-6.433644024655223">
        <ele>39.549999999999997</ele>
        <time>2023-08-27T14:48:44Z</time>
      </trkpt>
      <trkpt lat="57.288846960291266" lon="-6.433644024655223">
        <ele>41.469999999999999</ele>
        <time>2023-08-27T14:49:01Z</time>
      </trkpt>
      <trkpt lat="57.288846960291266" lon="-6.433644024655223">
        <ele>42.439999999999998</ele>
        <time>2023-08-27T14:49:02Z</time>
      </trkpt>
      <trkpt lat="57.288740007206798" lon="-6.43301697447896">
        <ele>44.840000000000003</ele>
        <time>2023-08-27T14:49:07Z</time>
      </trkpt>
      <trkpt lat="57.288682004436851" lon="-6.431884998455644">
        <ele>49.159999999999997</ele>
        <time>2023-08-27T14:49:12Z</time>
      </trkpt>
      <trkpt lat="57.288692984730005" lon="-6.43166296184063">
        <ele>50.609999999999999</ele>
        <time>2023-08-27T14:49:13Z</time>
      </trkpt>
      <trkpt lat="57.288707988336682" lon="-6.431435979902744">
        <ele>52.049999999999997</ele>
        <time>2023-08-27T14:49:14Z</time>
      </trkpt>
      <trkpt lat="57.288794992491603" lon="-6.430091019719839">
        <ele>62.619999999999997</ele>
        <time>2023-08-27T14:49:21Z</time>
      </trkpt>
      <trkpt lat="57.288805972784758" lon="-6.429933020845056">
        <ele>64.069999999999993</ele>
        <time>2023-08-27T14:49:22Z</time>
      </trkpt>
      <trkpt lat="57.288789041340351" lon="-6.429765969514847">
        <ele>65.030000000000001</ele>
        <time>2023-08-27T14:49:23Z</time>
      </trkpt>
      <trkpt lat="57.288760961964726" lon="-6.429607970640063">
        <ele>65.989999999999995</ele>
        <time>2023-08-27T14:49:24Z</time>
      </trkpt>
      <trkpt lat="57.288731960579753" lon="-6.42945097759366">
        <ele>66.469999999999999</ele>
        <time>2023-08-27T14:49:25Z</time>
      </trkpt>
      <trkpt lat="57.288702037185431" lon="-6.429288033396006">
        <ele>67.430000000000007</ele>
        <time>2023-08-27T14:49:26Z</time>
      </trkpt>
      <trkpt lat="57.288689967244864" lon="-6.429111007601023">
        <ele>68.390000000000001</ele>
        <time>2023-08-27T14:49:27Z</time>
      </trkpt>
      <trkpt lat="57.288717962801456" lon="-6.428929958492518">
        <ele>68.870000000000005</ele>
        <time>2023-08-27T14:49:28Z</time>
      </trkpt>
      <trkpt lat="57.288999008014798" lon="-6.427103960886598">
        <ele>75.599999999999994</ele>
        <time>2023-08-27T14:49:36Z</time>
      </trkpt>
      <trkpt lat="57.289050975814462" lon="-6.426762985065579">
        <ele>77.519999999999996</ele>
        <time>2023-08-27T14:49:38Z</time>
      </trkpt>
      <trkpt lat="57.289057010784745" lon="-6.426599035039544">
        <ele>78.969999999999999</ele>
        <time>2023-08-27T14:49:39Z</time>
      </trkpt>
      <trkpt lat="57.289032032713294" lon="-6.426446987316012">
        <ele>79.930000000000007</ele>
        <time>2023-08-27T14:49:40Z</time>
      </trkpt>
      <trkpt lat="57.289005964994431" lon="-6.426296029239893">
        <ele>80.890000000000001</ele>
        <time>2023-08-27T14:49:41Z</time>
      </trkpt>
      <trkpt lat="57.288962965831161" lon="-6.426159990951419">
        <ele>82.329999999999998</ele>
        <time>2023-08-27T14:49:42Z</time>
      </trkpt>
      <trkpt lat="57.288913009688258" lon="-6.426013978198171">
        <ele>83.769999999999996</ele>
        <time>2023-08-27T14:49:43Z</time>
      </trkpt>
      <trkpt lat="57.28868099860847" lon="-6.425349963828921">
        <ele>89.060000000000002</ele>
        <time>2023-08-27T14:49:47Z</time>
      </trkpt>
      <trkpt lat="57.288640011101961" lon="-6.425120970234275">
        <ele>90.5</ele>
        <time>2023-08-27T14:49:48Z</time>
      </trkpt>
      <trkpt lat="57.288601035252213" lon="-6.424903962761164">
        <ele>91.459999999999994</ele>
        <time>2023-08-27T14:49:49Z</time>
      </trkpt>
      <trkpt lat="57.28833700530231" lon="-6.422113962471485">
        <ele>98.189999999999998</ele>
        <time>2023-08-27T14:50:00Z</time>
      </trkpt>
      <trkpt lat="57.288060989230871" lon="-6.420023012906313">
        <ele>101.08</ele>
        <time>2023-08-27T14:50:09Z</time>
      </trkpt>
      <trkpt lat="57.287959987297654" lon="-6.41711700707674">
        <ele>110.20999999999999</ele>
        <time>2023-08-27T14:50:21Z</time>
      </trkpt>
      <trkpt lat="57.288142964243889" lon="-6.414557006210089">
        <ele>120.78</ele>
        <time>2023-08-27T14:50:33Z</time>
      </trkpt>
      <trkpt lat="57.288252012804151" lon="-6.412375029176474">
        <ele>129.43000000000001</ele>
        <time>2023-08-27T14:50:43Z</time>
      </trkpt>
      <trkpt lat="57.288367012515664" lon="-6.410668976604939">
        <ele>135.19999999999999</ele>
        <time>2023-08-27T14:50:52Z</time>
      </trkpt>
      <trkpt lat="57.288397019729018" lon="-6.410485999658704">
        <ele>135.68000000000001</ele>
        <time>2023-08-27T14:50:53Z</time>
      </trkpt>
      <trkpt lat="57.288428032770753" lon="-6.410298999398947">
        <ele>136.63999999999999</ele>
        <time>2023-08-27T14:50:54Z</time>
      </trkpt>
      <trkpt lat="57.288524005562067" lon="-6.409722995012999">
        <ele>138.09</ele>
        <time>2023-08-27T14:50:57Z</time>
      </trkpt>
      <trkpt lat="57.288532974198461" lon="-6.409528031945229">
        <ele>138.56999999999999</ele>
        <time>2023-08-27T14:50:58Z</time>
      </trkpt>
      <trkpt lat="57.288536997511983" lon="-6.409326028078795">
        <ele>138.56999999999999</ele>
        <time>2023-08-27T14:50:59Z</time>
      </trkpt>
      <trkpt lat="57.288398025557399" lon="-6.407027039676905">
        <ele>142.88999999999999</ele>
        <time>2023-08-27T14:51:11Z</time>
      </trkpt>
      <trkpt lat="57.288382016122341" lon="-6.406878009438515">
        <ele>143.84999999999999</ele>
        <time>2023-08-27T14:51:12Z</time>
      </trkpt>
      <trkpt lat="57.288369024172425" lon="-6.406762003898621">
        <ele>144.81999999999999</ele>
        <time>2023-08-27T14:51:17Z</time>
      </trkpt>
      <trkpt lat="57.288369024172425" lon="-6.406762003898621">
        <ele>147.69999999999999</ele>
        <time>2023-08-27T14:51:34Z</time>
      </trkpt>
      <trkpt lat="57.288363995030522" lon="-6.406711963936687">
        <ele>149.13999999999999</ele>
        <time>2023-08-27T14:51:54Z</time>
      </trkpt>
      <trkpt lat="57.288355026394129" lon="-6.406624959781766">
        <ele>149.62</ele>
        <time>2023-08-27T14:51:55Z</time>
      </trkpt>
      <trkpt lat="57.288193004205823" lon="-6.405312018468976">
        <ele>152.03</ele>
        <time>2023-08-27T14:52:03Z</time>
      </trkpt>
      <trkpt lat="57.28795001283288" lon="-6.403363980352879">
        <ele>155.87</ele>
        <time>2023-08-27T14:52:13Z</time>
      </trkpt>
      <trkpt lat="57.287868037819862" lon="-6.401723977178335">
        <ele>160.68000000000001</ele>
        <time>2023-08-27T14:52:22Z</time>
      </trkpt>
      <trkpt lat="57.287880023941398" lon="-6.401547035202384">
        <ele>161.16</ele>
        <time>2023-08-27T14:52:23Z</time>
      </trkpt>
      <trkpt lat="57.288013966754079" lon="-6.400366025045514">
        <ele>165.47999999999999</ele>
        <time>2023-08-27T14:52:29Z</time>
      </trkpt>
      <trkpt lat="57.287998963147402" lon="-6.400167960673571">
        <ele>165.96000000000001</ele>
        <time>2023-08-27T14:52:30Z</time>
      </trkpt>
      <trkpt lat="57.287982031702995" lon="-6.399969980120659">
        <ele>165.96000000000001</ele>
        <time>2023-08-27T14:52:31Z</time>
      </trkpt>
      <trkpt lat="57.287964010611176" lon="-6.399771999567747">
        <ele>166.44999999999999</ele>
        <time>2023-08-27T14:52:32Z</time>
      </trkpt>
      <trkpt lat="57.287945989519358" lon="-6.399579970166087">
        <ele>166.93000000000001</ele>
        <time>2023-08-27T14:52:33Z</time>
      </trkpt>
      <trkpt lat="57.287683971226215" lon="-6.397389024496079">
        <ele>168.37</ele>
        <time>2023-08-27T14:52:44Z</time>
      </trkpt>
      <trkpt lat="57.287522032856941" lon="-6.395179973915219">
        <ele>170.28999999999999</ele>
        <time>2023-08-27T14:52:54Z</time>
      </trkpt>
      <trkpt lat="57.287762006744742" lon="-6.393779022619128">
        <ele>175.09999999999999</ele>
        <time>2023-08-27T14:53:01Z</time>
      </trkpt>
      <trkpt lat="57.287777010351419" lon="-6.393595961853862">
        <ele>176.06</ele>
        <time>2023-08-27T14:53:02Z</time>
      </trkpt>
      <trkpt lat="57.287769969552755" lon="-6.393412984907627">
        <ele>177.02000000000001</ele>
        <time>2023-08-27T14:53:03Z</time>
      </trkpt>
      <trkpt lat="57.287764018401504" lon="-6.393244005739689">
        <ele>177.5</ele>
        <time>2023-08-27T14:53:04Z</time>
      </trkpt>
      <trkpt lat="57.287756977602839" lon="-6.393088018521667">
        <ele>177.97999999999999</ele>
        <time>2023-08-27T14:53:05Z</time>
      </trkpt>
      <trkpt lat="57.287743985652924" lon="-6.392927002161741">
        <ele>177.97999999999999</ele>
        <time>2023-08-27T14:53:06Z</time>
      </trkpt>
      <trkpt lat="57.287619011476636" lon="-6.391451032832265">
        <ele>176.53999999999999</ele>
        <time>2023-08-27T14:53:14Z</time>
      </trkpt>
      <trkpt lat="57.287613982334733" lon="-6.391259003430605">
        <ele>176.53999999999999</ele>
        <time>2023-08-27T14:53:15Z</time>
      </trkpt>
      <trkpt lat="57.287635020911694" lon="-6.391072003170848">
        <ele>176.53999999999999</ele>
        <time>2023-08-27T14:53:16Z</time>
      </trkpt>
      <trkpt lat="57.287654969841242" lon="-6.390880979597569">
        <ele>176.53999999999999</ele>
        <time>2023-08-27T14:53:17Z</time>
      </trkpt>
      <trkpt lat="57.287677014246583" lon="-6.390685010701418">
        <ele>176.06</ele>
        <time>2023-08-27T14:53:18Z</time>
      </trkpt>
      <trkpt lat="57.287718001753092" lon="-6.390272034332156">
        <ele>175.09999999999999</ele>
        <time>2023-08-27T14:53:20Z</time>
      </trkpt>
      <trkpt lat="57.287895027548075" lon="-6.387909008190036">
        <ele>177.02000000000001</ele>
        <time>2023-08-27T14:53:32Z</time>
      </trkpt>
      <trkpt lat="57.288229968398809" lon="-6.385825015604496">
        <ele>183.27000000000001</ele>
        <time>2023-08-27T14:53:43Z</time>
      </trkpt>
      <trkpt lat="57.288237009197474" lon="-6.385568026453257">
        <ele>183.75</ele>
        <time>2023-08-27T14:53:44Z</time>
      </trkpt>
      <trkpt lat="57.288242960348725" lon="-6.38536099344492">
        <ele>184.22999999999999</ele>
        <time>2023-08-27T14:53:45Z</time>
      </trkpt>
      <trkpt lat="57.288248995319009" lon="-6.385158989578486">
        <ele>184.71000000000001</ele>
        <time>2023-08-27T14:53:46Z</time>
      </trkpt>
      <trkpt lat="57.288242038339376" lon="-6.384965032339096">
        <ele>185.19</ele>
        <time>2023-08-27T14:53:47Z</time>
      </trkpt>
      <trkpt lat="57.288223011419177" lon="-6.384770991280675">
        <ele>185.66999999999999</ele>
        <time>2023-08-27T14:53:48Z</time>
      </trkpt>
      <trkpt lat="57.28818797506392" lon="-6.384387016296387">
        <ele>186.63</ele>
        <time>2023-08-27T14:53:50Z</time>
      </trkpt>
      <trkpt lat="57.288166014477611" lon="-6.384150981903076">
        <ele>187.59</ele>
        <time>2023-08-27T14:53:51Z</time>
      </trkpt>
      <trkpt lat="57.288293000310659" lon="-6.382108982652426">
        <ele>190</ele>
        <time>2023-08-27T14:54:01Z</time>
      </trkpt>
      <trkpt lat="57.288357960060239" lon="-6.381069039925933">
        <ele>188.56</ele>
        <time>2023-08-27T14:54:08Z</time>
      </trkpt>
      <trkpt lat="57.28827103972435" lon="-6.378800980746746">
        <ele>180.38</ele>
        <time>2023-08-27T14:54:18Z</time>
      </trkpt>
      <trkpt lat="57.288252012804151" lon="-6.377618964761496">
        <ele>176.53999999999999</ele>
        <time>2023-08-27T14:54:23Z</time>
      </trkpt>
      <trkpt lat="57.288288976997137" lon="-6.377443028613925">
        <ele>176.06</ele>
        <time>2023-08-27T14:54:24Z</time>
      </trkpt>
      <trkpt lat="57.288339016959071" lon="-6.377247981727123">
        <ele>175.58000000000001</ele>
        <time>2023-08-27T14:54:25Z</time>
      </trkpt>
      <trkpt lat="57.288741013035178" lon="-6.375303966924548">
        <ele>174.13999999999999</ele>
        <time>2023-08-27T14:54:34Z</time>
      </trkpt>
      <trkpt lat="57.289016023278236" lon="-6.373145040124655">
        <ele>169.81</ele>
        <time>2023-08-27T14:54:44Z</time>
      </trkpt>
      <trkpt lat="57.289066985249519" lon="-6.372370971366763">
        <ele>166.93000000000001</ele>
        <time>2023-08-27T14:54:48Z</time>
      </trkpt>
      <trkpt lat="57.289115013554692" lon="-6.372231999412179">
        <ele>166.44999999999999</ele>
        <time>2023-08-27T14:54:49Z</time>
      </trkpt>
      <trkpt lat="57.289160024374723" lon="-6.372103001922369">
        <ele>165.47999999999999</ele>
        <time>2023-08-27T14:54:50Z</time>
      </trkpt>
      <trkpt lat="57.289550034329295" lon="-6.370856026187539">
        <ele>160.19999999999999</ele>
        <time>2023-08-27T14:54:57Z</time>
      </trkpt>
      <trkpt lat="57.289651958271861" lon="-6.370455035939813">
        <ele>158.75</ele>
        <time>2023-08-27T14:54:59Z</time>
      </trkpt>
      <trkpt lat="57.290027970448136" lon="-6.368860965594649">
        <ele>149.62</ele>
        <time>2023-08-27T14:55:08Z</time>
      </trkpt>
      <trkpt lat="57.290074992924929" lon="-6.368658961728215">
        <ele>148.66</ele>
        <time>2023-08-27T14:55:09Z</time>
      </trkpt>
      <trkpt lat="57.290114974603057" lon="-6.368555026128888">
        <ele>147.69999999999999</ele>
        <time>2023-08-27T14:55:10Z</time>
      </trkpt>
      <trkpt lat="57.290755016729236" lon="-6.366891972720623">
        <ele>137.61000000000001</ele>
        <time>2023-08-27T14:55:20Z</time>
      </trkpt>
      <trkpt lat="57.291308976709843" lon="-6.365497978404164">
        <ele>132.31999999999999</ele>
        <time>2023-08-27T14:55:30Z</time>
      </trkpt>
      <trkpt lat="57.291609970852733" lon="-6.364789959043264">
        <ele>128.47</ele>
        <time>2023-08-27T14:55:35Z</time>
      </trkpt>
      <trkpt lat="57.291706027463078" lon="-6.364732040092349">
        <ele>127.98999999999999</ele>
        <time>2023-08-27T14:55:36Z</time>
      </trkpt>
      <trkpt lat="57.291809963062406" lon="-6.36467101983726">
        <ele>127.51000000000001</ele>
        <time>2023-08-27T14:55:37Z</time>
      </trkpt>
      <trkpt lat="57.293036989867687" lon="-6.363889994099736">
        <ele>124.15000000000001</ele>
        <time>2023-08-27T14:55:49Z</time>
      </trkpt>
      <trkpt lat="57.293414007872343" lon="-6.363607021048665">
        <ele>123.19</ele>
        <time>2023-08-27T14:55:54Z</time>
      </trkpt>
      <trkpt lat="57.293489025905728" lon="-6.363530997186899">
        <ele>122.70999999999999</ele>
        <time>2023-08-27T14:55:55Z</time>
      </trkpt>
      <trkpt lat="57.293500006198883" lon="-6.363393031060696">
        <ele>122.70999999999999</ele>
        <time>2023-08-27T14:55:56Z</time>
      </trkpt>
      <trkpt lat="57.29351400397718" lon="-6.363222962245345">
        <ele>122.22</ele>
        <time>2023-08-27T14:55:57Z</time>
      </trkpt>
      <trkpt lat="57.293529007583857" lon="-6.363026993349195">
        <ele>121.73999999999999</ele>
        <time>2023-08-27T14:55:58Z</time>
      </trkpt>
      <trkpt lat="57.29357996955514" lon="-6.361150033771992">
        <ele>115.5</ele>
        <time>2023-08-27T14:56:06Z</time>
      </trkpt>
      <trkpt lat="57.293574018403888" lon="-6.36037202551961">
        <ele>114.53</ele>
        <time>2023-08-27T14:56:10Z</time>
      </trkpt>
      <trkpt lat="57.2936010081321" lon="-6.360191982239485">
        <ele>114.05</ele>
        <time>2023-08-27T14:56:11Z</time>
      </trkpt>
      <trkpt lat="57.293927986174822" lon="-6.358537981286645">
        <ele>109.73</ele>
        <time>2023-08-27T14:56:21Z</time>
      </trkpt>
      <trkpt lat="57.293990012258291" lon="-6.358372019603849">
        <ele>108.77</ele>
        <time>2023-08-27T14:56:22Z</time>
      </trkpt>
      <trkpt lat="57.29405296035111" lon="-6.35820203460753">
        <ele>107.81</ele>
        <time>2023-08-27T14:56:23Z</time>
      </trkpt>
      <trkpt lat="57.294151028618217" lon="-6.358106983825564">
        <ele>106.36</ele>
        <time>2023-08-27T14:56:24Z</time>
      </trkpt>
      <trkpt lat="57.294257981702685" lon="-6.358030959963799">
        <ele>104.92</ele>
        <time>2023-08-27T14:56:25Z</time>
      </trkpt>
      <trkpt lat="57.294363006949425" lon="-6.357957031577826">
        <ele>103.95999999999999</ele>
        <time>2023-08-27T14:56:26Z</time>
      </trkpt>
      <trkpt lat="57.294559981673956" lon="-6.357722003012896">
        <ele>102.04000000000001</ele>
        <time>2023-08-27T14:56:28Z</time>
      </trkpt>
      <trkpt lat="57.294625025242567" lon="-6.357628963887692">
        <ele>101.08</ele>
        <time>2023-08-27T14:56:29Z</time>
      </trkpt>
      <trkpt lat="57.294705994427204" lon="-6.357397958636284">
        <ele>100.11</ele>
        <time>2023-08-27T14:56:30Z</time>
      </trkpt>
      <trkpt lat="57.295401021838188" lon="-6.355417985469103">
        <ele>90.5</ele>
        <time>2023-08-27T14:56:42Z</time>
      </trkpt>
      <trkpt lat="57.295927992090583" lon="-6.353663988411427">
        <ele>81.370000000000005</ele>
        <time>2023-08-27T14:56:50Z</time>
      </trkpt>
      <trkpt lat="57.296016002073884" lon="-6.353465002030134">
        <ele>79.930000000000007</ele>
        <time>2023-08-27T14:56:51Z</time>
      </trkpt>
      <trkpt lat="57.296105017885566" lon="-6.353338016197085">
        <ele>78</ele>
        <time>2023-08-27T14:56:52Z</time>
      </trkpt>
      <trkpt lat="57.296254970133305" lon="-6.353232990950346">
        <ele>76.079999999999998</ele>
        <time>2023-08-27T14:56:53Z</time>
      </trkpt>
      <trkpt lat="57.296320013701916" lon="-6.353187980130315">
        <ele>74.640000000000001</ele>
        <time>2023-08-27T14:56:54Z</time>
      </trkpt>
      <trkpt lat="57.296842960640788" lon="-6.35268003679812">
        <ele>68.870000000000005</ele>
        <time>2023-08-27T14:56:58Z</time>
      </trkpt>
      <trkpt lat="57.296934993937612" lon="-6.352534024044871">
        <ele>67.430000000000007</ele>
        <time>2023-08-27T14:56:59Z</time>
      </trkpt>
      <trkpt lat="57.296942034736276" lon="-6.352220037952066">
        <ele>66.950000000000003</ele>
        <time>2023-08-27T14:57:00Z</time>
      </trkpt>
      <trkpt lat="57.296942034736276" lon="-6.352017028257251">
        <ele>65.989999999999995</ele>
        <time>2023-08-27T14:57:01Z</time>
      </trkpt>
      <trkpt lat="57.296942034736276" lon="-6.351803038269281">
        <ele>65.989999999999995</ele>
        <time>2023-08-27T14:57:02Z</time>
      </trkpt>
      <trkpt lat="57.296942034736276" lon="-6.351587036624551">
        <ele>65.510000000000005</ele>
        <time>2023-08-27T14:57:03Z</time>
      </trkpt>
      <trkpt lat="57.296942034736276" lon="-6.351385032758117">
        <ele>65.510000000000005</ele>
        <time>2023-08-27T14:57:04Z</time>
      </trkpt>
      <trkpt lat="57.296918984502554" lon="-6.351195015013218">
        <ele>65.030000000000001</ele>
        <time>2023-08-27T14:57:05Z</time>
      </trkpt>
      <trkpt lat="57.296895012259483" lon="-6.351001979783177">
        <ele>65.030000000000001</ele>
        <time>2023-08-27T14:57:06Z</time>
      </trkpt>
      <trkpt lat="57.296871040016413" lon="-6.350806010887027">
        <ele>65.030000000000001</ele>
        <time>2023-08-27T14:57:07Z</time>
      </trkpt>
      <trkpt lat="57.29684597812593" lon="-6.350606018677354">
        <ele>64.549999999999997</ele>
        <time>2023-08-27T14:57:08Z</time>
      </trkpt>
      <trkpt lat="57.296770038083196" lon="-6.349988020956516">
        <ele>64.549999999999997</ele>
        <time>2023-08-27T14:57:11Z</time>
      </trkpt>
      <trkpt lat="57.296748999506235" lon="-6.349819041788578">
        <ele>64.549999999999997</ele>
        <time>2023-08-27T14:57:12Z</time>
      </trkpt>
      <trkpt lat="57.296773977577686" lon="-6.349671017378569">
        <ele>65.030000000000001</ele>
        <time>2023-08-27T14:57:13Z</time>
      </trkpt>
      <trkpt lat="57.29680398479104" lon="-6.349489968270063">
        <ele>65.030000000000001</ele>
        <time>2023-08-27T14:57:14Z</time>
      </trkpt>
      <trkpt lat="57.296834997832775" lon="-6.349303973838687">
        <ele>65.510000000000005</ele>
        <time>2023-08-27T14:57:15Z</time>
      </trkpt>
      <trkpt lat="57.297062985599041" lon="-6.346971960738301">
        <ele>65.989999999999995</ele>
        <time>2023-08-27T14:57:25Z</time>
      </trkpt>
      <trkpt lat="57.297149989753962" lon="-6.345883989706636">
        <ele>64.069999999999993</ele>
        <time>2023-08-27T14:57:30Z</time>
      </trkpt>
      <trkpt lat="57.297141021117568" lon="-6.345677962526679">
        <ele>64.069999999999993</ele>
        <time>2023-08-27T14:57:31Z</time>
      </trkpt>
      <trkpt lat="57.297130962833762" lon="-6.345474030822516">
        <ele>63.579999999999998</ele>
        <time>2023-08-27T14:57:32Z</time>
      </trkpt>
      <trkpt lat="57.29688998311758" lon="-6.343102036044002">
        <ele>62.140000000000001</ele>
        <time>2023-08-27T14:57:44Z</time>
      </trkpt>
      <trkpt lat="57.296364018693566" lon="-6.341190040111542">
        <ele>60.700000000000003</ele>
        <time>2023-08-27T14:57:52Z</time>
      </trkpt>
      <trkpt lat="57.295794971287251" lon="-6.339121973142028">
        <ele>61.18</ele>
        <time>2023-08-27T14:58:01Z</time>
      </trkpt>
      <trkpt lat="57.295593973249197" lon="-6.338164005428553">
        <ele>60.700000000000003</ele>
        <time>2023-08-27T14:58:07Z</time>
      </trkpt>
      <trkpt lat="57.295593973249197" lon="-6.338164005428553">
        <ele>60.219999999999999</ele>
        <time>2023-08-27T14:58:08Z</time>
      </trkpt>
      <trkpt lat="57.295588022097945" lon="-6.338129974901676">
        <ele>60.219999999999999</ele>
        <time>2023-08-27T14:58:24Z</time>
      </trkpt>
      <trkpt lat="57.295580981299281" lon="-6.338087981566787">
        <ele>60.219999999999999</ele>
        <time>2023-08-27T14:58:25Z</time>
      </trkpt>
      <trkpt lat="57.295424994081259" lon="-6.33723403327167">
        <ele>59.259999999999998</ele>
        <time>2023-08-27T14:58:31Z</time>
      </trkpt>
      <trkpt lat="57.295064991340041" lon="-6.335634011775255">
        <ele>56.859999999999999</ele>
        <time>2023-08-27T14:58:39Z</time>
      </trkpt>
      <trkpt lat="57.294971030205488" lon="-6.335219023749232">
        <ele>56.369999999999997</ele>
        <time>2023-08-27T14:58:42Z</time>
      </trkpt>
      <trkpt lat="57.294921996071935" lon="-6.334944013506174">
        <ele>55.890000000000001</ele>
        <time>2023-08-27T14:58:44Z</time>
      </trkpt>
      <trkpt lat="57.294916966930032" lon="-6.334806969389319">
        <ele>55.890000000000001</ele>
        <time>2023-08-27T14:58:45Z</time>
      </trkpt>
      <trkpt lat="57.294913027435541" lon="-6.334677971899509">
        <ele>55.890000000000001</ele>
        <time>2023-08-27T14:58:46Z</time>
      </trkpt>
      <trkpt lat="57.294907998293638" lon="-6.33454998023808">
        <ele>55.890000000000001</ele>
        <time>2023-08-27T14:58:47Z</time>
      </trkpt>
      <trkpt lat="57.294910009950399" lon="-6.334411008283496">
        <ele>56.369999999999997</ele>
        <time>2023-08-27T14:58:48Z</time>
      </trkpt>
      <trkpt lat="57.294943034648895" lon="-6.334283016622067">
        <ele>56.369999999999997</ele>
        <time>2023-08-27T14:58:49Z</time>
      </trkpt>
      <trkpt lat="57.294977987185121" lon="-6.334149995818734">
        <ele>56.369999999999997</ele>
        <time>2023-08-27T14:58:50Z</time>
      </trkpt>
      <trkpt lat="57.29534100741148" lon="-6.332618035376072">
        <ele>53.009999999999998</ele>
        <time>2023-08-27T14:58:58Z</time>
      </trkpt>
      <trkpt lat="57.295794971287251" lon="-6.329731978476048">
        <ele>45.32</ele>
        <time>2023-08-27T14:59:09Z</time>
      </trkpt>
      <trkpt lat="57.296025976538658" lon="-6.32640402764082">
        <ele>34.740000000000002</ele>
        <time>2023-08-27T14:59:20Z</time>
      </trkpt>
      <trkpt lat="57.296153968200088" lon="-6.323955003172159">
        <ele>25.129999999999999</ele>
        <time>2023-08-27T14:59:28Z</time>
      </trkpt>
      <trkpt lat="57.296134019270539" lon="-6.321484018117189">
        <ele>16</ele>
        <time>2023-08-27T14:59:37Z</time>
      </trkpt>
      <trkpt lat="57.296224040910602" lon="-6.318526966497302">
        <ele>5.42</ele>
        <time>2023-08-27T14:59:49Z</time>
      </trkpt>
      <trkpt lat="57.296217000111938" lon="-6.3183060195297">
        <ele>4.94</ele>
        <time>2023-08-27T14:59:50Z</time>
      </trkpt>
      <trkpt lat="57.296209037303925" lon="-6.318078031763434">
        <ele>4.46</ele>
        <time>2023-08-27T14:59:51Z</time>
      </trkpt>
      <trkpt lat="57.296193027868867" lon="-6.317614009603858">
        <ele>3.5</ele>
        <time>2023-08-27T14:59:53Z</time>
      </trkpt>
      <trkpt lat="57.296204008162022" lon="-6.317403959110379">
        <ele>3.02</ele>
        <time>2023-08-27T14:59:54Z</time>
      </trkpt>
      <trkpt lat="57.296277014538646" lon="-6.316624023020268">
        <ele>0.14</ele>
        <time>2023-08-27T15:00:00Z</time>
      </trkpt>
      <trkpt lat="57.29652201756835" lon="-6.315386015921831">
        <ele>0.14</ele>
        <time>2023-08-27T15:00:07Z</time>
      </trkpt>
      <trkpt lat="57.296767020598054" lon="-6.314554028213024">
        <ele>1.1</ele>
        <time>2023-08-27T15:00:11Z</time>
      </trkpt>
      <trkpt lat="57.296859975904226" lon="-6.314387982711196">
        <ele>1.58</ele>
        <time>2023-08-27T15:00:12Z</time>
      </trkpt>
      <trkpt lat="57.29695200920105" lon="-6.314225038513541">
        <ele>1.58</ele>
        <time>2023-08-27T15:00:13Z</time>
      </trkpt>
      <trkpt lat="57.297118976712227" lon="-6.31392496638">
        <ele>2.06</ele>
        <time>2023-08-27T15:00:15Z</time>
      </trkpt>
      <trkpt lat="57.297202963382006" lon="-6.313777025789022">
        <ele>2.54</ele>
        <time>2023-08-27T15:00:16Z</time>
      </trkpt>
      <trkpt lat="57.297261971980333" lon="-6.313584996387363">
        <ele>2.54</ele>
        <time>2023-08-27T15:00:17Z</time>
      </trkpt>
      <trkpt lat="57.297301031649113" lon="-6.313350973650813">
        <ele>2.54</ele>
        <time>2023-08-27T15:00:18Z</time>
      </trkpt>
      <trkpt lat="57.297343024984002" lon="-6.313099013641477">
        <ele>2.06</ele>
        <time>2023-08-27T15:00:19Z</time>
      </trkpt>
      <trkpt lat="57.297572018578649" lon="-6.311297994107008">
        <ele>2.06</ele>
        <time>2023-08-27T15:00:27Z</time>
      </trkpt>
      <trkpt lat="57.29757503606379" lon="-6.311120968312025">
        <ele>2.06</ele>
        <time>2023-08-27T15:00:28Z</time>
      </trkpt>
      <trkpt lat="57.297580987215042" lon="-6.310774041339755">
        <ele>2.06</ele>
        <time>2023-08-27T15:00:30Z</time>
      </trkpt>
      <trkpt lat="57.297584004700184" lon="-6.310602966696024">
        <ele>2.54</ele>
        <time>2023-08-27T15:00:31Z</time>
      </trkpt>
      <trkpt lat="57.297601019963622" lon="-6.310432981699705">
        <ele>3.02</ele>
        <time>2023-08-27T15:00:32Z</time>
      </trkpt>
      <trkpt lat="57.297659022733569" lon="-6.310069039463997">
        <ele>3.5</ele>
        <time>2023-08-27T15:00:34Z</time>
      </trkpt>
      <trkpt lat="57.297689029946923" lon="-6.309878015890718">
        <ele>3.98</ele>
        <time>2023-08-27T15:00:35Z</time>
      </trkpt>
      <trkpt lat="57.297720964998007" lon="-6.309684980660677">
        <ele>4.46</ele>
        <time>2023-08-27T15:00:36Z</time>
      </trkpt>
      <trkpt lat="57.297848034650087" lon="-6.309152981266379">
        <ele>4.94</ele>
        <time>2023-08-27T15:00:39Z</time>
      </trkpt>
      <trkpt lat="57.298169983550906" lon="-6.307397978380323">
        <ele>6.39</ele>
        <time>2023-08-27T15:00:49Z</time>
      </trkpt>
      <trkpt lat="57.298250030726194" lon="-6.306929010897875">
        <ele>6.87</ele>
        <time>2023-08-27T15:00:57Z</time>
      </trkpt>
      <trkpt lat="57.298307027667761" lon="-6.30659599788487">
        <ele>6.39</ele>
        <time>2023-08-27T15:01:14Z</time>
      </trkpt>
      <trkpt lat="57.298530992120504" lon="-6.30556502379477">
        <ele>5.91</ele>
        <time>2023-08-27T15:01:20Z</time>
      </trkpt>
      <trkpt lat="57.298712963238358" lon="-6.304894974455237">
        <ele>5.91</ele>
        <time>2023-08-27T15:01:24Z</time>
      </trkpt>
      <trkpt lat="57.298743976280093" lon="-6.304758014157414">
        <ele>5.42</ele>
        <time>2023-08-27T15:01:25Z</time>
      </trkpt>
      <trkpt lat="57.298742970451713" lon="-6.304576965048909">
        <ele>5.91</ele>
        <time>2023-08-27T15:01:26Z</time>
      </trkpt>
      <trkpt lat="57.298741964623332" lon="-6.304380996152759">
        <ele>5.91</ele>
        <time>2023-08-27T15:01:27Z</time>
      </trkpt>
      <trkpt lat="57.298740958794951" lon="-6.304181003943086">
        <ele>5.91</ele>
        <time>2023-08-27T15:01:28Z</time>
      </trkpt>
      <trkpt lat="57.298726039007306" lon="-6.301700966432691">
        <ele>7.35</ele>
        <time>2023-08-27T15:01:39Z</time>
      </trkpt>
      <trkpt lat="57.298745987936854" lon="-6.300844000652432">
        <ele>6.39</ele>
        <time>2023-08-27T15:01:42Z</time>
      </trkpt>
      <trkpt lat="57.298768032342196" lon="-6.300605032593012">
        <ele>6.39</ele>
        <time>2023-08-27T15:01:43Z</time>
      </trkpt>
      <trkpt lat="57.298812037333846" lon="-6.300361035391688">
        <ele>6.39</ele>
        <time>2023-08-27T15:01:44Z</time>
      </trkpt>
      <trkpt lat="57.298861993476748" lon="-6.300109997391701">
        <ele>6.39</ele>
        <time>2023-08-27T15:01:45Z</time>
      </trkpt>
      <trkpt lat="57.298940028995275" lon="-6.29987102933228">
        <ele>6.39</ele>
        <time>2023-08-27T15:01:46Z</time>
      </trkpt>
      <trkpt lat="57.299033990129828" lon="-6.299645975232124">
        <ele>6.39</ele>
        <time>2023-08-27T15:01:47Z</time>
      </trkpt>
      <trkpt lat="57.299219984561205" lon="-6.299197040498257">
        <ele>6.39</ele>
        <time>2023-08-27T15:01:49Z</time>
      </trkpt>
      <trkpt lat="57.299321992322803" lon="-6.298994030803442">
        <ele>6.87</ele>
        <time>2023-08-27T15:01:50Z</time>
      </trkpt>
      <trkpt lat="57.299441015347838" lon="-6.298832008615136">
        <ele>6.87</ele>
        <time>2023-08-27T15:01:51Z</time>
      </trkpt>
      <trkpt lat="57.299566995352507" lon="-6.298682978376746">
        <ele>7.35</ele>
        <time>2023-08-27T15:01:52Z</time>
      </trkpt>
      <trkpt lat="57.2997020278126" lon="-6.29856001585722">
        <ele>7.83</ele>
        <time>2023-08-27T15:01:53Z</time>
      </trkpt>
      <trkpt lat="57.299966979771852" lon="-6.298319958150387">
        <ele>9.75</ele>
        <time>2023-08-27T15:01:55Z</time>
      </trkpt>
      <trkpt lat="57.300054989755154" lon="-6.298158019781113">
        <ele>10.710000000000001</ele>
        <time>2023-08-27T15:01:56Z</time>
      </trkpt>
      <trkpt lat="57.300130007788539" lon="-6.297962972894311">
        <ele>11.67</ele>
        <time>2023-08-27T15:01:57Z</time>
      </trkpt>
      <trkpt lat="57.300165966153145" lon="-6.29774303175509">
        <ele>12.630000000000001</ele>
        <time>2023-08-27T15:01:58Z</time>
      </trkpt>
      <trkpt lat="57.300202008336782" lon="-6.297517977654934">
        <ele>13.6</ele>
        <time>2023-08-27T15:01:59Z</time>
      </trkpt>
      <trkpt lat="57.300216006115079" lon="-6.297285966575146">
        <ele>15.039999999999999</ele>
        <time>2023-08-27T15:02:00Z</time>
      </trkpt>
      <trkpt lat="57.300192033872008" lon="-6.297031994909048">
        <ele>16</ele>
        <time>2023-08-27T15:02:01Z</time>
      </trkpt>
      <trkpt lat="57.300167977809906" lon="-6.296783974394202">
        <ele>16.960000000000001</ele>
        <time>2023-08-27T15:02:02Z</time>
      </trkpt>
      <trkpt lat="57.300101006403565" lon="-6.296545006334782">
        <ele>17.920000000000002</ele>
        <time>2023-08-27T15:02:03Z</time>
      </trkpt>
      <trkpt lat="57.300006961449981" lon="-6.296287011355162">
        <ele>19.359999999999999</ele>
        <time>2023-08-27T15:02:04Z</time>
      </trkpt>
      <trkpt lat="57.299347976222634" lon="-6.294294968247414">
        <ele>24.649999999999999</ele>
        <time>2023-08-27T15:02:11Z</time>
      </trkpt>
      <trkpt lat="57.299114959314466" lon="-6.293659033253789">
        <ele>26.57</ele>
        <time>2023-08-27T15:02:14Z</time>
      </trkpt>
      <trkpt lat="57.299041030928493" lon="-6.293516959995031">
        <ele>27.050000000000001</ele>
        <time>2023-08-27T15:02:15Z</time>
      </trkpt>
      <trkpt lat="57.298980010673404" lon="-6.293398020789027">
        <ele>27.530000000000001</ele>
        <time>2023-08-27T15:02:16Z</time>
      </trkpt>
      <trkpt lat="57.29892997071147" lon="-6.293302970007062">
        <ele>28.02</ele>
        <time>2023-08-27T15:02:17Z</time>
      </trkpt>
      <trkpt lat="57.298894012346864" lon="-6.29323298111558">
        <ele>28.98</ele>
        <time>2023-08-27T15:02:18Z</time>
      </trkpt>
      <trkpt lat="57.298872973769903" lon="-6.293152011930943">
        <ele>29.460000000000001</ele>
        <time>2023-08-27T15:02:19Z</time>
      </trkpt>
      <trkpt lat="57.298872973769903" lon="-6.293097026646137">
        <ele>29.940000000000001</ele>
        <time>2023-08-27T15:02:20Z</time>
      </trkpt>
      <trkpt lat="57.298872973769903" lon="-6.293054027482867">
        <ele>30.420000000000002</ele>
        <time>2023-08-27T15:02:21Z</time>
      </trkpt>
      <trkpt lat="57.298884959891438" lon="-6.292999964207411">
        <ele>30.899999999999999</ele>
        <time>2023-08-27T15:02:22Z</time>
      </trkpt>
      <trkpt lat="57.298899963498116" lon="-6.292973980307579">
        <ele>31.379999999999999</ele>
        <time>2023-08-27T15:02:23Z</time>
      </trkpt>
      <trkpt lat="57.298983028158545" lon="-6.292918995022774">
        <ele>31.859999999999999</ele>
        <time>2023-08-27T15:02:24Z</time>
      </trkpt>
      <trkpt lat="57.299012029543519" lon="-6.292978003621101">
        <ele>32.340000000000003</ele>
        <time>2023-08-27T15:02:25Z</time>
      </trkpt>
      <trkpt lat="57.299061985686421" lon="-6.293077999725938">
        <ele>33.299999999999997</ele>
        <time>2023-08-27T15:02:26Z</time>
      </trkpt>
      <trkpt lat="57.299124011769891" lon="-6.293203979730606">
        <ele>33.780000000000001</ele>
        <time>2023-08-27T15:02:27Z</time>
      </trkpt>
      <trkpt lat="57.299726000055671" lon="-6.294422959908843">
        <ele>36.189999999999998</ele>
        <time>2023-08-27T15:02:33Z</time>
      </trkpt>
      <trkpt lat="57.300852024927735" lon="-6.295974031090736">
        <ele>41.469999999999999</ele>
        <time>2023-08-27T15:02:40Z</time>
      </trkpt>
      <trkpt lat="57.302047032862902" lon="-6.297942018136382">
        <ele>47.240000000000002</ele>
        <time>2023-08-27T15:02:48Z</time>
      </trkpt>
      <trkpt lat="57.302894024178386" lon="-6.29927197471261">
        <ele>51.090000000000003</ele>
        <time>2023-08-27T15:02:54Z</time>
      </trkpt>
      <trkpt lat="57.303037019446492" lon="-6.299425028264523">
        <ele>52.049999999999997</ele>
        <time>2023-08-27T15:02:55Z</time>
      </trkpt>
      <trkpt lat="57.303188983350992" lon="-6.299497028812766">
        <ele>53.009999999999998</ele>
        <time>2023-08-27T15:02:56Z</time>
      </trkpt>
      <trkpt lat="57.303337007761002" lon="-6.299567017704248">
        <ele>53.969999999999999</ele>
        <time>2023-08-27T15:02:57Z</time>
      </trkpt>
      <trkpt lat="57.30348302051425" lon="-6.299577997997403">
        <ele>54.93</ele>
        <time>2023-08-27T15:02:58Z</time>
      </trkpt>
      <trkpt lat="57.303632972761989" lon="-6.299567017704248">
        <ele>55.409999999999997</ele>
        <time>2023-08-27T15:02:59Z</time>
      </trkpt>
      <trkpt lat="57.303782003000379" lon="-6.299493005499244">
        <ele>56.369999999999997</ele>
        <time>2023-08-27T15:03:00Z</time>
      </trkpt>
      <trkpt lat="57.30393698439002" lon="-6.299402983859181">
        <ele>57.340000000000003</ele>
        <time>2023-08-27T15:03:01Z</time>
      </trkpt>
      <trkpt lat="57.304088026285172" lon="-6.299315979704261">
        <ele>57.82</ele>
        <time>2023-08-27T15:03:02Z</time>
      </trkpt>
      <trkpt lat="57.304224986582994" lon="-6.299236016348004">
        <ele>58.299999999999997</ele>
        <time>2023-08-27T15:03:03Z</time>
      </trkpt>
      <trkpt lat="57.304348032921553" lon="-6.299179019406438">
        <ele>58.299999999999997</ele>
        <time>2023-08-27T15:03:04Z</time>
      </trkpt>
      <trkpt lat="57.304466972127557" lon="-6.299179019406438">
        <ele>58.780000000000001</ele>
        <time>2023-08-27T15:03:05Z</time>
      </trkpt>
      <trkpt lat="57.304574009031057" lon="-6.299234004691243">
        <ele>59.259999999999998</ele>
        <time>2023-08-27T15:03:06Z</time>
      </trkpt>
      <trkpt lat="57.304675010964274" lon="-6.299303993582726">
        <ele>59.259999999999998</ele>
        <time>2023-08-27T15:03:07Z</time>
      </trkpt>
      <trkpt lat="57.30475396849215" lon="-6.299424022436142">
        <ele>59.740000000000002</ele>
        <time>2023-08-27T15:03:08Z</time>
      </trkpt>
      <trkpt lat="57.304825969040394" lon="-6.299577997997403">
        <ele>60.219999999999999</ele>
        <time>2023-08-27T15:03:09Z</time>
      </trkpt>
      <trkpt lat="57.304869974032044" lon="-6.29974203184247">
        <ele>60.219999999999999</ele>
        <time>2023-08-27T15:03:10Z</time>
      </trkpt>
      <trkpt lat="57.304894030094147" lon="-6.299948981031776">
        <ele>60.700000000000003</ele>
        <time>2023-08-27T15:03:11Z</time>
      </trkpt>
      <trkpt lat="57.304920013993979" lon="-6.30017202347517">
        <ele>61.18</ele>
        <time>2023-08-27T15:03:12Z</time>
      </trkpt>
      <trkpt lat="57.304891012609005" lon="-6.300396993756294">
        <ele>61.659999999999997</ele>
        <time>2023-08-27T15:03:13Z</time>
      </trkpt>
      <trkpt lat="57.304842984303832" lon="-6.30066404119134">
        <ele>62.140000000000001</ele>
        <time>2023-08-27T15:03:14Z</time>
      </trkpt>
      <trkpt lat="57.304791016504169" lon="-6.300953971222043">
        <ele>63.100000000000001</ele>
        <time>2023-08-27T15:03:15Z</time>
      </trkpt>
      <trkpt lat="57.304398994892836" lon="-6.303876992315054">
        <ele>69.829999999999998</ele>
        <time>2023-08-27T15:03:24Z</time>
      </trkpt>
      <trkpt lat="57.304605022072792" lon="-6.305946987122297">
        <ele>75.599999999999994</ele>
        <time>2023-08-27T15:03:30Z</time>
      </trkpt>
      <trkpt lat="57.304779030382633" lon="-6.306544030085206">
        <ele>78</ele>
        <time>2023-08-27T15:03:32Z</time>
      </trkpt>
      <trkpt lat="57.304881038144231" lon="-6.306804958730936">
        <ele>78.969999999999999</ele>
        <time>2023-08-27T15:03:33Z</time>
      </trkpt>
      <trkpt lat="57.304999977350235" lon="-6.307015009224415">
        <ele>80.409999999999997</ele>
        <time>2023-08-27T15:03:34Z</time>
      </trkpt>
      <trkpt lat="57.305114977061749" lon="-6.307196980342269">
        <ele>81.370000000000005</ele>
        <time>2023-08-27T15:03:35Z</time>
      </trkpt>
      <trkpt lat="57.305243974551558" lon="-6.30732798948884">
        <ele>82.329999999999998</ele>
        <time>2023-08-27T15:03:36Z</time>
      </trkpt>
      <trkpt lat="57.305378001183271" lon="-6.307425973936915">
        <ele>83.769999999999996</ele>
        <time>2023-08-27T15:03:37Z</time>
      </trkpt>
      <trkpt lat="57.305510016158223" lon="-6.307521024718881">
        <ele>84.730000000000004</ele>
        <time>2023-08-27T15:03:38Z</time>
      </trkpt>
      <trkpt lat="57.305645970627666" lon="-6.307567963376641">
        <ele>85.689999999999998</ele>
        <time>2023-08-27T15:03:39Z</time>
      </trkpt>
      <trkpt lat="57.305773040279746" lon="-6.307594031095505">
        <ele>86.659999999999997</ele>
        <time>2023-08-27T15:03:40Z</time>
      </trkpt>
      <trkpt lat="57.305896002799273" lon="-6.307619009166956">
        <ele>87.620000000000005</ele>
        <time>2023-08-27T15:03:41Z</time>
      </trkpt>
      <trkpt lat="57.306128013879061" lon="-6.307667037472129">
        <ele>90.019999999999996</ele>
        <time>2023-08-27T15:03:43Z</time>
      </trkpt>
      <trkpt lat="57.306215018033981" lon="-6.307768961414695">
        <ele>90.980000000000004</ele>
        <time>2023-08-27T15:03:44Z</time>
      </trkpt>
      <trkpt lat="57.306281989440322" lon="-6.307901982218027">
        <ele>91.459999999999994</ele>
        <time>2023-08-27T15:03:45Z</time>
      </trkpt>
      <trkpt lat="57.306314008310437" lon="-6.308069033548236">
        <ele>92.420000000000002</ele>
        <time>2023-08-27T15:03:46Z</time>
      </trkpt>
      <trkpt lat="57.306339992210269" lon="-6.308276988565922">
        <ele>93.390000000000001</ele>
        <time>2023-08-27T15:03:47Z</time>
      </trkpt>
      <trkpt lat="57.30632197111845" lon="-6.308446973562241">
        <ele>93.870000000000005</ele>
        <time>2023-08-27T15:03:48Z</time>
      </trkpt>
      <trkpt lat="57.30625600554049" lon="-6.308628022670746">
        <ele>94.349999999999994</ele>
        <time>2023-08-27T15:03:49Z</time>
      </trkpt>
      <trkpt lat="57.30619003996253" lon="-6.308791972696781">
        <ele>95.310000000000002</ele>
        <time>2023-08-27T15:03:50Z</time>
      </trkpt>
      <trkpt lat="57.306071016937494" lon="-6.308931028470397">
        <ele>95.790000000000006</ele>
        <time>2023-08-27T15:03:51Z</time>
      </trkpt>
      <trkpt lat="57.305951993912458" lon="-6.309071006253362">
        <ele>96.269999999999996</ele>
        <time>2023-08-27T15:03:52Z</time>
      </trkpt>
      <trkpt lat="57.30582500807941" lon="-6.309220036491752">
        <ele>97.230000000000004</ele>
        <time>2023-08-27T15:03:53Z</time>
      </trkpt>
      <trkpt lat="57.30556801892817" lon="-6.309521030634642">
        <ele>99.150000000000006</ele>
        <time>2023-08-27T15:03:55Z</time>
      </trkpt>
      <trkpt lat="57.305456036701798" lon="-6.309720017015934">
        <ele>100.11</ele>
        <time>2023-08-27T15:03:56Z</time>
      </trkpt>
      <trkpt lat="57.305351011455059" lon="-6.309928977862001">
        <ele>100.59999999999999</ele>
        <time>2023-08-27T15:03:57Z</time>
      </trkpt>
      <trkpt lat="57.305261995643377" lon="-6.310170041397214">
        <ele>101.56</ele>
        <time>2023-08-27T15:03:58Z</time>
      </trkpt>
      <trkpt lat="57.305199969559908" lon="-6.310430970042944">
        <ele>102.52</ele>
        <time>2023-08-27T15:03:59Z</time>
      </trkpt>
      <trkpt lat="57.305155964568257" lon="-6.310717966407538">
        <ele>103.48</ele>
        <time>2023-08-27T15:04:00Z</time>
      </trkpt>
      <trkpt lat="57.305111037567258" lon="-6.311009991914034">
        <ele>104.44</ele>
        <time>2023-08-27T15:04:01Z</time>
      </trkpt>
      <trkpt lat="57.305109025910497" lon="-6.311289025470614">
        <ele>105.40000000000001</ele>
        <time>2023-08-27T15:04:02Z</time>
      </trkpt>
      <trkpt lat="57.305131992325187" lon="-6.311588007956743">
        <ele>106.36</ele>
        <time>2023-08-27T15:04:03Z</time>
      </trkpt>
      <trkpt lat="57.305154958739877" lon="-6.311894031241536">
        <ele>107.31999999999999</ele>
        <time>2023-08-27T15:04:04Z</time>
      </trkpt>
      <trkpt lat="57.305179014801979" lon="-6.312207011505961">
        <ele>108.29000000000001</ele>
        <time>2023-08-27T15:04:05Z</time>
      </trkpt>
      <trkpt lat="57.305240035057068" lon="-6.312495013698936">
        <ele>109.25</ele>
        <time>2023-08-27T15:04:06Z</time>
      </trkpt>
      <trkpt lat="57.305312035605311" lon="-6.312803970649838">
        <ele>110.20999999999999</ele>
        <time>2023-08-27T15:04:07Z</time>
      </trkpt>
      <trkpt lat="57.305401973426342" lon="-6.313089039176703">
        <ele>111.17</ele>
        <time>2023-08-27T15:04:08Z</time>
      </trkpt>
      <trkpt lat="57.305500041693449" lon="-6.31336597725749">
        <ele>111.65000000000001</ele>
        <time>2023-08-27T15:04:09Z</time>
      </trkpt>
      <trkpt lat="57.305588973686099" lon="-6.31362003274262">
        <ele>112.61</ele>
        <time>2023-08-27T15:04:10Z</time>
      </trkpt>
      <trkpt lat="57.30571897700429" lon="-6.313863024115562">
        <ele>113.56999999999999</ele>
        <time>2023-08-27T15:04:11Z</time>
      </trkpt>
      <trkpt lat="57.305846968665719" lon="-6.314101992174983">
        <ele>114.53</ele>
        <time>2023-08-27T15:04:12Z</time>
      </trkpt>
      <trkpt lat="57.305974960327148" lon="-6.314342971891165">
        <ele>115.5</ele>
        <time>2023-08-27T15:04:13Z</time>
      </trkpt>
      <trkpt lat="57.30610404163599" lon="-6.314585041254759">
        <ele>116.94</ele>
        <time>2023-08-27T15:04:14Z</time>
      </trkpt>
      <trkpt lat="57.306262040510774" lon="-6.314772041514516">
        <ele>117.90000000000001</ele>
        <time>2023-08-27T15:04:15Z</time>
      </trkpt>
      <trkpt lat="57.306423978880048" lon="-6.314964992925525">
        <ele>118.86</ele>
        <time>2023-08-27T15:04:16Z</time>
      </trkpt>
      <trkpt lat="57.307911012321711" lon="-6.316376002505422">
        <ele>128.47</ele>
        <time>2023-08-27T15:04:24Z</time>
      </trkpt>
      <trkpt lat="57.309685964137316" lon="-6.317835040390492">
        <ele>138.56999999999999</ele>
        <time>2023-08-27T15:04:33Z</time>
      </trkpt>
      <trkpt lat="57.312216041609645" lon="-6.319253006950021">
        <ele>151.06</ele>
        <time>2023-08-27T15:04:45Z</time>
      </trkpt>
      <trkpt lat="57.315318016335368" lon="-6.32038900628686">
        <ele>154.91</ele>
        <time>2023-08-27T15:04:59Z</time>
      </trkpt>
      <trkpt lat="57.317650029435754" lon="-6.321845026686788">
        <ele>150.09999999999999</ele>
        <time>2023-08-27T15:05:10Z</time>
      </trkpt>
      <trkpt lat="57.319659003987908" lon="-6.323860958218575">
        <ele>139.53</ele>
        <time>2023-08-27T15:05:21Z</time>
      </trkpt>
      <trkpt lat="57.320887958630919" lon="-6.326131029054523">
        <ele>131.36000000000001</ele>
        <time>2023-08-27T15:05:30Z</time>
      </trkpt>
      <trkpt lat="57.322153961285949" lon="-6.328512998297811">
        <ele>123.19</ele>
        <time>2023-08-27T15:05:39Z</time>
      </trkpt>
      <trkpt lat="57.324477005749941" lon="-6.331716980785132">
        <ele>113.56999999999999</ele>
        <time>2023-08-27T15:05:52Z</time>
      </trkpt>
      <trkpt lat="57.326148021966219" lon="-6.333037968724966">
        <ele>108.77</ele>
        <time>2023-08-27T15:06:00Z</time>
      </trkpt>
      <trkpt lat="57.328035039827228" lon="-6.333627970889211">
        <ele>105.40000000000001</ele>
        <time>2023-08-27T15:06:09Z</time>
      </trkpt>
      <trkpt lat="57.328217010945082" lon="-6.333715980872512">
        <ele>104.92</ele>
        <time>2023-08-27T15:06:10Z</time>
      </trkpt>
      <trkpt lat="57.328389007598162" lon="-6.333840033039451">
        <ele>104.44</ele>
        <time>2023-08-27T15:06:11Z</time>
      </trkpt>
      <trkpt lat="57.328549018129706" lon="-6.333988979458809">
        <ele>104.44</ele>
        <time>2023-08-27T15:06:12Z</time>
      </trkpt>
      <trkpt lat="57.328691007569432" lon="-6.334158964455128">
        <ele>104.44</ele>
        <time>2023-08-27T15:06:13Z</time>
      </trkpt>
      <trkpt lat="57.328807013109326" lon="-6.334390975534916">
        <ele>104.44</ele>
        <time>2023-08-27T15:06:14Z</time>
      </trkpt>
      <trkpt lat="57.32892301864922" lon="-6.334623992443085">
        <ele>104.44</ele>
        <time>2023-08-27T15:06:15Z</time>
      </trkpt>
      <trkpt lat="57.329033995047212" lon="-6.334866983816028">
        <ele>104.44</ele>
        <time>2023-08-27T15:06:16Z</time>
      </trkpt>
      <trkpt lat="57.32911697588861" lon="-6.335178036242724">
        <ele>104.92</ele>
        <time>2023-08-27T15:06:17Z</time>
      </trkpt>
      <trkpt lat="57.32920398004353" lon="-6.335504008457065">
        <ele>104.92</ele>
        <time>2023-08-27T15:06:18Z</time>
      </trkpt>
      <trkpt lat="57.329295007511973" lon="-6.335845990106463">
        <ele>105.40000000000001</ele>
        <time>2023-08-27T15:06:19Z</time>
      </trkpt>
      <trkpt lat="57.33018902130425" lon="-6.338682007044554">
        <ele>109.73</ele>
        <time>2023-08-27T15:06:27Z</time>
      </trkpt>
      <trkpt lat="57.331116981804371" lon="-6.342063015326858">
        <ele>116.45999999999999</ele>
        <time>2023-08-27T15:06:36Z</time>
      </trkpt>
      <trkpt lat="57.332369992509484" lon="-6.34585197083652">
        <ele>126.55</ele>
        <time>2023-08-27T15:06:47Z</time>
      </trkpt>
      <trkpt lat="57.333748983219266" lon="-6.348995016887784">
        <ele>129.43000000000001</ele>
        <time>2023-08-27T15:06:57Z</time>
      </trkpt>
      <trkpt lat="57.335710013285279" lon="-6.351960031315684">
        <ele>122.22</ele>
        <time>2023-08-27T15:07:08Z</time>
      </trkpt>
      <trkpt lat="57.3377950116992" lon="-6.354875005781651">
        <ele>115.01000000000001</ele>
        <time>2023-08-27T15:07:20Z</time>
      </trkpt>
      <trkpt lat="57.339392015710473" lon="-6.357622006908059">
        <ele>108.29000000000001</ele>
        <time>2023-08-27T15:07:30Z</time>
      </trkpt>
      <trkpt lat="57.340988013893366" lon="-6.361897028982639">
        <ele>94.349999999999994</ele>
        <time>2023-08-27T15:07:42Z</time>
      </trkpt>
      <trkpt lat="57.341391015797853" lon="-6.363212987780571">
        <ele>92.420000000000002</ele>
        <time>2023-08-27T15:07:46Z</time>
      </trkpt>
      <trkpt lat="57.341439966112375" lon="-6.363551029935479">
        <ele>92.900000000000006</ele>
        <time>2023-08-27T15:07:47Z</time>
      </trkpt>
      <trkpt lat="57.341489000245929" lon="-6.363883959129453">
        <ele>92.900000000000006</ele>
        <time>2023-08-27T15:07:48Z</time>
      </trkpt>
      <trkpt lat="57.341501992195845" lon="-6.364228036254644">
        <ele>92.900000000000006</ele>
        <time>2023-08-27T15:07:49Z</time>
      </trkpt>
      <trkpt lat="57.341487994417548" lon="-6.364574041217566">
        <ele>93.870000000000005</ele>
        <time>2023-08-27T15:07:50Z</time>
      </trkpt>
      <trkpt lat="57.341473996639252" lon="-6.364923985674977">
        <ele>94.829999999999998</ele>
        <time>2023-08-27T15:07:51Z</time>
      </trkpt>
      <trkpt lat="57.341438038274646" lon="-6.36527200229466">
        <ele>95.310000000000002</ele>
        <time>2023-08-27T15:07:52Z</time>
      </trkpt>
      <trkpt lat="57.341374000534415" lon="-6.365620018914342">
        <ele>96.269999999999996</ele>
        <time>2023-08-27T15:07:53Z</time>
      </trkpt>
      <trkpt lat="57.341309040784836" lon="-6.365969963371754">
        <ele>97.230000000000004</ele>
        <time>2023-08-27T15:07:54Z</time>
      </trkpt>
      <trkpt lat="57.340721972286701" lon="-6.369794039055705">
        <ele>101.08</ele>
        <time>2023-08-27T15:08:04Z</time>
      </trkpt>
      <trkpt lat="57.340325005352497" lon="-6.372426962479949">
        <ele>104.44</ele>
        <time>2023-08-27T15:08:11Z</time>
      </trkpt>
      <trkpt lat="57.340388037264347" lon="-6.374291013926268">
        <ele>107.31999999999999</ele>
        <time>2023-08-27T15:08:16Z</time>
      </trkpt>
      <trkpt lat="57.340433970093727" lon="-6.374663002789021">
        <ele>107.81</ele>
        <time>2023-08-27T15:08:17Z</time>
      </trkpt>
      <trkpt lat="57.340508988127112" lon="-6.375025017186999">
        <ele>108.77</ele>
        <time>2023-08-27T15:08:18Z</time>
      </trkpt>
      <trkpt lat="57.340595992282033" lon="-6.375379990786314">
        <ele>109.73</ele>
        <time>2023-08-27T15:08:19Z</time>
      </trkpt>
      <trkpt lat="57.340711997821927" lon="-6.375717027112842">
        <ele>111.17</ele>
        <time>2023-08-27T15:08:20Z</time>
      </trkpt>
      <trkpt lat="57.340822974219918" lon="-6.376039981842041">
        <ele>112.13</ele>
        <time>2023-08-27T15:08:21Z</time>
      </trkpt>
      <trkpt lat="57.340978961437941" lon="-6.376342987641692">
        <ele>113.56999999999999</ele>
        <time>2023-08-27T15:08:22Z</time>
      </trkpt>
      <trkpt lat="57.341127991676331" lon="-6.376635013148189">
        <ele>115.01000000000001</ele>
        <time>2023-08-27T15:08:23Z</time>
      </trkpt>
      <trkpt lat="57.341285990551114" lon="-6.376901976764202">
        <ele>116.45999999999999</ele>
        <time>2023-08-27T15:08:24Z</time>
      </trkpt>
      <trkpt lat="57.341469973325729" lon="-6.377127030864358">
        <ele>117.90000000000001</ele>
        <time>2023-08-27T15:08:25Z</time>
      </trkpt>
      <trkpt lat="57.341653034090996" lon="-6.377350995317102">
        <ele>119.34</ele>
        <time>2023-08-27T15:08:26Z</time>
      </trkpt>
      <trkpt lat="57.343550026416779" lon="-6.379741011187434">
        <ele>125.59</ele>
        <time>2023-08-27T15:08:37Z</time>
      </trkpt>
      <trkpt lat="57.345431009307504" lon="-6.382696973159909">
        <ele>111.17</ele>
        <time>2023-08-27T15:08:49Z</time>
      </trkpt>
      <trkpt lat="57.346612019464374" lon="-6.384857995435596">
        <ele>96.269999999999996</ele>
        <time>2023-08-27T15:08:57Z</time>
      </trkpt>
      <trkpt lat="57.346687959507108" lon="-6.385151026770473">
        <ele>94.829999999999998</ele>
        <time>2023-08-27T15:08:58Z</time>
      </trkpt>
      <trkpt lat="57.346749985590577" lon="-6.38544699177146">
        <ele>93.390000000000001</ele>
        <time>2023-08-27T15:08:59Z</time>
      </trkpt>
      <trkpt lat="57.346802959218621" lon="-6.385765001177788">
        <ele>91.939999999999998</ele>
        <time>2023-08-27T15:09:00Z</time>
      </trkpt>
      <trkpt lat="57.346831038594246" lon="-6.38609298504889">
        <ele>90.5</ele>
        <time>2023-08-27T15:09:01Z</time>
      </trkpt>
      <trkpt lat="57.346831038594246" lon="-6.386361038312316">
        <ele>89.060000000000002</ele>
        <time>2023-08-27T15:09:02Z</time>
      </trkpt>
      <trkpt lat="57.346780998632312" lon="-6.38675800524652">
        <ele>87.620000000000005</ele>
        <time>2023-08-27T15:09:03Z</time>
      </trkpt>
      <trkpt lat="57.346735987812281" lon="-6.387105016037822">
        <ele>86.180000000000007</ele>
        <time>2023-08-27T15:09:04Z</time>
      </trkpt>
      <trkpt lat="57.346690976992249" lon="-6.387458983808756">
        <ele>84.730000000000004</ele>
        <time>2023-08-27T15:09:05Z</time>
      </trkpt>
      <trkpt lat="57.346009025350213" lon="-6.390862036496401">
        <ele>72.239999999999995</ele>
        <time>2023-08-27T15:09:14Z</time>
      </trkpt>
      <trkpt lat="57.345578027889132" lon="-6.393523961305618">
        <ele>62.140000000000001</ele>
        <time>2023-08-27T15:09:21Z</time>
      </trkpt>
      <trkpt lat="57.345629995688796" lon="-6.395878018811345">
        <ele>55.409999999999997</ele>
        <time>2023-08-27T15:09:27Z</time>
      </trkpt>
      <trkpt lat="57.345526982098818" lon="-6.39805899001658">
        <ele>53.009999999999998</ele>
        <time>2023-08-27T15:09:33Z</time>
      </trkpt>
      <trkpt lat="57.345413994044065" lon="-6.400907998904586">
        <ele>50.609999999999999</ele>
        <time>2023-08-27T15:09:41Z</time>
      </trkpt>
      <trkpt lat="57.345801992341876" lon="-6.403574030846357">
        <ele>47.240000000000002</ele>
        <time>2023-08-27T15:09:49Z</time>
      </trkpt>
      <trkpt lat="57.346268026158214" lon="-6.404927037656307">
        <ele>43.399999999999999</ele>
        <time>2023-08-27T15:09:54Z</time>
      </trkpt>
      <trkpt lat="57.346398029476404" lon="-6.405144967138767">
        <ele>42.439999999999998</ele>
        <time>2023-08-27T15:09:55Z</time>
      </trkpt>
      <trkpt lat="57.346532978117466" lon="-6.405369015410543">
        <ele>41.469999999999999</ele>
        <time>2023-08-27T15:09:56Z</time>
      </trkpt>
      <trkpt lat="57.346683014184237" lon="-6.405550986528397">
        <ele>40.990000000000002</ele>
        <time>2023-08-27T15:09:57Z</time>
      </trkpt>
      <trkpt lat="57.346844030544162" lon="-6.405719965696335">
        <ele>40.030000000000001</ele>
        <time>2023-08-27T15:09:58Z</time>
      </trkpt>
      <trkpt lat="57.347003035247326" lon="-6.405886011198163">
        <ele>39.07</ele>
        <time>2023-08-27T15:09:59Z</time>
      </trkpt>
      <trkpt lat="57.347167991101742" lon="-6.405996987596154">
        <ele>38.109999999999999</ele>
        <time>2023-08-27T15:10:00Z</time>
      </trkpt>
      <trkpt lat="57.347339987754822" lon="-6.406090026721358">
        <ele>37.630000000000003</ele>
        <time>2023-08-27T15:10:01Z</time>
      </trkpt>
      <trkpt lat="57.347510978579521" lon="-6.406182982027531">
        <ele>36.670000000000002</ele>
        <time>2023-08-27T15:10:02Z</time>
      </trkpt>
      <trkpt lat="57.34768096357584" lon="-6.40622103586793">
        <ele>35.710000000000001</ele>
        <time>2023-08-27T15:10:03Z</time>
      </trkpt>
      <trkpt lat="57.34785296022892" lon="-6.406236961483955">
        <ele>35.229999999999997</ele>
        <time>2023-08-27T15:10:04Z</time>
      </trkpt>
      <trkpt lat="57.348024034872651" lon="-6.406250037252903">
        <ele>34.259999999999998</ele>
        <time>2023-08-27T15:10:05Z</time>
      </trkpt>
      <trkpt lat="57.348197037354112" lon="-6.406209971755743">
        <ele>33.780000000000001</ele>
        <time>2023-08-27T15:10:06Z</time>
      </trkpt>
      <trkpt lat="57.349754981696606" lon="-6.405908977612853">
        <ele>26.57</ele>
        <time>2023-08-27T15:10:15Z</time>
      </trkpt>
      <trkpt lat="57.349940976127982" lon="-6.405938984826207">
        <ele>25.609999999999999</ele>
        <time>2023-08-27T15:10:16Z</time>
      </trkpt>
      <trkpt lat="57.350123031064868" lon="-6.406004028394818">
        <ele>24.649999999999999</ele>
        <time>2023-08-27T15:10:17Z</time>
      </trkpt>
      <trkpt lat="57.351363971829414" lon="-6.40631097368896">
        <ele>19.359999999999999</ele>
        <time>2023-08-27T15:10:23Z</time>
      </trkpt>
      <trkpt lat="57.351561030372977" lon="-6.406274009495974">
        <ele>18.879999999999999</ele>
        <time>2023-08-27T15:10:24Z</time>
      </trkpt>
      <trkpt lat="57.351751970127225" lon="-6.406216006726027">
        <ele>17.920000000000002</ele>
        <time>2023-08-27T15:10:25Z</time>
      </trkpt>
      <trkpt lat="57.353541003540158" lon="-6.405241023749113">
        <ele>14.56</ele>
        <time>2023-08-27T15:10:34Z</time>
      </trkpt>
      <trkpt lat="57.354092029854655" lon="-6.404608022421598">
        <ele>13.6</ele>
        <time>2023-08-27T15:10:37Z</time>
      </trkpt>
      <trkpt lat="57.354247011244297" lon="-6.404344998300076">
        <ele>13.6</ele>
        <time>2023-08-27T15:10:38Z</time>
      </trkpt>
      <trkpt lat="57.354397969320416" lon="-6.404059007763863">
        <ele>13.6</ele>
        <time>2023-08-27T15:10:39Z</time>
      </trkpt>
      <trkpt lat="57.355173965916038" lon="-6.402180958539248">
        <ele>13.119999999999999</ele>
        <time>2023-08-27T15:10:45Z</time>
      </trkpt>
      <trkpt lat="57.355333976447582" lon="-6.401945007964969">
        <ele>13.119999999999999</ele>
        <time>2023-08-27T15:10:46Z</time>
      </trkpt>
      <trkpt lat="57.356569971889257" lon="-6.400147005915642">
        <ele>12.15</ele>
        <time>2023-08-27T15:10:54Z</time>
      </trkpt>
      <trkpt lat="57.358154989778996" lon="-6.397441998124123">
        <ele>5.42</ele>
        <time>2023-08-27T15:11:05Z</time>
      </trkpt>
      <trkpt lat="57.359025031328201" lon="-6.396288983523846">
        <ele>3.5</ele>
        <time>2023-08-27T15:11:11Z</time>
      </trkpt>
      <trkpt lat="57.359189987182617" lon="-6.396158980205655">
        <ele>3.5</ele>
        <time>2023-08-27T15:11:12Z</time>
      </trkpt>
      <trkpt lat="57.359362989664078" lon="-6.396094020456076">
        <ele>3.5</ele>
        <time>2023-08-27T15:11:13Z</time>
      </trkpt>
      <trkpt lat="57.359530040994287" lon="-6.396029982715845">
        <ele>3.5</ele>
        <time>2023-08-27T15:11:14Z</time>
      </trkpt>
      <trkpt lat="57.359688961878419" lon="-6.396013973280788">
        <ele>3.5</ele>
        <time>2023-08-27T15:11:15Z</time>
      </trkpt>
      <trkpt lat="57.359827011823654" lon="-6.396049009636045">
        <ele>3.98</ele>
        <time>2023-08-27T15:11:16Z</time>
      </trkpt>
      <trkpt lat="57.359959026798606" lon="-6.396083040162921">
        <ele>4.46</ele>
        <time>2023-08-27T15:11:17Z</time>
      </trkpt>
      <trkpt lat="57.360092969611287" lon="-6.396117992699146">
        <ele>4.94</ele>
        <time>2023-08-27T15:11:18Z</time>
      </trkpt>
      <trkpt lat="57.360234037041664" lon="-6.396183036267757">
        <ele>5.42</ele>
        <time>2023-08-27T15:11:19Z</time>
      </trkpt>
      <trkpt lat="57.360348030924797" lon="-6.396301975473762">
        <ele>5.42</ele>
        <time>2023-08-27T15:11:20Z</time>
      </trkpt>
      <trkpt lat="57.360453978180885" lon="-6.396414041519165">
        <ele>5.91</ele>
        <time>2023-08-27T15:11:21Z</time>
      </trkpt>
      <trkpt lat="57.360551962628961" lon="-6.396516971290112">
        <ele>5.91</ele>
        <time>2023-08-27T15:11:22Z</time>
      </trkpt>
      <trkpt lat="57.360650030896068" lon="-6.396637000143528">
        <ele>6.39</ele>
        <time>2023-08-27T15:11:23Z</time>
      </trkpt>
      <trkpt lat="57.360896961763501" lon="-6.397100016474724">
        <ele>7.35</ele>
        <time>2023-08-27T15:11:27Z</time>
      </trkpt>
      <trkpt lat="57.360939038917422" lon="-6.3971789740026">
        <ele>7.83</ele>
        <time>2023-08-27T15:11:28Z</time>
      </trkpt>
      <trkpt lat="57.361025037243962" lon="-6.397187020629644">
        <ele>7.83</ele>
        <time>2023-08-27T15:11:29Z</time>
      </trkpt>
      <trkpt lat="57.361073987558484" lon="-6.397137986496091">
        <ele>7.83</ele>
        <time>2023-08-27T15:11:30Z</time>
      </trkpt>
      <trkpt lat="57.361124027520418" lon="-6.397088030353189">
        <ele>8.310000000000001</ele>
        <time>2023-08-27T15:11:31Z</time>
      </trkpt>
      <trkpt lat="57.361203990876675" lon="-6.397127006202936">
        <ele>8.789999999999999</ele>
        <time>2023-08-27T15:11:32Z</time>
      </trkpt>
      <trkpt lat="57.361280014738441" lon="-6.397198000922799">
        <ele>9.27</ele>
        <time>2023-08-27T15:11:33Z</time>
      </trkpt>
      <trkpt lat="57.361362995579839" lon="-6.397276958450675">
        <ele>9.75</ele>
        <time>2023-08-27T15:11:34Z</time>
      </trkpt>
      <trkpt lat="57.361449999734759" lon="-6.397360023111105">
        <ele>10.23</ele>
        <time>2023-08-27T15:11:35Z</time>
      </trkpt>
      <trkpt lat="57.361539015546441" lon="-6.397445015609264">
        <ele>10.710000000000001</ele>
        <time>2023-08-27T15:11:36Z</time>
      </trkpt>
      <trkpt lat="57.361634988337755" lon="-6.397487008944154">
        <ele>11.19</ele>
        <time>2023-08-27T15:11:37Z</time>
      </trkpt>
      <trkpt lat="57.362194983288646" lon="-6.397584993392229">
        <ele>17.920000000000002</ele>
        <time>2023-08-27T15:11:44Z</time>
      </trkpt>
      <trkpt lat="57.362214010208845" lon="-6.397588010877371">
        <ele>19.84</ele>
        <time>2023-08-27T15:11:53Z</time>
      </trkpt>
      <trkpt lat="57.362365974113345" lon="-6.397615000605583">
        <ele>25.609999999999999</ele>
        <time>2023-08-27T15:12:02Z</time>
      </trkpt>
      <trkpt lat="57.362410984933376" lon="-6.397622963413596">
        <ele>28.98</ele>
        <time>2023-08-27T15:12:13Z</time>
      </trkpt>
      <trkpt lat="57.362635033205152" lon="-6.39756697230041">
        <ele>30.899999999999999</ele>
        <time>2023-08-27T15:12:24Z</time>
      </trkpt>
      <trkpt lat="57.362780040130019" lon="-6.39752397313714">
        <ele>31.859999999999999</ele>
        <time>2023-08-27T15:12:26Z</time>
      </trkpt>
      <trkpt lat="57.362846005707979" lon="-6.397467982023954">
        <ele>32.340000000000003</ele>
        <time>2023-08-27T15:12:27Z</time>
      </trkpt>
      <trkpt lat="57.363393008708954" lon="-6.39692198485136">
        <ele>35.710000000000001</ele>
        <time>2023-08-27T15:12:36Z</time>
      </trkpt>
      <trkpt lat="57.363631976768374" lon="-6.396668013185263">
        <ele>36.670000000000002</ele>
        <time>2023-08-27T15:12:40Z</time>
      </trkpt>
      <trkpt lat="57.36396498978138" lon="-6.396088991314173">
        <ele>37.149999999999999</ele>
        <time>2023-08-27T15:12:47Z</time>
      </trkpt>
      <trkpt lat="57.364026010036469" lon="-6.395979020744562">
        <ele>37.149999999999999</ele>
        <time>2023-08-27T15:12:48Z</time>
      </trkpt>
      <trkpt lat="57.364079989492893" lon="-6.395862009376288">
        <ele>37.149999999999999</ele>
        <time>2023-08-27T15:12:49Z</time>
      </trkpt>
      <trkpt lat="57.36439598724246" lon="-6.395105039700866">
        <ele>40.030000000000001</ele>
        <time>2023-08-27T15:12:55Z</time>
      </trkpt>
      <trkpt lat="57.364448038861156" lon="-6.394894989207387">
        <ele>40.509999999999998</ele>
        <time>2023-08-27T15:12:57Z</time>
      </trkpt>
      <trkpt lat="57.364473016932607" lon="-6.39479398727417">
        <ele>41.469999999999999</ele>
        <time>2023-08-27T15:12:58Z</time>
      </trkpt>
      <trkpt lat="57.364549040794373" lon="-6.394483018666506">
        <ele>43.880000000000003</ele>
        <time>2023-08-27T15:13:02Z</time>
      </trkpt>
      <trkpt lat="57.364860009402037" lon="-6.393213998526335">
        <ele>51.57</ele>
        <time>2023-08-27T15:13:10Z</time>
      </trkpt>
      <trkpt lat="57.365418998524547" lon="-6.391746997833252">
        <ele>55.409999999999997</ele>
        <time>2023-08-27T15:13:17Z</time>
      </trkpt>
      <trkpt lat="57.366605037823319" lon="-6.388910980895162">
        <ele>59.259999999999998</ele>
        <time>2023-08-27T15:13:29Z</time>
      </trkpt>
      <trkpt lat="57.366949031129479" lon="-6.388096008449793">
        <ele>63.579999999999998</ele>
        <time>2023-08-27T15:13:33Z</time>
      </trkpt>
      <trkpt lat="57.367051038891077" lon="-6.387927029281855">
        <ele>64.549999999999997</ele>
        <time>2023-08-27T15:13:34Z</time>
      </trkpt>
      <trkpt lat="57.367238039150834" lon="-6.38761798851192">
        <ele>65.510000000000005</ele>
        <time>2023-08-27T15:13:36Z</time>
      </trkpt>
      <trkpt lat="57.367287995293736" lon="-6.387440040707588">
        <ele>65.989999999999995</ele>
        <time>2023-08-27T15:13:37Z</time>
      </trkpt>
      <trkpt lat="57.367326971143484" lon="-6.387248011305928">
        <ele>66.469999999999999</ele>
        <time>2023-08-27T15:13:38Z</time>
      </trkpt>
      <trkpt lat="57.367882020771503" lon="-6.385282035917044">
        <ele>69.349999999999994</ele>
        <time>2023-08-27T15:13:48Z</time>
      </trkpt>
      <trkpt lat="57.36796198412776" lon="-6.385066034272313">
        <ele>69.349999999999994</ele>
        <time>2023-08-27T15:13:49Z</time>
      </trkpt>
      <trkpt lat="57.368024010211229" lon="-6.384822959080339">
        <ele>68.870000000000005</ele>
        <time>2023-08-27T15:13:50Z</time>
      </trkpt>
      <trkpt lat="57.368085030466318" lon="-6.384578961879015">
        <ele>68.870000000000005</ele>
        <time>2023-08-27T15:13:51Z</time>
      </trkpt>
      <trkpt lat="57.368228025734425" lon="-6.384058026596904">
        <ele>68.390000000000001</ele>
        <time>2023-08-27T15:13:54Z</time>
      </trkpt>
      <trkpt lat="57.368319975212216" lon="-6.383760971948504">
        <ele>69.349999999999994</ele>
        <time>2023-08-27T15:13:58Z</time>
      </trkpt>
      <trkpt lat="57.368401028215885" lon="-6.383626023307443">
        <ele>69.349999999999994</ele>
        <time>2023-08-27T15:14:00Z</time>
      </trkpt>
      <trkpt lat="57.368460958823562" lon="-6.383542958647013">
        <ele>69.829999999999998</ele>
        <time>2023-08-27T15:14:01Z</time>
      </trkpt>
      <trkpt lat="57.36901399679482" lon="-6.382901994511485">
        <ele>70.310000000000002</ele>
        <time>2023-08-27T15:14:07Z</time>
      </trkpt>
      <trkpt lat="57.370164999738336" lon="-6.381774041801691">
        <ele>72.239999999999995</ele>
        <time>2023-08-27T15:14:16Z</time>
      </trkpt>
      <trkpt lat="57.370537994429469" lon="-6.381347989663482">
        <ele>72.239999999999995</ele>
        <time>2023-08-27T15:14:19Z</time>
      </trkpt>
      <trkpt lat="57.370658023282886" lon="-6.381151014938951">
        <ele>72.239999999999995</ele>
        <time>2023-08-27T15:14:20Z</time>
      </trkpt>
      <trkpt lat="57.37077696248889" lon="-6.380939036607742">
        <ele>72.239999999999995</ele>
        <time>2023-08-27T15:14:21Z</time>
      </trkpt>
      <trkpt lat="57.37165798433125" lon="-6.379060987383127">
        <ele>76.560000000000002</ele>
        <time>2023-08-27T15:14:30Z</time>
      </trkpt>
      <trkpt lat="57.372645037248731" lon="-6.377704041078687">
        <ele>81.849999999999994</ele>
        <time>2023-08-27T15:14:39Z</time>
      </trkpt>
      <trkpt lat="57.373940963298082" lon="-6.376385986804962">
        <ele>83.769999999999996</ele>
        <time>2023-08-27T15:14:49Z</time>
      </trkpt>
      <trkpt lat="57.374219996854663" lon="-6.376076024025679">
        <ele>85.689999999999998</ele>
        <time>2023-08-27T15:14:52Z</time>
      </trkpt>
      <trkpt lat="57.374283028766513" lon="-6.375950966030359">
        <ele>85.689999999999998</ele>
        <time>2023-08-27T15:14:53Z</time>
      </trkpt>
      <trkpt lat="57.374345976859331" lon="-6.375811994075775">
        <ele>85.689999999999998</ele>
        <time>2023-08-27T15:14:54Z</time>
      </trkpt>
      <trkpt lat="57.374410014599562" lon="-6.37567101046443">
        <ele>85.689999999999998</ele>
        <time>2023-08-27T15:14:55Z</time>
      </trkpt>
      <trkpt lat="57.374467011541128" lon="-6.375520974397659">
        <ele>86.180000000000007</ele>
        <time>2023-08-27T15:14:56Z</time>
      </trkpt>
      <trkpt lat="57.374517973512411" lon="-6.375347971916199">
        <ele>86.659999999999997</ele>
        <time>2023-08-27T15:14:57Z</time>
      </trkpt>
      <trkpt lat="57.375260023400187" lon="-6.372803980484605">
        <ele>92.900000000000006</ele>
        <time>2023-08-27T15:15:10Z</time>
      </trkpt>
      <trkpt lat="57.375432020053267" lon="-6.372216995805502">
        <ele>94.349999999999994</ele>
        <time>2023-08-27T15:15:13Z</time>
      </trkpt>
      <trkpt lat="57.375496979802847" lon="-6.372078023850918">
        <ele>94.829999999999998</ele>
        <time>2023-08-27T15:15:14Z</time>
      </trkpt>
      <trkpt lat="57.375590018928051" lon="-6.371951960027218">
        <ele>95.790000000000006</ele>
        <time>2023-08-27T15:15:15Z</time>
      </trkpt>
      <trkpt lat="57.375935018062592" lon="-6.37148198671639">
        <ele>97.230000000000004</ele>
        <time>2023-08-27T15:15:18Z</time>
      </trkpt>
      <trkpt lat="57.376053035259247" lon="-6.371275037527084">
        <ele>98.189999999999998</ele>
        <time>2023-08-27T15:15:19Z</time>
      </trkpt>
      <trkpt lat="57.376164011657238" lon="-6.371037997305393">
        <ele>99.150000000000006</ele>
        <time>2023-08-27T15:15:20Z</time>
      </trkpt>
      <trkpt lat="57.377255000174046" lon="-6.36862400919199">
        <ele>109.73</ele>
        <time>2023-08-27T15:15:30Z</time>
      </trkpt>
      <trkpt lat="57.377976011484861" lon="-6.367165977135301">
        <ele>117.90000000000001</ele>
        <time>2023-08-27T15:15:38Z</time>
      </trkpt>
      <trkpt lat="57.378253033384681" lon="-6.366624003276229">
        <ele>121.73999999999999</ele>
        <time>2023-08-27T15:15:44Z</time>
      </trkpt>
      <trkpt lat="57.378716971725225" lon="-6.365891005843878">
        <ele>127.03</ele>
        <time>2023-08-27T15:15:51Z</time>
      </trkpt>
      <trkpt lat="57.379684997722507" lon="-6.364645035937429">
        <ele>136.63999999999999</ele>
        <time>2023-08-27T15:16:01Z</time>
      </trkpt>
      <trkpt lat="57.380456971004605" lon="-6.36381103657186">
        <ele>136.63999999999999</ele>
        <time>2023-08-27T15:16:08Z</time>
      </trkpt>
      <trkpt lat="57.380511034280062" lon="-6.363690001890063">
        <ele>136.63999999999999</ele>
        <time>2023-08-27T15:16:09Z</time>
      </trkpt>
      <trkpt lat="57.380536012351513" lon="-6.36353200301528">
        <ele>136.16</ele>
        <time>2023-08-27T15:16:10Z</time>
      </trkpt>
      <trkpt lat="57.380564007908106" lon="-6.363365035504103">
        <ele>135.68000000000001</ele>
        <time>2023-08-27T15:16:11Z</time>
      </trkpt>
      <trkpt lat="57.380590997636318" lon="-6.363196978345513">
        <ele>135.68000000000001</ele>
        <time>2023-08-27T15:16:12Z</time>
      </trkpt>
      <trkpt lat="57.380619999021292" lon="-6.363020958378911">
        <ele>135.68000000000001</ele>
        <time>2023-08-27T15:16:13Z</time>
      </trkpt>
      <trkpt lat="57.380649000406265" lon="-6.362843010574579">
        <ele>135.68000000000001</ele>
        <time>2023-08-27T15:16:14Z</time>
      </trkpt>
      <trkpt lat="57.380679007619619" lon="-6.362662967294455">
        <ele>135.68000000000001</ele>
        <time>2023-08-27T15:16:15Z</time>
      </trkpt>
      <trkpt lat="57.380738016217947" lon="-6.362485019490123">
        <ele>136.16</ele>
        <time>2023-08-27T15:16:16Z</time>
      </trkpt>
      <trkpt lat="57.380810016766191" lon="-6.3623290322721">
        <ele>136.16</ele>
        <time>2023-08-27T15:16:17Z</time>
      </trkpt>
      <trkpt lat="57.380886962637305" lon="-6.362160975113511">
        <ele>136.63999999999999</ele>
        <time>2023-08-27T15:16:18Z</time>
      </trkpt>
      <trkpt lat="57.381676035001874" lon="-6.360444026067853">
        <ele>138.09</ele>
        <time>2023-08-27T15:16:27Z</time>
      </trkpt>
      <trkpt lat="57.382480027154088" lon="-6.358920028433204">
        <ele>135.68000000000001</ele>
        <time>2023-08-27T15:16:35Z</time>
      </trkpt>
      <trkpt lat="57.382565019652247" lon="-6.358710983768106">
        <ele>135.68000000000001</ele>
        <time>2023-08-27T15:16:36Z</time>
      </trkpt>
      <trkpt lat="57.382794013246894" lon="-6.358144031837583">
        <ele>136.63999999999999</ele>
        <time>2023-08-27T15:16:39Z</time>
      </trkpt>
      <trkpt lat="57.382868025451899" lon="-6.35805401019752">
        <ele>136.63999999999999</ele>
        <time>2023-08-27T15:16:40Z</time>
      </trkpt>
      <trkpt lat="57.383078997954726" lon="-6.3577960152179">
        <ele>136.63999999999999</ele>
        <time>2023-08-27T15:16:42Z</time>
      </trkpt>
      <trkpt lat="57.383197015151381" lon="-6.357642961665988">
        <ele>136.16</ele>
        <time>2023-08-27T15:16:43Z</time>
      </trkpt>
      <trkpt lat="57.383307991549373" lon="-6.35745101608336">
        <ele>135.68000000000001</ele>
        <time>2023-08-27T15:16:44Z</time>
      </trkpt>
      <trkpt lat="57.384068984538317" lon="-6.35607797652483">
        <ele>131.84</ele>
        <time>2023-08-27T15:16:52Z</time>
      </trkpt>
      <trkpt lat="57.384088011458516" lon="-6.355918971821666">
        <ele>131.36000000000001</ele>
        <time>2023-08-27T15:16:53Z</time>
      </trkpt>
      <trkpt lat="57.384110977873206" lon="-6.355737000703812">
        <ele>131.36000000000001</ele>
        <time>2023-08-27T15:16:54Z</time>
      </trkpt>
      <trkpt lat="57.384277023375034" lon="-6.354650035500526">
        <ele>133.75999999999999</ele>
        <time>2023-08-27T15:17:00Z</time>
      </trkpt>
      <trkpt lat="57.384339971467853" lon="-6.354504022747278">
        <ele>134.24000000000001</ele>
        <time>2023-08-27T15:17:01Z</time>
      </trkpt>
      <trkpt lat="57.384409038349986" lon="-6.354340994730592">
        <ele>134.72</ele>
        <time>2023-08-27T15:17:02Z</time>
      </trkpt>
      <trkpt lat="57.38512996584177" lon="-6.352858990430832">
        <ele>137.13</ele>
        <time>2023-08-27T15:17:10Z</time>
      </trkpt>
      <trkpt lat="57.385240020230412" lon="-6.352694034576416">
        <ele>137.61000000000001</ele>
        <time>2023-08-27T15:17:11Z</time>
      </trkpt>
      <trkpt lat="57.385368011891842" lon="-6.352549027651548">
        <ele>137.61000000000001</ele>
        <time>2023-08-27T15:17:12Z</time>
      </trkpt>
      <trkpt lat="57.386724958196282" lon="-6.351128965616226">
        <ele>139.05000000000001</ele>
        <time>2023-08-27T15:17:21Z</time>
      </trkpt>
      <trkpt lat="57.387793986126781" lon="-6.350054992362857">
        <ele>140.00999999999999</ele>
        <time>2023-08-27T15:17:28Z</time>
      </trkpt>
      <trkpt lat="57.387905968353152" lon="-6.349852988496423">
        <ele>140.00999999999999</ele>
        <time>2023-08-27T15:17:29Z</time>
      </trkpt>
      <trkpt lat="57.388016022741795" lon="-6.34965400211513">
        <ele>140.00999999999999</ele>
        <time>2023-08-27T15:17:30Z</time>
      </trkpt>
      <trkpt lat="57.388124987483025" lon="-6.349457027390599">
        <ele>140.00999999999999</ele>
        <time>2023-08-27T15:17:31Z</time>
      </trkpt>
      <trkpt lat="57.388228001073003" lon="-6.349270027130842">
        <ele>140.00999999999999</ele>
        <time>2023-08-27T15:17:32Z</time>
      </trkpt>
      <trkpt lat="57.388417012989521" lon="-6.348928967490792">
        <ele>140.49000000000001</ele>
        <time>2023-08-27T15:17:34Z</time>
      </trkpt>
      <trkpt lat="57.38852497190237" lon="-6.348783960565925">
        <ele>140.97</ele>
        <time>2023-08-27T15:17:35Z</time>
      </trkpt>
      <trkpt lat="57.389612020924687" lon="-6.347639998421073">
        <ele>142.88999999999999</ele>
        <time>2023-08-27T15:17:43Z</time>
      </trkpt>
      <trkpt lat="57.390354992821813" lon="-6.346857966855168">
        <ele>143.37</ele>
        <time>2023-08-27T15:17:50Z</time>
      </trkpt>
      <trkpt lat="57.390420958399773" lon="-6.346786972135305">
        <ele>143.37</ele>
        <time>2023-08-27T15:17:51Z</time>
      </trkpt>
      <trkpt lat="57.390497988089919" lon="-6.346706002950668">
        <ele>143.37</ele>
        <time>2023-08-27T15:17:52Z</time>
      </trkpt>
      <trkpt lat="57.391209024935961" lon="-6.345631023868918">
        <ele>144.81999999999999</ele>
        <time>2023-08-27T15:17:59Z</time>
      </trkpt>
      <trkpt lat="57.391584031283855" lon="-6.345143029466271">
        <ele>146.25999999999999</ele>
        <time>2023-08-27T15:18:04Z</time>
      </trkpt>
      <trkpt lat="57.391977980732918" lon="-6.34467096067965">
        <ele>148.18000000000001</ele>
        <time>2023-08-27T15:18:12Z</time>
      </trkpt>
      <trkpt lat="57.392820026725531" lon="-6.343663958832622">
        <ele>152.99000000000001</ele>
        <time>2023-08-27T15:18:21Z</time>
      </trkpt>
      <trkpt lat="57.393763996660709" lon="-6.342527037486434">
        <ele>156.34999999999999</ele>
        <time>2023-08-27T15:18:29Z</time>
      </trkpt>
      <trkpt lat="57.394375959411263" lon="-6.341759003698826">
        <ele>155.87</ele>
        <time>2023-08-27T15:18:35Z</time>
      </trkpt>
      <trkpt lat="57.394716013222933" lon="-6.341333035379648">
        <ele>155.87</ele>
        <time>2023-08-27T15:18:40Z</time>
      </trkpt>
      <trkpt lat="57.39479798823595" lon="-6.34123002178967">
        <ele>155.38999999999999</ele>
        <time>2023-08-27T15:18:41Z</time>
      </trkpt>
      <trkpt lat="57.394891027361155" lon="-6.341214012354612">
        <ele>154.91</ele>
        <time>2023-08-27T15:18:42Z</time>
      </trkpt>
      <trkpt lat="57.394983982667327" lon="-6.341214012354612">
        <ele>154.91</ele>
        <time>2023-08-27T15:18:43Z</time>
      </trkpt>
      <trkpt lat="57.395084984600544" lon="-6.341214012354612">
        <ele>154.43000000000001</ele>
        <time>2023-08-27T15:18:44Z</time>
      </trkpt>
      <trkpt lat="57.395438030362129" lon="-6.341214012354612">
        <ele>153.47</ele>
        <time>2023-08-27T15:18:47Z</time>
      </trkpt>
      <trkpt lat="57.395559987053275" lon="-6.341170007362962">
        <ele>152.50999999999999</ele>
        <time>2023-08-27T15:18:48Z</time>
      </trkpt>
      <trkpt lat="57.395681021735072" lon="-6.341085014864802">
        <ele>152.03</ele>
        <time>2023-08-27T15:18:49Z</time>
      </trkpt>
      <trkpt lat="57.397124972194433" lon="-6.340158982202411">
        <ele>154.43000000000001</ele>
        <time>2023-08-27T15:19:00Z</time>
      </trkpt>
      <trkpt lat="57.397251036018133" lon="-6.340122018009424">
        <ele>154.43000000000001</ele>
        <time>2023-08-27T15:19:01Z</time>
      </trkpt>
      <trkpt lat="57.397380033507943" lon="-6.340136015787721">
        <ele>154.43000000000001</ele>
        <time>2023-08-27T15:19:02Z</time>
      </trkpt>
      <trkpt lat="57.397621013224125" lon="-6.340163005515933">
        <ele>154.43000000000001</ele>
        <time>2023-08-27T15:19:04Z</time>
      </trkpt>
      <trkpt lat="57.397727966308594" lon="-6.340115983039141">
        <ele>154.43000000000001</ele>
        <time>2023-08-27T15:19:05Z</time>
      </trkpt>
      <trkpt lat="57.397822011262178" lon="-6.340065021067858">
        <ele>154.43000000000001</ele>
        <time>2023-08-27T15:19:06Z</time>
      </trkpt>
      <trkpt lat="57.397899040952325" lon="-6.339938035234809">
        <ele>154.43000000000001</ele>
        <time>2023-08-27T15:19:07Z</time>
      </trkpt>
      <trkpt lat="57.397981015965343" lon="-6.339804008603096">
        <ele>154.43000000000001</ele>
        <time>2023-08-27T15:19:08Z</time>
      </trkpt>
      <trkpt lat="57.39806198514998" lon="-6.339669981971383">
        <ele>154.91</ele>
        <time>2023-08-27T15:19:09Z</time>
      </trkpt>
      <trkpt lat="57.39812501706183" lon="-6.339508965611458">
        <ele>154.91</ele>
        <time>2023-08-27T15:19:10Z</time>
      </trkpt>
      <trkpt lat="57.3981489893049" lon="-6.339319031685591">
        <ele>154.91</ele>
        <time>2023-08-27T15:19:11Z</time>
      </trkpt>
      <trkpt lat="57.398174973204732" lon="-6.339120967313647">
        <ele>154.91</ele>
        <time>2023-08-27T15:19:12Z</time>
      </trkpt>
      <trkpt lat="57.398201040923595" lon="-6.338920975103974">
        <ele>154.43000000000001</ele>
        <time>2023-08-27T15:19:13Z</time>
      </trkpt>
      <trkpt lat="57.398225013166666" lon="-6.338741015642881">
        <ele>154.43000000000001</ele>
        <time>2023-08-27T15:19:14Z</time>
      </trkpt>
      <trkpt lat="57.398246973752975" lon="-6.338591985404491">
        <ele>154.43000000000001</ele>
        <time>2023-08-27T15:19:15Z</time>
      </trkpt>
      <trkpt lat="57.39832098595798" lon="-6.338499030098319">
        <ele>154.43000000000001</ele>
        <time>2023-08-27T15:19:16Z</time>
      </trkpt>
      <trkpt lat="57.398403966799378" lon="-6.33839501067996">
        <ele>153.94999999999999</ele>
        <time>2023-08-27T15:19:17Z</time>
      </trkpt>
      <trkpt lat="57.398494994267821" lon="-6.338279005140066">
        <ele>153.94999999999999</ele>
        <time>2023-08-27T15:19:18Z</time>
      </trkpt>
      <trkpt lat="57.399037973955274" lon="-6.337594036012888">
        <ele>152.03</ele>
        <time>2023-08-27T15:19:23Z</time>
      </trkpt>
      <trkpt lat="57.399146016687155" lon="-6.337459003552795">
        <ele>151.53999999999999</ele>
        <time>2023-08-27T15:19:24Z</time>
      </trkpt>
      <trkpt lat="57.399273002520204" lon="-6.33740896359086">
        <ele>151.06</ele>
        <time>2023-08-27T15:19:25Z</time>
      </trkpt>
      <trkpt lat="57.399408034980297" lon="-6.337356995791197">
        <ele>150.58000000000001</ele>
        <time>2023-08-27T15:19:26Z</time>
      </trkpt>
      <trkpt lat="57.399551030248404" lon="-6.337313996627927">
        <ele>150.09999999999999</ele>
        <time>2023-08-27T15:19:27Z</time>
      </trkpt>
      <trkpt lat="57.399691008031368" lon="-6.337348027154803">
        <ele>150.09999999999999</ele>
        <time>2023-08-27T15:19:28Z</time>
      </trkpt>
      <trkpt lat="57.399837020784616" lon="-6.337382979691029">
        <ele>149.13999999999999</ele>
        <time>2023-08-27T15:19:29Z</time>
      </trkpt>
      <trkpt lat="57.399994013831019" lon="-6.337421033531427">
        <ele>148.18000000000001</ele>
        <time>2023-08-27T15:19:30Z</time>
      </trkpt>
      <trkpt lat="57.400153018534184" lon="-6.337459003552795">
        <ele>147.22</ele>
        <time>2023-08-27T15:19:31Z</time>
      </trkpt>
      <trkpt lat="57.400329038500786" lon="-6.33744802325964">
        <ele>146.74000000000001</ele>
        <time>2023-08-27T15:19:32Z</time>
      </trkpt>
      <trkpt lat="57.400497011840343" lon="-6.337437964975834">
        <ele>145.78</ele>
        <time>2023-08-27T15:19:33Z</time>
      </trkpt>
      <trkpt lat="57.400666996836662" lon="-6.337360013276339">
        <ele>144.81999999999999</ele>
        <time>2023-08-27T15:19:34Z</time>
      </trkpt>
      <trkpt lat="57.400844022631645" lon="-6.33727896027267">
        <ele>143.37</ele>
        <time>2023-08-27T15:19:35Z</time>
      </trkpt>
      <trkpt lat="57.401946997269988" lon="-6.336281010881066">
        <ele>140.00999999999999</ele>
        <time>2023-08-27T15:19:42Z</time>
      </trkpt>
      <trkpt lat="57.402070965617895" lon="-6.336058974266052">
        <ele>140.00999999999999</ele>
        <time>2023-08-27T15:19:43Z</time>
      </trkpt>
      <trkpt lat="57.402176996693015" lon="-6.335821012035012">
        <ele>140.00999999999999</ele>
        <time>2023-08-27T15:19:44Z</time>
      </trkpt>
      <trkpt lat="57.402276992797852" lon="-6.335598975419998">
        <ele>140.49000000000001</ele>
        <time>2023-08-27T15:19:45Z</time>
      </trkpt>
      <trkpt lat="57.402341030538082" lon="-6.335356989875436">
        <ele>140.49000000000001</ele>
        <time>2023-08-27T15:19:46Z</time>
      </trkpt>
      <trkpt lat="57.402391992509365" lon="-6.335126990452409">
        <ele>140.49000000000001</ele>
        <time>2023-08-27T15:19:47Z</time>
      </trkpt>
      <trkpt lat="57.402441026642919" lon="-6.334903025999665">
        <ele>140.49000000000001</ele>
        <time>2023-08-27T15:19:48Z</time>
      </trkpt>
      <trkpt lat="57.402980988845229" lon="-6.332243029028177">
        <ele>136.16</ele>
        <time>2023-08-27T15:19:58Z</time>
      </trkpt>
      <trkpt lat="57.403138987720013" lon="-6.331531992182136">
        <ele>134.24000000000001</ele>
        <time>2023-08-27T15:20:01Z</time>
      </trkpt>
      <trkpt lat="57.40319699048996" lon="-6.331393020227552">
        <ele>133.28</ele>
        <time>2023-08-27T15:20:02Z</time>
      </trkpt>
      <trkpt lat="57.40326102823019" lon="-6.331267040222883">
        <ele>132.80000000000001</ele>
        <time>2023-08-27T15:20:03Z</time>
      </trkpt>
      <trkpt lat="57.403359012678266" lon="-6.331201996654272">
        <ele>132.31999999999999</ele>
        <time>2023-08-27T15:20:04Z</time>
      </trkpt>
      <trkpt lat="57.403464037925005" lon="-6.33113200776279">
        <ele>131.36000000000001</ele>
        <time>2023-08-27T15:20:05Z</time>
      </trkpt>
      <trkpt lat="57.403554981574416" lon="-6.331020025536418">
        <ele>130.88</ele>
        <time>2023-08-27T15:20:06Z</time>
      </trkpt>
      <trkpt lat="57.403622036799788" lon="-6.330878958106041">
        <ele>129.91999999999999</ele>
        <time>2023-08-27T15:20:07Z</time>
      </trkpt>
      <trkpt lat="57.403662018477917" lon="-6.330719031393528">
        <ele>129.43000000000001</ele>
        <time>2023-08-27T15:20:08Z</time>
      </trkpt>
      <trkpt lat="57.403679033741355" lon="-6.330545023083687">
        <ele>128.47</ele>
        <time>2023-08-27T15:20:09Z</time>
      </trkpt>
      <trkpt lat="57.403688002377748" lon="-6.330352993682027">
        <ele>127.98999999999999</ele>
        <time>2023-08-27T15:20:10Z</time>
      </trkpt>
      <trkpt lat="57.403699988499284" lon="-6.33014403283596">
        <ele>127.51000000000001</ele>
        <time>2023-08-27T15:20:11Z</time>
      </trkpt>
      <trkpt lat="57.403751034289598" lon="-6.329484963789582">
        <ele>125.59</ele>
        <time>2023-08-27T15:20:14Z</time>
      </trkpt>
      <trkpt lat="57.403782969340682" lon="-6.329299975186586">
        <ele>125.11</ele>
        <time>2023-08-27T15:20:15Z</time>
      </trkpt>
      <trkpt lat="57.403824962675571" lon="-6.329140970483422">
        <ele>124.15000000000001</ele>
        <time>2023-08-27T15:20:16Z</time>
      </trkpt>
      <trkpt lat="57.403889000415802" lon="-6.328991018235683">
        <ele>123.67</ele>
        <time>2023-08-27T15:20:17Z</time>
      </trkpt>
      <trkpt lat="57.403966030105948" lon="-6.328854979947209">
        <ele>123.19</ele>
        <time>2023-08-27T15:20:18Z</time>
      </trkpt>
      <trkpt lat="57.404046999290586" lon="-6.328712990507484">
        <ele>122.22</ele>
        <time>2023-08-27T15:20:19Z</time>
      </trkpt>
      <trkpt lat="57.404129980131984" lon="-6.328566977754235">
        <ele>121.73999999999999</ele>
        <time>2023-08-27T15:20:20Z</time>
      </trkpt>
      <trkpt lat="57.404213966801763" lon="-6.328419037163258">
        <ele>121.26000000000001</ele>
        <time>2023-08-27T15:20:21Z</time>
      </trkpt>
      <trkpt lat="57.404557960107923" lon="-6.327813025563955">
        <ele>120.3</ele>
        <time>2023-08-27T15:20:27Z</time>
      </trkpt>
      <trkpt lat="57.404739009216428" lon="-6.327495016157627">
        <ele>120.3</ele>
        <time>2023-08-27T15:20:38Z</time>
      </trkpt>
      <trkpt lat="57.405251981690526" lon="-6.326467981562018">
        <ele>119.34</ele>
        <time>2023-08-27T15:20:44Z</time>
      </trkpt>
      <trkpt lat="57.405650960281491" lon="-6.325489981099963">
        <ele>120.3</ele>
        <time>2023-08-27T15:20:49Z</time>
      </trkpt>
      <trkpt lat="57.405737964436412" lon="-6.325358971953392">
        <ele>121.26000000000001</ele>
        <time>2023-08-27T15:20:50Z</time>
      </trkpt>
      <trkpt lat="57.406155969947577" lon="-6.324732005596161">
        <ele>122.70999999999999</ele>
        <time>2023-08-27T15:20:54Z</time>
      </trkpt>
      <trkpt lat="57.406256971880794" lon="-6.324525978416205">
        <ele>122.70999999999999</ele>
        <time>2023-08-27T15:20:55Z</time>
      </trkpt>
      <trkpt lat="57.406332995742559" lon="-6.324281981214881">
        <ele>123.19</ele>
        <time>2023-08-27T15:20:56Z</time>
      </trkpt>
      <trkpt lat="57.406410025432706" lon="-6.324033960700035">
        <ele>123.67</ele>
        <time>2023-08-27T15:20:57Z</time>
      </trkpt>
      <trkpt lat="57.40648596547544" lon="-6.323787029832602">
        <ele>124.15000000000001</ele>
        <time>2023-08-27T15:20:58Z</time>
      </trkpt>
      <trkpt lat="57.406950993463397" lon="-6.321790041401982">
        <ele>128.47</ele>
        <time>2023-08-27T15:21:06Z</time>
      </trkpt>
      <trkpt lat="57.406998015940189" lon="-6.321494998410344">
        <ele>128.94999999999999</ele>
        <time>2023-08-27T15:21:07Z</time>
      </trkpt>
      <trkpt lat="57.40708502009511" lon="-6.319215036928654">
        <ele>127.98999999999999</ele>
        <time>2023-08-27T15:21:15Z</time>
      </trkpt>
      <trkpt lat="57.407148974016309" lon="-6.317824982106686">
        <ele>126.55</ele>
        <time>2023-08-27T15:21:20Z</time>
      </trkpt>
      <trkpt lat="57.407179987058043" lon="-6.317603029310703">
        <ele>126.06999999999999</ele>
        <time>2023-08-27T15:21:21Z</time>
      </trkpt>
      <trkpt lat="57.407213011756539" lon="-6.317375041544437">
        <ele>126.06999999999999</ele>
        <time>2023-08-27T15:21:22Z</time>
      </trkpt>
      <trkpt lat="57.407305967062712" lon="-6.317143030464649">
        <ele>126.06999999999999</ele>
        <time>2023-08-27T15:21:23Z</time>
      </trkpt>
      <trkpt lat="57.407390959560871" lon="-6.316929962486029">
        <ele>126.06999999999999</ele>
        <time>2023-08-27T15:21:24Z</time>
      </trkpt>
      <trkpt lat="57.407476035878062" lon="-6.31671798415482">
        <ele>125.59</ele>
        <time>2023-08-27T15:21:25Z</time>
      </trkpt>
      <trkpt lat="57.407575026154518" lon="-6.316530983895063">
        <ele>125.59</ele>
        <time>2023-08-27T15:21:26Z</time>
      </trkpt>
      <trkpt lat="57.40768700838089" lon="-6.316360998898745">
        <ele>125.11</ele>
        <time>2023-08-27T15:21:27Z</time>
      </trkpt>
      <trkpt lat="57.407802008092403" lon="-6.316186990588903">
        <ele>124.63</ele>
        <time>2023-08-27T15:21:28Z</time>
      </trkpt>
      <trkpt lat="57.408540034666657" lon="-6.315026013180614">
        <ele>122.22</ele>
        <time>2023-08-27T15:21:35Z</time>
      </trkpt>
      <trkpt lat="57.408601976931095" lon="-6.314884023740888">
        <ele>121.73999999999999</ele>
        <time>2023-08-27T15:21:36Z</time>
      </trkpt>
      <trkpt lat="57.408623015508056" lon="-6.314689982682467">
        <ele>121.26000000000001</ele>
        <time>2023-08-27T15:21:37Z</time>
      </trkpt>
      <trkpt lat="57.408613041043282" lon="-6.314494013786316">
        <ele>120.78</ele>
        <time>2023-08-27T15:21:38Z</time>
      </trkpt>
      <trkpt lat="57.408594014123082" lon="-6.314283963292837">
        <ele>120.78</ele>
        <time>2023-08-27T15:21:39Z</time>
      </trkpt>
      <trkpt lat="57.408564006909728" lon="-6.314057987183332">
        <ele>121.26000000000001</ele>
        <time>2023-08-27T15:21:40Z</time>
      </trkpt>
      <trkpt lat="57.408479014411569" lon="-6.31340503692627">
        <ele>121.73999999999999</ele>
        <time>2023-08-27T15:21:43Z</time>
      </trkpt>
      <trkpt lat="57.408499969169497" lon="-6.313131032511592">
        <ele>122.22</ele>
        <time>2023-08-27T15:21:44Z</time>
      </trkpt>
      <trkpt lat="57.408516984432936" lon="-6.312911007553339">
        <ele>122.70999999999999</ele>
        <time>2023-08-27T15:21:45Z</time>
      </trkpt>
      <trkpt lat="57.40854799747467" lon="-6.312701040878892">
        <ele>122.70999999999999</ele>
        <time>2023-08-27T15:21:46Z</time>
      </trkpt>
      <trkpt lat="57.408587979152799" lon="-6.3124830275774">
        <ele>123.19</ele>
        <time>2023-08-27T15:21:47Z</time>
      </trkpt>
      <trkpt lat="57.408701973035932" lon="-6.311806021258235">
        <ele>123.67</ele>
        <time>2023-08-27T15:21:50Z</time>
      </trkpt>
      <trkpt lat="57.408723011612892" lon="-6.311563029885292">
        <ele>123.67</ele>
        <time>2023-08-27T15:21:51Z</time>
      </trkpt>
      <trkpt lat="57.408727034926414" lon="-6.311311991885305">
        <ele>124.15000000000001</ele>
        <time>2023-08-27T15:21:52Z</time>
      </trkpt>
      <trkpt lat="57.408702978864312" lon="-6.311059026047587">
        <ele>124.63</ele>
        <time>2023-08-27T15:21:53Z</time>
      </trkpt>
      <trkpt lat="57.408679006621242" lon="-6.310797007754445">
        <ele>124.63</ele>
        <time>2023-08-27T15:21:54Z</time>
      </trkpt>
      <trkpt lat="57.40865402854979" lon="-6.310534989461303">
        <ele>125.11</ele>
        <time>2023-08-27T15:21:55Z</time>
      </trkpt>
      <trkpt lat="57.408601976931095" lon="-6.308688959106803">
        <ele>126.55</ele>
        <time>2023-08-27T15:22:02Z</time>
      </trkpt>
      <trkpt lat="57.408624021336436" lon="-6.30818503908813">
        <ele>126.55</ele>
        <time>2023-08-27T15:22:04Z</time>
      </trkpt>
      <trkpt lat="57.408664003014565" lon="-6.307953028008342">
        <ele>127.03</ele>
        <time>2023-08-27T15:22:05Z</time>
      </trkpt>
      <trkpt lat="57.408714964985847" lon="-6.307715987786651">
        <ele>127.03</ele>
        <time>2023-08-27T15:22:06Z</time>
      </trkpt>
      <trkpt lat="57.409422984346747" lon="-6.305510960519314">
        <ele>128.94999999999999</ele>
        <time>2023-08-27T15:22:15Z</time>
      </trkpt>
      <trkpt lat="57.410184983164072" lon="-6.304121995344758">
        <ele>127.98999999999999</ele>
        <time>2023-08-27T15:22:22Z</time>
      </trkpt>
      <trkpt lat="57.41125300526619" lon="-6.302430024370551">
        <ele>120.3</ele>
        <time>2023-08-27T15:22:31Z</time>
      </trkpt>
      <trkpt lat="57.412081975489855" lon="-6.300684995949268">
        <ele>109.25</ele>
        <time>2023-08-27T15:22:39Z</time>
      </trkpt>
      <trkpt lat="57.4123490229249" lon="-6.300069009885192">
        <ele>105.88</ele>
        <time>2023-08-27T15:22:42Z</time>
      </trkpt>
      <trkpt lat="57.412467040121555" lon="-6.299941018223763">
        <ele>104.44</ele>
        <time>2023-08-27T15:22:43Z</time>
      </trkpt>
      <trkpt lat="57.413257034495473" lon="-6.299079023301601">
        <ele>95.790000000000006</ele>
        <time>2023-08-27T15:22:49Z</time>
      </trkpt>
      <trkpt lat="57.413344038650393" lon="-6.298878025263548">
        <ele>94.349999999999994</ele>
        <time>2023-08-27T15:22:50Z</time>
      </trkpt>
      <trkpt lat="57.413427019491792" lon="-6.298679960891604">
        <ele>92.420000000000002</ele>
        <time>2023-08-27T15:22:51Z</time>
      </trkpt>
      <trkpt lat="57.413657018914819" lon="-6.298127006739378">
        <ele>87.620000000000005</ele>
        <time>2023-08-27T15:22:54Z</time>
      </trkpt>
      <trkpt lat="57.413751985877752" lon="-6.29798199981451">
        <ele>86.180000000000007</ele>
        <time>2023-08-27T15:22:55Z</time>
      </trkpt>
      <trkpt lat="57.413868997246027" lon="-6.297865994274616">
        <ele>84.730000000000004</ele>
        <time>2023-08-27T15:22:56Z</time>
      </trkpt>
      <trkpt lat="57.413993971422315" lon="-6.297740014269948">
        <ele>83.290000000000006</ele>
        <time>2023-08-27T15:22:57Z</time>
      </trkpt>
      <trkpt lat="57.414127998054028" lon="-6.297605987638235">
        <ele>81.849999999999994</ele>
        <time>2023-08-27T15:22:58Z</time>
      </trkpt>
      <trkpt lat="57.414264958351851" lon="-6.297457041218877">
        <ele>80.409999999999997</ele>
        <time>2023-08-27T15:22:59Z</time>
      </trkpt>
      <trkpt lat="57.414396973326802" lon="-6.297278003767133">
        <ele>78.480000000000004</ele>
        <time>2023-08-27T15:23:00Z</time>
      </trkpt>
      <trkpt lat="57.414529994130135" lon="-6.297097960487008">
        <ele>77.519999999999996</ele>
        <time>2023-08-27T15:23:01Z</time>
      </trkpt>
      <trkpt lat="57.415324011817575" lon="-6.296023987233639">
        <ele>71.760000000000005</ele>
        <time>2023-08-27T15:23:08Z</time>
      </trkpt>
      <trkpt lat="57.415444040670991" lon="-6.295964978635311">
        <ele>71.760000000000005</ele>
        <time>2023-08-27T15:23:09Z</time>
      </trkpt>
      <trkpt lat="57.415690971538424" lon="-6.295841010287404">
        <ele>73.200000000000003</ele>
        <time>2023-08-27T15:23:11Z</time>
      </trkpt>
      <trkpt lat="57.415826003998518" lon="-6.295730033889413">
        <ele>73.680000000000007</ele>
        <time>2023-08-27T15:23:12Z</time>
      </trkpt>
      <trkpt lat="57.416880028322339" lon="-6.294364035129547">
        <ele>83.769999999999996</ele>
        <time>2023-08-27T15:23:20Z</time>
      </trkpt>
      <trkpt lat="57.417643032968044" lon="-6.29353498108685">
        <ele>92.420000000000002</ele>
        <time>2023-08-27T15:23:26Z</time>
      </trkpt>
      <trkpt lat="57.417748980224133" lon="-6.293403971940279">
        <ele>94.349999999999994</ele>
        <time>2023-08-27T15:23:27Z</time>
      </trkpt>
      <trkpt lat="57.418755982071161" lon="-6.292206030339003">
        <ele>103.48</ele>
        <time>2023-08-27T15:23:35Z</time>
      </trkpt>
      <trkpt lat="57.418848015367985" lon="-6.292055994272232">
        <ele>104.44</ele>
        <time>2023-08-27T15:23:36Z</time>
      </trkpt>
      <trkpt lat="57.418940970674157" lon="-6.291904030367732">
        <ele>105.40000000000001</ele>
        <time>2023-08-27T15:23:37Z</time>
      </trkpt>
      <trkpt lat="57.419024035334587" lon="-6.291721975430846">
        <ele>105.88</ele>
        <time>2023-08-27T15:23:38Z</time>
      </trkpt>
      <trkpt lat="57.419096035882831" lon="-6.291497005149722">
        <ele>106.36</ele>
        <time>2023-08-27T15:23:39Z</time>
      </trkpt>
      <trkpt lat="57.41916099563241" lon="-6.291246972978115">
        <ele>106.84</ele>
        <time>2023-08-27T15:23:40Z</time>
      </trkpt>
      <trkpt lat="57.419212041422725" lon="-6.290956037119031">
        <ele>106.84</ele>
        <time>2023-08-27T15:23:41Z</time>
      </trkpt>
      <trkpt lat="57.41971998475492" lon="-6.28831297159195">
        <ele>107.81</ele>
        <time>2023-08-27T15:23:50Z</time>
      </trkpt>
      <trkpt lat="57.420431021600962" lon="-6.285900995135307">
        <ele>107.31999999999999</ele>
        <time>2023-08-27T15:23:59Z</time>
      </trkpt>
      <trkpt lat="57.421083971858025" lon="-6.283217025920749">
        <ele>100.59999999999999</ele>
        <time>2023-08-27T15:24:08Z</time>
      </trkpt>
      <trkpt lat="57.42180397734046" lon="-6.281240992248058">
        <ele>97.709999999999994</ele>
        <time>2023-08-27T15:24:17Z</time>
      </trkpt>
      <trkpt lat="57.422229023650289" lon="-6.279576011002064">
        <ele>103</ele>
        <time>2023-08-27T15:24:25Z</time>
      </trkpt>
      <trkpt lat="57.422717018052936" lon="-6.276955995708704">
        <ele>110.20999999999999</ele>
        <time>2023-08-27T15:24:35Z</time>
      </trkpt>
      <trkpt lat="57.422715006396174" lon="-6.274501020088792">
        <ele>111.17</ele>
        <time>2023-08-27T15:24:43Z</time>
      </trkpt>
      <trkpt lat="57.42262096144259" lon="-6.27179198898375">
        <ele>108.77</ele>
        <time>2023-08-27T15:24:52Z</time>
      </trkpt>
      <trkpt lat="57.422652980312705" lon="-6.269475985318422">
        <ele>108.29000000000001</ele>
        <time>2023-08-27T15:25:00Z</time>
      </trkpt>
      <trkpt lat="57.42268399335444" lon="-6.269239028915763">
        <ele>107.81</ele>
        <time>2023-08-27T15:25:01Z</time>
      </trkpt>
      <trkpt lat="57.422724980860949" lon="-6.269016992300749">
        <ele>107.31999999999999</ele>
        <time>2023-08-27T15:25:02Z</time>
      </trkpt>
      <trkpt lat="57.42279002442956" lon="-6.268830997869372">
        <ele>106.84</ele>
        <time>2023-08-27T15:25:03Z</time>
      </trkpt>
      <trkpt lat="57.422851966693997" lon="-6.268651038408279">
        <ele>106.36</ele>
        <time>2023-08-27T15:25:04Z</time>
      </trkpt>
      <trkpt lat="57.422918016090989" lon="-6.268478035926819">
        <ele>105.88</ele>
        <time>2023-08-27T15:25:05Z</time>
      </trkpt>
      <trkpt lat="57.423051036894321" lon="-6.268146028742194">
        <ele>104.92</ele>
        <time>2023-08-27T15:25:07Z</time>
      </trkpt>
      <trkpt lat="57.423097975552082" lon="-6.267977971583605">
        <ele>103.95999999999999</ele>
        <time>2023-08-27T15:25:08Z</time>
      </trkpt>
      <trkpt lat="57.42311398498714" lon="-6.267791977152228">
        <ele>103</ele>
        <time>2023-08-27T15:25:09Z</time>
      </trkpt>
      <trkpt lat="57.423132006078959" lon="-6.267598019912839">
        <ele>102.04000000000001</ele>
        <time>2023-08-27T15:25:10Z</time>
      </trkpt>
      <trkpt lat="57.42311499081552" lon="-6.26738696359098">
        <ele>100.59999999999999</ele>
        <time>2023-08-27T15:25:11Z</time>
      </trkpt>
      <trkpt lat="57.42309101857245" lon="-6.267164004966617">
        <ele>99.629999999999995</ele>
        <time>2023-08-27T15:25:12Z</time>
      </trkpt>
      <trkpt lat="57.423066040500998" lon="-6.266929982230067">
        <ele>98.189999999999998</ele>
        <time>2023-08-27T15:25:13Z</time>
      </trkpt>
      <trkpt lat="57.42296302691102" lon="-6.265962040051818">
        <ele>92.900000000000006</ele>
        <time>2023-08-27T15:25:19Z</time>
      </trkpt>
      <trkpt lat="57.422992028295994" lon="-6.26590495929122">
        <ele>91.459999999999994</ele>
        <time>2023-08-27T15:25:20Z</time>
      </trkpt>
      <trkpt lat="57.423020023852587" lon="-6.265848968178034">
        <ele>90.980000000000004</ele>
        <time>2023-08-27T15:25:21Z</time>
      </trkpt>
      <trkpt lat="57.423046007752419" lon="-6.265794988721609">
        <ele>90.019999999999996</ele>
        <time>2023-08-27T15:25:22Z</time>
      </trkpt>
      <trkpt lat="57.423078026622534" lon="-6.265761964023113">
        <ele>89.060000000000002</ele>
        <time>2023-08-27T15:25:23Z</time>
      </trkpt>
      <trkpt lat="57.423120019957423" lon="-6.265837987884879">
        <ele>88.579999999999998</ele>
        <time>2023-08-27T15:25:24Z</time>
      </trkpt>
      <trkpt lat="57.423169976100326" lon="-6.265930021181703">
        <ele>88.099999999999994</ele>
        <time>2023-08-27T15:25:25Z</time>
      </trkpt>
      <trkpt lat="57.423227978870273" lon="-6.266036974266172">
        <ele>88.099999999999994</ele>
        <time>2023-08-27T15:25:26Z</time>
      </trkpt>
      <trkpt lat="57.423742963001132" lon="-6.26697801053524">
        <ele>86.659999999999997</ele>
        <time>2023-08-27T15:25:32Z</time>
      </trkpt>
      <trkpt lat="57.424720963463187" lon="-6.268526986241341">
        <ele>84.730000000000004</ele>
        <time>2023-08-27T15:25:41Z</time>
      </trkpt>
      <trkpt lat="57.42483202368021" lon="-6.268613990396261">
        <ele>83.769999999999996</ele>
        <time>2023-08-27T15:25:42Z</time>
      </trkpt>
      <trkpt lat="57.42494098842144" lon="-6.268699988722801">
        <ele>83.290000000000006</ele>
        <time>2023-08-27T15:25:43Z</time>
      </trkpt>
      <trkpt lat="57.425859980285168" lon="-6.269224025309086">
        <ele>80.409999999999997</ele>
        <time>2023-08-27T15:25:51Z</time>
      </trkpt>
      <trkpt lat="57.426226017996669" lon="-6.269589979201555">
        <ele>78.480000000000004</ele>
        <time>2023-08-27T15:25:55Z</time>
      </trkpt>
      <trkpt lat="57.426308998838067" lon="-6.26972702331841">
        <ele>78</ele>
        <time>2023-08-27T15:25:56Z</time>
      </trkpt>
      <trkpt lat="57.426394997164607" lon="-6.269869012758136">
        <ele>77.519999999999996</ele>
        <time>2023-08-27T15:25:57Z</time>
      </trkpt>
      <trkpt lat="57.426778972148895" lon="-6.270446022972465">
        <ele>75.599999999999994</ele>
        <time>2023-08-27T15:26:01Z</time>
      </trkpt>
      <trkpt lat="57.428013039752841" lon="-6.271943030878902">
        <ele>73.200000000000003</ele>
        <time>2023-08-27T15:26:12Z</time>
      </trkpt>
      <trkpt lat="57.42930100299418" lon="-6.273650005459786">
        <ele>68.870000000000005</ele>
        <time>2023-08-27T15:26:22Z</time>
      </trkpt>
      <trkpt lat="57.430331977084279" lon="-6.274771001189947">
        <ele>63.100000000000001</ele>
        <time>2023-08-27T15:26:30Z</time>
      </trkpt>
      <trkpt lat="57.431417014449835" lon="-6.275503998622298">
        <ele>59.740000000000002</ele>
        <time>2023-08-27T15:26:38Z</time>
      </trkpt>
      <trkpt lat="57.431531008332968" lon="-6.275628972798586">
        <ele>59.740000000000002</ele>
        <time>2023-08-27T15:26:39Z</time>
      </trkpt>
      <trkpt lat="57.431640978902578" lon="-6.275799963623285">
        <ele>59.740000000000002</ele>
        <time>2023-08-27T15:26:40Z</time>
      </trkpt>
      <trkpt lat="57.431753966957331" lon="-6.275974977761507">
        <ele>59.740000000000002</ele>
        <time>2023-08-27T15:26:41Z</time>
      </trkpt>
      <trkpt lat="57.431867960840464" lon="-6.276153009384871">
        <ele>60.219999999999999</ele>
        <time>2023-08-27T15:26:42Z</time>
      </trkpt>
      <trkpt lat="57.43301703594625" lon="-6.278787022456527">
        <ele>65.030000000000001</ele>
        <time>2023-08-27T15:26:54Z</time>
      </trkpt>
      <trkpt lat="57.433690018951893" lon="-6.280348990112543">
        <ele>69.349999999999994</ele>
        <time>2023-08-27T15:27:02Z</time>
      </trkpt>
      <trkpt lat="57.433741986751556" lon="-6.280528027564287">
        <ele>69.349999999999994</ele>
        <time>2023-08-27T15:27:03Z</time>
      </trkpt>
      <trkpt lat="57.433759002014995" lon="-6.28072801977396">
        <ele>69.349999999999994</ele>
        <time>2023-08-27T15:27:04Z</time>
      </trkpt>
      <trkpt lat="57.433776017278433" lon="-6.280937986448407">
        <ele>69.829999999999998</ele>
        <time>2023-08-27T15:27:05Z</time>
      </trkpt>
      <trkpt lat="57.433794960379601" lon="-6.281151976436377">
        <ele>69.829999999999998</ele>
        <time>2023-08-27T15:27:06Z</time>
      </trkpt>
      <trkpt lat="57.433961005881429" lon="-6.283795963972807">
        <ele>70.790000000000006</ele>
        <time>2023-08-27T15:27:17Z</time>
      </trkpt>
      <trkpt lat="57.434030994772911" lon="-6.285495981574059">
        <ele>68.870000000000005</ele>
        <time>2023-08-27T15:27:24Z</time>
      </trkpt>
      <trkpt lat="57.434059996157885" lon="-6.285719024017453">
        <ele>68.390000000000001</ele>
        <time>2023-08-27T15:27:25Z</time>
      </trkpt>
      <trkpt lat="57.434107018634677" lon="-6.285942988470197">
        <ele>67.909999999999997</ele>
        <time>2023-08-27T15:27:26Z</time>
      </trkpt>
      <trkpt lat="57.434533992782235" lon="-6.287750964984298">
        <ele>63.100000000000001</ele>
        <time>2023-08-27T15:27:35Z</time>
      </trkpt>
      <trkpt lat="57.434593001380563" lon="-6.288149021565914">
        <ele>57.82</ele>
        <time>2023-08-27T15:27:43Z</time>
      </trkpt>
      <trkpt lat="57.434718981385231" lon="-6.288318000733852">
        <ele>56.859999999999999</ele>
        <time>2023-08-27T15:27:45Z</time>
      </trkpt>
      <trkpt lat="57.434721998870373" lon="-6.288321018218994">
        <ele>56.369999999999997</ele>
        <time>2023-08-27T15:27:46Z</time>
      </trkpt>
      <trkpt lat="57.434960966929793" lon="-6.289184018969536">
        <ele>51.57</ele>
        <time>2023-08-27T15:28:00Z</time>
      </trkpt>
      <trkpt lat="57.434970019385219" lon="-6.289224000647664">
        <ele>51.090000000000003</ele>
        <time>2023-08-27T15:28:18Z</time>
      </trkpt>
      <trkpt lat="57.434943029657006" lon="-6.2893430236727">
        <ele>50.130000000000003</ele>
        <time>2023-08-27T15:28:31Z</time>
      </trkpt>
    </trkseg>
  </trk>

</gpx>